<?xml version="1.0" encoding="UTF-8" standalone="no" ?>
<gpx xmlns="http://www.topografix.com/GPX/1/1" xmlns:xsi="http://www.w3.org/2001/XMLSchema-instance" xsi:schemaLocation="http://www.topografix.com/GPX/1/1 http://www.topografix.com/GPX/1/1/gpx.xsd" version="1.1" creator="VisuGPX - https://www.visugpx.com">
  <metadata>
    <name>Cadaques J4</name>
    <desc><![CDATA[File with points/tracks from Locus Map/4.25.1]]></desc>
  </metadata>
  <trk>
    <name><![CDATA[2024-09-19 Quillan J4]]></name>
    <extensions>
      <line xmlns="http://www.topografix.com/GPX/gpx_style/0/2">
        <color>0000FF</color>
        <opacity>0.70</opacity>
        <width>6.0</width>
      </line>
    </extensions>
    <trkseg>
      <trkpt lat="43.05669" lon="1.60849">
        <ele>348.16</ele>
        <time>2024-09-19T06:38:05.999Z</time>
      </trkpt>
      <trkpt lat="43.05678" lon="1.60845">
        <ele>348.57</ele>
        <time>2024-09-19T06:40:34.999Z</time>
      </trkpt>
      <trkpt lat="43.05678" lon="1.60832">
        <ele>348.77</ele>
        <time>2024-09-19T06:40:53.999Z</time>
      </trkpt>
      <trkpt lat="43.05673" lon="1.60821">
        <ele>348.87</ele>
        <time>2024-09-19T06:41:02.999Z</time>
      </trkpt>
      <trkpt lat="43.05664" lon="1.60818">
        <ele>349.51</ele>
        <time>2024-09-19T06:42:09.999Z</time>
      </trkpt>
      <trkpt lat="43.05659" lon="1.60831">
        <ele>349.88</ele>
        <time>2024-09-19T06:42:23.999Z</time>
      </trkpt>
      <trkpt lat="43.05656" lon="1.60849">
        <ele>350.06</ele>
        <time>2024-09-19T06:42:28.999Z</time>
      </trkpt>
      <trkpt lat="43.05656" lon="1.60877">
        <ele>351.04</ele>
        <time>2024-09-19T06:42:33.999Z</time>
      </trkpt>
      <trkpt lat="43.0567" lon="1.60905">
        <ele>351.39</ele>
        <time>2024-09-19T06:42:38.999Z</time>
      </trkpt>
      <trkpt lat="43.05691" lon="1.60932">
        <ele>351.24</ele>
        <time>2024-09-19T06:42:43.999Z</time>
      </trkpt>
      <trkpt lat="43.05717" lon="1.60952">
        <ele>351.05</ele>
        <time>2024-09-19T06:42:48.999Z</time>
      </trkpt>
      <trkpt lat="43.05731" lon="1.60962">
        <ele>351.01</ele>
        <time>2024-09-19T06:42:53.999Z</time>
      </trkpt>
      <trkpt lat="43.05746" lon="1.60975">
        <ele>351.01</ele>
        <time>2024-09-19T06:42:58.999Z</time>
      </trkpt>
      <trkpt lat="43.0576" lon="1.60996">
        <ele>350.92</ele>
        <time>2024-09-19T06:43:03.999Z</time>
      </trkpt>
      <trkpt lat="43.05756" lon="1.61017">
        <ele>350.79</ele>
        <time>2024-09-19T06:43:08.999Z</time>
      </trkpt>
      <trkpt lat="43.05746" lon="1.61041">
        <ele>350.58</ele>
        <time>2024-09-19T06:43:13.999Z</time>
      </trkpt>
      <trkpt lat="43.05735" lon="1.61065">
        <ele>350.4</ele>
        <time>2024-09-19T06:43:18.999Z</time>
      </trkpt>
      <trkpt lat="43.05725" lon="1.61091">
        <ele>350.13</ele>
        <time>2024-09-19T06:43:23.999Z</time>
      </trkpt>
      <trkpt lat="43.05714" lon="1.61119">
        <ele>349.82</ele>
        <time>2024-09-19T06:43:28.999Z</time>
      </trkpt>
      <trkpt lat="43.05704" lon="1.61148">
        <ele>349.71</ele>
        <time>2024-09-19T06:43:33.999Z</time>
      </trkpt>
      <trkpt lat="43.05695" lon="1.61178">
        <ele>349.68</ele>
        <time>2024-09-19T06:43:38.999Z</time>
      </trkpt>
      <trkpt lat="43.05686" lon="1.61209">
        <ele>349.62</ele>
        <time>2024-09-19T06:43:43.999Z</time>
      </trkpt>
      <trkpt lat="43.05676" lon="1.61245">
        <ele>349.44</ele>
        <time>2024-09-19T06:43:48.999Z</time>
      </trkpt>
      <trkpt lat="43.05666" lon="1.61283">
        <ele>349.2</ele>
        <time>2024-09-19T06:43:53.999Z</time>
      </trkpt>
      <trkpt lat="43.05656" lon="1.61321">
        <ele>348.94</ele>
        <time>2024-09-19T06:43:58.999Z</time>
      </trkpt>
      <trkpt lat="43.05646" lon="1.61359">
        <ele>348.7</ele>
        <time>2024-09-19T06:44:03.999Z</time>
      </trkpt>
      <trkpt lat="43.05636" lon="1.61395">
        <ele>348.46</ele>
        <time>2024-09-19T06:44:08.999Z</time>
      </trkpt>
      <trkpt lat="43.05626" lon="1.6143">
        <ele>348.2</ele>
        <time>2024-09-19T06:44:13.999Z</time>
      </trkpt>
      <trkpt lat="43.05616" lon="1.61465">
        <ele>347.93</ele>
        <time>2024-09-19T06:44:18.999Z</time>
      </trkpt>
      <trkpt lat="43.05599" lon="1.61495">
        <ele>347.7</ele>
        <time>2024-09-19T06:44:23.999Z</time>
      </trkpt>
      <trkpt lat="43.05577" lon="1.61514">
        <ele>347.51</ele>
        <time>2024-09-19T06:44:28.999Z</time>
      </trkpt>
      <trkpt lat="43.05555" lon="1.61531">
        <ele>347.29</ele>
        <time>2024-09-19T06:44:33.999Z</time>
      </trkpt>
      <trkpt lat="43.05531" lon="1.61545">
        <ele>347.06</ele>
        <time>2024-09-19T06:44:38.999Z</time>
      </trkpt>
      <trkpt lat="43.05506" lon="1.61554">
        <ele>346.85</ele>
        <time>2024-09-19T06:44:43.999Z</time>
      </trkpt>
      <trkpt lat="43.05481" lon="1.61563">
        <ele>346.65</ele>
        <time>2024-09-19T06:44:48.999Z</time>
      </trkpt>
      <trkpt lat="43.05457" lon="1.61571">
        <ele>346.47</ele>
        <time>2024-09-19T06:44:53.999Z</time>
      </trkpt>
      <trkpt lat="43.05434" lon="1.61581">
        <ele>346.29</ele>
        <time>2024-09-19T06:44:59.000Z</time>
      </trkpt>
      <trkpt lat="43.05411" lon="1.61592">
        <ele>346.14</ele>
        <time>2024-09-19T06:45:04.000Z</time>
      </trkpt>
      <trkpt lat="43.05389" lon="1.61604">
        <ele>346.02</ele>
        <time>2024-09-19T06:45:09.000Z</time>
      </trkpt>
      <trkpt lat="43.05368" lon="1.61619">
        <ele>345.9</ele>
        <time>2024-09-19T06:45:14.000Z</time>
      </trkpt>
      <trkpt lat="43.05348" lon="1.61637">
        <ele>345.8</ele>
        <time>2024-09-19T06:45:19.000Z</time>
      </trkpt>
      <trkpt lat="43.05329" lon="1.61656">
        <ele>345.69</ele>
        <time>2024-09-19T06:45:24.000Z</time>
      </trkpt>
      <trkpt lat="43.0531" lon="1.61674">
        <ele>345.59</ele>
        <time>2024-09-19T06:45:29.000Z</time>
      </trkpt>
      <trkpt lat="43.05289" lon="1.61688">
        <ele>345.51</ele>
        <time>2024-09-19T06:45:34.000Z</time>
      </trkpt>
      <trkpt lat="43.05266" lon="1.61695">
        <ele>345.46</ele>
        <time>2024-09-19T06:45:39.000Z</time>
      </trkpt>
      <trkpt lat="43.05243" lon="1.61698">
        <ele>345.41</ele>
        <time>2024-09-19T06:45:44.000Z</time>
      </trkpt>
      <trkpt lat="43.05225" lon="1.61703">
        <ele>345.38</ele>
        <time>2024-09-19T06:45:49.000Z</time>
      </trkpt>
      <trkpt lat="43.0521" lon="1.61713">
        <ele>345.37</ele>
        <time>2024-09-19T06:45:54.000Z</time>
      </trkpt>
      <trkpt lat="43.05204" lon="1.61725">
        <ele>345.35</ele>
        <time>2024-09-19T06:46:04.000Z</time>
      </trkpt>
      <trkpt lat="43.05198" lon="1.61747">
        <ele>345.31</ele>
        <time>2024-09-19T06:46:09.000Z</time>
      </trkpt>
      <trkpt lat="43.05198" lon="1.61777">
        <ele>345.23</ele>
        <time>2024-09-19T06:46:14.000Z</time>
      </trkpt>
      <trkpt lat="43.05202" lon="1.61807">
        <ele>345.18</ele>
        <time>2024-09-19T06:46:19.000Z</time>
      </trkpt>
      <trkpt lat="43.05207" lon="1.61838">
        <ele>345.14</ele>
        <time>2024-09-19T06:46:24.000Z</time>
      </trkpt>
      <trkpt lat="43.05212" lon="1.61869">
        <ele>345.1</ele>
        <time>2024-09-19T06:46:29.000Z</time>
      </trkpt>
      <trkpt lat="43.05217" lon="1.61902">
        <ele>345.08</ele>
        <time>2024-09-19T06:46:34.000Z</time>
      </trkpt>
      <trkpt lat="43.05222" lon="1.61936">
        <ele>345.08</ele>
        <time>2024-09-19T06:46:39.000Z</time>
      </trkpt>
      <trkpt lat="43.05228" lon="1.61972">
        <ele>345.06</ele>
        <time>2024-09-19T06:46:44.000Z</time>
      </trkpt>
      <trkpt lat="43.05233" lon="1.62008">
        <ele>345.02</ele>
        <time>2024-09-19T06:46:49.000Z</time>
      </trkpt>
      <trkpt lat="43.05239" lon="1.62044">
        <ele>344.97</ele>
        <time>2024-09-19T06:46:54.000Z</time>
      </trkpt>
      <trkpt lat="43.05245" lon="1.6208">
        <ele>344.9</ele>
        <time>2024-09-19T06:46:59.000Z</time>
      </trkpt>
      <trkpt lat="43.05251" lon="1.62116">
        <ele>344.81</ele>
        <time>2024-09-19T06:47:04.000Z</time>
      </trkpt>
      <trkpt lat="43.05258" lon="1.62151">
        <ele>344.74</ele>
        <time>2024-09-19T06:47:09.000Z</time>
      </trkpt>
      <trkpt lat="43.05262" lon="1.62186">
        <ele>344.69</ele>
        <time>2024-09-19T06:47:14.000Z</time>
      </trkpt>
      <trkpt lat="43.05251" lon="1.62219">
        <ele>344.64</ele>
        <time>2024-09-19T06:47:19.000Z</time>
      </trkpt>
      <trkpt lat="43.05227" lon="1.62235">
        <ele>344.63</ele>
        <time>2024-09-19T06:47:24.000Z</time>
      </trkpt>
      <trkpt lat="43.05201" lon="1.62248">
        <ele>344.64</ele>
        <time>2024-09-19T06:47:29.000Z</time>
      </trkpt>
      <trkpt lat="43.05176" lon="1.62261">
        <ele>344.64</ele>
        <time>2024-09-19T06:47:34.000Z</time>
      </trkpt>
      <trkpt lat="43.0515" lon="1.62274">
        <ele>344.63</ele>
        <time>2024-09-19T06:47:39.000Z</time>
      </trkpt>
      <trkpt lat="43.05125" lon="1.62288">
        <ele>344.6</ele>
        <time>2024-09-19T06:47:44.000Z</time>
      </trkpt>
      <trkpt lat="43.051" lon="1.62301">
        <ele>344.56</ele>
        <time>2024-09-19T06:47:49.000Z</time>
      </trkpt>
      <trkpt lat="43.05076" lon="1.62314">
        <ele>344.51</ele>
        <time>2024-09-19T06:47:54.000Z</time>
      </trkpt>
      <trkpt lat="43.05052" lon="1.62333">
        <ele>344.46</ele>
        <time>2024-09-19T06:47:59.000Z</time>
      </trkpt>
      <trkpt lat="43.05031" lon="1.62356">
        <ele>344.41</ele>
        <time>2024-09-19T06:48:04.000Z</time>
      </trkpt>
      <trkpt lat="43.05011" lon="1.6238">
        <ele>344.36</ele>
        <time>2024-09-19T06:48:09.000Z</time>
      </trkpt>
      <trkpt lat="43.04991" lon="1.62406">
        <ele>344.32</ele>
        <time>2024-09-19T06:48:14.000Z</time>
      </trkpt>
      <trkpt lat="43.04972" lon="1.6243">
        <ele>344.28</ele>
        <time>2024-09-19T06:48:19.000Z</time>
      </trkpt>
      <trkpt lat="43.04957" lon="1.62452">
        <ele>344.25</ele>
        <time>2024-09-19T06:48:24.000Z</time>
      </trkpt>
      <trkpt lat="43.04942" lon="1.6247">
        <ele>344.2</ele>
        <time>2024-09-19T06:48:29.000Z</time>
      </trkpt>
      <trkpt lat="43.04925" lon="1.62487">
        <ele>344.17</ele>
        <time>2024-09-19T06:48:34.000Z</time>
      </trkpt>
      <trkpt lat="43.04905" lon="1.62504">
        <ele>344.15</ele>
        <time>2024-09-19T06:48:39.000Z</time>
      </trkpt>
      <trkpt lat="43.04886" lon="1.6252">
        <ele>344.14</ele>
        <time>2024-09-19T06:48:44.000Z</time>
      </trkpt>
      <trkpt lat="43.04866" lon="1.62538">
        <ele>344.12</ele>
        <time>2024-09-19T06:48:49.000Z</time>
      </trkpt>
      <trkpt lat="43.04848" lon="1.62553">
        <ele>344.11</ele>
        <time>2024-09-19T06:48:54.000Z</time>
      </trkpt>
      <trkpt lat="43.04828" lon="1.6257">
        <ele>344.11</ele>
        <time>2024-09-19T06:48:59.000Z</time>
      </trkpt>
      <trkpt lat="43.04808" lon="1.62587">
        <ele>344.12</ele>
        <time>2024-09-19T06:49:04.000Z</time>
      </trkpt>
      <trkpt lat="43.04788" lon="1.62605">
        <ele>344.13</ele>
        <time>2024-09-19T06:49:09.000Z</time>
      </trkpt>
      <trkpt lat="43.04767" lon="1.62624">
        <ele>344.16</ele>
        <time>2024-09-19T06:49:14.000Z</time>
      </trkpt>
      <trkpt lat="43.04747" lon="1.62641">
        <ele>344.19</ele>
        <time>2024-09-19T06:49:19.000Z</time>
      </trkpt>
      <trkpt lat="43.04727" lon="1.62659">
        <ele>344.22</ele>
        <time>2024-09-19T06:49:24.000Z</time>
      </trkpt>
      <trkpt lat="43.0471" lon="1.62673">
        <ele>344.25</ele>
        <time>2024-09-19T06:49:29.000Z</time>
      </trkpt>
      <trkpt lat="43.04702" lon="1.6268">
        <ele>344.26</ele>
        <time>2024-09-19T06:49:38.000Z</time>
      </trkpt>
      <trkpt lat="43.04686" lon="1.62696">
        <ele>344.33</ele>
        <time>2024-09-19T06:49:43.000Z</time>
      </trkpt>
      <trkpt lat="43.04665" lon="1.62715">
        <ele>344.39</ele>
        <time>2024-09-19T06:49:48.000Z</time>
      </trkpt>
      <trkpt lat="43.04645" lon="1.62734">
        <ele>344.41</ele>
        <time>2024-09-19T06:49:53.000Z</time>
      </trkpt>
      <trkpt lat="43.04626" lon="1.62749">
        <ele>344.41</ele>
        <time>2024-09-19T06:49:58.000Z</time>
      </trkpt>
      <trkpt lat="43.04606" lon="1.62766">
        <ele>344.41</ele>
        <time>2024-09-19T06:50:03.000Z</time>
      </trkpt>
      <trkpt lat="43.04586" lon="1.62784">
        <ele>344.42</ele>
        <time>2024-09-19T06:50:08.000Z</time>
      </trkpt>
      <trkpt lat="43.04574" lon="1.62796">
        <ele>344.42</ele>
        <time>2024-09-19T06:50:13.000Z</time>
      </trkpt>
      <trkpt lat="43.04567" lon="1.62803">
        <ele>344.42</ele>
        <time>2024-09-19T06:50:30.000Z</time>
      </trkpt>
      <trkpt lat="43.04558" lon="1.62811">
        <ele>344.43</ele>
        <time>2024-09-19T06:51:00.000Z</time>
      </trkpt>
      <trkpt lat="43.04549" lon="1.62817">
        <ele>344.42</ele>
        <time>2024-09-19T06:51:12.000Z</time>
      </trkpt>
      <trkpt lat="43.0454" lon="1.62827">
        <ele>344.42</ele>
        <time>2024-09-19T06:51:17.000Z</time>
      </trkpt>
      <trkpt lat="43.04542" lon="1.62842">
        <ele>344.42</ele>
        <time>2024-09-19T06:51:48.000Z</time>
      </trkpt>
      <trkpt lat="43.04549" lon="1.62858">
        <ele>344.41</ele>
        <time>2024-09-19T06:51:53.000Z</time>
      </trkpt>
      <trkpt lat="43.04556" lon="1.62879">
        <ele>344.41</ele>
        <time>2024-09-19T06:51:58.000Z</time>
      </trkpt>
      <trkpt lat="43.04565" lon="1.62902">
        <ele>344.41</ele>
        <time>2024-09-19T06:52:03.000Z</time>
      </trkpt>
      <trkpt lat="43.0458" lon="1.62914">
        <ele>344.41</ele>
        <time>2024-09-19T06:52:08.000Z</time>
      </trkpt>
      <trkpt lat="43.04595" lon="1.62915">
        <ele>344.42</ele>
        <time>2024-09-19T06:52:13.000Z</time>
      </trkpt>
      <trkpt lat="43.04604" lon="1.62922">
        <ele>344.44</ele>
        <time>2024-09-19T06:52:39.000Z</time>
      </trkpt>
      <trkpt lat="43.04609" lon="1.62945">
        <ele>344.55</ele>
        <time>2024-09-19T06:52:44.000Z</time>
      </trkpt>
      <trkpt lat="43.04616" lon="1.62975">
        <ele>344.69</ele>
        <time>2024-09-19T06:52:49.000Z</time>
      </trkpt>
      <trkpt lat="43.04624" lon="1.63011">
        <ele>344.76</ele>
        <time>2024-09-19T06:52:54.000Z</time>
      </trkpt>
      <trkpt lat="43.04632" lon="1.63043">
        <ele>344.74</ele>
        <time>2024-09-19T06:52:59.000Z</time>
      </trkpt>
      <trkpt lat="43.04639" lon="1.63076">
        <ele>344.67</ele>
        <time>2024-09-19T06:53:04.000Z</time>
      </trkpt>
      <trkpt lat="43.04647" lon="1.63109">
        <ele>344.62</ele>
        <time>2024-09-19T06:53:09.000Z</time>
      </trkpt>
      <trkpt lat="43.04655" lon="1.63144">
        <ele>344.55</ele>
        <time>2024-09-19T06:53:14.000Z</time>
      </trkpt>
      <trkpt lat="43.04663" lon="1.63177">
        <ele>344.42</ele>
        <time>2024-09-19T06:53:19.000Z</time>
      </trkpt>
      <trkpt lat="43.04671" lon="1.63208">
        <ele>344.28</ele>
        <time>2024-09-19T06:53:24.000Z</time>
      </trkpt>
      <trkpt lat="43.04678" lon="1.63237">
        <ele>344.14</ele>
        <time>2024-09-19T06:53:29.000Z</time>
      </trkpt>
      <trkpt lat="43.04683" lon="1.63272">
        <ele>344.03</ele>
        <time>2024-09-19T06:53:34.000Z</time>
      </trkpt>
      <trkpt lat="43.04692" lon="1.63308">
        <ele>343.9</ele>
        <time>2024-09-19T06:53:39.000Z</time>
      </trkpt>
      <trkpt lat="43.04701" lon="1.63344">
        <ele>343.74</ele>
        <time>2024-09-19T06:53:44.000Z</time>
      </trkpt>
      <trkpt lat="43.04711" lon="1.63381">
        <ele>343.59</ele>
        <time>2024-09-19T06:53:49.000Z</time>
      </trkpt>
      <trkpt lat="43.0472" lon="1.63419">
        <ele>343.47</ele>
        <time>2024-09-19T06:53:54.000Z</time>
      </trkpt>
      <trkpt lat="43.04729" lon="1.63454">
        <ele>343.34</ele>
        <time>2024-09-19T06:53:59.000Z</time>
      </trkpt>
      <trkpt lat="43.04737" lon="1.63487">
        <ele>343.25</ele>
        <time>2024-09-19T06:54:04.000Z</time>
      </trkpt>
      <trkpt lat="43.04746" lon="1.63523">
        <ele>343.16</ele>
        <time>2024-09-19T06:54:09.000Z</time>
      </trkpt>
      <trkpt lat="43.04755" lon="1.63559">
        <ele>343.05</ele>
        <time>2024-09-19T06:54:14.000Z</time>
      </trkpt>
      <trkpt lat="43.04764" lon="1.63595">
        <ele>342.97</ele>
        <time>2024-09-19T06:54:19.000Z</time>
      </trkpt>
      <trkpt lat="43.04772" lon="1.63627">
        <ele>342.88</ele>
        <time>2024-09-19T06:54:24.000Z</time>
      </trkpt>
      <trkpt lat="43.04779" lon="1.63655">
        <ele>342.81</ele>
        <time>2024-09-19T06:54:29.000Z</time>
      </trkpt>
      <trkpt lat="43.04786" lon="1.63668">
        <ele>342.79</ele>
        <time>2024-09-19T06:54:34.000Z</time>
      </trkpt>
      <trkpt lat="43.04786" lon="1.63683">
        <ele>342.71</ele>
        <time>2024-09-19T06:54:52.000Z</time>
      </trkpt>
      <trkpt lat="43.04788" lon="1.63709">
        <ele>342.55</ele>
        <time>2024-09-19T06:54:57.000Z</time>
      </trkpt>
      <trkpt lat="43.04797" lon="1.6374">
        <ele>342.4</ele>
        <time>2024-09-19T06:55:02.000Z</time>
      </trkpt>
      <trkpt lat="43.04809" lon="1.63762">
        <ele>342.34</ele>
        <time>2024-09-19T06:55:07.000Z</time>
      </trkpt>
      <trkpt lat="43.04832" lon="1.63763">
        <ele>342.29</ele>
        <time>2024-09-19T06:55:12.000Z</time>
      </trkpt>
      <trkpt lat="43.04858" lon="1.63764">
        <ele>342.25</ele>
        <time>2024-09-19T06:55:17.000Z</time>
      </trkpt>
      <trkpt lat="43.04883" lon="1.63766">
        <ele>342.22</ele>
        <time>2024-09-19T06:55:22.000Z</time>
      </trkpt>
      <trkpt lat="43.0491" lon="1.63771">
        <ele>342.17</ele>
        <time>2024-09-19T06:55:27.000Z</time>
      </trkpt>
      <trkpt lat="43.04938" lon="1.63776">
        <ele>342.09</ele>
        <time>2024-09-19T06:55:32.000Z</time>
      </trkpt>
      <trkpt lat="43.04966" lon="1.6378">
        <ele>342.02</ele>
        <time>2024-09-19T06:55:37.000Z</time>
      </trkpt>
      <trkpt lat="43.04993" lon="1.63786">
        <ele>341.95</ele>
        <time>2024-09-19T06:55:42.000Z</time>
      </trkpt>
      <trkpt lat="43.05014" lon="1.63807">
        <ele>341.89</ele>
        <time>2024-09-19T06:55:47.000Z</time>
      </trkpt>
      <trkpt lat="43.05032" lon="1.63832">
        <ele>341.89</ele>
        <time>2024-09-19T06:55:52.000Z</time>
      </trkpt>
      <trkpt lat="43.05051" lon="1.63854">
        <ele>341.91</ele>
        <time>2024-09-19T06:55:57.000Z</time>
      </trkpt>
      <trkpt lat="43.05068" lon="1.63871">
        <ele>341.91</ele>
        <time>2024-09-19T06:56:02.000Z</time>
      </trkpt>
      <trkpt lat="43.05081" lon="1.639">
        <ele>341.89</ele>
        <time>2024-09-19T06:56:07.000Z</time>
      </trkpt>
      <trkpt lat="43.05086" lon="1.63936">
        <ele>341.88</ele>
        <time>2024-09-19T06:56:12.000Z</time>
      </trkpt>
      <trkpt lat="43.05092" lon="1.6397">
        <ele>341.82</ele>
        <time>2024-09-19T06:56:17.000Z</time>
      </trkpt>
      <trkpt lat="43.05099" lon="1.64003">
        <ele>341.75</ele>
        <time>2024-09-19T06:56:22.000Z</time>
      </trkpt>
      <trkpt lat="43.05107" lon="1.64034">
        <ele>341.68</ele>
        <time>2024-09-19T06:56:27.000Z</time>
      </trkpt>
      <trkpt lat="43.05113" lon="1.6406">
        <ele>341.65</ele>
        <time>2024-09-19T06:56:32.000Z</time>
      </trkpt>
      <trkpt lat="43.05117" lon="1.64073">
        <ele>341.64</ele>
        <time>2024-09-19T06:56:39.000Z</time>
      </trkpt>
      <trkpt lat="43.05125" lon="1.64083">
        <ele>341.64</ele>
        <time>2024-09-19T06:56:44.000Z</time>
      </trkpt>
      <trkpt lat="43.05135" lon="1.64093">
        <ele>341.64</ele>
        <time>2024-09-19T06:56:49.000Z</time>
      </trkpt>
      <trkpt lat="43.05149" lon="1.64111">
        <ele>341.56</ele>
        <time>2024-09-19T06:56:54.000Z</time>
      </trkpt>
      <trkpt lat="43.05165" lon="1.64125">
        <ele>341.5</ele>
        <time>2024-09-19T06:56:59.000Z</time>
      </trkpt>
      <trkpt lat="43.05183" lon="1.64137">
        <ele>341.39</ele>
        <time>2024-09-19T06:57:04.000Z</time>
      </trkpt>
      <trkpt lat="43.05201" lon="1.64148">
        <ele>341.29</ele>
        <time>2024-09-19T06:57:09.000Z</time>
      </trkpt>
      <trkpt lat="43.05218" lon="1.64158">
        <ele>341.25</ele>
        <time>2024-09-19T06:57:14.000Z</time>
      </trkpt>
      <trkpt lat="43.05232" lon="1.64167">
        <ele>341.25</ele>
        <time>2024-09-19T06:57:19.000Z</time>
      </trkpt>
      <trkpt lat="43.05246" lon="1.64176">
        <ele>341.25</ele>
        <time>2024-09-19T06:57:24.000Z</time>
      </trkpt>
      <trkpt lat="43.0526" lon="1.64184">
        <ele>341.24</ele>
        <time>2024-09-19T06:57:29.000Z</time>
      </trkpt>
      <trkpt lat="43.05276" lon="1.64194">
        <ele>341.24</ele>
        <time>2024-09-19T06:57:34.999Z</time>
      </trkpt>
      <trkpt lat="43.05291" lon="1.64203">
        <ele>341.25</ele>
        <time>2024-09-19T06:57:39.999Z</time>
      </trkpt>
      <trkpt lat="43.05304" lon="1.64213">
        <ele>341.26</ele>
        <time>2024-09-19T06:57:44.999Z</time>
      </trkpt>
      <trkpt lat="43.05318" lon="1.64222">
        <ele>341.28</ele>
        <time>2024-09-19T06:57:49.999Z</time>
      </trkpt>
      <trkpt lat="43.05331" lon="1.6423">
        <ele>341.29</ele>
        <time>2024-09-19T06:57:54.999Z</time>
      </trkpt>
      <trkpt lat="43.05347" lon="1.64239">
        <ele>341.32</ele>
        <time>2024-09-19T06:57:59.999Z</time>
      </trkpt>
      <trkpt lat="43.05361" lon="1.64248">
        <ele>341.35</ele>
        <time>2024-09-19T06:58:04.999Z</time>
      </trkpt>
      <trkpt lat="43.05374" lon="1.64259">
        <ele>341.38</ele>
        <time>2024-09-19T06:58:09.999Z</time>
      </trkpt>
      <trkpt lat="43.05387" lon="1.64273">
        <ele>341.42</ele>
        <time>2024-09-19T06:58:14.999Z</time>
      </trkpt>
      <trkpt lat="43.05402" lon="1.64288">
        <ele>341.73</ele>
        <time>2024-09-19T06:58:19.999Z</time>
      </trkpt>
      <trkpt lat="43.0542" lon="1.64304">
        <ele>342</ele>
        <time>2024-09-19T06:58:24.999Z</time>
      </trkpt>
      <trkpt lat="43.05434" lon="1.64322">
        <ele>342.11</ele>
        <time>2024-09-19T06:58:29.999Z</time>
      </trkpt>
      <trkpt lat="43.05449" lon="1.64335">
        <ele>342.15</ele>
        <time>2024-09-19T06:58:34.999Z</time>
      </trkpt>
      <trkpt lat="43.05465" lon="1.64352">
        <ele>342.49</ele>
        <time>2024-09-19T06:58:39.999Z</time>
      </trkpt>
      <trkpt lat="43.05482" lon="1.6437">
        <ele>342.76</ele>
        <time>2024-09-19T06:58:44.999Z</time>
      </trkpt>
      <trkpt lat="43.05497" lon="1.64384">
        <ele>342.84</ele>
        <time>2024-09-19T06:58:49.999Z</time>
      </trkpt>
      <trkpt lat="43.05514" lon="1.64401">
        <ele>343.08</ele>
        <time>2024-09-19T06:58:54.999Z</time>
      </trkpt>
      <trkpt lat="43.05534" lon="1.64419">
        <ele>343.26</ele>
        <time>2024-09-19T06:58:59.999Z</time>
      </trkpt>
      <trkpt lat="43.05555" lon="1.64438">
        <ele>343.42</ele>
        <time>2024-09-19T06:59:04.999Z</time>
      </trkpt>
      <trkpt lat="43.05575" lon="1.64458">
        <ele>343.59</ele>
        <time>2024-09-19T06:59:09.999Z</time>
      </trkpt>
      <trkpt lat="43.05592" lon="1.64483">
        <ele>343.74</ele>
        <time>2024-09-19T06:59:14.999Z</time>
      </trkpt>
      <trkpt lat="43.05609" lon="1.64509">
        <ele>343.86</ele>
        <time>2024-09-19T06:59:19.999Z</time>
      </trkpt>
      <trkpt lat="43.05625" lon="1.64537">
        <ele>343.97</ele>
        <time>2024-09-19T06:59:24.999Z</time>
      </trkpt>
      <trkpt lat="43.05639" lon="1.64567">
        <ele>344.05</ele>
        <time>2024-09-19T06:59:29.999Z</time>
      </trkpt>
      <trkpt lat="43.05655" lon="1.64595">
        <ele>344.1</ele>
        <time>2024-09-19T06:59:34.999Z</time>
      </trkpt>
      <trkpt lat="43.05673" lon="1.64614">
        <ele>344.17</ele>
        <time>2024-09-19T06:59:39.999Z</time>
      </trkpt>
      <trkpt lat="43.05693" lon="1.64631">
        <ele>344.23</ele>
        <time>2024-09-19T06:59:44.999Z</time>
      </trkpt>
      <trkpt lat="43.05716" lon="1.64649">
        <ele>344.26</ele>
        <time>2024-09-19T06:59:49.999Z</time>
      </trkpt>
      <trkpt lat="43.05739" lon="1.64667">
        <ele>344.28</ele>
        <time>2024-09-19T06:59:54.999Z</time>
      </trkpt>
      <trkpt lat="43.0576" lon="1.64686">
        <ele>344.32</ele>
        <time>2024-09-19T06:59:59.999Z</time>
      </trkpt>
      <trkpt lat="43.05781" lon="1.64706">
        <ele>344.36</ele>
        <time>2024-09-19T07:00:04.999Z</time>
      </trkpt>
      <trkpt lat="43.05805" lon="1.64724">
        <ele>344.43</ele>
        <time>2024-09-19T07:00:09.999Z</time>
      </trkpt>
      <trkpt lat="43.05828" lon="1.6474">
        <ele>344.47</ele>
        <time>2024-09-19T07:00:14.999Z</time>
      </trkpt>
      <trkpt lat="43.05849" lon="1.64754">
        <ele>344.48</ele>
        <time>2024-09-19T07:00:19.999Z</time>
      </trkpt>
      <trkpt lat="43.05868" lon="1.6477">
        <ele>344.48</ele>
        <time>2024-09-19T07:00:24.999Z</time>
      </trkpt>
      <trkpt lat="43.05887" lon="1.64785">
        <ele>344.49</ele>
        <time>2024-09-19T07:00:29.999Z</time>
      </trkpt>
      <trkpt lat="43.05906" lon="1.64803">
        <ele>344.48</ele>
        <time>2024-09-19T07:00:34.999Z</time>
      </trkpt>
      <trkpt lat="43.05927" lon="1.64821">
        <ele>344.5</ele>
        <time>2024-09-19T07:00:39.999Z</time>
      </trkpt>
      <trkpt lat="43.05948" lon="1.64839">
        <ele>344.52</ele>
        <time>2024-09-19T07:00:44.999Z</time>
      </trkpt>
      <trkpt lat="43.05971" lon="1.6486">
        <ele>344.51</ele>
        <time>2024-09-19T07:00:49.999Z</time>
      </trkpt>
      <trkpt lat="43.05989" lon="1.64886">
        <ele>344.49</ele>
        <time>2024-09-19T07:00:54.999Z</time>
      </trkpt>
      <trkpt lat="43.06" lon="1.64915">
        <ele>344.47</ele>
        <time>2024-09-19T07:00:59.999Z</time>
      </trkpt>
      <trkpt lat="43.06005" lon="1.64945">
        <ele>344.45</ele>
        <time>2024-09-19T07:01:04.999Z</time>
      </trkpt>
      <trkpt lat="43.06003" lon="1.64974">
        <ele>344.43</ele>
        <time>2024-09-19T07:01:09.999Z</time>
      </trkpt>
      <trkpt lat="43.05998" lon="1.64999">
        <ele>344.42</ele>
        <time>2024-09-19T07:01:14.999Z</time>
      </trkpt>
      <trkpt lat="43.06004" lon="1.64986">
        <ele>344.41</ele>
        <time>2024-09-19T07:01:28.999Z</time>
      </trkpt>
      <trkpt lat="43.06008" lon="1.6496">
        <ele>344.36</ele>
        <time>2024-09-19T07:01:33.999Z</time>
      </trkpt>
      <trkpt lat="43.06007" lon="1.64933">
        <ele>344.33</ele>
        <time>2024-09-19T07:01:38.999Z</time>
      </trkpt>
      <trkpt lat="43.06004" lon="1.64911">
        <ele>344.32</ele>
        <time>2024-09-19T07:01:43.999Z</time>
      </trkpt>
      <trkpt lat="43.06006" lon="1.64898">
        <ele>344.32</ele>
        <time>2024-09-19T07:01:48.999Z</time>
      </trkpt>
      <trkpt lat="43.06016" lon="1.64898">
        <ele>344.31</ele>
        <time>2024-09-19T07:02:09.999Z</time>
      </trkpt>
      <trkpt lat="43.06032" lon="1.64915">
        <ele>344.27</ele>
        <time>2024-09-19T07:02:14.999Z</time>
      </trkpt>
      <trkpt lat="43.06049" lon="1.64936">
        <ele>344.24</ele>
        <time>2024-09-19T07:02:19.999Z</time>
      </trkpt>
      <trkpt lat="43.06068" lon="1.6496">
        <ele>344.19</ele>
        <time>2024-09-19T07:02:24.999Z</time>
      </trkpt>
      <trkpt lat="43.06086" lon="1.64987">
        <ele>344.14</ele>
        <time>2024-09-19T07:02:29.999Z</time>
      </trkpt>
      <trkpt lat="43.06105" lon="1.65015">
        <ele>344.1</ele>
        <time>2024-09-19T07:02:34.999Z</time>
      </trkpt>
      <trkpt lat="43.06124" lon="1.65043">
        <ele>344.05</ele>
        <time>2024-09-19T07:02:39.999Z</time>
      </trkpt>
      <trkpt lat="43.06143" lon="1.6507">
        <ele>344</ele>
        <time>2024-09-19T07:02:44.999Z</time>
      </trkpt>
      <trkpt lat="43.06164" lon="1.65098">
        <ele>343.97</ele>
        <time>2024-09-19T07:02:49.999Z</time>
      </trkpt>
      <trkpt lat="43.06188" lon="1.65127">
        <ele>343.93</ele>
        <time>2024-09-19T07:02:54.999Z</time>
      </trkpt>
      <trkpt lat="43.0621" lon="1.65157">
        <ele>343.75</ele>
        <time>2024-09-19T07:02:59.999Z</time>
      </trkpt>
      <trkpt lat="43.06231" lon="1.65189">
        <ele>343.47</ele>
        <time>2024-09-19T07:03:04.999Z</time>
      </trkpt>
      <trkpt lat="43.06249" lon="1.65217">
        <ele>343.39</ele>
        <time>2024-09-19T07:03:09.999Z</time>
      </trkpt>
      <trkpt lat="43.06262" lon="1.65242">
        <ele>343.14</ele>
        <time>2024-09-19T07:03:14.999Z</time>
      </trkpt>
      <trkpt lat="43.06281" lon="1.65266">
        <ele>343.01</ele>
        <time>2024-09-19T07:03:19.999Z</time>
      </trkpt>
      <trkpt lat="43.06299" lon="1.65292">
        <ele>342.94</ele>
        <time>2024-09-19T07:03:24.999Z</time>
      </trkpt>
      <trkpt lat="43.0632" lon="1.65315">
        <ele>342.96</ele>
        <time>2024-09-19T07:03:29.999Z</time>
      </trkpt>
      <trkpt lat="43.06343" lon="1.65336">
        <ele>342.81</ele>
        <time>2024-09-19T07:03:34.999Z</time>
      </trkpt>
      <trkpt lat="43.06365" lon="1.65355">
        <ele>342.67</ele>
        <time>2024-09-19T07:03:39.999Z</time>
      </trkpt>
      <trkpt lat="43.06383" lon="1.65373">
        <ele>342.53</ele>
        <time>2024-09-19T07:03:44.999Z</time>
      </trkpt>
      <trkpt lat="43.06403" lon="1.65385">
        <ele>342.37</ele>
        <time>2024-09-19T07:03:49.999Z</time>
      </trkpt>
      <trkpt lat="43.06428" lon="1.65391">
        <ele>342.21</ele>
        <time>2024-09-19T07:03:54.999Z</time>
      </trkpt>
      <trkpt lat="43.06454" lon="1.65395">
        <ele>342.05</ele>
        <time>2024-09-19T07:03:59.999Z</time>
      </trkpt>
      <trkpt lat="43.06478" lon="1.654">
        <ele>341.94</ele>
        <time>2024-09-19T07:04:04.999Z</time>
      </trkpt>
      <trkpt lat="43.06501" lon="1.65402">
        <ele>341.84</ele>
        <time>2024-09-19T07:04:09.999Z</time>
      </trkpt>
      <trkpt lat="43.06527" lon="1.65405">
        <ele>341.75</ele>
        <time>2024-09-19T07:04:14.999Z</time>
      </trkpt>
      <trkpt lat="43.06553" lon="1.65409">
        <ele>341.66</ele>
        <time>2024-09-19T07:04:19.999Z</time>
      </trkpt>
      <trkpt lat="43.06579" lon="1.65412">
        <ele>341.56</ele>
        <time>2024-09-19T07:04:24.999Z</time>
      </trkpt>
      <trkpt lat="43.06605" lon="1.65413">
        <ele>341.44</ele>
        <time>2024-09-19T07:04:29.999Z</time>
      </trkpt>
      <trkpt lat="43.06632" lon="1.65414">
        <ele>341.33</ele>
        <time>2024-09-19T07:04:34.999Z</time>
      </trkpt>
      <trkpt lat="43.0666" lon="1.65414">
        <ele>341.25</ele>
        <time>2024-09-19T07:04:39.999Z</time>
      </trkpt>
      <trkpt lat="43.0669" lon="1.65414">
        <ele>341.19</ele>
        <time>2024-09-19T07:04:44.999Z</time>
      </trkpt>
      <trkpt lat="43.06718" lon="1.65414">
        <ele>341.13</ele>
        <time>2024-09-19T07:04:49.999Z</time>
      </trkpt>
      <trkpt lat="43.06747" lon="1.65418">
        <ele>341.05</ele>
        <time>2024-09-19T07:04:54.999Z</time>
      </trkpt>
      <trkpt lat="43.06776" lon="1.65432">
        <ele>340.79</ele>
        <time>2024-09-19T07:04:59.999Z</time>
      </trkpt>
      <trkpt lat="43.06803" lon="1.65451">
        <ele>340.43</ele>
        <time>2024-09-19T07:05:04.999Z</time>
      </trkpt>
      <trkpt lat="43.06826" lon="1.65475">
        <ele>340.13</ele>
        <time>2024-09-19T07:05:09.999Z</time>
      </trkpt>
      <trkpt lat="43.06847" lon="1.65499">
        <ele>339.93</ele>
        <time>2024-09-19T07:05:14.999Z</time>
      </trkpt>
      <trkpt lat="43.06862" lon="1.65529">
        <ele>339.87</ele>
        <time>2024-09-19T07:05:19.999Z</time>
      </trkpt>
      <trkpt lat="43.0687" lon="1.65565">
        <ele>339.88</ele>
        <time>2024-09-19T07:05:24.999Z</time>
      </trkpt>
      <trkpt lat="43.06891" lon="1.65585">
        <ele>339.82</ele>
        <time>2024-09-19T07:05:29.999Z</time>
      </trkpt>
      <trkpt lat="43.06921" lon="1.65585">
        <ele>339.63</ele>
        <time>2024-09-19T07:05:34.999Z</time>
      </trkpt>
      <trkpt lat="43.0695" lon="1.65585">
        <ele>339.4</ele>
        <time>2024-09-19T07:05:39.999Z</time>
      </trkpt>
      <trkpt lat="43.0698" lon="1.65588">
        <ele>339.17</ele>
        <time>2024-09-19T07:05:44.999Z</time>
      </trkpt>
      <trkpt lat="43.0701" lon="1.65591">
        <ele>338.94</ele>
        <time>2024-09-19T07:05:49.999Z</time>
      </trkpt>
      <trkpt lat="43.07039" lon="1.65597">
        <ele>338.71</ele>
        <time>2024-09-19T07:05:54.999Z</time>
      </trkpt>
      <trkpt lat="43.07066" lon="1.65607">
        <ele>338.5</ele>
        <time>2024-09-19T07:05:59.999Z</time>
      </trkpt>
      <trkpt lat="43.07089" lon="1.65618">
        <ele>338.34</ele>
        <time>2024-09-19T07:06:04.999Z</time>
      </trkpt>
      <trkpt lat="43.07112" lon="1.65628">
        <ele>338.15</ele>
        <time>2024-09-19T07:06:09.999Z</time>
      </trkpt>
      <trkpt lat="43.07132" lon="1.65635">
        <ele>337.8</ele>
        <time>2024-09-19T07:06:14.999Z</time>
      </trkpt>
      <trkpt lat="43.07152" lon="1.65646">
        <ele>337.37</ele>
        <time>2024-09-19T07:06:19.999Z</time>
      </trkpt>
      <trkpt lat="43.07173" lon="1.6565">
        <ele>337.02</ele>
        <time>2024-09-19T07:06:24.999Z</time>
      </trkpt>
      <trkpt lat="43.07193" lon="1.65654">
        <ele>336.92</ele>
        <time>2024-09-19T07:06:29.999Z</time>
      </trkpt>
      <trkpt lat="43.07211" lon="1.6566">
        <ele>336.86</ele>
        <time>2024-09-19T07:06:34.999Z</time>
      </trkpt>
      <trkpt lat="43.0723" lon="1.65664">
        <ele>336.81</ele>
        <time>2024-09-19T07:06:39.999Z</time>
      </trkpt>
      <trkpt lat="43.07248" lon="1.65667">
        <ele>336.75</ele>
        <time>2024-09-19T07:06:44.999Z</time>
      </trkpt>
      <trkpt lat="43.0727" lon="1.6567">
        <ele>336.66</ele>
        <time>2024-09-19T07:06:49.999Z</time>
      </trkpt>
      <trkpt lat="43.07292" lon="1.65673">
        <ele>336.61</ele>
        <time>2024-09-19T07:06:54.999Z</time>
      </trkpt>
      <trkpt lat="43.07314" lon="1.65674">
        <ele>336.58</ele>
        <time>2024-09-19T07:06:59.999Z</time>
      </trkpt>
      <trkpt lat="43.07333" lon="1.65677">
        <ele>336.56</ele>
        <time>2024-09-19T07:07:04.999Z</time>
      </trkpt>
      <trkpt lat="43.07352" lon="1.65678">
        <ele>336.54</ele>
        <time>2024-09-19T07:07:09.999Z</time>
      </trkpt>
      <trkpt lat="43.07368" lon="1.65681">
        <ele>336.53</ele>
        <time>2024-09-19T07:07:14.999Z</time>
      </trkpt>
      <trkpt lat="43.07375" lon="1.6569">
        <ele>336.5</ele>
        <time>2024-09-19T07:07:34.999Z</time>
      </trkpt>
      <trkpt lat="43.07385" lon="1.657">
        <ele>336.46</ele>
        <time>2024-09-19T07:07:39.999Z</time>
      </trkpt>
      <trkpt lat="43.07399" lon="1.65719">
        <ele>336.11</ele>
        <time>2024-09-19T07:07:44.999Z</time>
      </trkpt>
      <trkpt lat="43.07414" lon="1.65741">
        <ele>335.42</ele>
        <time>2024-09-19T07:07:49.999Z</time>
      </trkpt>
      <trkpt lat="43.07429" lon="1.65765">
        <ele>335.01</ele>
        <time>2024-09-19T07:07:54.999Z</time>
      </trkpt>
      <trkpt lat="43.07445" lon="1.65789">
        <ele>334.69</ele>
        <time>2024-09-19T07:07:59.999Z</time>
      </trkpt>
      <trkpt lat="43.07462" lon="1.65813">
        <ele>334.46</ele>
        <time>2024-09-19T07:08:04.999Z</time>
      </trkpt>
      <trkpt lat="43.07481" lon="1.65834">
        <ele>334.24</ele>
        <time>2024-09-19T07:08:09.999Z</time>
      </trkpt>
      <trkpt lat="43.07501" lon="1.65854">
        <ele>333.96</ele>
        <time>2024-09-19T07:08:14.999Z</time>
      </trkpt>
      <trkpt lat="43.07522" lon="1.65875">
        <ele>333.71</ele>
        <time>2024-09-19T07:08:19.999Z</time>
      </trkpt>
      <trkpt lat="43.07541" lon="1.65896">
        <ele>333.58</ele>
        <time>2024-09-19T07:08:24.999Z</time>
      </trkpt>
      <trkpt lat="43.0756" lon="1.65913">
        <ele>333.41</ele>
        <time>2024-09-19T07:08:29.999Z</time>
      </trkpt>
      <trkpt lat="43.07581" lon="1.65933">
        <ele>333.17</ele>
        <time>2024-09-19T07:08:34.999Z</time>
      </trkpt>
      <trkpt lat="43.07604" lon="1.65951">
        <ele>333.02</ele>
        <time>2024-09-19T07:08:39.999Z</time>
      </trkpt>
      <trkpt lat="43.07626" lon="1.65969">
        <ele>332.94</ele>
        <time>2024-09-19T07:08:44.999Z</time>
      </trkpt>
      <trkpt lat="43.07645" lon="1.65986">
        <ele>332.88</ele>
        <time>2024-09-19T07:08:49.999Z</time>
      </trkpt>
      <trkpt lat="43.07665" lon="1.66007">
        <ele>332.86</ele>
        <time>2024-09-19T07:08:54.999Z</time>
      </trkpt>
      <trkpt lat="43.07684" lon="1.66031">
        <ele>332.83</ele>
        <time>2024-09-19T07:08:59.999Z</time>
      </trkpt>
      <trkpt lat="43.07704" lon="1.66052">
        <ele>332.89</ele>
        <time>2024-09-19T07:09:04.999Z</time>
      </trkpt>
      <trkpt lat="43.07726" lon="1.66069">
        <ele>332.93</ele>
        <time>2024-09-19T07:09:09.999Z</time>
      </trkpt>
      <trkpt lat="43.07748" lon="1.66085">
        <ele>332.93</ele>
        <time>2024-09-19T07:09:14.999Z</time>
      </trkpt>
      <trkpt lat="43.07767" lon="1.66098">
        <ele>332.93</ele>
        <time>2024-09-19T07:09:19.999Z</time>
      </trkpt>
      <trkpt lat="43.07784" lon="1.66112">
        <ele>332.98</ele>
        <time>2024-09-19T07:09:24.999Z</time>
      </trkpt>
      <trkpt lat="43.07789" lon="1.66132">
        <ele>332.99</ele>
        <time>2024-09-19T07:09:29.999Z</time>
      </trkpt>
      <trkpt lat="43.07783" lon="1.66152">
        <ele>332.97</ele>
        <time>2024-09-19T07:09:34.999Z</time>
      </trkpt>
      <trkpt lat="43.07775" lon="1.66177">
        <ele>332.78</ele>
        <time>2024-09-19T07:09:39.999Z</time>
      </trkpt>
      <trkpt lat="43.07768" lon="1.66203">
        <ele>332.45</ele>
        <time>2024-09-19T07:09:44.999Z</time>
      </trkpt>
      <trkpt lat="43.07763" lon="1.66227">
        <ele>332.27</ele>
        <time>2024-09-19T07:09:49.999Z</time>
      </trkpt>
      <trkpt lat="43.0776" lon="1.66251">
        <ele>332.23</ele>
        <time>2024-09-19T07:09:54.999Z</time>
      </trkpt>
      <trkpt lat="43.07757" lon="1.66274">
        <ele>332.18</ele>
        <time>2024-09-19T07:09:59.999Z</time>
      </trkpt>
      <trkpt lat="43.07762" lon="1.66298">
        <ele>332.13</ele>
        <time>2024-09-19T07:10:04.999Z</time>
      </trkpt>
      <trkpt lat="43.07767" lon="1.66321">
        <ele>332.06</ele>
        <time>2024-09-19T07:10:09.999Z</time>
      </trkpt>
      <trkpt lat="43.0777" lon="1.66343">
        <ele>332</ele>
        <time>2024-09-19T07:10:14.999Z</time>
      </trkpt>
      <trkpt lat="43.0777" lon="1.66365">
        <ele>331.94</ele>
        <time>2024-09-19T07:10:20.000Z</time>
      </trkpt>
      <trkpt lat="43.07773" lon="1.66397">
        <ele>331.56</ele>
        <time>2024-09-19T07:10:25.000Z</time>
      </trkpt>
      <trkpt lat="43.07776" lon="1.66424">
        <ele>331.3</ele>
        <time>2024-09-19T07:10:30.000Z</time>
      </trkpt>
      <trkpt lat="43.07776" lon="1.66453">
        <ele>331.14</ele>
        <time>2024-09-19T07:10:35.000Z</time>
      </trkpt>
      <trkpt lat="43.07772" lon="1.66475">
        <ele>331.11</ele>
        <time>2024-09-19T07:10:40.000Z</time>
      </trkpt>
      <trkpt lat="43.07771" lon="1.66494">
        <ele>331.09</ele>
        <time>2024-09-19T07:10:45.000Z</time>
      </trkpt>
      <trkpt lat="43.0777" lon="1.66507">
        <ele>331.11</ele>
        <time>2024-09-19T07:11:03.000Z</time>
      </trkpt>
      <trkpt lat="43.07771" lon="1.66526">
        <ele>331.13</ele>
        <time>2024-09-19T07:11:08.000Z</time>
      </trkpt>
      <trkpt lat="43.07776" lon="1.6654">
        <ele>331.16</ele>
        <time>2024-09-19T07:11:13.000Z</time>
      </trkpt>
      <trkpt lat="43.07785" lon="1.66559">
        <ele>331.18</ele>
        <time>2024-09-19T07:11:18.000Z</time>
      </trkpt>
      <trkpt lat="43.07798" lon="1.66582">
        <ele>331.54</ele>
        <time>2024-09-19T07:11:23.000Z</time>
      </trkpt>
      <trkpt lat="43.07806" lon="1.66604">
        <ele>331.6</ele>
        <time>2024-09-19T07:11:28.000Z</time>
      </trkpt>
      <trkpt lat="43.07812" lon="1.66631">
        <ele>332.02</ele>
        <time>2024-09-19T07:11:33.000Z</time>
      </trkpt>
      <trkpt lat="43.07817" lon="1.66662">
        <ele>332.37</ele>
        <time>2024-09-19T07:11:38.000Z</time>
      </trkpt>
      <trkpt lat="43.07821" lon="1.66693">
        <ele>332.7</ele>
        <time>2024-09-19T07:11:43.000Z</time>
      </trkpt>
      <trkpt lat="43.0782" lon="1.66724">
        <ele>332.95</ele>
        <time>2024-09-19T07:11:48.000Z</time>
      </trkpt>
      <trkpt lat="43.07817" lon="1.66754">
        <ele>333.18</ele>
        <time>2024-09-19T07:11:53.000Z</time>
      </trkpt>
      <trkpt lat="43.07812" lon="1.66784">
        <ele>333.34</ele>
        <time>2024-09-19T07:11:58.000Z</time>
      </trkpt>
      <trkpt lat="43.07808" lon="1.66815">
        <ele>333.46</ele>
        <time>2024-09-19T07:12:03.000Z</time>
      </trkpt>
      <trkpt lat="43.07803" lon="1.66845">
        <ele>333.68</ele>
        <time>2024-09-19T07:12:08.000Z</time>
      </trkpt>
      <trkpt lat="43.07797" lon="1.66875">
        <ele>333.92</ele>
        <time>2024-09-19T07:12:13.000Z</time>
      </trkpt>
      <trkpt lat="43.07793" lon="1.66901">
        <ele>334.17</ele>
        <time>2024-09-19T07:12:18.000Z</time>
      </trkpt>
      <trkpt lat="43.07789" lon="1.66927">
        <ele>334.34</ele>
        <time>2024-09-19T07:12:23.000Z</time>
      </trkpt>
      <trkpt lat="43.07787" lon="1.66951">
        <ele>334.37</ele>
        <time>2024-09-19T07:12:28.000Z</time>
      </trkpt>
      <trkpt lat="43.07785" lon="1.66973">
        <ele>334.42</ele>
        <time>2024-09-19T07:12:33.000Z</time>
      </trkpt>
      <trkpt lat="43.07783" lon="1.66993">
        <ele>334.47</ele>
        <time>2024-09-19T07:12:38.000Z</time>
      </trkpt>
      <trkpt lat="43.07783" lon="1.67006">
        <ele>334.55</ele>
        <time>2024-09-19T07:12:43.000Z</time>
      </trkpt>
      <trkpt lat="43.07781" lon="1.67018">
        <ele>334.63</ele>
        <time>2024-09-19T07:12:48.000Z</time>
      </trkpt>
      <trkpt lat="43.0778" lon="1.67032">
        <ele>334.74</ele>
        <time>2024-09-19T07:12:54.000Z</time>
      </trkpt>
      <trkpt lat="43.07779" lon="1.67047">
        <ele>334.88</ele>
        <time>2024-09-19T07:13:00.000Z</time>
      </trkpt>
      <trkpt lat="43.07777" lon="1.67061">
        <ele>335.04</ele>
        <time>2024-09-19T07:13:06.000Z</time>
      </trkpt>
      <trkpt lat="43.07776" lon="1.67074">
        <ele>335.19</ele>
        <time>2024-09-19T07:13:11.000Z</time>
      </trkpt>
      <trkpt lat="43.07776" lon="1.67087">
        <ele>335.36</ele>
        <time>2024-09-19T07:13:16.000Z</time>
      </trkpt>
      <trkpt lat="43.07775" lon="1.671">
        <ele>335.55</ele>
        <time>2024-09-19T07:13:21.000Z</time>
      </trkpt>
      <trkpt lat="43.07775" lon="1.67115">
        <ele>335.79</ele>
        <time>2024-09-19T07:13:27.000Z</time>
      </trkpt>
      <trkpt lat="43.07774" lon="1.67128">
        <ele>336.01</ele>
        <time>2024-09-19T07:13:32.000Z</time>
      </trkpt>
      <trkpt lat="43.07774" lon="1.67141">
        <ele>336.24</ele>
        <time>2024-09-19T07:13:37.000Z</time>
      </trkpt>
      <trkpt lat="43.07773" lon="1.67155">
        <ele>336.46</ele>
        <time>2024-09-19T07:13:42.000Z</time>
      </trkpt>
      <trkpt lat="43.07774" lon="1.67168">
        <ele>336.68</ele>
        <time>2024-09-19T07:13:47.000Z</time>
      </trkpt>
      <trkpt lat="43.07774" lon="1.67183">
        <ele>336.95</ele>
        <time>2024-09-19T07:13:53.000Z</time>
      </trkpt>
      <trkpt lat="43.07773" lon="1.67196">
        <ele>337.21</ele>
        <time>2024-09-19T07:13:59.000Z</time>
      </trkpt>
      <trkpt lat="43.07772" lon="1.6721">
        <ele>337.5</ele>
        <time>2024-09-19T07:14:06.000Z</time>
      </trkpt>
      <trkpt lat="43.07769" lon="1.67224">
        <ele>337.73</ele>
        <time>2024-09-19T07:14:12.000Z</time>
      </trkpt>
      <trkpt lat="43.0777" lon="1.67238">
        <ele>337.91</ele>
        <time>2024-09-19T07:14:17.000Z</time>
      </trkpt>
      <trkpt lat="43.07771" lon="1.67252">
        <ele>338.09</ele>
        <time>2024-09-19T07:14:22.000Z</time>
      </trkpt>
      <trkpt lat="43.07772" lon="1.67264">
        <ele>338.26</ele>
        <time>2024-09-19T07:14:27.000Z</time>
      </trkpt>
      <trkpt lat="43.07774" lon="1.67279">
        <ele>338.45</ele>
        <time>2024-09-19T07:14:33.000Z</time>
      </trkpt>
      <trkpt lat="43.07774" lon="1.67292">
        <ele>338.6</ele>
        <time>2024-09-19T07:14:38.000Z</time>
      </trkpt>
      <trkpt lat="43.07776" lon="1.67305">
        <ele>338.89</ele>
        <time>2024-09-19T07:14:51.000Z</time>
      </trkpt>
      <trkpt lat="43.07766" lon="1.67303">
        <ele>339.24</ele>
        <time>2024-09-19T07:15:19.000Z</time>
      </trkpt>
      <trkpt lat="43.07776" lon="1.67304">
        <ele>340.48</ele>
        <time>2024-09-19T07:16:53.000Z</time>
      </trkpt>
      <trkpt lat="43.07778" lon="1.67322">
        <ele>340.75</ele>
        <time>2024-09-19T07:16:58.000Z</time>
      </trkpt>
      <trkpt lat="43.07781" lon="1.67348">
        <ele>341.72</ele>
        <time>2024-09-19T07:17:03.000Z</time>
      </trkpt>
      <trkpt lat="43.07784" lon="1.67375">
        <ele>343.12</ele>
        <time>2024-09-19T07:17:08.000Z</time>
      </trkpt>
      <trkpt lat="43.07785" lon="1.67403">
        <ele>343.88</ele>
        <time>2024-09-19T07:17:13.000Z</time>
      </trkpt>
      <trkpt lat="43.07785" lon="1.67432">
        <ele>344.36</ele>
        <time>2024-09-19T07:17:18.000Z</time>
      </trkpt>
      <trkpt lat="43.07785" lon="1.67464">
        <ele>344.71</ele>
        <time>2024-09-19T07:17:23.000Z</time>
      </trkpt>
      <trkpt lat="43.07784" lon="1.67493">
        <ele>345.01</ele>
        <time>2024-09-19T07:17:28.000Z</time>
      </trkpt>
      <trkpt lat="43.07783" lon="1.67521">
        <ele>345.27</ele>
        <time>2024-09-19T07:17:33.000Z</time>
      </trkpt>
      <trkpt lat="43.07782" lon="1.67548">
        <ele>345.49</ele>
        <time>2024-09-19T07:17:38.000Z</time>
      </trkpt>
      <trkpt lat="43.07779" lon="1.67576">
        <ele>345.79</ele>
        <time>2024-09-19T07:17:43.000Z</time>
      </trkpt>
      <trkpt lat="43.07776" lon="1.67606">
        <ele>346.17</ele>
        <time>2024-09-19T07:17:48.000Z</time>
      </trkpt>
      <trkpt lat="43.07771" lon="1.67638">
        <ele>346.57</ele>
        <time>2024-09-19T07:17:53.000Z</time>
      </trkpt>
      <trkpt lat="43.07766" lon="1.6767">
        <ele>346.94</ele>
        <time>2024-09-19T07:17:58.000Z</time>
      </trkpt>
      <trkpt lat="43.0776" lon="1.67704">
        <ele>347.32</ele>
        <time>2024-09-19T07:18:03.000Z</time>
      </trkpt>
      <trkpt lat="43.07755" lon="1.67738">
        <ele>347.65</ele>
        <time>2024-09-19T07:18:08.000Z</time>
      </trkpt>
      <trkpt lat="43.0775" lon="1.6777">
        <ele>348.1</ele>
        <time>2024-09-19T07:18:13.000Z</time>
      </trkpt>
      <trkpt lat="43.07745" lon="1.67804">
        <ele>348.47</ele>
        <time>2024-09-19T07:18:18.000Z</time>
      </trkpt>
      <trkpt lat="43.07741" lon="1.67838">
        <ele>348.77</ele>
        <time>2024-09-19T07:18:23.000Z</time>
      </trkpt>
      <trkpt lat="43.07737" lon="1.67873">
        <ele>349.03</ele>
        <time>2024-09-19T07:18:28.000Z</time>
      </trkpt>
      <trkpt lat="43.07736" lon="1.67911">
        <ele>349.24</ele>
        <time>2024-09-19T07:18:33.000Z</time>
      </trkpt>
      <trkpt lat="43.07741" lon="1.67948">
        <ele>349.41</ele>
        <time>2024-09-19T07:18:38.000Z</time>
      </trkpt>
      <trkpt lat="43.07747" lon="1.67987">
        <ele>349.55</ele>
        <time>2024-09-19T07:18:43.000Z</time>
      </trkpt>
      <trkpt lat="43.07755" lon="1.68026">
        <ele>349.76</ele>
        <time>2024-09-19T07:18:48.000Z</time>
      </trkpt>
      <trkpt lat="43.07763" lon="1.68064">
        <ele>350.06</ele>
        <time>2024-09-19T07:18:53.000Z</time>
      </trkpt>
      <trkpt lat="43.07775" lon="1.68101">
        <ele>350.32</ele>
        <time>2024-09-19T07:18:58.000Z</time>
      </trkpt>
      <trkpt lat="43.0779" lon="1.68133">
        <ele>350.89</ele>
        <time>2024-09-19T07:19:03.000Z</time>
      </trkpt>
      <trkpt lat="43.07796" lon="1.6816">
        <ele>351.68</ele>
        <time>2024-09-19T07:19:08.000Z</time>
      </trkpt>
      <trkpt lat="43.07801" lon="1.68186">
        <ele>352.61</ele>
        <time>2024-09-19T07:19:13.000Z</time>
      </trkpt>
      <trkpt lat="43.07805" lon="1.68214">
        <ele>353.51</ele>
        <time>2024-09-19T07:19:18.000Z</time>
      </trkpt>
      <trkpt lat="43.0781" lon="1.68242">
        <ele>354.33</ele>
        <time>2024-09-19T07:19:23.000Z</time>
      </trkpt>
      <trkpt lat="43.07816" lon="1.68272">
        <ele>355.16</ele>
        <time>2024-09-19T07:19:28.000Z</time>
      </trkpt>
      <trkpt lat="43.07821" lon="1.68304">
        <ele>355.77</ele>
        <time>2024-09-19T07:19:33.000Z</time>
      </trkpt>
      <trkpt lat="43.07826" lon="1.68338">
        <ele>356.05</ele>
        <time>2024-09-19T07:19:38.000Z</time>
      </trkpt>
      <trkpt lat="43.07835" lon="1.68372">
        <ele>356.25</ele>
        <time>2024-09-19T07:19:43.000Z</time>
      </trkpt>
      <trkpt lat="43.07842" lon="1.68406">
        <ele>356.64</ele>
        <time>2024-09-19T07:19:48.000Z</time>
      </trkpt>
      <trkpt lat="43.07849" lon="1.68442">
        <ele>356.95</ele>
        <time>2024-09-19T07:19:53.000Z</time>
      </trkpt>
      <trkpt lat="43.07855" lon="1.68472">
        <ele>357.31</ele>
        <time>2024-09-19T07:19:58.000Z</time>
      </trkpt>
      <trkpt lat="43.07858" lon="1.68489">
        <ele>357.4</ele>
        <time>2024-09-19T07:20:03.000Z</time>
      </trkpt>
      <trkpt lat="43.07858" lon="1.68472">
        <ele>357.57</ele>
        <time>2024-09-19T07:20:11.000Z</time>
      </trkpt>
      <trkpt lat="43.07853" lon="1.68448">
        <ele>357.89</ele>
        <time>2024-09-19T07:20:16.000Z</time>
      </trkpt>
      <trkpt lat="43.07854" lon="1.68432">
        <ele>358.03</ele>
        <time>2024-09-19T07:20:21.000Z</time>
      </trkpt>
      <trkpt lat="43.07867" lon="1.68432">
        <ele>358.19</ele>
        <time>2024-09-19T07:20:26.000Z</time>
      </trkpt>
      <trkpt lat="43.07879" lon="1.68432">
        <ele>358.33</ele>
        <time>2024-09-19T07:20:31.000Z</time>
      </trkpt>
      <trkpt lat="43.07893" lon="1.68431">
        <ele>358.45</ele>
        <time>2024-09-19T07:20:36.000Z</time>
      </trkpt>
      <trkpt lat="43.0791" lon="1.6843">
        <ele>358.55</ele>
        <time>2024-09-19T07:20:41.000Z</time>
      </trkpt>
      <trkpt lat="43.07929" lon="1.6843">
        <ele>359.11</ele>
        <time>2024-09-19T07:20:46.000Z</time>
      </trkpt>
      <trkpt lat="43.07951" lon="1.6843">
        <ele>359.29</ele>
        <time>2024-09-19T07:20:51.000Z</time>
      </trkpt>
      <trkpt lat="43.07976" lon="1.68429">
        <ele>359.24</ele>
        <time>2024-09-19T07:20:56.000Z</time>
      </trkpt>
      <trkpt lat="43.08001" lon="1.68429">
        <ele>359.15</ele>
        <time>2024-09-19T07:21:01.000Z</time>
      </trkpt>
      <trkpt lat="43.08027" lon="1.68429">
        <ele>359.09</ele>
        <time>2024-09-19T07:21:06.000Z</time>
      </trkpt>
      <trkpt lat="43.08057" lon="1.68428">
        <ele>359</ele>
        <time>2024-09-19T07:21:11.000Z</time>
      </trkpt>
      <trkpt lat="43.08086" lon="1.68427">
        <ele>358.91</ele>
        <time>2024-09-19T07:21:16.000Z</time>
      </trkpt>
      <trkpt lat="43.08115" lon="1.68426">
        <ele>358.83</ele>
        <time>2024-09-19T07:21:21.000Z</time>
      </trkpt>
      <trkpt lat="43.08145" lon="1.68426">
        <ele>358.73</ele>
        <time>2024-09-19T07:21:26.000Z</time>
      </trkpt>
      <trkpt lat="43.0817" lon="1.68426">
        <ele>358.65</ele>
        <time>2024-09-19T07:21:31.000Z</time>
      </trkpt>
      <trkpt lat="43.08193" lon="1.68425">
        <ele>358.58</ele>
        <time>2024-09-19T07:21:36.000Z</time>
      </trkpt>
      <trkpt lat="43.08213" lon="1.68424">
        <ele>358.55</ele>
        <time>2024-09-19T07:21:41.000Z</time>
      </trkpt>
      <trkpt lat="43.0823" lon="1.68424">
        <ele>358.55</ele>
        <time>2024-09-19T07:21:46.000Z</time>
      </trkpt>
      <trkpt lat="43.08247" lon="1.68424">
        <ele>358.54</ele>
        <time>2024-09-19T07:21:51.000Z</time>
      </trkpt>
      <trkpt lat="43.08267" lon="1.68423">
        <ele>358.47</ele>
        <time>2024-09-19T07:21:56.000Z</time>
      </trkpt>
      <trkpt lat="43.08289" lon="1.68423">
        <ele>358.4</ele>
        <time>2024-09-19T07:22:01.000Z</time>
      </trkpt>
      <trkpt lat="43.0831" lon="1.68423">
        <ele>358.35</ele>
        <time>2024-09-19T07:22:06.000Z</time>
      </trkpt>
      <trkpt lat="43.08332" lon="1.68422">
        <ele>358.3</ele>
        <time>2024-09-19T07:22:11.000Z</time>
      </trkpt>
      <trkpt lat="43.08354" lon="1.68422">
        <ele>358.28</ele>
        <time>2024-09-19T07:22:16.000Z</time>
      </trkpt>
      <trkpt lat="43.08376" lon="1.6842">
        <ele>358.26</ele>
        <time>2024-09-19T07:22:21.000Z</time>
      </trkpt>
      <trkpt lat="43.08399" lon="1.6842">
        <ele>358.22</ele>
        <time>2024-09-19T07:22:26.000Z</time>
      </trkpt>
      <trkpt lat="43.08424" lon="1.68419">
        <ele>358.17</ele>
        <time>2024-09-19T07:22:31.000Z</time>
      </trkpt>
      <trkpt lat="43.08448" lon="1.68418">
        <ele>358.11</ele>
        <time>2024-09-19T07:22:36.000Z</time>
      </trkpt>
      <trkpt lat="43.08466" lon="1.6842">
        <ele>358.09</ele>
        <time>2024-09-19T07:22:41.000Z</time>
      </trkpt>
      <trkpt lat="43.08483" lon="1.68423">
        <ele>357.98</ele>
        <time>2024-09-19T07:22:46.000Z</time>
      </trkpt>
      <trkpt lat="43.08508" lon="1.68427">
        <ele>357.81</ele>
        <time>2024-09-19T07:22:51.999Z</time>
      </trkpt>
      <trkpt lat="43.08528" lon="1.6843">
        <ele>357.67</ele>
        <time>2024-09-19T07:22:56.999Z</time>
      </trkpt>
      <trkpt lat="43.08545" lon="1.68432">
        <ele>357.65</ele>
        <time>2024-09-19T07:23:01.999Z</time>
      </trkpt>
      <trkpt lat="43.08554" lon="1.68438">
        <ele>357.62</ele>
        <time>2024-09-19T07:23:06.999Z</time>
      </trkpt>
      <trkpt lat="43.08558" lon="1.68449">
        <ele>357.58</ele>
        <time>2024-09-19T07:23:16.999Z</time>
      </trkpt>
      <trkpt lat="43.08561" lon="1.6847">
        <ele>357.54</ele>
        <time>2024-09-19T07:23:21.999Z</time>
      </trkpt>
      <trkpt lat="43.08565" lon="1.68497">
        <ele>357.25</ele>
        <time>2024-09-19T07:23:26.999Z</time>
      </trkpt>
      <trkpt lat="43.08568" lon="1.68527">
        <ele>357.06</ele>
        <time>2024-09-19T07:23:31.999Z</time>
      </trkpt>
      <trkpt lat="43.08573" lon="1.6856">
        <ele>356.94</ele>
        <time>2024-09-19T07:23:36.999Z</time>
      </trkpt>
      <trkpt lat="43.08576" lon="1.68595">
        <ele>356.87</ele>
        <time>2024-09-19T07:23:41.999Z</time>
      </trkpt>
      <trkpt lat="43.08581" lon="1.68631">
        <ele>356.85</ele>
        <time>2024-09-19T07:23:46.999Z</time>
      </trkpt>
      <trkpt lat="43.08586" lon="1.68667">
        <ele>356.83</ele>
        <time>2024-09-19T07:23:51.999Z</time>
      </trkpt>
      <trkpt lat="43.0859" lon="1.68704">
        <ele>356.76</ele>
        <time>2024-09-19T07:23:56.999Z</time>
      </trkpt>
      <trkpt lat="43.08594" lon="1.6874">
        <ele>356.67</ele>
        <time>2024-09-19T07:24:01.999Z</time>
      </trkpt>
      <trkpt lat="43.08599" lon="1.68776">
        <ele>356.58</ele>
        <time>2024-09-19T07:24:06.999Z</time>
      </trkpt>
      <trkpt lat="43.08603" lon="1.68811">
        <ele>356.48</ele>
        <time>2024-09-19T07:24:11.999Z</time>
      </trkpt>
      <trkpt lat="43.08607" lon="1.68846">
        <ele>356.42</ele>
        <time>2024-09-19T07:24:16.999Z</time>
      </trkpt>
      <trkpt lat="43.08611" lon="1.6888">
        <ele>356.37</ele>
        <time>2024-09-19T07:24:21.999Z</time>
      </trkpt>
      <trkpt lat="43.08615" lon="1.68914">
        <ele>356.35</ele>
        <time>2024-09-19T07:24:26.999Z</time>
      </trkpt>
      <trkpt lat="43.0862" lon="1.68947">
        <ele>356.35</ele>
        <time>2024-09-19T07:24:31.999Z</time>
      </trkpt>
      <trkpt lat="43.08624" lon="1.6898">
        <ele>356.35</ele>
        <time>2024-09-19T07:24:36.999Z</time>
      </trkpt>
      <trkpt lat="43.08627" lon="1.69013">
        <ele>356.3</ele>
        <time>2024-09-19T07:24:41.999Z</time>
      </trkpt>
      <trkpt lat="43.08631" lon="1.69045">
        <ele>356.25</ele>
        <time>2024-09-19T07:24:46.999Z</time>
      </trkpt>
      <trkpt lat="43.08635" lon="1.69076">
        <ele>356.21</ele>
        <time>2024-09-19T07:24:51.999Z</time>
      </trkpt>
      <trkpt lat="43.08638" lon="1.69107">
        <ele>356.21</ele>
        <time>2024-09-19T07:24:56.999Z</time>
      </trkpt>
      <trkpt lat="43.08642" lon="1.69137">
        <ele>356.23</ele>
        <time>2024-09-19T07:25:01.999Z</time>
      </trkpt>
      <trkpt lat="43.08645" lon="1.69164">
        <ele>356.23</ele>
        <time>2024-09-19T07:25:06.999Z</time>
      </trkpt>
      <trkpt lat="43.08649" lon="1.69191">
        <ele>356.19</ele>
        <time>2024-09-19T07:25:11.999Z</time>
      </trkpt>
      <trkpt lat="43.08653" lon="1.69222">
        <ele>356.14</ele>
        <time>2024-09-19T07:25:16.999Z</time>
      </trkpt>
      <trkpt lat="43.08656" lon="1.69252">
        <ele>356.1</ele>
        <time>2024-09-19T07:25:21.999Z</time>
      </trkpt>
      <trkpt lat="43.08659" lon="1.69282">
        <ele>356.05</ele>
        <time>2024-09-19T07:25:26.999Z</time>
      </trkpt>
      <trkpt lat="43.08662" lon="1.69311">
        <ele>355.99</ele>
        <time>2024-09-19T07:25:31.999Z</time>
      </trkpt>
      <trkpt lat="43.08666" lon="1.6934">
        <ele>355.93</ele>
        <time>2024-09-19T07:25:36.999Z</time>
      </trkpt>
      <trkpt lat="43.08669" lon="1.69371">
        <ele>355.88</ele>
        <time>2024-09-19T07:25:41.999Z</time>
      </trkpt>
      <trkpt lat="43.08672" lon="1.69403">
        <ele>355.83</ele>
        <time>2024-09-19T07:25:46.999Z</time>
      </trkpt>
      <trkpt lat="43.08675" lon="1.69435">
        <ele>355.78</ele>
        <time>2024-09-19T07:25:51.999Z</time>
      </trkpt>
      <trkpt lat="43.08679" lon="1.69468">
        <ele>355.72</ele>
        <time>2024-09-19T07:25:56.999Z</time>
      </trkpt>
      <trkpt lat="43.08682" lon="1.69503">
        <ele>355.66</ele>
        <time>2024-09-19T07:26:01.999Z</time>
      </trkpt>
      <trkpt lat="43.08685" lon="1.69538">
        <ele>355.59</ele>
        <time>2024-09-19T07:26:06.999Z</time>
      </trkpt>
      <trkpt lat="43.08689" lon="1.69572">
        <ele>355.54</ele>
        <time>2024-09-19T07:26:11.999Z</time>
      </trkpt>
      <trkpt lat="43.08692" lon="1.69606">
        <ele>355.48</ele>
        <time>2024-09-19T07:26:16.999Z</time>
      </trkpt>
      <trkpt lat="43.08695" lon="1.6964">
        <ele>355.43</ele>
        <time>2024-09-19T07:26:21.999Z</time>
      </trkpt>
      <trkpt lat="43.08698" lon="1.69675">
        <ele>355.38</ele>
        <time>2024-09-19T07:26:26.999Z</time>
      </trkpt>
      <trkpt lat="43.08701" lon="1.6971">
        <ele>355.3</ele>
        <time>2024-09-19T07:26:31.999Z</time>
      </trkpt>
      <trkpt lat="43.08704" lon="1.69747">
        <ele>355.21</ele>
        <time>2024-09-19T07:26:36.999Z</time>
      </trkpt>
      <trkpt lat="43.08708" lon="1.69785">
        <ele>355.12</ele>
        <time>2024-09-19T07:26:41.999Z</time>
      </trkpt>
      <trkpt lat="43.08712" lon="1.69826">
        <ele>355.05</ele>
        <time>2024-09-19T07:26:46.999Z</time>
      </trkpt>
      <trkpt lat="43.08717" lon="1.69868">
        <ele>355</ele>
        <time>2024-09-19T07:26:51.999Z</time>
      </trkpt>
      <trkpt lat="43.08723" lon="1.69912">
        <ele>354.91</ele>
        <time>2024-09-19T07:26:56.999Z</time>
      </trkpt>
      <trkpt lat="43.08727" lon="1.69952">
        <ele>354.76</ele>
        <time>2024-09-19T07:27:01.999Z</time>
      </trkpt>
      <trkpt lat="43.08731" lon="1.69991">
        <ele>354.63</ele>
        <time>2024-09-19T07:27:06.999Z</time>
      </trkpt>
      <trkpt lat="43.08735" lon="1.70025">
        <ele>354.59</ele>
        <time>2024-09-19T07:27:11.999Z</time>
      </trkpt>
      <trkpt lat="43.08714" lon="1.70043">
        <ele>353.97</ele>
        <time>2024-09-19T07:27:16.999Z</time>
      </trkpt>
      <trkpt lat="43.08685" lon="1.70048">
        <ele>353.43</ele>
        <time>2024-09-19T07:27:21.999Z</time>
      </trkpt>
      <trkpt lat="43.08667" lon="1.70055">
        <ele>353.38</ele>
        <time>2024-09-19T07:27:26.999Z</time>
      </trkpt>
      <trkpt lat="43.08667" lon="1.70069">
        <ele>353.54</ele>
        <time>2024-09-19T07:28:35.999Z</time>
      </trkpt>
      <trkpt lat="43.08665" lon="1.70095">
        <ele>353.63</ele>
        <time>2024-09-19T07:28:40.999Z</time>
      </trkpt>
      <trkpt lat="43.08664" lon="1.70118">
        <ele>353.65</ele>
        <time>2024-09-19T07:28:45.999Z</time>
      </trkpt>
      <trkpt lat="43.08663" lon="1.70139">
        <ele>353.67</ele>
        <time>2024-09-19T07:28:50.999Z</time>
      </trkpt>
      <trkpt lat="43.08663" lon="1.70162">
        <ele>353.69</ele>
        <time>2024-09-19T07:28:55.999Z</time>
      </trkpt>
      <trkpt lat="43.08662" lon="1.70185">
        <ele>353.7</ele>
        <time>2024-09-19T07:29:00.999Z</time>
      </trkpt>
      <trkpt lat="43.0866" lon="1.70209">
        <ele>353.7</ele>
        <time>2024-09-19T07:29:05.999Z</time>
      </trkpt>
      <trkpt lat="43.08657" lon="1.70233">
        <ele>353.69</ele>
        <time>2024-09-19T07:29:10.999Z</time>
      </trkpt>
      <trkpt lat="43.08655" lon="1.70259">
        <ele>353.57</ele>
        <time>2024-09-19T07:29:15.999Z</time>
      </trkpt>
      <trkpt lat="43.08652" lon="1.7029">
        <ele>353.41</ele>
        <time>2024-09-19T07:29:20.999Z</time>
      </trkpt>
      <trkpt lat="43.08649" lon="1.70322">
        <ele>353.3</ele>
        <time>2024-09-19T07:29:25.999Z</time>
      </trkpt>
      <trkpt lat="43.08646" lon="1.70353">
        <ele>353.2</ele>
        <time>2024-09-19T07:29:30.999Z</time>
      </trkpt>
      <trkpt lat="43.08644" lon="1.70384">
        <ele>353.09</ele>
        <time>2024-09-19T07:29:35.999Z</time>
      </trkpt>
      <trkpt lat="43.08641" lon="1.70414">
        <ele>353.02</ele>
        <time>2024-09-19T07:29:40.999Z</time>
      </trkpt>
      <trkpt lat="43.08638" lon="1.70441">
        <ele>352.88</ele>
        <time>2024-09-19T07:29:45.999Z</time>
      </trkpt>
      <trkpt lat="43.08636" lon="1.70466">
        <ele>352.76</ele>
        <time>2024-09-19T07:29:50.999Z</time>
      </trkpt>
      <trkpt lat="43.08633" lon="1.70483">
        <ele>352.73</ele>
        <time>2024-09-19T07:29:55.999Z</time>
      </trkpt>
      <trkpt lat="43.08633" lon="1.70497">
        <ele>352.69</ele>
        <time>2024-09-19T07:30:01.999Z</time>
      </trkpt>
      <trkpt lat="43.08631" lon="1.70523">
        <ele>352.41</ele>
        <time>2024-09-19T07:30:06.999Z</time>
      </trkpt>
      <trkpt lat="43.08628" lon="1.70555">
        <ele>352.02</ele>
        <time>2024-09-19T07:30:11.999Z</time>
      </trkpt>
      <trkpt lat="43.08623" lon="1.70588">
        <ele>351.71</ele>
        <time>2024-09-19T07:30:16.999Z</time>
      </trkpt>
      <trkpt lat="43.08616" lon="1.70621">
        <ele>351.42</ele>
        <time>2024-09-19T07:30:21.999Z</time>
      </trkpt>
      <trkpt lat="43.0861" lon="1.70658">
        <ele>351.15</ele>
        <time>2024-09-19T07:30:26.999Z</time>
      </trkpt>
      <trkpt lat="43.08608" lon="1.70688">
        <ele>351.07</ele>
        <time>2024-09-19T07:30:31.999Z</time>
      </trkpt>
      <trkpt lat="43.08616" lon="1.707">
        <ele>350.92</ele>
        <time>2024-09-19T07:30:45.999Z</time>
      </trkpt>
      <trkpt lat="43.08648" lon="1.70732">
        <ele>350.39</ele>
        <time>2024-09-19T07:30:50.999Z</time>
      </trkpt>
      <trkpt lat="43.08682" lon="1.70782">
        <ele>349.98</ele>
        <time>2024-09-19T07:30:55.999Z</time>
      </trkpt>
      <trkpt lat="43.08704" lon="1.70841">
        <ele>349.7</ele>
        <time>2024-09-19T07:31:00.999Z</time>
      </trkpt>
      <trkpt lat="43.08717" lon="1.70889">
        <ele>349.38</ele>
        <time>2024-09-19T07:31:05.999Z</time>
      </trkpt>
      <trkpt lat="43.08726" lon="1.70925">
        <ele>349.44</ele>
        <time>2024-09-19T07:31:10.999Z</time>
      </trkpt>
      <trkpt lat="43.08734" lon="1.70947">
        <ele>349.38</ele>
        <time>2024-09-19T07:31:15.999Z</time>
      </trkpt>
      <trkpt lat="43.08743" lon="1.70973">
        <ele>348.25</ele>
        <time>2024-09-19T07:31:20.999Z</time>
      </trkpt>
      <trkpt lat="43.0875" lon="1.71003">
        <ele>347.07</ele>
        <time>2024-09-19T07:31:25.999Z</time>
      </trkpt>
      <trkpt lat="43.08753" lon="1.71039">
        <ele>346.09</ele>
        <time>2024-09-19T07:31:30.999Z</time>
      </trkpt>
      <trkpt lat="43.08761" lon="1.71079">
        <ele>345.53</ele>
        <time>2024-09-19T07:31:35.999Z</time>
      </trkpt>
      <trkpt lat="43.08772" lon="1.71137">
        <ele>344.56</ele>
        <time>2024-09-19T07:31:40.999Z</time>
      </trkpt>
      <trkpt lat="43.08789" lon="1.71199">
        <ele>343.76</ele>
        <time>2024-09-19T07:31:45.999Z</time>
      </trkpt>
      <trkpt lat="43.08808" lon="1.71259">
        <ele>342.92</ele>
        <time>2024-09-19T07:31:50.999Z</time>
      </trkpt>
      <trkpt lat="43.08793" lon="1.71295">
        <ele>341.45</ele>
        <time>2024-09-19T07:31:55.999Z</time>
      </trkpt>
      <trkpt lat="43.08789" lon="1.71333">
        <ele>338.79</ele>
        <time>2024-09-19T07:32:00.999Z</time>
      </trkpt>
      <trkpt lat="43.08794" lon="1.71362">
        <ele>337.24</ele>
        <time>2024-09-19T07:32:05.999Z</time>
      </trkpt>
      <trkpt lat="43.08794" lon="1.71392">
        <ele>333.81</ele>
        <time>2024-09-19T07:32:10.999Z</time>
      </trkpt>
      <trkpt lat="43.08801" lon="1.71422">
        <ele>331.52</ele>
        <time>2024-09-19T07:32:15.999Z</time>
      </trkpt>
      <trkpt lat="43.0881" lon="1.71452">
        <ele>328.56</ele>
        <time>2024-09-19T07:32:20.999Z</time>
      </trkpt>
      <trkpt lat="43.08818" lon="1.71485">
        <ele>326.7</ele>
        <time>2024-09-19T07:32:25.999Z</time>
      </trkpt>
      <trkpt lat="43.08826" lon="1.71521">
        <ele>325.87</ele>
        <time>2024-09-19T07:32:30.999Z</time>
      </trkpt>
      <trkpt lat="43.08827" lon="1.71557">
        <ele>324.9</ele>
        <time>2024-09-19T07:32:35.999Z</time>
      </trkpt>
      <trkpt lat="43.08825" lon="1.71589">
        <ele>324.46</ele>
        <time>2024-09-19T07:32:40.999Z</time>
      </trkpt>
      <trkpt lat="43.08821" lon="1.71615">
        <ele>324.44</ele>
        <time>2024-09-19T07:32:45.999Z</time>
      </trkpt>
      <trkpt lat="43.08819" lon="1.71631">
        <ele>324.52</ele>
        <time>2024-09-19T07:32:50.999Z</time>
      </trkpt>
      <trkpt lat="43.08816" lon="1.71643">
        <ele>324.67</ele>
        <time>2024-09-19T07:32:55.999Z</time>
      </trkpt>
      <trkpt lat="43.08814" lon="1.71656">
        <ele>324.78</ele>
        <time>2024-09-19T07:33:01.999Z</time>
      </trkpt>
      <trkpt lat="43.08816" lon="1.7167">
        <ele>324.99</ele>
        <time>2024-09-19T07:33:06.999Z</time>
      </trkpt>
      <trkpt lat="43.08814" lon="1.71682">
        <ele>325.27</ele>
        <time>2024-09-19T07:33:11.999Z</time>
      </trkpt>
      <trkpt lat="43.08813" lon="1.71696">
        <ele>325.58</ele>
        <time>2024-09-19T07:33:16.999Z</time>
      </trkpt>
      <trkpt lat="43.08812" lon="1.7171">
        <ele>325.97</ele>
        <time>2024-09-19T07:33:22.999Z</time>
      </trkpt>
      <trkpt lat="43.0881" lon="1.71723">
        <ele>326.4</ele>
        <time>2024-09-19T07:33:28.999Z</time>
      </trkpt>
      <trkpt lat="43.08804" lon="1.71734">
        <ele>326.88</ele>
        <time>2024-09-19T07:33:35.999Z</time>
      </trkpt>
      <trkpt lat="43.08799" lon="1.71746">
        <ele>327.44</ele>
        <time>2024-09-19T07:33:42.999Z</time>
      </trkpt>
      <trkpt lat="43.08794" lon="1.71757">
        <ele>327.98</ele>
        <time>2024-09-19T07:33:48.999Z</time>
      </trkpt>
      <trkpt lat="43.088" lon="1.71768">
        <ele>328.69</ele>
        <time>2024-09-19T07:33:55.999Z</time>
      </trkpt>
      <trkpt lat="43.08803" lon="1.7178">
        <ele>329.43</ele>
        <time>2024-09-19T07:34:02.999Z</time>
      </trkpt>
      <trkpt lat="43.08807" lon="1.71793">
        <ele>330.15</ele>
        <time>2024-09-19T07:34:09.999Z</time>
      </trkpt>
      <trkpt lat="43.08813" lon="1.71803">
        <ele>331.53</ele>
        <time>2024-09-19T07:34:41.999Z</time>
      </trkpt>
      <trkpt lat="43.0882" lon="1.71813">
        <ele>332.26</ele>
        <time>2024-09-19T07:34:47.999Z</time>
      </trkpt>
      <trkpt lat="43.0882" lon="1.71831">
        <ele>332.79</ele>
        <time>2024-09-19T07:34:52.999Z</time>
      </trkpt>
      <trkpt lat="43.08812" lon="1.71856">
        <ele>335.73</ele>
        <time>2024-09-19T07:34:57.999Z</time>
      </trkpt>
      <trkpt lat="43.08809" lon="1.71886">
        <ele>336.57</ele>
        <time>2024-09-19T07:35:02.999Z</time>
      </trkpt>
      <trkpt lat="43.08818" lon="1.71917">
        <ele>336.6</ele>
        <time>2024-09-19T07:35:07.999Z</time>
      </trkpt>
      <trkpt lat="43.0883" lon="1.71944">
        <ele>336.29</ele>
        <time>2024-09-19T07:35:12.999Z</time>
      </trkpt>
      <trkpt lat="43.08842" lon="1.71965">
        <ele>335.79</ele>
        <time>2024-09-19T07:35:17.999Z</time>
      </trkpt>
      <trkpt lat="43.08858" lon="1.7198">
        <ele>335</ele>
        <time>2024-09-19T07:35:23.000Z</time>
      </trkpt>
      <trkpt lat="43.0888" lon="1.71996">
        <ele>334.41</ele>
        <time>2024-09-19T07:35:28.000Z</time>
      </trkpt>
      <trkpt lat="43.08911" lon="1.72019">
        <ele>333.76</ele>
        <time>2024-09-19T07:35:33.000Z</time>
      </trkpt>
      <trkpt lat="43.08948" lon="1.72042">
        <ele>333.06</ele>
        <time>2024-09-19T07:35:38.000Z</time>
      </trkpt>
      <trkpt lat="43.08978" lon="1.72062">
        <ele>331.88</ele>
        <time>2024-09-19T07:35:43.000Z</time>
      </trkpt>
      <trkpt lat="43.08977" lon="1.72098">
        <ele>330.29</ele>
        <time>2024-09-19T07:35:48.000Z</time>
      </trkpt>
      <trkpt lat="43.08965" lon="1.72132">
        <ele>329.74</ele>
        <time>2024-09-19T07:35:53.000Z</time>
      </trkpt>
      <trkpt lat="43.08962" lon="1.72165">
        <ele>329.64</ele>
        <time>2024-09-19T07:35:58.000Z</time>
      </trkpt>
      <trkpt lat="43.08985" lon="1.72187">
        <ele>329.08</ele>
        <time>2024-09-19T07:36:03.000Z</time>
      </trkpt>
      <trkpt lat="43.09012" lon="1.72201">
        <ele>329.09</ele>
        <time>2024-09-19T07:36:08.000Z</time>
      </trkpt>
      <trkpt lat="43.09041" lon="1.72217">
        <ele>328.77</ele>
        <time>2024-09-19T07:36:13.000Z</time>
      </trkpt>
      <trkpt lat="43.09068" lon="1.72241">
        <ele>328.29</ele>
        <time>2024-09-19T07:36:18.000Z</time>
      </trkpt>
      <trkpt lat="43.09089" lon="1.72276">
        <ele>326.43</ele>
        <time>2024-09-19T07:36:23.000Z</time>
      </trkpt>
      <trkpt lat="43.09106" lon="1.72313">
        <ele>324.87</ele>
        <time>2024-09-19T07:36:28.000Z</time>
      </trkpt>
      <trkpt lat="43.09126" lon="1.72347">
        <ele>323.66</ele>
        <time>2024-09-19T07:36:33.000Z</time>
      </trkpt>
      <trkpt lat="43.09146" lon="1.72375">
        <ele>322.63</ele>
        <time>2024-09-19T07:36:38.000Z</time>
      </trkpt>
      <trkpt lat="43.09166" lon="1.724">
        <ele>321.74</ele>
        <time>2024-09-19T07:36:43.000Z</time>
      </trkpt>
      <trkpt lat="43.09187" lon="1.72423">
        <ele>321.14</ele>
        <time>2024-09-19T07:36:48.000Z</time>
      </trkpt>
      <trkpt lat="43.09206" lon="1.72446">
        <ele>320.28</ele>
        <time>2024-09-19T07:36:53.000Z</time>
      </trkpt>
      <trkpt lat="43.09227" lon="1.72467">
        <ele>319.61</ele>
        <time>2024-09-19T07:36:58.000Z</time>
      </trkpt>
      <trkpt lat="43.09249" lon="1.72484">
        <ele>318.54</ele>
        <time>2024-09-19T07:37:03.000Z</time>
      </trkpt>
      <trkpt lat="43.09272" lon="1.72499">
        <ele>317.19</ele>
        <time>2024-09-19T07:37:08.000Z</time>
      </trkpt>
      <trkpt lat="43.09292" lon="1.7251">
        <ele>316.2</ele>
        <time>2024-09-19T07:37:13.000Z</time>
      </trkpt>
      <trkpt lat="43.09305" lon="1.72517">
        <ele>316.05</ele>
        <time>2024-09-19T07:37:18.000Z</time>
      </trkpt>
      <trkpt lat="43.09321" lon="1.72526">
        <ele>315.26</ele>
        <time>2024-09-19T07:37:23.000Z</time>
      </trkpt>
      <trkpt lat="43.09343" lon="1.72538">
        <ele>313.92</ele>
        <time>2024-09-19T07:37:28.000Z</time>
      </trkpt>
      <trkpt lat="43.09365" lon="1.72553">
        <ele>313.29</ele>
        <time>2024-09-19T07:37:33.000Z</time>
      </trkpt>
      <trkpt lat="43.09386" lon="1.7257">
        <ele>312.81</ele>
        <time>2024-09-19T07:37:38.000Z</time>
      </trkpt>
      <trkpt lat="43.09409" lon="1.72588">
        <ele>312.24</ele>
        <time>2024-09-19T07:37:43.000Z</time>
      </trkpt>
      <trkpt lat="43.0943" lon="1.72607">
        <ele>311.6</ele>
        <time>2024-09-19T07:37:48.000Z</time>
      </trkpt>
      <trkpt lat="43.09451" lon="1.72631">
        <ele>311.05</ele>
        <time>2024-09-19T07:37:53.000Z</time>
      </trkpt>
      <trkpt lat="43.0947" lon="1.72657">
        <ele>310.62</ele>
        <time>2024-09-19T07:37:58.000Z</time>
      </trkpt>
      <trkpt lat="43.09485" lon="1.72684">
        <ele>310.22</ele>
        <time>2024-09-19T07:38:03.000Z</time>
      </trkpt>
      <trkpt lat="43.09498" lon="1.72713">
        <ele>309.93</ele>
        <time>2024-09-19T07:38:08.000Z</time>
      </trkpt>
      <trkpt lat="43.09508" lon="1.72745">
        <ele>309.63</ele>
        <time>2024-09-19T07:38:13.000Z</time>
      </trkpt>
      <trkpt lat="43.09517" lon="1.7278">
        <ele>309.22</ele>
        <time>2024-09-19T07:38:18.000Z</time>
      </trkpt>
      <trkpt lat="43.09529" lon="1.72813">
        <ele>308.7</ele>
        <time>2024-09-19T07:38:23.000Z</time>
      </trkpt>
      <trkpt lat="43.09544" lon="1.72847">
        <ele>308.24</ele>
        <time>2024-09-19T07:38:28.000Z</time>
      </trkpt>
      <trkpt lat="43.0956" lon="1.72885">
        <ele>307.54</ele>
        <time>2024-09-19T07:38:33.000Z</time>
      </trkpt>
      <trkpt lat="43.09574" lon="1.72924">
        <ele>306.73</ele>
        <time>2024-09-19T07:38:38.000Z</time>
      </trkpt>
      <trkpt lat="43.09586" lon="1.72962">
        <ele>306.19</ele>
        <time>2024-09-19T07:38:43.000Z</time>
      </trkpt>
      <trkpt lat="43.09596" lon="1.73">
        <ele>305.69</ele>
        <time>2024-09-19T07:38:48.000Z</time>
      </trkpt>
      <trkpt lat="43.09607" lon="1.73041">
        <ele>305.2</ele>
        <time>2024-09-19T07:38:53.000Z</time>
      </trkpt>
      <trkpt lat="43.09617" lon="1.73084">
        <ele>304.43</ele>
        <time>2024-09-19T07:38:58.000Z</time>
      </trkpt>
      <trkpt lat="43.09628" lon="1.73134">
        <ele>303.64</ele>
        <time>2024-09-19T07:39:03.000Z</time>
      </trkpt>
      <trkpt lat="43.09639" lon="1.73185">
        <ele>303.33</ele>
        <time>2024-09-19T07:39:08.000Z</time>
      </trkpt>
      <trkpt lat="43.09649" lon="1.73232">
        <ele>303.18</ele>
        <time>2024-09-19T07:39:13.000Z</time>
      </trkpt>
      <trkpt lat="43.09658" lon="1.73271">
        <ele>302.91</ele>
        <time>2024-09-19T07:39:18.000Z</time>
      </trkpt>
      <trkpt lat="43.09665" lon="1.73306">
        <ele>302.4</ele>
        <time>2024-09-19T07:39:23.000Z</time>
      </trkpt>
      <trkpt lat="43.09672" lon="1.73335">
        <ele>301.86</ele>
        <time>2024-09-19T07:39:28.000Z</time>
      </trkpt>
      <trkpt lat="43.09678" lon="1.73363">
        <ele>301.29</ele>
        <time>2024-09-19T07:39:33.000Z</time>
      </trkpt>
      <trkpt lat="43.09684" lon="1.73387">
        <ele>301.09</ele>
        <time>2024-09-19T07:39:38.000Z</time>
      </trkpt>
      <trkpt lat="43.09689" lon="1.7341">
        <ele>301.03</ele>
        <time>2024-09-19T07:39:43.000Z</time>
      </trkpt>
      <trkpt lat="43.09684" lon="1.73425">
        <ele>300.9</ele>
        <time>2024-09-19T07:39:48.000Z</time>
      </trkpt>
      <trkpt lat="43.09676" lon="1.73444">
        <ele>300.7</ele>
        <time>2024-09-19T07:39:53.000Z</time>
      </trkpt>
      <trkpt lat="43.09668" lon="1.73465">
        <ele>300.43</ele>
        <time>2024-09-19T07:39:58.000Z</time>
      </trkpt>
      <trkpt lat="43.09655" lon="1.73484">
        <ele>300.12</ele>
        <time>2024-09-19T07:40:03.000Z</time>
      </trkpt>
      <trkpt lat="43.09642" lon="1.73504">
        <ele>297.9</ele>
        <time>2024-09-19T07:40:08.000Z</time>
      </trkpt>
      <trkpt lat="43.09628" lon="1.73525">
        <ele>296.89</ele>
        <time>2024-09-19T07:40:13.000Z</time>
      </trkpt>
      <trkpt lat="43.09614" lon="1.73545">
        <ele>296.47</ele>
        <time>2024-09-19T07:40:18.000Z</time>
      </trkpt>
      <trkpt lat="43.09599" lon="1.73567">
        <ele>296.23</ele>
        <time>2024-09-19T07:40:23.000Z</time>
      </trkpt>
      <trkpt lat="43.09583" lon="1.73588">
        <ele>296.08</ele>
        <time>2024-09-19T07:40:28.000Z</time>
      </trkpt>
      <trkpt lat="43.09569" lon="1.73611">
        <ele>295.92</ele>
        <time>2024-09-19T07:40:33.000Z</time>
      </trkpt>
      <trkpt lat="43.09557" lon="1.73639">
        <ele>295.79</ele>
        <time>2024-09-19T07:40:38.000Z</time>
      </trkpt>
      <trkpt lat="43.09545" lon="1.73666">
        <ele>295.66</ele>
        <time>2024-09-19T07:40:43.000Z</time>
      </trkpt>
      <trkpt lat="43.09533" lon="1.73693">
        <ele>295.52</ele>
        <time>2024-09-19T07:40:48.000Z</time>
      </trkpt>
      <trkpt lat="43.0952" lon="1.73721">
        <ele>295.36</ele>
        <time>2024-09-19T07:40:53.000Z</time>
      </trkpt>
      <trkpt lat="43.09506" lon="1.73749">
        <ele>295.2</ele>
        <time>2024-09-19T07:40:58.000Z</time>
      </trkpt>
      <trkpt lat="43.09494" lon="1.73779">
        <ele>295</ele>
        <time>2024-09-19T07:41:03.000Z</time>
      </trkpt>
      <trkpt lat="43.09486" lon="1.73812">
        <ele>294.76</ele>
        <time>2024-09-19T07:41:08.000Z</time>
      </trkpt>
      <trkpt lat="43.09479" lon="1.73844">
        <ele>294.44</ele>
        <time>2024-09-19T07:41:13.000Z</time>
      </trkpt>
      <trkpt lat="43.09474" lon="1.73877">
        <ele>294.05</ele>
        <time>2024-09-19T07:41:18.000Z</time>
      </trkpt>
      <trkpt lat="43.09469" lon="1.7391">
        <ele>293.7</ele>
        <time>2024-09-19T07:41:23.000Z</time>
      </trkpt>
      <trkpt lat="43.09463" lon="1.73937">
        <ele>293.58</ele>
        <time>2024-09-19T07:41:28.000Z</time>
      </trkpt>
      <trkpt lat="43.09454" lon="1.73961">
        <ele>293.4</ele>
        <time>2024-09-19T07:41:33.000Z</time>
      </trkpt>
      <trkpt lat="43.09446" lon="1.73989">
        <ele>293.24</ele>
        <time>2024-09-19T07:41:38.000Z</time>
      </trkpt>
      <trkpt lat="43.09432" lon="1.74016">
        <ele>293.15</ele>
        <time>2024-09-19T07:41:43.000Z</time>
      </trkpt>
      <trkpt lat="43.09419" lon="1.74039">
        <ele>293.11</ele>
        <time>2024-09-19T07:41:48.000Z</time>
      </trkpt>
      <trkpt lat="43.09405" lon="1.74061">
        <ele>293.11</ele>
        <time>2024-09-19T07:41:53.000Z</time>
      </trkpt>
      <trkpt lat="43.09391" lon="1.74083">
        <ele>293.16</ele>
        <time>2024-09-19T07:41:58.000Z</time>
      </trkpt>
      <trkpt lat="43.0938" lon="1.74104">
        <ele>293.17</ele>
        <time>2024-09-19T07:42:03.000Z</time>
      </trkpt>
      <trkpt lat="43.09369" lon="1.74126">
        <ele>293.23</ele>
        <time>2024-09-19T07:42:08.000Z</time>
      </trkpt>
      <trkpt lat="43.09361" lon="1.74148">
        <ele>293.24</ele>
        <time>2024-09-19T07:42:13.000Z</time>
      </trkpt>
      <trkpt lat="43.0935" lon="1.74168">
        <ele>293.24</ele>
        <time>2024-09-19T07:42:18.000Z</time>
      </trkpt>
      <trkpt lat="43.09358" lon="1.74176">
        <ele>293.21</ele>
        <time>2024-09-19T07:42:31.000Z</time>
      </trkpt>
      <trkpt lat="43.09359" lon="1.7419">
        <ele>293.15</ele>
        <time>2024-09-19T07:43:14.000Z</time>
      </trkpt>
      <trkpt lat="43.09356" lon="1.74202">
        <ele>293.13</ele>
        <time>2024-09-19T07:43:28.000Z</time>
      </trkpt>
      <trkpt lat="43.09345" lon="1.74223">
        <ele>292.99</ele>
        <time>2024-09-19T07:43:33.000Z</time>
      </trkpt>
      <trkpt lat="43.09334" lon="1.74248">
        <ele>292.88</ele>
        <time>2024-09-19T07:43:38.000Z</time>
      </trkpt>
      <trkpt lat="43.09323" lon="1.74271">
        <ele>292.82</ele>
        <time>2024-09-19T07:43:43.000Z</time>
      </trkpt>
      <trkpt lat="43.09311" lon="1.74295">
        <ele>292.73</ele>
        <time>2024-09-19T07:43:48.000Z</time>
      </trkpt>
      <trkpt lat="43.093" lon="1.74319">
        <ele>292.66</ele>
        <time>2024-09-19T07:43:53.000Z</time>
      </trkpt>
      <trkpt lat="43.09287" lon="1.74345">
        <ele>292.62</ele>
        <time>2024-09-19T07:43:58.000Z</time>
      </trkpt>
      <trkpt lat="43.09274" lon="1.74369">
        <ele>292.57</ele>
        <time>2024-09-19T07:44:03.000Z</time>
      </trkpt>
      <trkpt lat="43.09262" lon="1.74394">
        <ele>292.51</ele>
        <time>2024-09-19T07:44:08.000Z</time>
      </trkpt>
      <trkpt lat="43.0925" lon="1.74419">
        <ele>292.46</ele>
        <time>2024-09-19T07:44:13.000Z</time>
      </trkpt>
      <trkpt lat="43.09239" lon="1.74442">
        <ele>292.43</ele>
        <time>2024-09-19T07:44:18.000Z</time>
      </trkpt>
      <trkpt lat="43.09228" lon="1.74458">
        <ele>292.43</ele>
        <time>2024-09-19T07:44:23.000Z</time>
      </trkpt>
      <trkpt lat="43.09218" lon="1.74474">
        <ele>292.44</ele>
        <time>2024-09-19T07:44:28.000Z</time>
      </trkpt>
      <trkpt lat="43.09205" lon="1.74493">
        <ele>292.46</ele>
        <time>2024-09-19T07:44:33.000Z</time>
      </trkpt>
      <trkpt lat="43.09193" lon="1.74512">
        <ele>292.55</ele>
        <time>2024-09-19T07:44:38.000Z</time>
      </trkpt>
      <trkpt lat="43.09181" lon="1.74533">
        <ele>292.61</ele>
        <time>2024-09-19T07:44:43.000Z</time>
      </trkpt>
      <trkpt lat="43.09169" lon="1.74562">
        <ele>292.78</ele>
        <time>2024-09-19T07:44:48.000Z</time>
      </trkpt>
      <trkpt lat="43.09158" lon="1.74591">
        <ele>293.23</ele>
        <time>2024-09-19T07:44:53.000Z</time>
      </trkpt>
      <trkpt lat="43.09146" lon="1.74617">
        <ele>293.6</ele>
        <time>2024-09-19T07:44:58.000Z</time>
      </trkpt>
      <trkpt lat="43.09131" lon="1.74641">
        <ele>293.71</ele>
        <time>2024-09-19T07:45:03.000Z</time>
      </trkpt>
      <trkpt lat="43.09121" lon="1.74665">
        <ele>293.79</ele>
        <time>2024-09-19T07:45:08.000Z</time>
      </trkpt>
      <trkpt lat="43.09108" lon="1.74689">
        <ele>293.75</ele>
        <time>2024-09-19T07:45:13.000Z</time>
      </trkpt>
      <trkpt lat="43.09094" lon="1.74719">
        <ele>293.62</ele>
        <time>2024-09-19T07:45:18.000Z</time>
      </trkpt>
      <trkpt lat="43.09078" lon="1.7475">
        <ele>293.47</ele>
        <time>2024-09-19T07:45:23.000Z</time>
      </trkpt>
      <trkpt lat="43.0906" lon="1.74781">
        <ele>293.37</ele>
        <time>2024-09-19T07:45:28.000Z</time>
      </trkpt>
      <trkpt lat="43.09044" lon="1.74813">
        <ele>293.27</ele>
        <time>2024-09-19T07:45:33.000Z</time>
      </trkpt>
      <trkpt lat="43.0903" lon="1.74842">
        <ele>293.17</ele>
        <time>2024-09-19T07:45:38.000Z</time>
      </trkpt>
      <trkpt lat="43.09019" lon="1.74875">
        <ele>293.02</ele>
        <time>2024-09-19T07:45:43.000Z</time>
      </trkpt>
      <trkpt lat="43.09009" lon="1.74906">
        <ele>292.86</ele>
        <time>2024-09-19T07:45:48.000Z</time>
      </trkpt>
      <trkpt lat="43.08997" lon="1.74936">
        <ele>292.64</ele>
        <time>2024-09-19T07:45:53.000Z</time>
      </trkpt>
      <trkpt lat="43.08984" lon="1.74965">
        <ele>292.42</ele>
        <time>2024-09-19T07:45:58.000Z</time>
      </trkpt>
      <trkpt lat="43.0897" lon="1.74994">
        <ele>292.26</ele>
        <time>2024-09-19T07:46:03.000Z</time>
      </trkpt>
      <trkpt lat="43.08956" lon="1.75023">
        <ele>292.22</ele>
        <time>2024-09-19T07:46:08.000Z</time>
      </trkpt>
      <trkpt lat="43.0894" lon="1.75052">
        <ele>292.19</ele>
        <time>2024-09-19T07:46:13.000Z</time>
      </trkpt>
      <trkpt lat="43.08925" lon="1.75081">
        <ele>292.17</ele>
        <time>2024-09-19T07:46:18.000Z</time>
      </trkpt>
      <trkpt lat="43.08908" lon="1.75109">
        <ele>292.08</ele>
        <time>2024-09-19T07:46:23.000Z</time>
      </trkpt>
      <trkpt lat="43.08893" lon="1.75139">
        <ele>291.98</ele>
        <time>2024-09-19T07:46:28.000Z</time>
      </trkpt>
      <trkpt lat="43.08878" lon="1.75167">
        <ele>291.85</ele>
        <time>2024-09-19T07:46:33.000Z</time>
      </trkpt>
      <trkpt lat="43.08863" lon="1.75197">
        <ele>291.74</ele>
        <time>2024-09-19T07:46:38.000Z</time>
      </trkpt>
      <trkpt lat="43.08848" lon="1.75225">
        <ele>291.66</ele>
        <time>2024-09-19T07:46:43.000Z</time>
      </trkpt>
      <trkpt lat="43.08834" lon="1.75253">
        <ele>291.55</ele>
        <time>2024-09-19T07:46:48.000Z</time>
      </trkpt>
      <trkpt lat="43.08819" lon="1.75282">
        <ele>291.55</ele>
        <time>2024-09-19T07:46:53.000Z</time>
      </trkpt>
      <trkpt lat="43.08807" lon="1.7531">
        <ele>291.8</ele>
        <time>2024-09-19T07:46:58.000Z</time>
      </trkpt>
      <trkpt lat="43.08795" lon="1.75338">
        <ele>292.09</ele>
        <time>2024-09-19T07:47:03.000Z</time>
      </trkpt>
      <trkpt lat="43.0878" lon="1.75366">
        <ele>292.39</ele>
        <time>2024-09-19T07:47:08.000Z</time>
      </trkpt>
      <trkpt lat="43.08764" lon="1.75393">
        <ele>292.56</ele>
        <time>2024-09-19T07:47:13.000Z</time>
      </trkpt>
      <trkpt lat="43.08749" lon="1.75417">
        <ele>292.72</ele>
        <time>2024-09-19T07:47:18.000Z</time>
      </trkpt>
      <trkpt lat="43.08735" lon="1.75445">
        <ele>292.94</ele>
        <time>2024-09-19T07:47:23.000Z</time>
      </trkpt>
      <trkpt lat="43.0872" lon="1.75471">
        <ele>293.17</ele>
        <time>2024-09-19T07:47:28.000Z</time>
      </trkpt>
      <trkpt lat="43.08705" lon="1.75497">
        <ele>293.29</ele>
        <time>2024-09-19T07:47:33.000Z</time>
      </trkpt>
      <trkpt lat="43.08691" lon="1.75527">
        <ele>293.55</ele>
        <time>2024-09-19T07:47:38.999Z</time>
      </trkpt>
      <trkpt lat="43.0868" lon="1.75549">
        <ele>293.67</ele>
        <time>2024-09-19T07:47:43.999Z</time>
      </trkpt>
      <trkpt lat="43.08669" lon="1.75567">
        <ele>293.68</ele>
        <time>2024-09-19T07:47:48.999Z</time>
      </trkpt>
      <trkpt lat="43.0866" lon="1.75582">
        <ele>293.7</ele>
        <time>2024-09-19T07:47:53.999Z</time>
      </trkpt>
      <trkpt lat="43.08656" lon="1.75594">
        <ele>293.71</ele>
        <time>2024-09-19T07:48:27.999Z</time>
      </trkpt>
      <trkpt lat="43.08647" lon="1.75612">
        <ele>293.67</ele>
        <time>2024-09-19T07:48:32.999Z</time>
      </trkpt>
      <trkpt lat="43.08634" lon="1.7564">
        <ele>293.53</ele>
        <time>2024-09-19T07:48:37.999Z</time>
      </trkpt>
      <trkpt lat="43.0862" lon="1.75667">
        <ele>293.43</ele>
        <time>2024-09-19T07:48:42.999Z</time>
      </trkpt>
      <trkpt lat="43.08606" lon="1.75695">
        <ele>293.31</ele>
        <time>2024-09-19T07:48:47.999Z</time>
      </trkpt>
      <trkpt lat="43.08592" lon="1.75722">
        <ele>293.23</ele>
        <time>2024-09-19T07:48:52.999Z</time>
      </trkpt>
      <trkpt lat="43.08578" lon="1.75749">
        <ele>293.16</ele>
        <time>2024-09-19T07:48:57.999Z</time>
      </trkpt>
      <trkpt lat="43.08563" lon="1.75776">
        <ele>293.13</ele>
        <time>2024-09-19T07:49:02.999Z</time>
      </trkpt>
      <trkpt lat="43.08549" lon="1.75801">
        <ele>293.08</ele>
        <time>2024-09-19T07:49:07.999Z</time>
      </trkpt>
      <trkpt lat="43.08536" lon="1.75824">
        <ele>293</ele>
        <time>2024-09-19T07:49:12.999Z</time>
      </trkpt>
      <trkpt lat="43.0852" lon="1.75849">
        <ele>292.99</ele>
        <time>2024-09-19T07:49:17.999Z</time>
      </trkpt>
      <trkpt lat="43.08504" lon="1.75872">
        <ele>293.05</ele>
        <time>2024-09-19T07:49:22.999Z</time>
      </trkpt>
      <trkpt lat="43.0849" lon="1.75892">
        <ele>293.08</ele>
        <time>2024-09-19T07:49:27.999Z</time>
      </trkpt>
      <trkpt lat="43.08474" lon="1.75912">
        <ele>293.02</ele>
        <time>2024-09-19T07:49:32.999Z</time>
      </trkpt>
      <trkpt lat="43.08459" lon="1.75932">
        <ele>292.91</ele>
        <time>2024-09-19T07:49:37.999Z</time>
      </trkpt>
      <trkpt lat="43.08451" lon="1.7595">
        <ele>292.89</ele>
        <time>2024-09-19T07:49:42.999Z</time>
      </trkpt>
      <trkpt lat="43.08442" lon="1.75972">
        <ele>292.82</ele>
        <time>2024-09-19T07:49:47.999Z</time>
      </trkpt>
      <trkpt lat="43.08438" lon="1.75993">
        <ele>292.82</ele>
        <time>2024-09-19T07:49:52.999Z</time>
      </trkpt>
      <trkpt lat="43.0843" lon="1.76009">
        <ele>292.86</ele>
        <time>2024-09-19T07:49:57.999Z</time>
      </trkpt>
      <trkpt lat="43.08418" lon="1.76034">
        <ele>292.94</ele>
        <time>2024-09-19T07:50:02.999Z</time>
      </trkpt>
      <trkpt lat="43.08406" lon="1.76058">
        <ele>292.99</ele>
        <time>2024-09-19T07:50:07.999Z</time>
      </trkpt>
      <trkpt lat="43.08394" lon="1.76078">
        <ele>293.03</ele>
        <time>2024-09-19T07:50:12.999Z</time>
      </trkpt>
      <trkpt lat="43.08381" lon="1.76093">
        <ele>293.04</ele>
        <time>2024-09-19T07:50:17.999Z</time>
      </trkpt>
      <trkpt lat="43.08371" lon="1.7611">
        <ele>293.05</ele>
        <time>2024-09-19T07:50:22.999Z</time>
      </trkpt>
      <trkpt lat="43.08362" lon="1.76127">
        <ele>293.07</ele>
        <time>2024-09-19T07:50:27.999Z</time>
      </trkpt>
      <trkpt lat="43.08353" lon="1.76144">
        <ele>293.09</ele>
        <time>2024-09-19T07:50:32.999Z</time>
      </trkpt>
      <trkpt lat="43.08345" lon="1.7616">
        <ele>293.11</ele>
        <time>2024-09-19T07:50:37.999Z</time>
      </trkpt>
      <trkpt lat="43.08338" lon="1.76174">
        <ele>293.13</ele>
        <time>2024-09-19T07:50:42.999Z</time>
      </trkpt>
      <trkpt lat="43.0833" lon="1.76188">
        <ele>293.16</ele>
        <time>2024-09-19T07:50:47.999Z</time>
      </trkpt>
      <trkpt lat="43.08322" lon="1.76204">
        <ele>293.19</ele>
        <time>2024-09-19T07:50:52.999Z</time>
      </trkpt>
      <trkpt lat="43.08313" lon="1.76219">
        <ele>293.22</ele>
        <time>2024-09-19T07:50:57.999Z</time>
      </trkpt>
      <trkpt lat="43.08307" lon="1.76232">
        <ele>293.25</ele>
        <time>2024-09-19T07:51:02.999Z</time>
      </trkpt>
      <trkpt lat="43.08298" lon="1.76245">
        <ele>293.29</ele>
        <time>2024-09-19T07:51:07.999Z</time>
      </trkpt>
      <trkpt lat="43.08287" lon="1.76253">
        <ele>293.32</ele>
        <time>2024-09-19T07:51:12.999Z</time>
      </trkpt>
      <trkpt lat="43.08274" lon="1.76248">
        <ele>293.35</ele>
        <time>2024-09-19T07:51:17.999Z</time>
      </trkpt>
      <trkpt lat="43.08263" lon="1.76238">
        <ele>293.38</ele>
        <time>2024-09-19T07:51:22.999Z</time>
      </trkpt>
      <trkpt lat="43.08249" lon="1.76241">
        <ele>293.42</ele>
        <time>2024-09-19T07:51:27.999Z</time>
      </trkpt>
      <trkpt lat="43.08237" lon="1.76256">
        <ele>293.45</ele>
        <time>2024-09-19T07:51:32.999Z</time>
      </trkpt>
      <trkpt lat="43.08227" lon="1.76272">
        <ele>293.49</ele>
        <time>2024-09-19T07:51:37.999Z</time>
      </trkpt>
      <trkpt lat="43.08215" lon="1.76289">
        <ele>293.51</ele>
        <time>2024-09-19T07:51:42.999Z</time>
      </trkpt>
      <trkpt lat="43.08204" lon="1.76306">
        <ele>293.54</ele>
        <time>2024-09-19T07:51:47.999Z</time>
      </trkpt>
      <trkpt lat="43.08191" lon="1.76324">
        <ele>293.57</ele>
        <time>2024-09-19T07:51:52.999Z</time>
      </trkpt>
      <trkpt lat="43.08179" lon="1.76343">
        <ele>293.65</ele>
        <time>2024-09-19T07:51:57.999Z</time>
      </trkpt>
      <trkpt lat="43.08167" lon="1.76361">
        <ele>293.67</ele>
        <time>2024-09-19T07:52:02.999Z</time>
      </trkpt>
      <trkpt lat="43.08157" lon="1.76377">
        <ele>293.69</ele>
        <time>2024-09-19T07:52:07.999Z</time>
      </trkpt>
      <trkpt lat="43.08146" lon="1.76394">
        <ele>293.7</ele>
        <time>2024-09-19T07:52:12.999Z</time>
      </trkpt>
      <trkpt lat="43.08135" lon="1.76409">
        <ele>293.72</ele>
        <time>2024-09-19T07:52:17.999Z</time>
      </trkpt>
      <trkpt lat="43.08124" lon="1.76425">
        <ele>293.72</ele>
        <time>2024-09-19T07:52:22.999Z</time>
      </trkpt>
      <trkpt lat="43.08112" lon="1.76443">
        <ele>293.73</ele>
        <time>2024-09-19T07:52:27.999Z</time>
      </trkpt>
      <trkpt lat="43.08101" lon="1.76458">
        <ele>293.73</ele>
        <time>2024-09-19T07:52:32.999Z</time>
      </trkpt>
      <trkpt lat="43.08092" lon="1.76475">
        <ele>293.73</ele>
        <time>2024-09-19T07:52:37.999Z</time>
      </trkpt>
      <trkpt lat="43.08083" lon="1.76494">
        <ele>293.73</ele>
        <time>2024-09-19T07:52:42.999Z</time>
      </trkpt>
      <trkpt lat="43.08075" lon="1.76514">
        <ele>293.73</ele>
        <time>2024-09-19T07:52:47.999Z</time>
      </trkpt>
      <trkpt lat="43.08067" lon="1.76534">
        <ele>293.73</ele>
        <time>2024-09-19T07:52:52.999Z</time>
      </trkpt>
      <trkpt lat="43.0806" lon="1.76551">
        <ele>293.73</ele>
        <time>2024-09-19T07:52:57.999Z</time>
      </trkpt>
      <trkpt lat="43.08052" lon="1.76559">
        <ele>293.74</ele>
        <time>2024-09-19T07:53:09.999Z</time>
      </trkpt>
      <trkpt lat="43.0804" lon="1.76569">
        <ele>293.75</ele>
        <time>2024-09-19T07:53:14.999Z</time>
      </trkpt>
      <trkpt lat="43.0803" lon="1.76587">
        <ele>293.76</ele>
        <time>2024-09-19T07:53:19.999Z</time>
      </trkpt>
      <trkpt lat="43.08018" lon="1.76606">
        <ele>293.8</ele>
        <time>2024-09-19T07:53:24.999Z</time>
      </trkpt>
      <trkpt lat="43.08004" lon="1.76626">
        <ele>293.89</ele>
        <time>2024-09-19T07:53:29.999Z</time>
      </trkpt>
      <trkpt lat="43.07992" lon="1.76647">
        <ele>293.93</ele>
        <time>2024-09-19T07:53:34.999Z</time>
      </trkpt>
      <trkpt lat="43.07986" lon="1.76672">
        <ele>293.97</ele>
        <time>2024-09-19T07:53:39.999Z</time>
      </trkpt>
      <trkpt lat="43.07982" lon="1.767">
        <ele>293.99</ele>
        <time>2024-09-19T07:53:44.999Z</time>
      </trkpt>
      <trkpt lat="43.07977" lon="1.76727">
        <ele>293.99</ele>
        <time>2024-09-19T07:53:49.999Z</time>
      </trkpt>
      <trkpt lat="43.07971" lon="1.76754">
        <ele>293.99</ele>
        <time>2024-09-19T07:53:54.999Z</time>
      </trkpt>
      <trkpt lat="43.07964" lon="1.76781">
        <ele>293.99</ele>
        <time>2024-09-19T07:53:59.999Z</time>
      </trkpt>
      <trkpt lat="43.07958" lon="1.76809">
        <ele>294</ele>
        <time>2024-09-19T07:54:04.999Z</time>
      </trkpt>
      <trkpt lat="43.07951" lon="1.76838">
        <ele>294</ele>
        <time>2024-09-19T07:54:09.999Z</time>
      </trkpt>
      <trkpt lat="43.07945" lon="1.76867">
        <ele>294</ele>
        <time>2024-09-19T07:54:14.999Z</time>
      </trkpt>
      <trkpt lat="43.07937" lon="1.76898">
        <ele>293.97</ele>
        <time>2024-09-19T07:54:19.999Z</time>
      </trkpt>
      <trkpt lat="43.07928" lon="1.76935">
        <ele>293.95</ele>
        <time>2024-09-19T07:54:24.999Z</time>
      </trkpt>
      <trkpt lat="43.0792" lon="1.76974">
        <ele>293.95</ele>
        <time>2024-09-19T07:54:29.999Z</time>
      </trkpt>
      <trkpt lat="43.07912" lon="1.77005">
        <ele>293.95</ele>
        <time>2024-09-19T07:54:34.999Z</time>
      </trkpt>
      <trkpt lat="43.07906" lon="1.7703">
        <ele>293.95</ele>
        <time>2024-09-19T07:54:39.999Z</time>
      </trkpt>
      <trkpt lat="43.079" lon="1.77056">
        <ele>293.98</ele>
        <time>2024-09-19T07:54:44.999Z</time>
      </trkpt>
      <trkpt lat="43.07894" lon="1.7708">
        <ele>293.99</ele>
        <time>2024-09-19T07:54:49.999Z</time>
      </trkpt>
      <trkpt lat="43.0789" lon="1.771">
        <ele>293.99</ele>
        <time>2024-09-19T07:54:54.999Z</time>
      </trkpt>
      <trkpt lat="43.07884" lon="1.77124">
        <ele>294.01</ele>
        <time>2024-09-19T07:54:59.999Z</time>
      </trkpt>
      <trkpt lat="43.07878" lon="1.77149">
        <ele>294.07</ele>
        <time>2024-09-19T07:55:04.999Z</time>
      </trkpt>
      <trkpt lat="43.07872" lon="1.77173">
        <ele>294.09</ele>
        <time>2024-09-19T07:55:09.999Z</time>
      </trkpt>
      <trkpt lat="43.07866" lon="1.77196">
        <ele>294.09</ele>
        <time>2024-09-19T07:55:14.999Z</time>
      </trkpt>
      <trkpt lat="43.0786" lon="1.77222">
        <ele>294.12</ele>
        <time>2024-09-19T07:55:19.999Z</time>
      </trkpt>
      <trkpt lat="43.07853" lon="1.77248">
        <ele>294.15</ele>
        <time>2024-09-19T07:55:24.999Z</time>
      </trkpt>
      <trkpt lat="43.07846" lon="1.77275">
        <ele>294.16</ele>
        <time>2024-09-19T07:55:29.999Z</time>
      </trkpt>
      <trkpt lat="43.0784" lon="1.77304">
        <ele>294.15</ele>
        <time>2024-09-19T07:55:34.999Z</time>
      </trkpt>
      <trkpt lat="43.07833" lon="1.77332">
        <ele>294.14</ele>
        <time>2024-09-19T07:55:39.999Z</time>
      </trkpt>
      <trkpt lat="43.07827" lon="1.77356">
        <ele>294.13</ele>
        <time>2024-09-19T07:55:44.999Z</time>
      </trkpt>
      <trkpt lat="43.07827" lon="1.77369">
        <ele>294.12</ele>
        <time>2024-09-19T07:55:50.999Z</time>
      </trkpt>
      <trkpt lat="43.07841" lon="1.77375">
        <ele>294.11</ele>
        <time>2024-09-19T07:55:55.999Z</time>
      </trkpt>
      <trkpt lat="43.07857" lon="1.77383">
        <ele>294.1</ele>
        <time>2024-09-19T07:56:00.999Z</time>
      </trkpt>
      <trkpt lat="43.07874" lon="1.77392">
        <ele>294.05</ele>
        <time>2024-09-19T07:56:05.999Z</time>
      </trkpt>
      <trkpt lat="43.07891" lon="1.77399">
        <ele>294.03</ele>
        <time>2024-09-19T07:56:10.999Z</time>
      </trkpt>
      <trkpt lat="43.07909" lon="1.77408">
        <ele>293.9</ele>
        <time>2024-09-19T07:56:15.999Z</time>
      </trkpt>
      <trkpt lat="43.07918" lon="1.77434">
        <ele>293.81</ele>
        <time>2024-09-19T07:56:20.999Z</time>
      </trkpt>
      <trkpt lat="43.07915" lon="1.7746">
        <ele>293.75</ele>
        <time>2024-09-19T07:56:25.999Z</time>
      </trkpt>
      <trkpt lat="43.0791" lon="1.77483">
        <ele>293.75</ele>
        <time>2024-09-19T07:56:30.999Z</time>
      </trkpt>
      <trkpt lat="43.07906" lon="1.77507">
        <ele>293.72</ele>
        <time>2024-09-19T07:56:35.999Z</time>
      </trkpt>
      <trkpt lat="43.07904" lon="1.77533">
        <ele>293.65</ele>
        <time>2024-09-19T07:56:40.999Z</time>
      </trkpt>
      <trkpt lat="43.07901" lon="1.7756">
        <ele>293.61</ele>
        <time>2024-09-19T07:56:45.999Z</time>
      </trkpt>
      <trkpt lat="43.07898" lon="1.77588">
        <ele>293.57</ele>
        <time>2024-09-19T07:56:50.999Z</time>
      </trkpt>
      <trkpt lat="43.07896" lon="1.77615">
        <ele>293.54</ele>
        <time>2024-09-19T07:56:55.999Z</time>
      </trkpt>
      <trkpt lat="43.07892" lon="1.77639">
        <ele>293.53</ele>
        <time>2024-09-19T07:57:00.999Z</time>
      </trkpt>
      <trkpt lat="43.07888" lon="1.77663">
        <ele>293.52</ele>
        <time>2024-09-19T07:57:05.999Z</time>
      </trkpt>
      <trkpt lat="43.07882" lon="1.77692">
        <ele>293.46</ele>
        <time>2024-09-19T07:57:10.999Z</time>
      </trkpt>
      <trkpt lat="43.07873" lon="1.77722">
        <ele>293.39</ele>
        <time>2024-09-19T07:57:15.999Z</time>
      </trkpt>
      <trkpt lat="43.07866" lon="1.77752">
        <ele>293.33</ele>
        <time>2024-09-19T07:57:20.999Z</time>
      </trkpt>
      <trkpt lat="43.0786" lon="1.7778">
        <ele>293.27</ele>
        <time>2024-09-19T07:57:25.999Z</time>
      </trkpt>
      <trkpt lat="43.07853" lon="1.77805">
        <ele>293.22</ele>
        <time>2024-09-19T07:57:30.999Z</time>
      </trkpt>
      <trkpt lat="43.07848" lon="1.77828">
        <ele>293.21</ele>
        <time>2024-09-19T07:57:35.999Z</time>
      </trkpt>
      <trkpt lat="43.07845" lon="1.77848">
        <ele>293.19</ele>
        <time>2024-09-19T07:57:40.999Z</time>
      </trkpt>
      <trkpt lat="43.07843" lon="1.7786">
        <ele>293.18</ele>
        <time>2024-09-19T07:57:48.999Z</time>
      </trkpt>
      <trkpt lat="43.07834" lon="1.77865">
        <ele>293.12</ele>
        <time>2024-09-19T07:58:44.999Z</time>
      </trkpt>
      <trkpt lat="43.07821" lon="1.77871">
        <ele>293.1</ele>
        <time>2024-09-19T07:58:49.999Z</time>
      </trkpt>
      <trkpt lat="43.07808" lon="1.7788">
        <ele>293.09</ele>
        <time>2024-09-19T07:58:54.999Z</time>
      </trkpt>
      <trkpt lat="43.07797" lon="1.7789">
        <ele>293.08</ele>
        <time>2024-09-19T07:58:59.999Z</time>
      </trkpt>
      <trkpt lat="43.07787" lon="1.77903">
        <ele>293.07</ele>
        <time>2024-09-19T07:59:04.999Z</time>
      </trkpt>
      <trkpt lat="43.07781" lon="1.77922">
        <ele>293.08</ele>
        <time>2024-09-19T07:59:09.999Z</time>
      </trkpt>
      <trkpt lat="43.07775" lon="1.77947">
        <ele>293.12</ele>
        <time>2024-09-19T07:59:14.999Z</time>
      </trkpt>
      <trkpt lat="43.07771" lon="1.77974">
        <ele>293.2</ele>
        <time>2024-09-19T07:59:19.999Z</time>
      </trkpt>
      <trkpt lat="43.07767" lon="1.78001">
        <ele>293.23</ele>
        <time>2024-09-19T07:59:24.999Z</time>
      </trkpt>
      <trkpt lat="43.07762" lon="1.7803">
        <ele>293.34</ele>
        <time>2024-09-19T07:59:29.999Z</time>
      </trkpt>
      <trkpt lat="43.07758" lon="1.78062">
        <ele>293.48</ele>
        <time>2024-09-19T07:59:34.999Z</time>
      </trkpt>
      <trkpt lat="43.07756" lon="1.78095">
        <ele>293.59</ele>
        <time>2024-09-19T07:59:39.999Z</time>
      </trkpt>
      <trkpt lat="43.07753" lon="1.78126">
        <ele>293.65</ele>
        <time>2024-09-19T07:59:44.999Z</time>
      </trkpt>
      <trkpt lat="43.0775" lon="1.78157">
        <ele>293.67</ele>
        <time>2024-09-19T07:59:49.999Z</time>
      </trkpt>
      <trkpt lat="43.07748" lon="1.78188">
        <ele>293.65</ele>
        <time>2024-09-19T07:59:55.000Z</time>
      </trkpt>
      <trkpt lat="43.07746" lon="1.7822">
        <ele>293.63</ele>
        <time>2024-09-19T08:00:00.000Z</time>
      </trkpt>
      <trkpt lat="43.07743" lon="1.78249">
        <ele>293.6</ele>
        <time>2024-09-19T08:00:05.000Z</time>
      </trkpt>
      <trkpt lat="43.07741" lon="1.78281">
        <ele>293.61</ele>
        <time>2024-09-19T08:00:10.000Z</time>
      </trkpt>
      <trkpt lat="43.07738" lon="1.78314">
        <ele>293.62</ele>
        <time>2024-09-19T08:00:15.000Z</time>
      </trkpt>
      <trkpt lat="43.07735" lon="1.78345">
        <ele>293.63</ele>
        <time>2024-09-19T08:00:20.000Z</time>
      </trkpt>
      <trkpt lat="43.07731" lon="1.78376">
        <ele>293.63</ele>
        <time>2024-09-19T08:00:25.000Z</time>
      </trkpt>
      <trkpt lat="43.07728" lon="1.78408">
        <ele>293.61</ele>
        <time>2024-09-19T08:00:30.000Z</time>
      </trkpt>
      <trkpt lat="43.07726" lon="1.7844">
        <ele>293.57</ele>
        <time>2024-09-19T08:00:35.000Z</time>
      </trkpt>
      <trkpt lat="43.07723" lon="1.78474">
        <ele>293.54</ele>
        <time>2024-09-19T08:00:40.000Z</time>
      </trkpt>
      <trkpt lat="43.07718" lon="1.78506">
        <ele>293.55</ele>
        <time>2024-09-19T08:00:45.000Z</time>
      </trkpt>
      <trkpt lat="43.07716" lon="1.78536">
        <ele>293.67</ele>
        <time>2024-09-19T08:00:50.000Z</time>
      </trkpt>
      <trkpt lat="43.07713" lon="1.78569">
        <ele>293.73</ele>
        <time>2024-09-19T08:00:55.000Z</time>
      </trkpt>
      <trkpt lat="43.07709" lon="1.786">
        <ele>293.79</ele>
        <time>2024-09-19T08:01:00.000Z</time>
      </trkpt>
      <trkpt lat="43.07705" lon="1.78633">
        <ele>293.87</ele>
        <time>2024-09-19T08:01:05.000Z</time>
      </trkpt>
      <trkpt lat="43.07699" lon="1.78663">
        <ele>294.01</ele>
        <time>2024-09-19T08:01:10.000Z</time>
      </trkpt>
      <trkpt lat="43.07696" lon="1.78692">
        <ele>294.14</ele>
        <time>2024-09-19T08:01:15.000Z</time>
      </trkpt>
      <trkpt lat="43.07694" lon="1.78721">
        <ele>294.25</ele>
        <time>2024-09-19T08:01:20.000Z</time>
      </trkpt>
      <trkpt lat="43.07691" lon="1.78749">
        <ele>294.34</ele>
        <time>2024-09-19T08:01:25.000Z</time>
      </trkpt>
      <trkpt lat="43.07688" lon="1.78775">
        <ele>294.42</ele>
        <time>2024-09-19T08:01:30.000Z</time>
      </trkpt>
      <trkpt lat="43.07687" lon="1.78802">
        <ele>294.5</ele>
        <time>2024-09-19T08:01:35.000Z</time>
      </trkpt>
      <trkpt lat="43.07687" lon="1.78825">
        <ele>294.52</ele>
        <time>2024-09-19T08:01:40.000Z</time>
      </trkpt>
      <trkpt lat="43.07686" lon="1.78848">
        <ele>294.53</ele>
        <time>2024-09-19T08:01:45.000Z</time>
      </trkpt>
      <trkpt lat="43.07686" lon="1.78874">
        <ele>294.57</ele>
        <time>2024-09-19T08:01:50.000Z</time>
      </trkpt>
      <trkpt lat="43.07682" lon="1.78893">
        <ele>294.58</ele>
        <time>2024-09-19T08:01:55.000Z</time>
      </trkpt>
      <trkpt lat="43.07682" lon="1.78919">
        <ele>294.6</ele>
        <time>2024-09-19T08:02:00.000Z</time>
      </trkpt>
      <trkpt lat="43.07682" lon="1.7895">
        <ele>294.62</ele>
        <time>2024-09-19T08:02:05.000Z</time>
      </trkpt>
      <trkpt lat="43.07679" lon="1.7898">
        <ele>294.58</ele>
        <time>2024-09-19T08:02:10.000Z</time>
      </trkpt>
      <trkpt lat="43.07675" lon="1.79005">
        <ele>294.56</ele>
        <time>2024-09-19T08:02:15.000Z</time>
      </trkpt>
      <trkpt lat="43.07671" lon="1.79029">
        <ele>294.55</ele>
        <time>2024-09-19T08:02:20.000Z</time>
      </trkpt>
      <trkpt lat="43.07667" lon="1.79054">
        <ele>294.56</ele>
        <time>2024-09-19T08:02:25.000Z</time>
      </trkpt>
      <trkpt lat="43.07664" lon="1.79079">
        <ele>294.57</ele>
        <time>2024-09-19T08:02:30.000Z</time>
      </trkpt>
      <trkpt lat="43.07659" lon="1.79107">
        <ele>294.58</ele>
        <time>2024-09-19T08:02:35.000Z</time>
      </trkpt>
      <trkpt lat="43.07656" lon="1.79134">
        <ele>294.63</ele>
        <time>2024-09-19T08:02:40.000Z</time>
      </trkpt>
      <trkpt lat="43.07654" lon="1.79161">
        <ele>294.7</ele>
        <time>2024-09-19T08:02:45.000Z</time>
      </trkpt>
      <trkpt lat="43.07651" lon="1.79192">
        <ele>294.69</ele>
        <time>2024-09-19T08:02:50.000Z</time>
      </trkpt>
      <trkpt lat="43.07647" lon="1.79224">
        <ele>294.72</ele>
        <time>2024-09-19T08:02:55.000Z</time>
      </trkpt>
      <trkpt lat="43.07643" lon="1.79255">
        <ele>294.69</ele>
        <time>2024-09-19T08:03:00.000Z</time>
      </trkpt>
      <trkpt lat="43.07641" lon="1.79289">
        <ele>294.73</ele>
        <time>2024-09-19T08:03:05.000Z</time>
      </trkpt>
      <trkpt lat="43.07638" lon="1.79321">
        <ele>294.78</ele>
        <time>2024-09-19T08:03:10.000Z</time>
      </trkpt>
      <trkpt lat="43.07635" lon="1.79351">
        <ele>294.82</ele>
        <time>2024-09-19T08:03:15.000Z</time>
      </trkpt>
      <trkpt lat="43.07634" lon="1.79379">
        <ele>294.81</ele>
        <time>2024-09-19T08:03:20.000Z</time>
      </trkpt>
      <trkpt lat="43.07635" lon="1.79418">
        <ele>294.77</ele>
        <time>2024-09-19T08:03:25.000Z</time>
      </trkpt>
      <trkpt lat="43.07633" lon="1.79465">
        <ele>294.76</ele>
        <time>2024-09-19T08:03:30.000Z</time>
      </trkpt>
      <trkpt lat="43.0763" lon="1.79492">
        <ele>294.78</ele>
        <time>2024-09-19T08:03:35.000Z</time>
      </trkpt>
      <trkpt lat="43.07626" lon="1.79504">
        <ele>294.77</ele>
        <time>2024-09-19T08:03:40.000Z</time>
      </trkpt>
      <trkpt lat="43.07619" lon="1.79516">
        <ele>294.74</ele>
        <time>2024-09-19T08:03:46.000Z</time>
      </trkpt>
      <trkpt lat="43.07619" lon="1.79538">
        <ele>294.71</ele>
        <time>2024-09-19T08:03:51.000Z</time>
      </trkpt>
      <trkpt lat="43.07622" lon="1.79559">
        <ele>294.71</ele>
        <time>2024-09-19T08:03:56.000Z</time>
      </trkpt>
      <trkpt lat="43.0762" lon="1.79582">
        <ele>294.79</ele>
        <time>2024-09-19T08:04:01.000Z</time>
      </trkpt>
      <trkpt lat="43.07617" lon="1.79601">
        <ele>294.97</ele>
        <time>2024-09-19T08:04:06.000Z</time>
      </trkpt>
      <trkpt lat="43.07614" lon="1.79621">
        <ele>295.2</ele>
        <time>2024-09-19T08:04:11.000Z</time>
      </trkpt>
      <trkpt lat="43.07613" lon="1.79643">
        <ele>295.39</ele>
        <time>2024-09-19T08:04:16.000Z</time>
      </trkpt>
      <trkpt lat="43.0761" lon="1.79666">
        <ele>295.57</ele>
        <time>2024-09-19T08:04:21.000Z</time>
      </trkpt>
      <trkpt lat="43.07607" lon="1.79689">
        <ele>295.73</ele>
        <time>2024-09-19T08:04:26.000Z</time>
      </trkpt>
      <trkpt lat="43.07605" lon="1.79713">
        <ele>295.85</ele>
        <time>2024-09-19T08:04:31.000Z</time>
      </trkpt>
      <trkpt lat="43.07603" lon="1.79736">
        <ele>295.99</ele>
        <time>2024-09-19T08:04:36.000Z</time>
      </trkpt>
      <trkpt lat="43.076" lon="1.79766">
        <ele>295.91</ele>
        <time>2024-09-19T08:04:41.000Z</time>
      </trkpt>
      <trkpt lat="43.07597" lon="1.7979">
        <ele>295.88</ele>
        <time>2024-09-19T08:04:46.000Z</time>
      </trkpt>
      <trkpt lat="43.07595" lon="1.7981">
        <ele>295.89</ele>
        <time>2024-09-19T08:04:51.000Z</time>
      </trkpt>
      <trkpt lat="43.07593" lon="1.79831">
        <ele>295.92</ele>
        <time>2024-09-19T08:04:56.000Z</time>
      </trkpt>
      <trkpt lat="43.07591" lon="1.79844">
        <ele>295.99</ele>
        <time>2024-09-19T08:05:01.000Z</time>
      </trkpt>
      <trkpt lat="43.07588" lon="1.79857">
        <ele>297.24</ele>
        <time>2024-09-19T08:06:10.000Z</time>
      </trkpt>
      <trkpt lat="43.07585" lon="1.79875">
        <ele>297.69</ele>
        <time>2024-09-19T08:06:15.000Z</time>
      </trkpt>
      <trkpt lat="43.07585" lon="1.79896">
        <ele>298.09</ele>
        <time>2024-09-19T08:06:20.000Z</time>
      </trkpt>
      <trkpt lat="43.07584" lon="1.79919">
        <ele>298.43</ele>
        <time>2024-09-19T08:06:25.000Z</time>
      </trkpt>
      <trkpt lat="43.07583" lon="1.79942">
        <ele>298.74</ele>
        <time>2024-09-19T08:06:30.000Z</time>
      </trkpt>
      <trkpt lat="43.07583" lon="1.79968">
        <ele>299.05</ele>
        <time>2024-09-19T08:06:35.000Z</time>
      </trkpt>
      <trkpt lat="43.07584" lon="1.79996">
        <ele>299.8</ele>
        <time>2024-09-19T08:06:40.000Z</time>
      </trkpt>
      <trkpt lat="43.07585" lon="1.8002">
        <ele>300.4</ele>
        <time>2024-09-19T08:06:45.000Z</time>
      </trkpt>
      <trkpt lat="43.07579" lon="1.80054">
        <ele>300.62</ele>
        <time>2024-09-19T08:06:50.000Z</time>
      </trkpt>
      <trkpt lat="43.0758" lon="1.80077">
        <ele>301.01</ele>
        <time>2024-09-19T08:06:55.000Z</time>
      </trkpt>
      <trkpt lat="43.07572" lon="1.80107">
        <ele>301.09</ele>
        <time>2024-09-19T08:07:00.000Z</time>
      </trkpt>
      <trkpt lat="43.0757" lon="1.80131">
        <ele>301.22</ele>
        <time>2024-09-19T08:07:05.000Z</time>
      </trkpt>
      <trkpt lat="43.07567" lon="1.80163">
        <ele>301.31</ele>
        <time>2024-09-19T08:07:10.000Z</time>
      </trkpt>
      <trkpt lat="43.07567" lon="1.80188">
        <ele>301.28</ele>
        <time>2024-09-19T08:07:15.000Z</time>
      </trkpt>
      <trkpt lat="43.07562" lon="1.80213">
        <ele>301.26</ele>
        <time>2024-09-19T08:07:20.000Z</time>
      </trkpt>
      <trkpt lat="43.0756" lon="1.8023">
        <ele>301.24</ele>
        <time>2024-09-19T08:07:25.000Z</time>
      </trkpt>
      <trkpt lat="43.0756" lon="1.80247">
        <ele>301.2</ele>
        <time>2024-09-19T08:07:30.000Z</time>
      </trkpt>
      <trkpt lat="43.07556" lon="1.80273">
        <ele>301.14</ele>
        <time>2024-09-19T08:07:35.000Z</time>
      </trkpt>
      <trkpt lat="43.07553" lon="1.80297">
        <ele>301.07</ele>
        <time>2024-09-19T08:07:40.000Z</time>
      </trkpt>
      <trkpt lat="43.0755" lon="1.80327">
        <ele>301.01</ele>
        <time>2024-09-19T08:07:45.000Z</time>
      </trkpt>
      <trkpt lat="43.07549" lon="1.8036">
        <ele>300.98</ele>
        <time>2024-09-19T08:07:50.000Z</time>
      </trkpt>
      <trkpt lat="43.07541" lon="1.80391">
        <ele>301.03</ele>
        <time>2024-09-19T08:07:55.000Z</time>
      </trkpt>
      <trkpt lat="43.07539" lon="1.80418">
        <ele>301.04</ele>
        <time>2024-09-19T08:08:00.000Z</time>
      </trkpt>
      <trkpt lat="43.07538" lon="1.80444">
        <ele>301.07</ele>
        <time>2024-09-19T08:08:05.000Z</time>
      </trkpt>
      <trkpt lat="43.07537" lon="1.80476">
        <ele>301.21</ele>
        <time>2024-09-19T08:08:10.000Z</time>
      </trkpt>
      <trkpt lat="43.07534" lon="1.80506">
        <ele>301.61</ele>
        <time>2024-09-19T08:08:15.000Z</time>
      </trkpt>
      <trkpt lat="43.07531" lon="1.80535">
        <ele>301.85</ele>
        <time>2024-09-19T08:08:20.000Z</time>
      </trkpt>
      <trkpt lat="43.07525" lon="1.80568">
        <ele>301.84</ele>
        <time>2024-09-19T08:08:25.000Z</time>
      </trkpt>
      <trkpt lat="43.0752" lon="1.80597">
        <ele>301.73</ele>
        <time>2024-09-19T08:08:30.000Z</time>
      </trkpt>
      <trkpt lat="43.07516" lon="1.80627">
        <ele>301.75</ele>
        <time>2024-09-19T08:08:35.000Z</time>
      </trkpt>
      <trkpt lat="43.07512" lon="1.80659">
        <ele>301.72</ele>
        <time>2024-09-19T08:08:40.000Z</time>
      </trkpt>
      <trkpt lat="43.0751" lon="1.80687">
        <ele>301.75</ele>
        <time>2024-09-19T08:08:45.000Z</time>
      </trkpt>
      <trkpt lat="43.07509" lon="1.80714">
        <ele>301.76</ele>
        <time>2024-09-19T08:08:50.000Z</time>
      </trkpt>
      <trkpt lat="43.07509" lon="1.80741">
        <ele>301.76</ele>
        <time>2024-09-19T08:08:55.000Z</time>
      </trkpt>
      <trkpt lat="43.07509" lon="1.80769">
        <ele>301.74</ele>
        <time>2024-09-19T08:09:00.000Z</time>
      </trkpt>
      <trkpt lat="43.07506" lon="1.80795">
        <ele>301.69</ele>
        <time>2024-09-19T08:09:05.000Z</time>
      </trkpt>
      <trkpt lat="43.07501" lon="1.80818">
        <ele>301.66</ele>
        <time>2024-09-19T08:09:10.000Z</time>
      </trkpt>
      <trkpt lat="43.07498" lon="1.80848">
        <ele>301.7</ele>
        <time>2024-09-19T08:09:15.000Z</time>
      </trkpt>
      <trkpt lat="43.07497" lon="1.80876">
        <ele>301.8</ele>
        <time>2024-09-19T08:09:20.000Z</time>
      </trkpt>
      <trkpt lat="43.07498" lon="1.80902">
        <ele>301.86</ele>
        <time>2024-09-19T08:09:25.000Z</time>
      </trkpt>
      <trkpt lat="43.07495" lon="1.80932">
        <ele>301.94</ele>
        <time>2024-09-19T08:09:30.000Z</time>
      </trkpt>
      <trkpt lat="43.07492" lon="1.80964">
        <ele>301.85</ele>
        <time>2024-09-19T08:09:35.000Z</time>
      </trkpt>
      <trkpt lat="43.07485" lon="1.8099">
        <ele>301.71</ele>
        <time>2024-09-19T08:09:40.000Z</time>
      </trkpt>
      <trkpt lat="43.07479" lon="1.8102">
        <ele>301.62</ele>
        <time>2024-09-19T08:09:45.000Z</time>
      </trkpt>
      <trkpt lat="43.07475" lon="1.81051">
        <ele>301.59</ele>
        <time>2024-09-19T08:09:50.000Z</time>
      </trkpt>
      <trkpt lat="43.07475" lon="1.81085">
        <ele>301.69</ele>
        <time>2024-09-19T08:09:55.000Z</time>
      </trkpt>
      <trkpt lat="43.07473" lon="1.81117">
        <ele>301.9</ele>
        <time>2024-09-19T08:10:00.000Z</time>
      </trkpt>
      <trkpt lat="43.07469" lon="1.81148">
        <ele>301.96</ele>
        <time>2024-09-19T08:10:05.000Z</time>
      </trkpt>
      <trkpt lat="43.07468" lon="1.81174">
        <ele>301.94</ele>
        <time>2024-09-19T08:10:10.000Z</time>
      </trkpt>
      <trkpt lat="43.07464" lon="1.81206">
        <ele>301.87</ele>
        <time>2024-09-19T08:10:15.000Z</time>
      </trkpt>
      <trkpt lat="43.0746" lon="1.81239">
        <ele>301.82</ele>
        <time>2024-09-19T08:10:20.000Z</time>
      </trkpt>
      <trkpt lat="43.07457" lon="1.81272">
        <ele>301.77</ele>
        <time>2024-09-19T08:10:25.000Z</time>
      </trkpt>
      <trkpt lat="43.07454" lon="1.8131">
        <ele>301.64</ele>
        <time>2024-09-19T08:10:30.000Z</time>
      </trkpt>
      <trkpt lat="43.0745" lon="1.81351">
        <ele>301.66</ele>
        <time>2024-09-19T08:10:35.000Z</time>
      </trkpt>
      <trkpt lat="43.07448" lon="1.81385">
        <ele>301.74</ele>
        <time>2024-09-19T08:10:40.000Z</time>
      </trkpt>
      <trkpt lat="43.07445" lon="1.81417">
        <ele>301.8</ele>
        <time>2024-09-19T08:10:45.000Z</time>
      </trkpt>
      <trkpt lat="43.07443" lon="1.8145">
        <ele>301.81</ele>
        <time>2024-09-19T08:10:50.000Z</time>
      </trkpt>
      <trkpt lat="43.07441" lon="1.81485">
        <ele>301.82</ele>
        <time>2024-09-19T08:10:55.000Z</time>
      </trkpt>
      <trkpt lat="43.07439" lon="1.8152">
        <ele>301.86</ele>
        <time>2024-09-19T08:11:00.000Z</time>
      </trkpt>
      <trkpt lat="43.07439" lon="1.81555">
        <ele>302.06</ele>
        <time>2024-09-19T08:11:05.000Z</time>
      </trkpt>
      <trkpt lat="43.07441" lon="1.8159">
        <ele>302.14</ele>
        <time>2024-09-19T08:11:10.000Z</time>
      </trkpt>
      <trkpt lat="43.07442" lon="1.81626">
        <ele>302.08</ele>
        <time>2024-09-19T08:11:15.000Z</time>
      </trkpt>
      <trkpt lat="43.07444" lon="1.81657">
        <ele>301.97</ele>
        <time>2024-09-19T08:11:20.000Z</time>
      </trkpt>
      <trkpt lat="43.07447" lon="1.8169">
        <ele>301.81</ele>
        <time>2024-09-19T08:11:25.000Z</time>
      </trkpt>
      <trkpt lat="43.0745" lon="1.81725">
        <ele>301.8</ele>
        <time>2024-09-19T08:11:30.000Z</time>
      </trkpt>
      <trkpt lat="43.07454" lon="1.81756">
        <ele>301.84</ele>
        <time>2024-09-19T08:11:35.000Z</time>
      </trkpt>
      <trkpt lat="43.07459" lon="1.81787">
        <ele>301.87</ele>
        <time>2024-09-19T08:11:40.000Z</time>
      </trkpt>
      <trkpt lat="43.07466" lon="1.8182">
        <ele>301.85</ele>
        <time>2024-09-19T08:11:45.000Z</time>
      </trkpt>
      <trkpt lat="43.07473" lon="1.81853">
        <ele>301.88</ele>
        <time>2024-09-19T08:11:50.000Z</time>
      </trkpt>
      <trkpt lat="43.07481" lon="1.81885">
        <ele>301.97</ele>
        <time>2024-09-19T08:11:55.000Z</time>
      </trkpt>
      <trkpt lat="43.07489" lon="1.81915">
        <ele>301.95</ele>
        <time>2024-09-19T08:12:00.000Z</time>
      </trkpt>
      <trkpt lat="43.07498" lon="1.81947">
        <ele>301.89</ele>
        <time>2024-09-19T08:12:05.000Z</time>
      </trkpt>
      <trkpt lat="43.07511" lon="1.81989">
        <ele>301.82</ele>
        <time>2024-09-19T08:12:10.999Z</time>
      </trkpt>
      <trkpt lat="43.07519" lon="1.82026">
        <ele>301.82</ele>
        <time>2024-09-19T08:12:15.999Z</time>
      </trkpt>
      <trkpt lat="43.07524" lon="1.82058">
        <ele>301.85</ele>
        <time>2024-09-19T08:12:20.999Z</time>
      </trkpt>
      <trkpt lat="43.07529" lon="1.82092">
        <ele>301.9</ele>
        <time>2024-09-19T08:12:25.999Z</time>
      </trkpt>
      <trkpt lat="43.07535" lon="1.82121">
        <ele>301.99</ele>
        <time>2024-09-19T08:12:30.999Z</time>
      </trkpt>
      <trkpt lat="43.07541" lon="1.82143">
        <ele>302.01</ele>
        <time>2024-09-19T08:12:35.999Z</time>
      </trkpt>
      <trkpt lat="43.07549" lon="1.82153">
        <ele>302.02</ele>
        <time>2024-09-19T08:12:41.999Z</time>
      </trkpt>
      <trkpt lat="43.07554" lon="1.82169">
        <ele>302.05</ele>
        <time>2024-09-19T08:12:46.999Z</time>
      </trkpt>
      <trkpt lat="43.07559" lon="1.82195">
        <ele>302.11</ele>
        <time>2024-09-19T08:12:51.999Z</time>
      </trkpt>
      <trkpt lat="43.07565" lon="1.82224">
        <ele>302.18</ele>
        <time>2024-09-19T08:12:56.999Z</time>
      </trkpt>
      <trkpt lat="43.07572" lon="1.8225">
        <ele>302.22</ele>
        <time>2024-09-19T08:13:01.999Z</time>
      </trkpt>
      <trkpt lat="43.07579" lon="1.82277">
        <ele>302.22</ele>
        <time>2024-09-19T08:13:06.999Z</time>
      </trkpt>
      <trkpt lat="43.07587" lon="1.82307">
        <ele>302.15</ele>
        <time>2024-09-19T08:13:11.999Z</time>
      </trkpt>
      <trkpt lat="43.07595" lon="1.82336">
        <ele>302.03</ele>
        <time>2024-09-19T08:13:16.999Z</time>
      </trkpt>
      <trkpt lat="43.07602" lon="1.82369">
        <ele>301.97</ele>
        <time>2024-09-19T08:13:21.999Z</time>
      </trkpt>
      <trkpt lat="43.0761" lon="1.82397">
        <ele>301.97</ele>
        <time>2024-09-19T08:13:26.999Z</time>
      </trkpt>
      <trkpt lat="43.07617" lon="1.82427">
        <ele>301.98</ele>
        <time>2024-09-19T08:13:31.999Z</time>
      </trkpt>
      <trkpt lat="43.07624" lon="1.82455">
        <ele>302.05</ele>
        <time>2024-09-19T08:13:36.999Z</time>
      </trkpt>
      <trkpt lat="43.07633" lon="1.82491">
        <ele>302.22</ele>
        <time>2024-09-19T08:13:41.999Z</time>
      </trkpt>
      <trkpt lat="43.07643" lon="1.82526">
        <ele>302.32</ele>
        <time>2024-09-19T08:13:46.999Z</time>
      </trkpt>
      <trkpt lat="43.07649" lon="1.82555">
        <ele>302.38</ele>
        <time>2024-09-19T08:13:51.999Z</time>
      </trkpt>
      <trkpt lat="43.07657" lon="1.82581">
        <ele>302.4</ele>
        <time>2024-09-19T08:13:56.999Z</time>
      </trkpt>
      <trkpt lat="43.07664" lon="1.82606">
        <ele>302.44</ele>
        <time>2024-09-19T08:14:01.999Z</time>
      </trkpt>
      <trkpt lat="43.07668" lon="1.82624">
        <ele>302.49</ele>
        <time>2024-09-19T08:14:06.999Z</time>
      </trkpt>
      <trkpt lat="43.07673" lon="1.82646">
        <ele>302.54</ele>
        <time>2024-09-19T08:14:11.999Z</time>
      </trkpt>
      <trkpt lat="43.0768" lon="1.8267">
        <ele>302.59</ele>
        <time>2024-09-19T08:14:16.999Z</time>
      </trkpt>
      <trkpt lat="43.07685" lon="1.82694">
        <ele>302.65</ele>
        <time>2024-09-19T08:14:21.999Z</time>
      </trkpt>
      <trkpt lat="43.07693" lon="1.82717">
        <ele>302.79</ele>
        <time>2024-09-19T08:14:26.999Z</time>
      </trkpt>
      <trkpt lat="43.077" lon="1.82746">
        <ele>303.04</ele>
        <time>2024-09-19T08:14:31.999Z</time>
      </trkpt>
      <trkpt lat="43.07708" lon="1.82775">
        <ele>303.15</ele>
        <time>2024-09-19T08:14:36.999Z</time>
      </trkpt>
      <trkpt lat="43.07715" lon="1.82803">
        <ele>303.22</ele>
        <time>2024-09-19T08:14:41.999Z</time>
      </trkpt>
      <trkpt lat="43.07723" lon="1.82829">
        <ele>303.26</ele>
        <time>2024-09-19T08:14:46.999Z</time>
      </trkpt>
      <trkpt lat="43.07729" lon="1.82855">
        <ele>303.27</ele>
        <time>2024-09-19T08:14:51.999Z</time>
      </trkpt>
      <trkpt lat="43.07736" lon="1.82882">
        <ele>303.26</ele>
        <time>2024-09-19T08:14:56.999Z</time>
      </trkpt>
      <trkpt lat="43.07743" lon="1.82906">
        <ele>303.26</ele>
        <time>2024-09-19T08:15:01.999Z</time>
      </trkpt>
      <trkpt lat="43.0775" lon="1.82933">
        <ele>303.25</ele>
        <time>2024-09-19T08:15:06.999Z</time>
      </trkpt>
      <trkpt lat="43.07757" lon="1.82961">
        <ele>303.23</ele>
        <time>2024-09-19T08:15:11.999Z</time>
      </trkpt>
      <trkpt lat="43.07764" lon="1.82989">
        <ele>303.19</ele>
        <time>2024-09-19T08:15:16.999Z</time>
      </trkpt>
      <trkpt lat="43.07771" lon="1.83019">
        <ele>303.1</ele>
        <time>2024-09-19T08:15:21.999Z</time>
      </trkpt>
      <trkpt lat="43.07779" lon="1.83048">
        <ele>303.07</ele>
        <time>2024-09-19T08:15:26.999Z</time>
      </trkpt>
      <trkpt lat="43.07786" lon="1.83077">
        <ele>303.08</ele>
        <time>2024-09-19T08:15:31.999Z</time>
      </trkpt>
      <trkpt lat="43.07793" lon="1.83105">
        <ele>303.05</ele>
        <time>2024-09-19T08:15:36.999Z</time>
      </trkpt>
      <trkpt lat="43.07801" lon="1.83134">
        <ele>303.02</ele>
        <time>2024-09-19T08:15:41.999Z</time>
      </trkpt>
      <trkpt lat="43.07809" lon="1.83163">
        <ele>302.99</ele>
        <time>2024-09-19T08:15:46.999Z</time>
      </trkpt>
      <trkpt lat="43.07816" lon="1.83191">
        <ele>302.95</ele>
        <time>2024-09-19T08:15:51.999Z</time>
      </trkpt>
      <trkpt lat="43.07824" lon="1.8322">
        <ele>302.94</ele>
        <time>2024-09-19T08:15:56.999Z</time>
      </trkpt>
      <trkpt lat="43.07832" lon="1.83248">
        <ele>302.93</ele>
        <time>2024-09-19T08:16:01.999Z</time>
      </trkpt>
      <trkpt lat="43.07838" lon="1.83271">
        <ele>302.92</ele>
        <time>2024-09-19T08:16:06.999Z</time>
      </trkpt>
      <trkpt lat="43.07844" lon="1.83293">
        <ele>302.93</ele>
        <time>2024-09-19T08:16:11.999Z</time>
      </trkpt>
      <trkpt lat="43.07852" lon="1.83307">
        <ele>302.94</ele>
        <time>2024-09-19T08:16:16.999Z</time>
      </trkpt>
      <trkpt lat="43.07862" lon="1.83317">
        <ele>302.96</ele>
        <time>2024-09-19T08:16:21.999Z</time>
      </trkpt>
      <trkpt lat="43.07865" lon="1.83331">
        <ele>302.97</ele>
        <time>2024-09-19T08:16:27.999Z</time>
      </trkpt>
      <trkpt lat="43.07868" lon="1.83343">
        <ele>303.01</ele>
        <time>2024-09-19T08:16:54.999Z</time>
      </trkpt>
      <trkpt lat="43.07871" lon="1.83355">
        <ele>303.2</ele>
        <time>2024-09-19T08:18:38.999Z</time>
      </trkpt>
      <trkpt lat="43.07873" lon="1.83376">
        <ele>303.25</ele>
        <time>2024-09-19T08:18:43.999Z</time>
      </trkpt>
      <trkpt lat="43.07881" lon="1.83407">
        <ele>303.55</ele>
        <time>2024-09-19T08:18:48.999Z</time>
      </trkpt>
      <trkpt lat="43.07889" lon="1.83438">
        <ele>303.81</ele>
        <time>2024-09-19T08:18:53.999Z</time>
      </trkpt>
      <trkpt lat="43.07891" lon="1.83462">
        <ele>303.84</ele>
        <time>2024-09-19T08:18:58.999Z</time>
      </trkpt>
      <trkpt lat="43.07898" lon="1.83486">
        <ele>304.03</ele>
        <time>2024-09-19T08:19:03.999Z</time>
      </trkpt>
      <trkpt lat="43.07904" lon="1.83513">
        <ele>304.19</ele>
        <time>2024-09-19T08:19:08.999Z</time>
      </trkpt>
      <trkpt lat="43.0791" lon="1.83539">
        <ele>304.29</ele>
        <time>2024-09-19T08:19:13.999Z</time>
      </trkpt>
      <trkpt lat="43.07916" lon="1.83569">
        <ele>304.51</ele>
        <time>2024-09-19T08:19:18.999Z</time>
      </trkpt>
      <trkpt lat="43.07924" lon="1.83602">
        <ele>304.74</ele>
        <time>2024-09-19T08:19:23.999Z</time>
      </trkpt>
      <trkpt lat="43.07931" lon="1.83631">
        <ele>304.91</ele>
        <time>2024-09-19T08:19:28.999Z</time>
      </trkpt>
      <trkpt lat="43.07939" lon="1.8366">
        <ele>305.04</ele>
        <time>2024-09-19T08:19:33.999Z</time>
      </trkpt>
      <trkpt lat="43.07948" lon="1.83693">
        <ele>305.07</ele>
        <time>2024-09-19T08:19:38.999Z</time>
      </trkpt>
      <trkpt lat="43.07955" lon="1.83724">
        <ele>305.14</ele>
        <time>2024-09-19T08:19:43.999Z</time>
      </trkpt>
      <trkpt lat="43.07962" lon="1.83753">
        <ele>305.19</ele>
        <time>2024-09-19T08:19:48.999Z</time>
      </trkpt>
      <trkpt lat="43.07971" lon="1.83782">
        <ele>305.35</ele>
        <time>2024-09-19T08:19:53.999Z</time>
      </trkpt>
      <trkpt lat="43.07978" lon="1.8381">
        <ele>305.52</ele>
        <time>2024-09-19T08:19:58.999Z</time>
      </trkpt>
      <trkpt lat="43.07986" lon="1.83836">
        <ele>305.61</ele>
        <time>2024-09-19T08:20:03.999Z</time>
      </trkpt>
      <trkpt lat="43.07993" lon="1.83861">
        <ele>305.62</ele>
        <time>2024-09-19T08:20:08.999Z</time>
      </trkpt>
      <trkpt lat="43.07999" lon="1.83886">
        <ele>305.64</ele>
        <time>2024-09-19T08:20:13.999Z</time>
      </trkpt>
      <trkpt lat="43.08009" lon="1.83915">
        <ele>305.72</ele>
        <time>2024-09-19T08:20:18.999Z</time>
      </trkpt>
      <trkpt lat="43.08019" lon="1.83943">
        <ele>305.8</ele>
        <time>2024-09-19T08:20:23.999Z</time>
      </trkpt>
      <trkpt lat="43.08028" lon="1.83967">
        <ele>305.82</ele>
        <time>2024-09-19T08:20:28.999Z</time>
      </trkpt>
      <trkpt lat="43.08038" lon="1.83995">
        <ele>305.88</ele>
        <time>2024-09-19T08:20:33.999Z</time>
      </trkpt>
      <trkpt lat="43.08049" lon="1.84024">
        <ele>305.99</ele>
        <time>2024-09-19T08:20:38.999Z</time>
      </trkpt>
      <trkpt lat="43.0806" lon="1.84049">
        <ele>306.08</ele>
        <time>2024-09-19T08:20:43.999Z</time>
      </trkpt>
      <trkpt lat="43.08072" lon="1.84075">
        <ele>306.21</ele>
        <time>2024-09-19T08:20:48.999Z</time>
      </trkpt>
      <trkpt lat="43.08083" lon="1.84101">
        <ele>306.33</ele>
        <time>2024-09-19T08:20:53.999Z</time>
      </trkpt>
      <trkpt lat="43.08096" lon="1.84129">
        <ele>306.5</ele>
        <time>2024-09-19T08:20:58.999Z</time>
      </trkpt>
      <trkpt lat="43.08108" lon="1.84156">
        <ele>306.67</ele>
        <time>2024-09-19T08:21:03.999Z</time>
      </trkpt>
      <trkpt lat="43.08121" lon="1.84185">
        <ele>306.79</ele>
        <time>2024-09-19T08:21:08.999Z</time>
      </trkpt>
      <trkpt lat="43.08134" lon="1.84212">
        <ele>306.82</ele>
        <time>2024-09-19T08:21:13.999Z</time>
      </trkpt>
      <trkpt lat="43.08147" lon="1.84237">
        <ele>306.82</ele>
        <time>2024-09-19T08:21:18.999Z</time>
      </trkpt>
      <trkpt lat="43.08159" lon="1.84264">
        <ele>306.84</ele>
        <time>2024-09-19T08:21:23.999Z</time>
      </trkpt>
      <trkpt lat="43.08172" lon="1.84292">
        <ele>306.89</ele>
        <time>2024-09-19T08:21:28.999Z</time>
      </trkpt>
      <trkpt lat="43.08184" lon="1.84319">
        <ele>306.98</ele>
        <time>2024-09-19T08:21:33.999Z</time>
      </trkpt>
      <trkpt lat="43.08197" lon="1.84346">
        <ele>307.09</ele>
        <time>2024-09-19T08:21:38.999Z</time>
      </trkpt>
      <trkpt lat="43.08209" lon="1.8437">
        <ele>307.21</ele>
        <time>2024-09-19T08:21:43.999Z</time>
      </trkpt>
      <trkpt lat="43.08219" lon="1.84392">
        <ele>307.24</ele>
        <time>2024-09-19T08:21:48.999Z</time>
      </trkpt>
      <trkpt lat="43.08227" lon="1.8441">
        <ele>307.29</ele>
        <time>2024-09-19T08:21:53.999Z</time>
      </trkpt>
      <trkpt lat="43.08234" lon="1.84425">
        <ele>307.34</ele>
        <time>2024-09-19T08:21:58.999Z</time>
      </trkpt>
      <trkpt lat="43.08241" lon="1.84443">
        <ele>307.41</ele>
        <time>2024-09-19T08:22:03.999Z</time>
      </trkpt>
      <trkpt lat="43.0825" lon="1.84459">
        <ele>307.48</ele>
        <time>2024-09-19T08:22:08.999Z</time>
      </trkpt>
      <trkpt lat="43.08257" lon="1.84476">
        <ele>307.55</ele>
        <time>2024-09-19T08:22:13.999Z</time>
      </trkpt>
      <trkpt lat="43.08265" lon="1.84493">
        <ele>307.62</ele>
        <time>2024-09-19T08:22:18.999Z</time>
      </trkpt>
      <trkpt lat="43.08275" lon="1.84516">
        <ele>307.7</ele>
        <time>2024-09-19T08:22:23.999Z</time>
      </trkpt>
      <trkpt lat="43.08284" lon="1.84536">
        <ele>307.79</ele>
        <time>2024-09-19T08:22:28.999Z</time>
      </trkpt>
      <trkpt lat="43.08294" lon="1.84558">
        <ele>307.88</ele>
        <time>2024-09-19T08:22:33.999Z</time>
      </trkpt>
      <trkpt lat="43.08306" lon="1.84582">
        <ele>308.32</ele>
        <time>2024-09-19T08:22:38.999Z</time>
      </trkpt>
      <trkpt lat="43.08317" lon="1.84606">
        <ele>308.73</ele>
        <time>2024-09-19T08:22:43.999Z</time>
      </trkpt>
      <trkpt lat="43.08327" lon="1.84631">
        <ele>308.96</ele>
        <time>2024-09-19T08:22:48.999Z</time>
      </trkpt>
      <trkpt lat="43.08339" lon="1.84654">
        <ele>309.2</ele>
        <time>2024-09-19T08:22:53.999Z</time>
      </trkpt>
      <trkpt lat="43.08351" lon="1.84678">
        <ele>309.32</ele>
        <time>2024-09-19T08:22:58.999Z</time>
      </trkpt>
      <trkpt lat="43.08363" lon="1.84702">
        <ele>309.44</ele>
        <time>2024-09-19T08:23:03.999Z</time>
      </trkpt>
      <trkpt lat="43.08374" lon="1.84727">
        <ele>309.58</ele>
        <time>2024-09-19T08:23:08.999Z</time>
      </trkpt>
      <trkpt lat="43.08384" lon="1.84751">
        <ele>309.75</ele>
        <time>2024-09-19T08:23:13.999Z</time>
      </trkpt>
      <trkpt lat="43.08395" lon="1.84775">
        <ele>309.95</ele>
        <time>2024-09-19T08:23:18.999Z</time>
      </trkpt>
      <trkpt lat="43.08406" lon="1.84797">
        <ele>310.13</ele>
        <time>2024-09-19T08:23:23.999Z</time>
      </trkpt>
      <trkpt lat="43.08418" lon="1.84821">
        <ele>310.33</ele>
        <time>2024-09-19T08:23:28.999Z</time>
      </trkpt>
      <trkpt lat="43.08429" lon="1.84842">
        <ele>310.5</ele>
        <time>2024-09-19T08:23:33.999Z</time>
      </trkpt>
      <trkpt lat="43.0844" lon="1.84866">
        <ele>310.74</ele>
        <time>2024-09-19T08:23:38.999Z</time>
      </trkpt>
      <trkpt lat="43.08451" lon="1.8489">
        <ele>310.91</ele>
        <time>2024-09-19T08:23:43.999Z</time>
      </trkpt>
      <trkpt lat="43.08461" lon="1.84916">
        <ele>311.07</ele>
        <time>2024-09-19T08:23:48.999Z</time>
      </trkpt>
      <trkpt lat="43.08471" lon="1.84939">
        <ele>311.2</ele>
        <time>2024-09-19T08:23:53.999Z</time>
      </trkpt>
      <trkpt lat="43.08482" lon="1.84964">
        <ele>311.36</ele>
        <time>2024-09-19T08:23:58.999Z</time>
      </trkpt>
      <trkpt lat="43.08494" lon="1.84988">
        <ele>311.45</ele>
        <time>2024-09-19T08:24:03.999Z</time>
      </trkpt>
      <trkpt lat="43.08505" lon="1.85012">
        <ele>311.51</ele>
        <time>2024-09-19T08:24:08.999Z</time>
      </trkpt>
      <trkpt lat="43.08515" lon="1.85043">
        <ele>311.56</ele>
        <time>2024-09-19T08:24:13.999Z</time>
      </trkpt>
      <trkpt lat="43.08526" lon="1.85072">
        <ele>311.66</ele>
        <time>2024-09-19T08:24:18.999Z</time>
      </trkpt>
      <trkpt lat="43.08536" lon="1.851">
        <ele>311.79</ele>
        <time>2024-09-19T08:24:24.000Z</time>
      </trkpt>
      <trkpt lat="43.08545" lon="1.85129">
        <ele>311.88</ele>
        <time>2024-09-19T08:24:29.000Z</time>
      </trkpt>
      <trkpt lat="43.08554" lon="1.85158">
        <ele>311.96</ele>
        <time>2024-09-19T08:24:34.000Z</time>
      </trkpt>
      <trkpt lat="43.08562" lon="1.85184">
        <ele>312.02</ele>
        <time>2024-09-19T08:24:39.000Z</time>
      </trkpt>
      <trkpt lat="43.08571" lon="1.85214">
        <ele>312.08</ele>
        <time>2024-09-19T08:24:44.000Z</time>
      </trkpt>
      <trkpt lat="43.08578" lon="1.85238">
        <ele>312.11</ele>
        <time>2024-09-19T08:24:49.000Z</time>
      </trkpt>
      <trkpt lat="43.08586" lon="1.85268">
        <ele>312.11</ele>
        <time>2024-09-19T08:24:54.000Z</time>
      </trkpt>
      <trkpt lat="43.08592" lon="1.85295">
        <ele>312.15</ele>
        <time>2024-09-19T08:24:59.000Z</time>
      </trkpt>
      <trkpt lat="43.08599" lon="1.85328">
        <ele>312.2</ele>
        <time>2024-09-19T08:25:04.000Z</time>
      </trkpt>
      <trkpt lat="43.08605" lon="1.85357">
        <ele>312.24</ele>
        <time>2024-09-19T08:25:09.000Z</time>
      </trkpt>
      <trkpt lat="43.08611" lon="1.85384">
        <ele>312.26</ele>
        <time>2024-09-19T08:25:14.000Z</time>
      </trkpt>
      <trkpt lat="43.08617" lon="1.85414">
        <ele>312.32</ele>
        <time>2024-09-19T08:25:19.000Z</time>
      </trkpt>
      <trkpt lat="43.08622" lon="1.85443">
        <ele>312.4</ele>
        <time>2024-09-19T08:25:24.000Z</time>
      </trkpt>
      <trkpt lat="43.08628" lon="1.85473">
        <ele>312.47</ele>
        <time>2024-09-19T08:25:29.000Z</time>
      </trkpt>
      <trkpt lat="43.08633" lon="1.85503">
        <ele>312.56</ele>
        <time>2024-09-19T08:25:34.000Z</time>
      </trkpt>
      <trkpt lat="43.08637" lon="1.85533">
        <ele>312.63</ele>
        <time>2024-09-19T08:25:39.000Z</time>
      </trkpt>
      <trkpt lat="43.0864" lon="1.85562">
        <ele>312.76</ele>
        <time>2024-09-19T08:25:44.000Z</time>
      </trkpt>
      <trkpt lat="43.08644" lon="1.85592">
        <ele>312.91</ele>
        <time>2024-09-19T08:25:49.000Z</time>
      </trkpt>
      <trkpt lat="43.08647" lon="1.85621">
        <ele>313.04</ele>
        <time>2024-09-19T08:25:54.000Z</time>
      </trkpt>
      <trkpt lat="43.0865" lon="1.85647">
        <ele>313.11</ele>
        <time>2024-09-19T08:25:59.000Z</time>
      </trkpt>
      <trkpt lat="43.08652" lon="1.85675">
        <ele>313.22</ele>
        <time>2024-09-19T08:26:04.000Z</time>
      </trkpt>
      <trkpt lat="43.08654" lon="1.85702">
        <ele>313.3</ele>
        <time>2024-09-19T08:26:09.000Z</time>
      </trkpt>
      <trkpt lat="43.08655" lon="1.85722">
        <ele>313.32</ele>
        <time>2024-09-19T08:26:14.000Z</time>
      </trkpt>
      <trkpt lat="43.08657" lon="1.85735">
        <ele>313.58</ele>
        <time>2024-09-19T08:28:00.000Z</time>
      </trkpt>
      <trkpt lat="43.08656" lon="1.85752">
        <ele>313.68</ele>
        <time>2024-09-19T08:28:05.000Z</time>
      </trkpt>
      <trkpt lat="43.0866" lon="1.85776">
        <ele>313.78</ele>
        <time>2024-09-19T08:28:10.000Z</time>
      </trkpt>
      <trkpt lat="43.08668" lon="1.85799">
        <ele>314.24</ele>
        <time>2024-09-19T08:28:15.000Z</time>
      </trkpt>
      <trkpt lat="43.0867" lon="1.85821">
        <ele>314.32</ele>
        <time>2024-09-19T08:28:20.000Z</time>
      </trkpt>
      <trkpt lat="43.08671" lon="1.85845">
        <ele>314.39</ele>
        <time>2024-09-19T08:28:25.000Z</time>
      </trkpt>
      <trkpt lat="43.08681" lon="1.85862">
        <ele>314.47</ele>
        <time>2024-09-19T08:28:30.000Z</time>
      </trkpt>
      <trkpt lat="43.08695" lon="1.85874">
        <ele>314.55</ele>
        <time>2024-09-19T08:28:35.000Z</time>
      </trkpt>
      <trkpt lat="43.08704" lon="1.85893">
        <ele>314.63</ele>
        <time>2024-09-19T08:28:40.000Z</time>
      </trkpt>
      <trkpt lat="43.08709" lon="1.85917">
        <ele>314.93</ele>
        <time>2024-09-19T08:28:45.000Z</time>
      </trkpt>
      <trkpt lat="43.08712" lon="1.85943">
        <ele>315.12</ele>
        <time>2024-09-19T08:28:50.000Z</time>
      </trkpt>
      <trkpt lat="43.08717" lon="1.85965">
        <ele>315.17</ele>
        <time>2024-09-19T08:28:55.000Z</time>
      </trkpt>
      <trkpt lat="43.08723" lon="1.85981">
        <ele>315.22</ele>
        <time>2024-09-19T08:29:00.000Z</time>
      </trkpt>
      <trkpt lat="43.08723" lon="1.85995">
        <ele>315.3</ele>
        <time>2024-09-19T08:29:07.000Z</time>
      </trkpt>
      <trkpt lat="43.08728" lon="1.86011">
        <ele>315.35</ele>
        <time>2024-09-19T08:29:12.000Z</time>
      </trkpt>
      <trkpt lat="43.08734" lon="1.86033">
        <ele>315.55</ele>
        <time>2024-09-19T08:29:17.000Z</time>
      </trkpt>
      <trkpt lat="43.08744" lon="1.86059">
        <ele>315.79</ele>
        <time>2024-09-19T08:29:22.000Z</time>
      </trkpt>
      <trkpt lat="43.08751" lon="1.86089">
        <ele>315.89</ele>
        <time>2024-09-19T08:29:27.000Z</time>
      </trkpt>
      <trkpt lat="43.08765" lon="1.86114">
        <ele>315.93</ele>
        <time>2024-09-19T08:29:32.000Z</time>
      </trkpt>
      <trkpt lat="43.08777" lon="1.86139">
        <ele>315.97</ele>
        <time>2024-09-19T08:29:37.000Z</time>
      </trkpt>
      <trkpt lat="43.08788" lon="1.86166">
        <ele>315.99</ele>
        <time>2024-09-19T08:29:42.000Z</time>
      </trkpt>
      <trkpt lat="43.08799" lon="1.86194">
        <ele>316.01</ele>
        <time>2024-09-19T08:29:47.000Z</time>
      </trkpt>
      <trkpt lat="43.0881" lon="1.8622">
        <ele>316.04</ele>
        <time>2024-09-19T08:29:52.000Z</time>
      </trkpt>
      <trkpt lat="43.08819" lon="1.86238">
        <ele>316.04</ele>
        <time>2024-09-19T08:29:57.000Z</time>
      </trkpt>
      <trkpt lat="43.08826" lon="1.8626">
        <ele>316.08</ele>
        <time>2024-09-19T08:30:02.000Z</time>
      </trkpt>
      <trkpt lat="43.08835" lon="1.86288">
        <ele>316.14</ele>
        <time>2024-09-19T08:30:07.000Z</time>
      </trkpt>
      <trkpt lat="43.08843" lon="1.8632">
        <ele>316.19</ele>
        <time>2024-09-19T08:30:12.000Z</time>
      </trkpt>
      <trkpt lat="43.0885" lon="1.86352">
        <ele>316.25</ele>
        <time>2024-09-19T08:30:17.000Z</time>
      </trkpt>
      <trkpt lat="43.08853" lon="1.86385">
        <ele>316.3</ele>
        <time>2024-09-19T08:30:22.000Z</time>
      </trkpt>
      <trkpt lat="43.08855" lon="1.86419">
        <ele>316.36</ele>
        <time>2024-09-19T08:30:27.000Z</time>
      </trkpt>
      <trkpt lat="43.08856" lon="1.86455">
        <ele>316.39</ele>
        <time>2024-09-19T08:30:32.000Z</time>
      </trkpt>
      <trkpt lat="43.08855" lon="1.86494">
        <ele>316.4</ele>
        <time>2024-09-19T08:30:37.000Z</time>
      </trkpt>
      <trkpt lat="43.08855" lon="1.86534">
        <ele>316.38</ele>
        <time>2024-09-19T08:30:42.000Z</time>
      </trkpt>
      <trkpt lat="43.08855" lon="1.86573">
        <ele>316.37</ele>
        <time>2024-09-19T08:30:47.000Z</time>
      </trkpt>
      <trkpt lat="43.08855" lon="1.86611">
        <ele>316.36</ele>
        <time>2024-09-19T08:30:52.000Z</time>
      </trkpt>
      <trkpt lat="43.08854" lon="1.86649">
        <ele>316.37</ele>
        <time>2024-09-19T08:30:57.000Z</time>
      </trkpt>
      <trkpt lat="43.08854" lon="1.86684">
        <ele>316.39</ele>
        <time>2024-09-19T08:31:02.000Z</time>
      </trkpt>
      <trkpt lat="43.08854" lon="1.8672">
        <ele>316.44</ele>
        <time>2024-09-19T08:31:07.000Z</time>
      </trkpt>
      <trkpt lat="43.08854" lon="1.86754">
        <ele>316.47</ele>
        <time>2024-09-19T08:31:12.000Z</time>
      </trkpt>
      <trkpt lat="43.08854" lon="1.8679">
        <ele>316.49</ele>
        <time>2024-09-19T08:31:17.000Z</time>
      </trkpt>
      <trkpt lat="43.08854" lon="1.86824">
        <ele>316.49</ele>
        <time>2024-09-19T08:31:22.000Z</time>
      </trkpt>
      <trkpt lat="43.08854" lon="1.86858">
        <ele>316.49</ele>
        <time>2024-09-19T08:31:27.000Z</time>
      </trkpt>
      <trkpt lat="43.08854" lon="1.86891">
        <ele>316.47</ele>
        <time>2024-09-19T08:31:32.000Z</time>
      </trkpt>
      <trkpt lat="43.08854" lon="1.86923">
        <ele>316.47</ele>
        <time>2024-09-19T08:31:37.000Z</time>
      </trkpt>
      <trkpt lat="43.08853" lon="1.86952">
        <ele>316.47</ele>
        <time>2024-09-19T08:31:42.000Z</time>
      </trkpt>
      <trkpt lat="43.08852" lon="1.8698">
        <ele>316.47</ele>
        <time>2024-09-19T08:31:47.000Z</time>
      </trkpt>
      <trkpt lat="43.08853" lon="1.87005">
        <ele>316.47</ele>
        <time>2024-09-19T08:31:52.000Z</time>
      </trkpt>
      <trkpt lat="43.08852" lon="1.8703">
        <ele>316.5</ele>
        <time>2024-09-19T08:31:57.000Z</time>
      </trkpt>
      <trkpt lat="43.08853" lon="1.87055">
        <ele>316.53</ele>
        <time>2024-09-19T08:32:02.000Z</time>
      </trkpt>
      <trkpt lat="43.08853" lon="1.87076">
        <ele>316.54</ele>
        <time>2024-09-19T08:32:07.000Z</time>
      </trkpt>
      <trkpt lat="43.08853" lon="1.87099">
        <ele>316.54</ele>
        <time>2024-09-19T08:32:12.000Z</time>
      </trkpt>
      <trkpt lat="43.08855" lon="1.87124">
        <ele>316.55</ele>
        <time>2024-09-19T08:32:17.000Z</time>
      </trkpt>
      <trkpt lat="43.08854" lon="1.8715">
        <ele>316.58</ele>
        <time>2024-09-19T08:32:22.000Z</time>
      </trkpt>
      <trkpt lat="43.08855" lon="1.87173">
        <ele>316.6</ele>
        <time>2024-09-19T08:32:27.000Z</time>
      </trkpt>
      <trkpt lat="43.08853" lon="1.8719">
        <ele>316.63</ele>
        <time>2024-09-19T08:32:32.000Z</time>
      </trkpt>
      <trkpt lat="43.08853" lon="1.87209">
        <ele>316.66</ele>
        <time>2024-09-19T08:32:37.000Z</time>
      </trkpt>
      <trkpt lat="43.08856" lon="1.87221">
        <ele>316.73</ele>
        <time>2024-09-19T08:32:46.000Z</time>
      </trkpt>
      <trkpt lat="43.08856" lon="1.87235">
        <ele>316.77</ele>
        <time>2024-09-19T08:32:51.000Z</time>
      </trkpt>
      <trkpt lat="43.08856" lon="1.87247">
        <ele>316.82</ele>
        <time>2024-09-19T08:32:59.000Z</time>
      </trkpt>
      <trkpt lat="43.08854" lon="1.87264">
        <ele>316.85</ele>
        <time>2024-09-19T08:33:04.000Z</time>
      </trkpt>
      <trkpt lat="43.08853" lon="1.87283">
        <ele>316.88</ele>
        <time>2024-09-19T08:33:09.000Z</time>
      </trkpt>
      <trkpt lat="43.08854" lon="1.87303">
        <ele>316.9</ele>
        <time>2024-09-19T08:33:14.000Z</time>
      </trkpt>
      <trkpt lat="43.08852" lon="1.87322">
        <ele>316.92</ele>
        <time>2024-09-19T08:33:19.000Z</time>
      </trkpt>
      <trkpt lat="43.08853" lon="1.87337">
        <ele>316.94</ele>
        <time>2024-09-19T08:33:24.000Z</time>
      </trkpt>
      <trkpt lat="43.08842" lon="1.87341">
        <ele>316.96</ele>
        <time>2024-09-19T08:33:30.000Z</time>
      </trkpt>
      <trkpt lat="43.08838" lon="1.87353">
        <ele>316.97</ele>
        <time>2024-09-19T08:33:51.000Z</time>
      </trkpt>
      <trkpt lat="43.0884" lon="1.87365">
        <ele>317</ele>
        <time>2024-09-19T08:34:16.000Z</time>
      </trkpt>
      <trkpt lat="43.08844" lon="1.87377">
        <ele>317.86</ele>
        <time>2024-09-19T08:37:17.999Z</time>
      </trkpt>
      <trkpt lat="43.08847" lon="1.87391">
        <ele>317.93</ele>
        <time>2024-09-19T08:37:23.999Z</time>
      </trkpt>
      <trkpt lat="43.08846" lon="1.87404">
        <ele>318</ele>
        <time>2024-09-19T08:37:30.999Z</time>
      </trkpt>
      <trkpt lat="43.08837" lon="1.87402">
        <ele>318.14</ele>
        <time>2024-09-19T08:37:43.999Z</time>
      </trkpt>
      <trkpt lat="43.08828" lon="1.87401">
        <ele>318.47</ele>
        <time>2024-09-19T08:38:23.999Z</time>
      </trkpt>
      <trkpt lat="43.08819" lon="1.874">
        <ele>320.49</ele>
        <time>2024-09-19T08:54:40.000Z</time>
      </trkpt>
      <trkpt lat="43.08824" lon="1.87411">
        <ele>320.55</ele>
        <time>2024-09-19T08:54:50.000Z</time>
      </trkpt>
      <trkpt lat="43.0883" lon="1.87401">
        <ele>320.66</ele>
        <time>2024-09-19T08:55:27.000Z</time>
      </trkpt>
      <trkpt lat="43.08819" lon="1.87405">
        <ele>322.1</ele>
        <time>2024-09-19T09:10:30.999Z</time>
      </trkpt>
      <trkpt lat="43.0881" lon="1.87406">
        <ele>322.1</ele>
        <time>2024-09-19T09:10:35.999Z</time>
      </trkpt>
      <trkpt lat="43.08804" lon="1.87417">
        <ele>322.09</ele>
        <time>2024-09-19T09:10:44.999Z</time>
      </trkpt>
      <trkpt lat="43.08805" lon="1.87431">
        <ele>322.09</ele>
        <time>2024-09-19T09:10:49.999Z</time>
      </trkpt>
      <trkpt lat="43.08803" lon="1.87446">
        <ele>322.09</ele>
        <time>2024-09-19T09:10:54.999Z</time>
      </trkpt>
      <trkpt lat="43.08802" lon="1.87462">
        <ele>322.09</ele>
        <time>2024-09-19T09:10:59.999Z</time>
      </trkpt>
      <trkpt lat="43.08801" lon="1.87477">
        <ele>322.1</ele>
        <time>2024-09-19T09:11:04.999Z</time>
      </trkpt>
      <trkpt lat="43.08794" lon="1.87484">
        <ele>322.11</ele>
        <time>2024-09-19T09:11:13.999Z</time>
      </trkpt>
      <trkpt lat="43.0878" lon="1.87483">
        <ele>322.11</ele>
        <time>2024-09-19T09:11:18.999Z</time>
      </trkpt>
      <trkpt lat="43.08762" lon="1.87486">
        <ele>322.12</ele>
        <time>2024-09-19T09:11:23.999Z</time>
      </trkpt>
      <trkpt lat="43.08748" lon="1.87487">
        <ele>322.13</ele>
        <time>2024-09-19T09:11:28.999Z</time>
      </trkpt>
      <trkpt lat="43.08742" lon="1.87499">
        <ele>322.14</ele>
        <time>2024-09-19T09:11:34.999Z</time>
      </trkpt>
      <trkpt lat="43.08743" lon="1.87515">
        <ele>322.15</ele>
        <time>2024-09-19T09:11:39.999Z</time>
      </trkpt>
      <trkpt lat="43.08745" lon="1.87532">
        <ele>322.17</ele>
        <time>2024-09-19T09:11:44.999Z</time>
      </trkpt>
      <trkpt lat="43.08744" lon="1.87553">
        <ele>322.19</ele>
        <time>2024-09-19T09:11:49.999Z</time>
      </trkpt>
      <trkpt lat="43.08744" lon="1.87574">
        <ele>322.2</ele>
        <time>2024-09-19T09:11:54.999Z</time>
      </trkpt>
      <trkpt lat="43.08744" lon="1.87593">
        <ele>322.22</ele>
        <time>2024-09-19T09:11:59.999Z</time>
      </trkpt>
      <trkpt lat="43.08741" lon="1.87607">
        <ele>322.25</ele>
        <time>2024-09-19T09:12:04.999Z</time>
      </trkpt>
      <trkpt lat="43.08731" lon="1.87611">
        <ele>322.27</ele>
        <time>2024-09-19T09:12:11.999Z</time>
      </trkpt>
      <trkpt lat="43.08716" lon="1.87609">
        <ele>322.3</ele>
        <time>2024-09-19T09:12:16.999Z</time>
      </trkpt>
      <trkpt lat="43.08706" lon="1.87609">
        <ele>322.32</ele>
        <time>2024-09-19T09:12:21.999Z</time>
      </trkpt>
      <trkpt lat="43.08698" lon="1.87623">
        <ele>322.34</ele>
        <time>2024-09-19T09:12:26.999Z</time>
      </trkpt>
      <trkpt lat="43.08697" lon="1.87644">
        <ele>322.37</ele>
        <time>2024-09-19T09:12:31.999Z</time>
      </trkpt>
      <trkpt lat="43.08695" lon="1.87668">
        <ele>322.39</ele>
        <time>2024-09-19T09:12:36.999Z</time>
      </trkpt>
      <trkpt lat="43.08693" lon="1.87692">
        <ele>322.48</ele>
        <time>2024-09-19T09:12:41.999Z</time>
      </trkpt>
      <trkpt lat="43.08697" lon="1.87719">
        <ele>322.55</ele>
        <time>2024-09-19T09:12:46.999Z</time>
      </trkpt>
      <trkpt lat="43.08693" lon="1.87751">
        <ele>322.61</ele>
        <time>2024-09-19T09:12:52.000Z</time>
      </trkpt>
      <trkpt lat="43.08691" lon="1.87774">
        <ele>322.62</ele>
        <time>2024-09-19T09:12:57.000Z</time>
      </trkpt>
      <trkpt lat="43.08692" lon="1.87786">
        <ele>322.62</ele>
        <time>2024-09-19T09:13:02.000Z</time>
      </trkpt>
      <trkpt lat="43.08703" lon="1.87796">
        <ele>322.62</ele>
        <time>2024-09-19T09:13:07.000Z</time>
      </trkpt>
      <trkpt lat="43.08724" lon="1.87799">
        <ele>322.63</ele>
        <time>2024-09-19T09:13:12.000Z</time>
      </trkpt>
      <trkpt lat="43.08748" lon="1.87801">
        <ele>322.64</ele>
        <time>2024-09-19T09:13:17.000Z</time>
      </trkpt>
      <trkpt lat="43.08771" lon="1.87802">
        <ele>322.64</ele>
        <time>2024-09-19T09:13:22.000Z</time>
      </trkpt>
      <trkpt lat="43.08787" lon="1.87802">
        <ele>322.64</ele>
        <time>2024-09-19T09:13:27.000Z</time>
      </trkpt>
      <trkpt lat="43.08797" lon="1.87814">
        <ele>322.64</ele>
        <time>2024-09-19T09:13:32.000Z</time>
      </trkpt>
      <trkpt lat="43.08796" lon="1.87842">
        <ele>322.67</ele>
        <time>2024-09-19T09:13:37.000Z</time>
      </trkpt>
      <trkpt lat="43.08796" lon="1.87873">
        <ele>322.68</ele>
        <time>2024-09-19T09:13:42.000Z</time>
      </trkpt>
      <trkpt lat="43.08795" lon="1.87897">
        <ele>322.67</ele>
        <time>2024-09-19T09:13:47.000Z</time>
      </trkpt>
      <trkpt lat="43.08794" lon="1.87922">
        <ele>322.68</ele>
        <time>2024-09-19T09:13:52.000Z</time>
      </trkpt>
      <trkpt lat="43.08788" lon="1.87951">
        <ele>322.67</ele>
        <time>2024-09-19T09:13:57.000Z</time>
      </trkpt>
      <trkpt lat="43.08782" lon="1.87985">
        <ele>322.69</ele>
        <time>2024-09-19T09:14:02.000Z</time>
      </trkpt>
      <trkpt lat="43.08779" lon="1.88012">
        <ele>322.69</ele>
        <time>2024-09-19T09:14:07.000Z</time>
      </trkpt>
      <trkpt lat="43.08771" lon="1.88043">
        <ele>322.71</ele>
        <time>2024-09-19T09:14:12.000Z</time>
      </trkpt>
      <trkpt lat="43.08765" lon="1.88073">
        <ele>322.72</ele>
        <time>2024-09-19T09:14:17.000Z</time>
      </trkpt>
      <trkpt lat="43.08761" lon="1.88099">
        <ele>322.71</ele>
        <time>2024-09-19T09:14:22.000Z</time>
      </trkpt>
      <trkpt lat="43.08756" lon="1.88124">
        <ele>322.71</ele>
        <time>2024-09-19T09:14:27.000Z</time>
      </trkpt>
      <trkpt lat="43.08753" lon="1.88148">
        <ele>322.7</ele>
        <time>2024-09-19T09:14:32.000Z</time>
      </trkpt>
      <trkpt lat="43.08746" lon="1.8817">
        <ele>322.7</ele>
        <time>2024-09-19T09:14:37.000Z</time>
      </trkpt>
      <trkpt lat="43.08734" lon="1.88191">
        <ele>322.69</ele>
        <time>2024-09-19T09:14:42.000Z</time>
      </trkpt>
      <trkpt lat="43.08731" lon="1.88215">
        <ele>322.69</ele>
        <time>2024-09-19T09:14:47.000Z</time>
      </trkpt>
      <trkpt lat="43.08734" lon="1.88241">
        <ele>322.69</ele>
        <time>2024-09-19T09:14:52.000Z</time>
      </trkpt>
      <trkpt lat="43.0873" lon="1.88256">
        <ele>322.69</ele>
        <time>2024-09-19T09:14:57.000Z</time>
      </trkpt>
      <trkpt lat="43.08727" lon="1.88268">
        <ele>322.69</ele>
        <time>2024-09-19T09:15:03.000Z</time>
      </trkpt>
      <trkpt lat="43.08723" lon="1.8829">
        <ele>322.69</ele>
        <time>2024-09-19T09:15:08.000Z</time>
      </trkpt>
      <trkpt lat="43.08718" lon="1.88315">
        <ele>322.71</ele>
        <time>2024-09-19T09:15:13.000Z</time>
      </trkpt>
      <trkpt lat="43.08713" lon="1.88338">
        <ele>322.71</ele>
        <time>2024-09-19T09:15:18.000Z</time>
      </trkpt>
      <trkpt lat="43.08708" lon="1.88362">
        <ele>322.75</ele>
        <time>2024-09-19T09:15:23.000Z</time>
      </trkpt>
      <trkpt lat="43.08704" lon="1.88388">
        <ele>322.81</ele>
        <time>2024-09-19T09:15:28.000Z</time>
      </trkpt>
      <trkpt lat="43.08699" lon="1.88412">
        <ele>322.84</ele>
        <time>2024-09-19T09:15:33.000Z</time>
      </trkpt>
      <trkpt lat="43.08695" lon="1.88437">
        <ele>322.86</ele>
        <time>2024-09-19T09:15:38.000Z</time>
      </trkpt>
      <trkpt lat="43.08691" lon="1.88462">
        <ele>322.86</ele>
        <time>2024-09-19T09:15:43.000Z</time>
      </trkpt>
      <trkpt lat="43.08688" lon="1.88488">
        <ele>322.86</ele>
        <time>2024-09-19T09:15:48.000Z</time>
      </trkpt>
      <trkpt lat="43.08683" lon="1.88516">
        <ele>322.83</ele>
        <time>2024-09-19T09:15:53.000Z</time>
      </trkpt>
      <trkpt lat="43.08678" lon="1.8854">
        <ele>322.82</ele>
        <time>2024-09-19T09:15:58.000Z</time>
      </trkpt>
      <trkpt lat="43.08673" lon="1.88568">
        <ele>322.81</ele>
        <time>2024-09-19T09:16:03.000Z</time>
      </trkpt>
      <trkpt lat="43.08666" lon="1.88597">
        <ele>322.82</ele>
        <time>2024-09-19T09:16:08.000Z</time>
      </trkpt>
      <trkpt lat="43.08662" lon="1.88622">
        <ele>322.83</ele>
        <time>2024-09-19T09:16:13.000Z</time>
      </trkpt>
      <trkpt lat="43.08657" lon="1.88649">
        <ele>322.83</ele>
        <time>2024-09-19T09:16:18.000Z</time>
      </trkpt>
      <trkpt lat="43.08651" lon="1.88678">
        <ele>322.84</ele>
        <time>2024-09-19T09:16:23.000Z</time>
      </trkpt>
      <trkpt lat="43.08645" lon="1.88709">
        <ele>322.84</ele>
        <time>2024-09-19T09:16:28.000Z</time>
      </trkpt>
      <trkpt lat="43.08641" lon="1.88737">
        <ele>322.85</ele>
        <time>2024-09-19T09:16:33.000Z</time>
      </trkpt>
      <trkpt lat="43.08638" lon="1.88763">
        <ele>322.84</ele>
        <time>2024-09-19T09:16:38.000Z</time>
      </trkpt>
      <trkpt lat="43.08632" lon="1.88793">
        <ele>322.83</ele>
        <time>2024-09-19T09:16:43.000Z</time>
      </trkpt>
      <trkpt lat="43.08627" lon="1.8882">
        <ele>322.82</ele>
        <time>2024-09-19T09:16:48.000Z</time>
      </trkpt>
      <trkpt lat="43.08621" lon="1.88844">
        <ele>322.81</ele>
        <time>2024-09-19T09:16:53.000Z</time>
      </trkpt>
      <trkpt lat="43.08615" lon="1.88873">
        <ele>322.81</ele>
        <time>2024-09-19T09:16:58.000Z</time>
      </trkpt>
      <trkpt lat="43.08609" lon="1.88903">
        <ele>322.8</ele>
        <time>2024-09-19T09:17:03.000Z</time>
      </trkpt>
      <trkpt lat="43.08603" lon="1.88935">
        <ele>322.79</ele>
        <time>2024-09-19T09:17:08.000Z</time>
      </trkpt>
      <trkpt lat="43.08597" lon="1.88964">
        <ele>322.8</ele>
        <time>2024-09-19T09:17:13.000Z</time>
      </trkpt>
      <trkpt lat="43.08592" lon="1.88995">
        <ele>322.8</ele>
        <time>2024-09-19T09:17:18.000Z</time>
      </trkpt>
      <trkpt lat="43.08587" lon="1.89023">
        <ele>322.81</ele>
        <time>2024-09-19T09:17:23.000Z</time>
      </trkpt>
      <trkpt lat="43.0858" lon="1.89055">
        <ele>322.81</ele>
        <time>2024-09-19T09:17:28.000Z</time>
      </trkpt>
      <trkpt lat="43.08574" lon="1.89086">
        <ele>322.79</ele>
        <time>2024-09-19T09:17:33.000Z</time>
      </trkpt>
      <trkpt lat="43.08569" lon="1.89116">
        <ele>322.78</ele>
        <time>2024-09-19T09:17:38.000Z</time>
      </trkpt>
      <trkpt lat="43.08563" lon="1.89147">
        <ele>322.81</ele>
        <time>2024-09-19T09:17:43.000Z</time>
      </trkpt>
      <trkpt lat="43.08557" lon="1.89175">
        <ele>322.85</ele>
        <time>2024-09-19T09:17:48.000Z</time>
      </trkpt>
      <trkpt lat="43.08553" lon="1.89201">
        <ele>322.92</ele>
        <time>2024-09-19T09:17:53.000Z</time>
      </trkpt>
      <trkpt lat="43.08548" lon="1.89228">
        <ele>323</ele>
        <time>2024-09-19T09:17:58.000Z</time>
      </trkpt>
      <trkpt lat="43.08543" lon="1.89255">
        <ele>323.05</ele>
        <time>2024-09-19T09:18:03.000Z</time>
      </trkpt>
      <trkpt lat="43.08538" lon="1.89283">
        <ele>323.09</ele>
        <time>2024-09-19T09:18:08.000Z</time>
      </trkpt>
      <trkpt lat="43.08533" lon="1.89311">
        <ele>323.11</ele>
        <time>2024-09-19T09:18:13.000Z</time>
      </trkpt>
      <trkpt lat="43.08527" lon="1.89341">
        <ele>323.14</ele>
        <time>2024-09-19T09:18:18.000Z</time>
      </trkpt>
      <trkpt lat="43.08522" lon="1.8937">
        <ele>323.19</ele>
        <time>2024-09-19T09:18:23.000Z</time>
      </trkpt>
      <trkpt lat="43.08516" lon="1.89398">
        <ele>323.24</ele>
        <time>2024-09-19T09:18:28.000Z</time>
      </trkpt>
      <trkpt lat="43.08511" lon="1.89427">
        <ele>323.29</ele>
        <time>2024-09-19T09:18:33.000Z</time>
      </trkpt>
      <trkpt lat="43.08505" lon="1.89456">
        <ele>323.34</ele>
        <time>2024-09-19T09:18:38.000Z</time>
      </trkpt>
      <trkpt lat="43.085" lon="1.89485">
        <ele>323.42</ele>
        <time>2024-09-19T09:18:43.000Z</time>
      </trkpt>
      <trkpt lat="43.08493" lon="1.89513">
        <ele>323.51</ele>
        <time>2024-09-19T09:18:48.000Z</time>
      </trkpt>
      <trkpt lat="43.08488" lon="1.89541">
        <ele>323.58</ele>
        <time>2024-09-19T09:18:53.000Z</time>
      </trkpt>
      <trkpt lat="43.08482" lon="1.89569">
        <ele>323.66</ele>
        <time>2024-09-19T09:18:58.000Z</time>
      </trkpt>
      <trkpt lat="43.08477" lon="1.896">
        <ele>323.74</ele>
        <time>2024-09-19T09:19:03.000Z</time>
      </trkpt>
      <trkpt lat="43.08472" lon="1.89631">
        <ele>323.8</ele>
        <time>2024-09-19T09:19:08.000Z</time>
      </trkpt>
      <trkpt lat="43.08467" lon="1.8966">
        <ele>323.85</ele>
        <time>2024-09-19T09:19:13.000Z</time>
      </trkpt>
      <trkpt lat="43.08462" lon="1.89688">
        <ele>323.92</ele>
        <time>2024-09-19T09:19:18.000Z</time>
      </trkpt>
      <trkpt lat="43.08457" lon="1.89718">
        <ele>324.01</ele>
        <time>2024-09-19T09:19:23.000Z</time>
      </trkpt>
      <trkpt lat="43.0845" lon="1.89748">
        <ele>324.07</ele>
        <time>2024-09-19T09:19:28.000Z</time>
      </trkpt>
      <trkpt lat="43.08445" lon="1.89779">
        <ele>324.13</ele>
        <time>2024-09-19T09:19:33.000Z</time>
      </trkpt>
      <trkpt lat="43.0844" lon="1.89808">
        <ele>324.13</ele>
        <time>2024-09-19T09:19:38.000Z</time>
      </trkpt>
      <trkpt lat="43.08433" lon="1.89836">
        <ele>324.15</ele>
        <time>2024-09-19T09:19:43.000Z</time>
      </trkpt>
      <trkpt lat="43.08429" lon="1.89858">
        <ele>324.15</ele>
        <time>2024-09-19T09:19:48.000Z</time>
      </trkpt>
      <trkpt lat="43.08425" lon="1.8988">
        <ele>324.15</ele>
        <time>2024-09-19T09:19:53.000Z</time>
      </trkpt>
      <trkpt lat="43.08422" lon="1.89906">
        <ele>324.16</ele>
        <time>2024-09-19T09:19:58.000Z</time>
      </trkpt>
      <trkpt lat="43.08417" lon="1.89934">
        <ele>324.23</ele>
        <time>2024-09-19T09:20:03.000Z</time>
      </trkpt>
      <trkpt lat="43.08411" lon="1.89964">
        <ele>324.27</ele>
        <time>2024-09-19T09:20:08.000Z</time>
      </trkpt>
      <trkpt lat="43.08404" lon="1.89997">
        <ele>324.29</ele>
        <time>2024-09-19T09:20:13.000Z</time>
      </trkpt>
      <trkpt lat="43.08397" lon="1.90032">
        <ele>324.3</ele>
        <time>2024-09-19T09:20:18.000Z</time>
      </trkpt>
      <trkpt lat="43.0839" lon="1.9007">
        <ele>324.32</ele>
        <time>2024-09-19T09:20:23.000Z</time>
      </trkpt>
      <trkpt lat="43.08384" lon="1.90104">
        <ele>324.35</ele>
        <time>2024-09-19T09:20:28.000Z</time>
      </trkpt>
      <trkpt lat="43.08377" lon="1.90138">
        <ele>324.39</ele>
        <time>2024-09-19T09:20:33.000Z</time>
      </trkpt>
      <trkpt lat="43.08371" lon="1.90172">
        <ele>324.45</ele>
        <time>2024-09-19T09:20:38.000Z</time>
      </trkpt>
      <trkpt lat="43.08363" lon="1.90208">
        <ele>324.51</ele>
        <time>2024-09-19T09:20:43.000Z</time>
      </trkpt>
      <trkpt lat="43.08356" lon="1.90242">
        <ele>324.51</ele>
        <time>2024-09-19T09:20:48.000Z</time>
      </trkpt>
      <trkpt lat="43.08349" lon="1.90278">
        <ele>324.5</ele>
        <time>2024-09-19T09:20:53.000Z</time>
      </trkpt>
      <trkpt lat="43.08342" lon="1.90313">
        <ele>324.47</ele>
        <time>2024-09-19T09:20:58.000Z</time>
      </trkpt>
      <trkpt lat="43.08336" lon="1.90347">
        <ele>324.44</ele>
        <time>2024-09-19T09:21:03.000Z</time>
      </trkpt>
      <trkpt lat="43.08331" lon="1.90381">
        <ele>324.42</ele>
        <time>2024-09-19T09:21:08.000Z</time>
      </trkpt>
      <trkpt lat="43.08325" lon="1.90411">
        <ele>324.42</ele>
        <time>2024-09-19T09:21:13.000Z</time>
      </trkpt>
      <trkpt lat="43.08319" lon="1.90443">
        <ele>324.4</ele>
        <time>2024-09-19T09:21:18.000Z</time>
      </trkpt>
      <trkpt lat="43.08312" lon="1.90475">
        <ele>324.39</ele>
        <time>2024-09-19T09:21:23.000Z</time>
      </trkpt>
      <trkpt lat="43.08307" lon="1.90504">
        <ele>324.4</ele>
        <time>2024-09-19T09:21:28.000Z</time>
      </trkpt>
      <trkpt lat="43.08303" lon="1.90533">
        <ele>324.42</ele>
        <time>2024-09-19T09:21:33.000Z</time>
      </trkpt>
      <trkpt lat="43.08299" lon="1.90564">
        <ele>324.44</ele>
        <time>2024-09-19T09:21:38.000Z</time>
      </trkpt>
      <trkpt lat="43.08293" lon="1.90592">
        <ele>324.46</ele>
        <time>2024-09-19T09:21:43.000Z</time>
      </trkpt>
      <trkpt lat="43.08291" lon="1.90618">
        <ele>324.48</ele>
        <time>2024-09-19T09:21:48.000Z</time>
      </trkpt>
      <trkpt lat="43.08297" lon="1.90644">
        <ele>324.51</ele>
        <time>2024-09-19T09:21:53.000Z</time>
      </trkpt>
      <trkpt lat="43.08304" lon="1.90671">
        <ele>324.54</ele>
        <time>2024-09-19T09:21:58.000Z</time>
      </trkpt>
      <trkpt lat="43.08312" lon="1.90699">
        <ele>324.57</ele>
        <time>2024-09-19T09:22:03.000Z</time>
      </trkpt>
      <trkpt lat="43.0832" lon="1.90727">
        <ele>324.6</ele>
        <time>2024-09-19T09:22:08.000Z</time>
      </trkpt>
      <trkpt lat="43.08327" lon="1.90757">
        <ele>324.65</ele>
        <time>2024-09-19T09:22:13.000Z</time>
      </trkpt>
      <trkpt lat="43.08334" lon="1.90784">
        <ele>324.69</ele>
        <time>2024-09-19T09:22:18.000Z</time>
      </trkpt>
      <trkpt lat="43.0834" lon="1.90806">
        <ele>324.7</ele>
        <time>2024-09-19T09:22:23.000Z</time>
      </trkpt>
      <trkpt lat="43.08345" lon="1.90825">
        <ele>324.71</ele>
        <time>2024-09-19T09:22:28.000Z</time>
      </trkpt>
      <trkpt lat="43.0835" lon="1.90842">
        <ele>324.73</ele>
        <time>2024-09-19T09:22:33.000Z</time>
      </trkpt>
      <trkpt lat="43.08354" lon="1.9086">
        <ele>324.74</ele>
        <time>2024-09-19T09:22:38.000Z</time>
      </trkpt>
      <trkpt lat="43.08359" lon="1.90882">
        <ele>324.78</ele>
        <time>2024-09-19T09:22:43.000Z</time>
      </trkpt>
      <trkpt lat="43.08367" lon="1.90908">
        <ele>324.85</ele>
        <time>2024-09-19T09:22:48.000Z</time>
      </trkpt>
      <trkpt lat="43.08374" lon="1.90935">
        <ele>324.86</ele>
        <time>2024-09-19T09:22:53.000Z</time>
      </trkpt>
      <trkpt lat="43.08383" lon="1.90963">
        <ele>324.86</ele>
        <time>2024-09-19T09:22:58.000Z</time>
      </trkpt>
      <trkpt lat="43.08391" lon="1.90991">
        <ele>324.84</ele>
        <time>2024-09-19T09:23:03.000Z</time>
      </trkpt>
      <trkpt lat="43.08399" lon="1.91016">
        <ele>324.84</ele>
        <time>2024-09-19T09:23:08.000Z</time>
      </trkpt>
      <trkpt lat="43.08407" lon="1.91043">
        <ele>324.86</ele>
        <time>2024-09-19T09:23:13.000Z</time>
      </trkpt>
      <trkpt lat="43.08413" lon="1.91068">
        <ele>324.86</ele>
        <time>2024-09-19T09:23:18.000Z</time>
      </trkpt>
      <trkpt lat="43.08419" lon="1.91093">
        <ele>324.87</ele>
        <time>2024-09-19T09:23:23.000Z</time>
      </trkpt>
      <trkpt lat="43.08423" lon="1.91111">
        <ele>324.87</ele>
        <time>2024-09-19T09:23:28.000Z</time>
      </trkpt>
      <trkpt lat="43.08416" lon="1.91123">
        <ele>324.87</ele>
        <time>2024-09-19T09:23:33.000Z</time>
      </trkpt>
      <trkpt lat="43.08414" lon="1.91136">
        <ele>324.89</ele>
        <time>2024-09-19T09:23:39.000Z</time>
      </trkpt>
      <trkpt lat="43.0842" lon="1.91148">
        <ele>325.01</ele>
        <time>2024-09-19T09:25:07.999Z</time>
      </trkpt>
      <trkpt lat="43.08426" lon="1.91165">
        <ele>325.05</ele>
        <time>2024-09-19T09:25:12.999Z</time>
      </trkpt>
      <trkpt lat="43.08433" lon="1.91187">
        <ele>325.08</ele>
        <time>2024-09-19T09:25:17.999Z</time>
      </trkpt>
      <trkpt lat="43.08439" lon="1.91208">
        <ele>325.11</ele>
        <time>2024-09-19T09:25:22.999Z</time>
      </trkpt>
      <trkpt lat="43.08443" lon="1.91225">
        <ele>325.15</ele>
        <time>2024-09-19T09:25:27.999Z</time>
      </trkpt>
      <trkpt lat="43.08446" lon="1.91241">
        <ele>325.2</ele>
        <time>2024-09-19T09:25:32.999Z</time>
      </trkpt>
      <trkpt lat="43.08452" lon="1.91264">
        <ele>325.26</ele>
        <time>2024-09-19T09:25:37.999Z</time>
      </trkpt>
      <trkpt lat="43.08457" lon="1.91285">
        <ele>325.32</ele>
        <time>2024-09-19T09:25:42.999Z</time>
      </trkpt>
      <trkpt lat="43.08463" lon="1.91308">
        <ele>325.37</ele>
        <time>2024-09-19T09:25:47.999Z</time>
      </trkpt>
      <trkpt lat="43.08467" lon="1.91335">
        <ele>325.52</ele>
        <time>2024-09-19T09:25:52.999Z</time>
      </trkpt>
      <trkpt lat="43.08469" lon="1.91359">
        <ele>325.56</ele>
        <time>2024-09-19T09:25:57.999Z</time>
      </trkpt>
      <trkpt lat="43.08472" lon="1.91386">
        <ele>325.59</ele>
        <time>2024-09-19T09:26:02.999Z</time>
      </trkpt>
      <trkpt lat="43.08475" lon="1.91413">
        <ele>325.76</ele>
        <time>2024-09-19T09:26:07.999Z</time>
      </trkpt>
      <trkpt lat="43.08478" lon="1.91442">
        <ele>325.9</ele>
        <time>2024-09-19T09:26:12.999Z</time>
      </trkpt>
      <trkpt lat="43.08481" lon="1.9147">
        <ele>325.96</ele>
        <time>2024-09-19T09:26:17.999Z</time>
      </trkpt>
      <trkpt lat="43.08483" lon="1.91499">
        <ele>326</ele>
        <time>2024-09-19T09:26:22.999Z</time>
      </trkpt>
      <trkpt lat="43.08483" lon="1.91525">
        <ele>326.01</ele>
        <time>2024-09-19T09:26:27.999Z</time>
      </trkpt>
      <trkpt lat="43.08485" lon="1.91548">
        <ele>326.01</ele>
        <time>2024-09-19T09:26:32.999Z</time>
      </trkpt>
      <trkpt lat="43.08488" lon="1.91581">
        <ele>326.02</ele>
        <time>2024-09-19T09:26:37.999Z</time>
      </trkpt>
      <trkpt lat="43.08487" lon="1.91605">
        <ele>326.03</ele>
        <time>2024-09-19T09:26:42.999Z</time>
      </trkpt>
      <trkpt lat="43.08489" lon="1.91634">
        <ele>326.04</ele>
        <time>2024-09-19T09:26:47.999Z</time>
      </trkpt>
      <trkpt lat="43.0849" lon="1.91655">
        <ele>326.05</ele>
        <time>2024-09-19T09:26:52.999Z</time>
      </trkpt>
      <trkpt lat="43.08492" lon="1.91684">
        <ele>326.05</ele>
        <time>2024-09-19T09:26:57.999Z</time>
      </trkpt>
      <trkpt lat="43.08498" lon="1.9171">
        <ele>326.07</ele>
        <time>2024-09-19T09:27:02.999Z</time>
      </trkpt>
      <trkpt lat="43.08503" lon="1.91742">
        <ele>326.15</ele>
        <time>2024-09-19T09:27:07.999Z</time>
      </trkpt>
      <trkpt lat="43.08507" lon="1.9177">
        <ele>326.25</ele>
        <time>2024-09-19T09:27:12.999Z</time>
      </trkpt>
      <trkpt lat="43.08512" lon="1.91797">
        <ele>326.32</ele>
        <time>2024-09-19T09:27:17.999Z</time>
      </trkpt>
      <trkpt lat="43.08515" lon="1.91826">
        <ele>326.41</ele>
        <time>2024-09-19T09:27:22.999Z</time>
      </trkpt>
      <trkpt lat="43.08518" lon="1.91856">
        <ele>326.52</ele>
        <time>2024-09-19T09:27:27.999Z</time>
      </trkpt>
      <trkpt lat="43.08521" lon="1.91887">
        <ele>326.63</ele>
        <time>2024-09-19T09:27:32.999Z</time>
      </trkpt>
      <trkpt lat="43.08524" lon="1.91916">
        <ele>326.76</ele>
        <time>2024-09-19T09:27:37.999Z</time>
      </trkpt>
      <trkpt lat="43.08528" lon="1.91942">
        <ele>326.82</ele>
        <time>2024-09-19T09:27:42.999Z</time>
      </trkpt>
      <trkpt lat="43.08529" lon="1.91974">
        <ele>326.9</ele>
        <time>2024-09-19T09:27:47.999Z</time>
      </trkpt>
      <trkpt lat="43.08532" lon="1.92004">
        <ele>327.01</ele>
        <time>2024-09-19T09:27:52.999Z</time>
      </trkpt>
      <trkpt lat="43.08535" lon="1.92031">
        <ele>327.07</ele>
        <time>2024-09-19T09:27:57.999Z</time>
      </trkpt>
      <trkpt lat="43.08538" lon="1.92063">
        <ele>327.17</ele>
        <time>2024-09-19T09:28:02.999Z</time>
      </trkpt>
      <trkpt lat="43.0854" lon="1.9209">
        <ele>327.24</ele>
        <time>2024-09-19T09:28:07.999Z</time>
      </trkpt>
      <trkpt lat="43.08542" lon="1.92122">
        <ele>327.38</ele>
        <time>2024-09-19T09:28:12.999Z</time>
      </trkpt>
      <trkpt lat="43.08543" lon="1.92154">
        <ele>327.5</ele>
        <time>2024-09-19T09:28:17.999Z</time>
      </trkpt>
      <trkpt lat="43.08543" lon="1.92185">
        <ele>327.62</ele>
        <time>2024-09-19T09:28:22.999Z</time>
      </trkpt>
      <trkpt lat="43.08543" lon="1.92218">
        <ele>327.73</ele>
        <time>2024-09-19T09:28:27.999Z</time>
      </trkpt>
      <trkpt lat="43.0854" lon="1.92248">
        <ele>327.78</ele>
        <time>2024-09-19T09:28:32.999Z</time>
      </trkpt>
      <trkpt lat="43.08537" lon="1.92276">
        <ele>327.81</ele>
        <time>2024-09-19T09:28:37.999Z</time>
      </trkpt>
      <trkpt lat="43.0853" lon="1.92307">
        <ele>327.86</ele>
        <time>2024-09-19T09:28:42.999Z</time>
      </trkpt>
      <trkpt lat="43.08526" lon="1.92339">
        <ele>327.88</ele>
        <time>2024-09-19T09:28:47.999Z</time>
      </trkpt>
      <trkpt lat="43.0852" lon="1.92371">
        <ele>327.91</ele>
        <time>2024-09-19T09:28:52.999Z</time>
      </trkpt>
      <trkpt lat="43.08514" lon="1.92407">
        <ele>327.98</ele>
        <time>2024-09-19T09:28:57.999Z</time>
      </trkpt>
      <trkpt lat="43.08508" lon="1.9244">
        <ele>328.03</ele>
        <time>2024-09-19T09:29:02.999Z</time>
      </trkpt>
      <trkpt lat="43.08501" lon="1.92471">
        <ele>328.06</ele>
        <time>2024-09-19T09:29:07.999Z</time>
      </trkpt>
      <trkpt lat="43.08495" lon="1.92502">
        <ele>328.1</ele>
        <time>2024-09-19T09:29:12.999Z</time>
      </trkpt>
      <trkpt lat="43.08486" lon="1.92533">
        <ele>328.11</ele>
        <time>2024-09-19T09:29:17.999Z</time>
      </trkpt>
      <trkpt lat="43.08476" lon="1.92565">
        <ele>328.12</ele>
        <time>2024-09-19T09:29:22.999Z</time>
      </trkpt>
      <trkpt lat="43.08467" lon="1.92601">
        <ele>328.16</ele>
        <time>2024-09-19T09:29:27.999Z</time>
      </trkpt>
      <trkpt lat="43.08455" lon="1.9263">
        <ele>328.21</ele>
        <time>2024-09-19T09:29:32.999Z</time>
      </trkpt>
      <trkpt lat="43.08441" lon="1.92661">
        <ele>328.23</ele>
        <time>2024-09-19T09:29:37.999Z</time>
      </trkpt>
      <trkpt lat="43.08428" lon="1.92688">
        <ele>328.27</ele>
        <time>2024-09-19T09:29:42.999Z</time>
      </trkpt>
      <trkpt lat="43.08415" lon="1.92716">
        <ele>328.3</ele>
        <time>2024-09-19T09:29:47.999Z</time>
      </trkpt>
      <trkpt lat="43.08401" lon="1.92743">
        <ele>328.37</ele>
        <time>2024-09-19T09:29:52.999Z</time>
      </trkpt>
      <trkpt lat="43.08384" lon="1.92773">
        <ele>328.42</ele>
        <time>2024-09-19T09:29:57.999Z</time>
      </trkpt>
      <trkpt lat="43.08367" lon="1.92802">
        <ele>328.39</ele>
        <time>2024-09-19T09:30:02.999Z</time>
      </trkpt>
      <trkpt lat="43.08351" lon="1.92832">
        <ele>328.38</ele>
        <time>2024-09-19T09:30:07.999Z</time>
      </trkpt>
      <trkpt lat="43.08337" lon="1.92857">
        <ele>328.41</ele>
        <time>2024-09-19T09:30:12.999Z</time>
      </trkpt>
      <trkpt lat="43.0832" lon="1.92883">
        <ele>328.4</ele>
        <time>2024-09-19T09:30:17.999Z</time>
      </trkpt>
      <trkpt lat="43.08307" lon="1.92908">
        <ele>328.38</ele>
        <time>2024-09-19T09:30:22.999Z</time>
      </trkpt>
      <trkpt lat="43.08293" lon="1.92935">
        <ele>328.37</ele>
        <time>2024-09-19T09:30:27.999Z</time>
      </trkpt>
      <trkpt lat="43.08279" lon="1.92961">
        <ele>328.33</ele>
        <time>2024-09-19T09:30:32.999Z</time>
      </trkpt>
      <trkpt lat="43.08269" lon="1.9298">
        <ele>328.32</ele>
        <time>2024-09-19T09:30:37.999Z</time>
      </trkpt>
      <trkpt lat="43.08258" lon="1.93002">
        <ele>328.26</ele>
        <time>2024-09-19T09:30:42.999Z</time>
      </trkpt>
      <trkpt lat="43.08242" lon="1.93029">
        <ele>328.25</ele>
        <time>2024-09-19T09:30:47.999Z</time>
      </trkpt>
      <trkpt lat="43.08229" lon="1.93052">
        <ele>328.28</ele>
        <time>2024-09-19T09:30:52.999Z</time>
      </trkpt>
      <trkpt lat="43.08217" lon="1.93073">
        <ele>328.29</ele>
        <time>2024-09-19T09:30:57.999Z</time>
      </trkpt>
      <trkpt lat="43.08202" lon="1.93098">
        <ele>328.26</ele>
        <time>2024-09-19T09:31:02.999Z</time>
      </trkpt>
      <trkpt lat="43.08188" lon="1.93123">
        <ele>328.19</ele>
        <time>2024-09-19T09:31:07.999Z</time>
      </trkpt>
      <trkpt lat="43.08174" lon="1.9315">
        <ele>328.14</ele>
        <time>2024-09-19T09:31:12.999Z</time>
      </trkpt>
      <trkpt lat="43.08158" lon="1.93177">
        <ele>328.15</ele>
        <time>2024-09-19T09:31:17.999Z</time>
      </trkpt>
      <trkpt lat="43.08145" lon="1.93199">
        <ele>328.19</ele>
        <time>2024-09-19T09:31:22.999Z</time>
      </trkpt>
      <trkpt lat="43.08132" lon="1.93223">
        <ele>328.2</ele>
        <time>2024-09-19T09:31:27.999Z</time>
      </trkpt>
      <trkpt lat="43.08118" lon="1.9325">
        <ele>328.22</ele>
        <time>2024-09-19T09:31:32.999Z</time>
      </trkpt>
      <trkpt lat="43.08104" lon="1.93275">
        <ele>328.17</ele>
        <time>2024-09-19T09:31:37.999Z</time>
      </trkpt>
      <trkpt lat="43.0809" lon="1.93302">
        <ele>328.13</ele>
        <time>2024-09-19T09:31:42.999Z</time>
      </trkpt>
      <trkpt lat="43.08074" lon="1.9333">
        <ele>328.15</ele>
        <time>2024-09-19T09:31:47.999Z</time>
      </trkpt>
      <trkpt lat="43.08062" lon="1.93351">
        <ele>328.15</ele>
        <time>2024-09-19T09:31:52.999Z</time>
      </trkpt>
      <trkpt lat="43.08049" lon="1.93371">
        <ele>328.15</ele>
        <time>2024-09-19T09:31:57.999Z</time>
      </trkpt>
      <trkpt lat="43.08035" lon="1.93394">
        <ele>328.14</ele>
        <time>2024-09-19T09:32:02.999Z</time>
      </trkpt>
      <trkpt lat="43.08024" lon="1.93412">
        <ele>328.14</ele>
        <time>2024-09-19T09:32:07.999Z</time>
      </trkpt>
      <trkpt lat="43.08006" lon="1.93433">
        <ele>328.16</ele>
        <time>2024-09-19T09:32:12.999Z</time>
      </trkpt>
      <trkpt lat="43.07993" lon="1.93451">
        <ele>328.17</ele>
        <time>2024-09-19T09:32:17.999Z</time>
      </trkpt>
      <trkpt lat="43.0798" lon="1.93466">
        <ele>328.19</ele>
        <time>2024-09-19T09:32:22.999Z</time>
      </trkpt>
      <trkpt lat="43.07966" lon="1.9348">
        <ele>328.21</ele>
        <time>2024-09-19T09:32:27.999Z</time>
      </trkpt>
      <trkpt lat="43.07951" lon="1.93495">
        <ele>328.23</ele>
        <time>2024-09-19T09:32:32.999Z</time>
      </trkpt>
      <trkpt lat="43.07933" lon="1.93511">
        <ele>328.26</ele>
        <time>2024-09-19T09:32:37.999Z</time>
      </trkpt>
      <trkpt lat="43.07918" lon="1.93526">
        <ele>328.3</ele>
        <time>2024-09-19T09:32:42.999Z</time>
      </trkpt>
      <trkpt lat="43.07903" lon="1.9354">
        <ele>328.34</ele>
        <time>2024-09-19T09:32:47.999Z</time>
      </trkpt>
      <trkpt lat="43.07883" lon="1.93562">
        <ele>328.39</ele>
        <time>2024-09-19T09:32:52.999Z</time>
      </trkpt>
      <trkpt lat="43.07859" lon="1.93584">
        <ele>328.63</ele>
        <time>2024-09-19T09:32:57.999Z</time>
      </trkpt>
      <trkpt lat="43.07841" lon="1.93603">
        <ele>328.79</ele>
        <time>2024-09-19T09:33:02.999Z</time>
      </trkpt>
      <trkpt lat="43.07828" lon="1.93621">
        <ele>328.83</ele>
        <time>2024-09-19T09:33:07.999Z</time>
      </trkpt>
      <trkpt lat="43.0781" lon="1.93644">
        <ele>329.1</ele>
        <time>2024-09-19T09:33:12.999Z</time>
      </trkpt>
      <trkpt lat="43.07794" lon="1.93664">
        <ele>329.17</ele>
        <time>2024-09-19T09:33:17.999Z</time>
      </trkpt>
      <trkpt lat="43.07778" lon="1.93687">
        <ele>329.31</ele>
        <time>2024-09-19T09:33:22.999Z</time>
      </trkpt>
      <trkpt lat="43.07764" lon="1.93707">
        <ele>329.55</ele>
        <time>2024-09-19T09:33:27.999Z</time>
      </trkpt>
      <trkpt lat="43.07748" lon="1.93722">
        <ele>329.61</ele>
        <time>2024-09-19T09:33:32.999Z</time>
      </trkpt>
      <trkpt lat="43.07739" lon="1.93717">
        <ele>329.65</ele>
        <time>2024-09-19T09:33:37.999Z</time>
      </trkpt>
      <trkpt lat="43.07742" lon="1.93705">
        <ele>329.69</ele>
        <time>2024-09-19T09:33:42.999Z</time>
      </trkpt>
      <trkpt lat="43.07732" lon="1.93708">
        <ele>329.89</ele>
        <time>2024-09-19T09:34:40.999Z</time>
      </trkpt>
      <trkpt lat="43.07723" lon="1.93723">
        <ele>329.98</ele>
        <time>2024-09-19T09:34:45.999Z</time>
      </trkpt>
      <trkpt lat="43.07715" lon="1.93738">
        <ele>330.07</ele>
        <time>2024-09-19T09:34:50.999Z</time>
      </trkpt>
      <trkpt lat="43.0771" lon="1.93752">
        <ele>330.15</ele>
        <time>2024-09-19T09:34:55.999Z</time>
      </trkpt>
      <trkpt lat="43.07717" lon="1.93744">
        <ele>330.55</ele>
        <time>2024-09-19T09:35:43.999Z</time>
      </trkpt>
      <trkpt lat="43.07723" lon="1.93732">
        <ele>331.19</ele>
        <time>2024-09-19T09:37:20.000Z</time>
      </trkpt>
      <trkpt lat="43.07727" lon="1.9372">
        <ele>331.31</ele>
        <time>2024-09-19T09:37:25.000Z</time>
      </trkpt>
      <trkpt lat="43.07735" lon="1.93711">
        <ele>331.42</ele>
        <time>2024-09-19T09:37:30.000Z</time>
      </trkpt>
      <trkpt lat="43.07743" lon="1.93704">
        <ele>331.52</ele>
        <time>2024-09-19T09:37:35.000Z</time>
      </trkpt>
      <trkpt lat="43.07753" lon="1.93701">
        <ele>331.61</ele>
        <time>2024-09-19T09:37:40.000Z</time>
      </trkpt>
      <trkpt lat="43.07764" lon="1.93698">
        <ele>331.69</ele>
        <time>2024-09-19T09:37:45.000Z</time>
      </trkpt>
      <trkpt lat="43.07773" lon="1.93702">
        <ele>331.77</ele>
        <time>2024-09-19T09:37:51.000Z</time>
      </trkpt>
      <trkpt lat="43.0777" lon="1.93717">
        <ele>332.43</ele>
        <time>2024-09-19T09:39:38.000Z</time>
      </trkpt>
      <trkpt lat="43.07757" lon="1.93739">
        <ele>332.78</ele>
        <time>2024-09-19T09:39:43.000Z</time>
      </trkpt>
      <trkpt lat="43.07741" lon="1.93761">
        <ele>332.95</ele>
        <time>2024-09-19T09:39:48.000Z</time>
      </trkpt>
      <trkpt lat="43.07731" lon="1.93775">
        <ele>332.98</ele>
        <time>2024-09-19T09:39:53.000Z</time>
      </trkpt>
      <trkpt lat="43.07723" lon="1.93785">
        <ele>333</ele>
        <time>2024-09-19T09:39:58.000Z</time>
      </trkpt>
      <trkpt lat="43.07714" lon="1.93802">
        <ele>333.02</ele>
        <time>2024-09-19T09:40:03.000Z</time>
      </trkpt>
      <trkpt lat="43.07706" lon="1.93826">
        <ele>333.04</ele>
        <time>2024-09-19T09:40:08.000Z</time>
      </trkpt>
      <trkpt lat="43.07699" lon="1.93856">
        <ele>333.06</ele>
        <time>2024-09-19T09:40:13.000Z</time>
      </trkpt>
      <trkpt lat="43.07688" lon="1.93892">
        <ele>333.24</ele>
        <time>2024-09-19T09:40:18.000Z</time>
      </trkpt>
      <trkpt lat="43.07681" lon="1.93925">
        <ele>333.39</ele>
        <time>2024-09-19T09:40:23.000Z</time>
      </trkpt>
      <trkpt lat="43.07675" lon="1.9396">
        <ele>333.44</ele>
        <time>2024-09-19T09:40:28.000Z</time>
      </trkpt>
      <trkpt lat="43.07669" lon="1.93997">
        <ele>333.53</ele>
        <time>2024-09-19T09:40:33.000Z</time>
      </trkpt>
      <trkpt lat="43.07663" lon="1.94034">
        <ele>333.64</ele>
        <time>2024-09-19T09:40:38.000Z</time>
      </trkpt>
      <trkpt lat="43.07661" lon="1.94069">
        <ele>333.7</ele>
        <time>2024-09-19T09:40:43.000Z</time>
      </trkpt>
      <trkpt lat="43.0766" lon="1.94105">
        <ele>333.8</ele>
        <time>2024-09-19T09:40:48.000Z</time>
      </trkpt>
      <trkpt lat="43.0766" lon="1.94141">
        <ele>333.94</ele>
        <time>2024-09-19T09:40:53.000Z</time>
      </trkpt>
      <trkpt lat="43.0766" lon="1.94175">
        <ele>334.22</ele>
        <time>2024-09-19T09:40:58.000Z</time>
      </trkpt>
      <trkpt lat="43.0766" lon="1.9421">
        <ele>334.62</ele>
        <time>2024-09-19T09:41:03.000Z</time>
      </trkpt>
      <trkpt lat="43.07659" lon="1.94244">
        <ele>335.13</ele>
        <time>2024-09-19T09:41:08.000Z</time>
      </trkpt>
      <trkpt lat="43.07659" lon="1.94278">
        <ele>335.65</ele>
        <time>2024-09-19T09:41:13.000Z</time>
      </trkpt>
      <trkpt lat="43.07657" lon="1.94309">
        <ele>335.92</ele>
        <time>2024-09-19T09:41:18.000Z</time>
      </trkpt>
      <trkpt lat="43.07657" lon="1.94336">
        <ele>335.96</ele>
        <time>2024-09-19T09:41:23.000Z</time>
      </trkpt>
      <trkpt lat="43.07656" lon="1.94366">
        <ele>336.25</ele>
        <time>2024-09-19T09:41:28.000Z</time>
      </trkpt>
      <trkpt lat="43.07655" lon="1.94394">
        <ele>336.44</ele>
        <time>2024-09-19T09:41:33.000Z</time>
      </trkpt>
      <trkpt lat="43.07654" lon="1.94409">
        <ele>336.48</ele>
        <time>2024-09-19T09:41:38.000Z</time>
      </trkpt>
      <trkpt lat="43.07654" lon="1.94425">
        <ele>336.59</ele>
        <time>2024-09-19T09:41:56.000Z</time>
      </trkpt>
      <trkpt lat="43.07653" lon="1.94453">
        <ele>336.72</ele>
        <time>2024-09-19T09:42:01.000Z</time>
      </trkpt>
      <trkpt lat="43.07654" lon="1.94482">
        <ele>336.99</ele>
        <time>2024-09-19T09:42:06.000Z</time>
      </trkpt>
      <trkpt lat="43.07656" lon="1.94511">
        <ele>337.08</ele>
        <time>2024-09-19T09:42:11.000Z</time>
      </trkpt>
      <trkpt lat="43.07658" lon="1.94539">
        <ele>337.09</ele>
        <time>2024-09-19T09:42:16.000Z</time>
      </trkpt>
      <trkpt lat="43.0766" lon="1.94563">
        <ele>337.1</ele>
        <time>2024-09-19T09:42:21.000Z</time>
      </trkpt>
      <trkpt lat="43.07664" lon="1.94591">
        <ele>337.17</ele>
        <time>2024-09-19T09:42:26.000Z</time>
      </trkpt>
      <trkpt lat="43.07667" lon="1.9462">
        <ele>337.21</ele>
        <time>2024-09-19T09:42:31.000Z</time>
      </trkpt>
      <trkpt lat="43.07673" lon="1.9465">
        <ele>337.27</ele>
        <time>2024-09-19T09:42:36.000Z</time>
      </trkpt>
      <trkpt lat="43.07681" lon="1.94679">
        <ele>337.32</ele>
        <time>2024-09-19T09:42:41.000Z</time>
      </trkpt>
      <trkpt lat="43.0769" lon="1.9471">
        <ele>337.35</ele>
        <time>2024-09-19T09:42:46.000Z</time>
      </trkpt>
      <trkpt lat="43.07697" lon="1.94736">
        <ele>337.37</ele>
        <time>2024-09-19T09:42:51.000Z</time>
      </trkpt>
      <trkpt lat="43.07705" lon="1.94766">
        <ele>337.41</ele>
        <time>2024-09-19T09:42:56.000Z</time>
      </trkpt>
      <trkpt lat="43.07714" lon="1.9479">
        <ele>337.43</ele>
        <time>2024-09-19T09:43:01.000Z</time>
      </trkpt>
      <trkpt lat="43.07721" lon="1.94806">
        <ele>337.45</ele>
        <time>2024-09-19T09:43:06.000Z</time>
      </trkpt>
      <trkpt lat="43.07715" lon="1.94825">
        <ele>333.52</ele>
        <time>2024-09-19T09:44:16.000Z</time>
      </trkpt>
      <trkpt lat="43.0772" lon="1.94814">
        <ele>337.56</ele>
        <time>2024-09-19T09:48:12.000Z</time>
      </trkpt>
      <trkpt lat="43.07711" lon="1.94806">
        <ele>338.94</ele>
        <time>2024-09-19T09:54:11.999Z</time>
      </trkpt>
      <trkpt lat="43.077" lon="1.94789">
        <ele>339.09</ele>
        <time>2024-09-19T09:54:16.999Z</time>
      </trkpt>
      <trkpt lat="43.07688" lon="1.94766">
        <ele>339.88</ele>
        <time>2024-09-19T09:54:21.999Z</time>
      </trkpt>
      <trkpt lat="43.07676" lon="1.94748">
        <ele>339.99</ele>
        <time>2024-09-19T09:54:26.999Z</time>
      </trkpt>
      <trkpt lat="43.07667" lon="1.94727">
        <ele>340.19</ele>
        <time>2024-09-19T09:54:31.999Z</time>
      </trkpt>
      <trkpt lat="43.07653" lon="1.94706">
        <ele>340.43</ele>
        <time>2024-09-19T09:54:36.999Z</time>
      </trkpt>
      <trkpt lat="43.07638" lon="1.94682">
        <ele>340.55</ele>
        <time>2024-09-19T09:54:41.999Z</time>
      </trkpt>
      <trkpt lat="43.07621" lon="1.94662">
        <ele>340.64</ele>
        <time>2024-09-19T09:54:46.999Z</time>
      </trkpt>
      <trkpt lat="43.07603" lon="1.94646">
        <ele>340.68</ele>
        <time>2024-09-19T09:54:51.999Z</time>
      </trkpt>
      <trkpt lat="43.07582" lon="1.94632">
        <ele>340.68</ele>
        <time>2024-09-19T09:54:56.999Z</time>
      </trkpt>
      <trkpt lat="43.07563" lon="1.94619">
        <ele>340.65</ele>
        <time>2024-09-19T09:55:01.999Z</time>
      </trkpt>
      <trkpt lat="43.07548" lon="1.9461">
        <ele>340.67</ele>
        <time>2024-09-19T09:55:06.999Z</time>
      </trkpt>
      <trkpt lat="43.07528" lon="1.94598">
        <ele>340.75</ele>
        <time>2024-09-19T09:55:11.999Z</time>
      </trkpt>
      <trkpt lat="43.07509" lon="1.94588">
        <ele>340.78</ele>
        <time>2024-09-19T09:55:16.999Z</time>
      </trkpt>
      <trkpt lat="43.07492" lon="1.94579">
        <ele>340.86</ele>
        <time>2024-09-19T09:55:21.999Z</time>
      </trkpt>
      <trkpt lat="43.0747" lon="1.94576">
        <ele>340.96</ele>
        <time>2024-09-19T09:55:26.999Z</time>
      </trkpt>
      <trkpt lat="43.07444" lon="1.94571">
        <ele>341.11</ele>
        <time>2024-09-19T09:55:31.999Z</time>
      </trkpt>
      <trkpt lat="43.07424" lon="1.94568">
        <ele>341.26</ele>
        <time>2024-09-19T09:55:36.999Z</time>
      </trkpt>
      <trkpt lat="43.07404" lon="1.94566">
        <ele>341.32</ele>
        <time>2024-09-19T09:55:41.999Z</time>
      </trkpt>
      <trkpt lat="43.07389" lon="1.94565">
        <ele>341.34</ele>
        <time>2024-09-19T09:55:46.999Z</time>
      </trkpt>
      <trkpt lat="43.07371" lon="1.94568">
        <ele>341.37</ele>
        <time>2024-09-19T09:55:51.999Z</time>
      </trkpt>
      <trkpt lat="43.07353" lon="1.94565">
        <ele>341.38</ele>
        <time>2024-09-19T09:55:56.999Z</time>
      </trkpt>
      <trkpt lat="43.07334" lon="1.94562">
        <ele>341.4</ele>
        <time>2024-09-19T09:56:01.999Z</time>
      </trkpt>
      <trkpt lat="43.07313" lon="1.9456">
        <ele>341.41</ele>
        <time>2024-09-19T09:56:06.999Z</time>
      </trkpt>
      <trkpt lat="43.07288" lon="1.94559">
        <ele>341.43</ele>
        <time>2024-09-19T09:56:11.999Z</time>
      </trkpt>
      <trkpt lat="43.07271" lon="1.94557">
        <ele>341.46</ele>
        <time>2024-09-19T09:56:16.999Z</time>
      </trkpt>
      <trkpt lat="43.07255" lon="1.94556">
        <ele>341.49</ele>
        <time>2024-09-19T09:56:21.999Z</time>
      </trkpt>
      <trkpt lat="43.07227" lon="1.94555">
        <ele>341.52</ele>
        <time>2024-09-19T09:56:26.999Z</time>
      </trkpt>
      <trkpt lat="43.07201" lon="1.94552">
        <ele>341.55</ele>
        <time>2024-09-19T09:56:31.999Z</time>
      </trkpt>
      <trkpt lat="43.07183" lon="1.9455">
        <ele>341.56</ele>
        <time>2024-09-19T09:56:36.999Z</time>
      </trkpt>
      <trkpt lat="43.07176" lon="1.94542">
        <ele>341.55</ele>
        <time>2024-09-19T09:56:42.999Z</time>
      </trkpt>
      <trkpt lat="43.07166" lon="1.94547">
        <ele>341.53</ele>
        <time>2024-09-19T09:56:47.999Z</time>
      </trkpt>
      <trkpt lat="43.07157" lon="1.94549">
        <ele>341.49</ele>
        <time>2024-09-19T09:57:02.999Z</time>
      </trkpt>
      <trkpt lat="43.07148" lon="1.94543">
        <ele>341.49</ele>
        <time>2024-09-19T09:57:07.999Z</time>
      </trkpt>
      <trkpt lat="43.07137" lon="1.9453">
        <ele>341.51</ele>
        <time>2024-09-19T09:57:12.999Z</time>
      </trkpt>
      <trkpt lat="43.07115" lon="1.94518">
        <ele>341.41</ele>
        <time>2024-09-19T09:57:17.999Z</time>
      </trkpt>
      <trkpt lat="43.071" lon="1.94529">
        <ele>341.33</ele>
        <time>2024-09-19T09:57:22.999Z</time>
      </trkpt>
      <trkpt lat="43.07088" lon="1.94533">
        <ele>341.31</ele>
        <time>2024-09-19T09:57:27.999Z</time>
      </trkpt>
      <trkpt lat="43.07076" lon="1.94529">
        <ele>341.29</ele>
        <time>2024-09-19T09:57:32.999Z</time>
      </trkpt>
      <trkpt lat="43.07064" lon="1.94525">
        <ele>341.26</ele>
        <time>2024-09-19T09:57:37.999Z</time>
      </trkpt>
      <trkpt lat="43.07053" lon="1.94519">
        <ele>341.23</ele>
        <time>2024-09-19T09:57:42.999Z</time>
      </trkpt>
      <trkpt lat="43.07042" lon="1.94515">
        <ele>341.2</ele>
        <time>2024-09-19T09:57:47.999Z</time>
      </trkpt>
      <trkpt lat="43.07032" lon="1.9451">
        <ele>341.17</ele>
        <time>2024-09-19T09:57:52.999Z</time>
      </trkpt>
      <trkpt lat="43.07023" lon="1.94503">
        <ele>341.25</ele>
        <time>2024-09-19T09:59:05.999Z</time>
      </trkpt>
      <trkpt lat="43.07013" lon="1.94494">
        <ele>341.32</ele>
        <time>2024-09-19T09:59:10.999Z</time>
      </trkpt>
      <trkpt lat="43.07001" lon="1.94484">
        <ele>341.4</ele>
        <time>2024-09-19T09:59:15.999Z</time>
      </trkpt>
      <trkpt lat="43.06986" lon="1.94475">
        <ele>341.49</ele>
        <time>2024-09-19T09:59:20.999Z</time>
      </trkpt>
      <trkpt lat="43.06971" lon="1.94461">
        <ele>341.78</ele>
        <time>2024-09-19T09:59:25.999Z</time>
      </trkpt>
      <trkpt lat="43.06953" lon="1.94449">
        <ele>341.88</ele>
        <time>2024-09-19T09:59:30.999Z</time>
      </trkpt>
      <trkpt lat="43.06935" lon="1.94434">
        <ele>342.27</ele>
        <time>2024-09-19T09:59:35.999Z</time>
      </trkpt>
      <trkpt lat="43.06917" lon="1.94419">
        <ele>342.59</ele>
        <time>2024-09-19T09:59:40.999Z</time>
      </trkpt>
      <trkpt lat="43.06899" lon="1.94402">
        <ele>342.78</ele>
        <time>2024-09-19T09:59:45.999Z</time>
      </trkpt>
      <trkpt lat="43.06882" lon="1.94387">
        <ele>342.86</ele>
        <time>2024-09-19T09:59:50.999Z</time>
      </trkpt>
      <trkpt lat="43.06864" lon="1.94371">
        <ele>342.97</ele>
        <time>2024-09-19T09:59:55.999Z</time>
      </trkpt>
      <trkpt lat="43.06841" lon="1.94354">
        <ele>343.07</ele>
        <time>2024-09-19T10:00:00.999Z</time>
      </trkpt>
      <trkpt lat="43.06822" lon="1.94338">
        <ele>343.14</ele>
        <time>2024-09-19T10:00:05.999Z</time>
      </trkpt>
      <trkpt lat="43.06803" lon="1.94321">
        <ele>343.2</ele>
        <time>2024-09-19T10:00:10.999Z</time>
      </trkpt>
      <trkpt lat="43.06782" lon="1.943">
        <ele>343.21</ele>
        <time>2024-09-19T10:00:15.999Z</time>
      </trkpt>
      <trkpt lat="43.06763" lon="1.94283">
        <ele>343.39</ele>
        <time>2024-09-19T10:00:20.999Z</time>
      </trkpt>
      <trkpt lat="43.06745" lon="1.94265">
        <ele>343.51</ele>
        <time>2024-09-19T10:00:25.999Z</time>
      </trkpt>
      <trkpt lat="43.06728" lon="1.94245">
        <ele>343.63</ele>
        <time>2024-09-19T10:00:30.999Z</time>
      </trkpt>
      <trkpt lat="43.0671" lon="1.94225">
        <ele>343.72</ele>
        <time>2024-09-19T10:00:35.999Z</time>
      </trkpt>
      <trkpt lat="43.06687" lon="1.94206">
        <ele>343.87</ele>
        <time>2024-09-19T10:00:40.999Z</time>
      </trkpt>
      <trkpt lat="43.06657" lon="1.94204">
        <ele>344.06</ele>
        <time>2024-09-19T10:00:45.999Z</time>
      </trkpt>
      <trkpt lat="43.06631" lon="1.94194">
        <ele>344.28</ele>
        <time>2024-09-19T10:00:50.999Z</time>
      </trkpt>
      <trkpt lat="43.06606" lon="1.94186">
        <ele>344.54</ele>
        <time>2024-09-19T10:00:55.999Z</time>
      </trkpt>
      <trkpt lat="43.06585" lon="1.94179">
        <ele>344.8</ele>
        <time>2024-09-19T10:01:00.999Z</time>
      </trkpt>
      <trkpt lat="43.06565" lon="1.94175">
        <ele>344.97</ele>
        <time>2024-09-19T10:01:05.999Z</time>
      </trkpt>
      <trkpt lat="43.06539" lon="1.94171">
        <ele>345.46</ele>
        <time>2024-09-19T10:01:10.999Z</time>
      </trkpt>
      <trkpt lat="43.06514" lon="1.94169">
        <ele>345.88</ele>
        <time>2024-09-19T10:01:15.999Z</time>
      </trkpt>
      <trkpt lat="43.0648" lon="1.94179">
        <ele>346.18</ele>
        <time>2024-09-19T10:01:20.999Z</time>
      </trkpt>
      <trkpt lat="43.06451" lon="1.94188">
        <ele>346.39</ele>
        <time>2024-09-19T10:01:25.999Z</time>
      </trkpt>
      <trkpt lat="43.06425" lon="1.94198">
        <ele>346.53</ele>
        <time>2024-09-19T10:01:30.999Z</time>
      </trkpt>
      <trkpt lat="43.06399" lon="1.94208">
        <ele>346.67</ele>
        <time>2024-09-19T10:01:35.999Z</time>
      </trkpt>
      <trkpt lat="43.06378" lon="1.9422">
        <ele>346.67</ele>
        <time>2024-09-19T10:01:40.999Z</time>
      </trkpt>
      <trkpt lat="43.06359" lon="1.94231">
        <ele>346.64</ele>
        <time>2024-09-19T10:01:45.999Z</time>
      </trkpt>
      <trkpt lat="43.0634" lon="1.94245">
        <ele>346.59</ele>
        <time>2024-09-19T10:01:50.999Z</time>
      </trkpt>
      <trkpt lat="43.0632" lon="1.94262">
        <ele>346.53</ele>
        <time>2024-09-19T10:01:55.999Z</time>
      </trkpt>
      <trkpt lat="43.06296" lon="1.94285">
        <ele>346.52</ele>
        <time>2024-09-19T10:02:00.999Z</time>
      </trkpt>
      <trkpt lat="43.06274" lon="1.94304">
        <ele>346.68</ele>
        <time>2024-09-19T10:02:05.999Z</time>
      </trkpt>
      <trkpt lat="43.06257" lon="1.94321">
        <ele>346.75</ele>
        <time>2024-09-19T10:02:10.999Z</time>
      </trkpt>
      <trkpt lat="43.06241" lon="1.94333">
        <ele>346.79</ele>
        <time>2024-09-19T10:02:15.999Z</time>
      </trkpt>
      <trkpt lat="43.06223" lon="1.94347">
        <ele>347.14</ele>
        <time>2024-09-19T10:02:20.999Z</time>
      </trkpt>
      <trkpt lat="43.06203" lon="1.94368">
        <ele>347.33</ele>
        <time>2024-09-19T10:02:25.999Z</time>
      </trkpt>
      <trkpt lat="43.06184" lon="1.94387">
        <ele>347.38</ele>
        <time>2024-09-19T10:02:30.999Z</time>
      </trkpt>
      <trkpt lat="43.06165" lon="1.94404">
        <ele>347.46</ele>
        <time>2024-09-19T10:02:35.999Z</time>
      </trkpt>
      <trkpt lat="43.06149" lon="1.94419">
        <ele>347.49</ele>
        <time>2024-09-19T10:02:40.999Z</time>
      </trkpt>
      <trkpt lat="43.06134" lon="1.94431">
        <ele>347.5</ele>
        <time>2024-09-19T10:02:45.999Z</time>
      </trkpt>
      <trkpt lat="43.06115" lon="1.94447">
        <ele>347.55</ele>
        <time>2024-09-19T10:02:50.999Z</time>
      </trkpt>
      <trkpt lat="43.061" lon="1.9446">
        <ele>347.59</ele>
        <time>2024-09-19T10:02:55.999Z</time>
      </trkpt>
      <trkpt lat="43.0608" lon="1.9448">
        <ele>347.82</ele>
        <time>2024-09-19T10:03:00.999Z</time>
      </trkpt>
      <trkpt lat="43.0606" lon="1.94498">
        <ele>347.92</ele>
        <time>2024-09-19T10:03:05.999Z</time>
      </trkpt>
      <trkpt lat="43.06037" lon="1.9452">
        <ele>348.2</ele>
        <time>2024-09-19T10:03:10.999Z</time>
      </trkpt>
      <trkpt lat="43.0601" lon="1.94549">
        <ele>349.03</ele>
        <time>2024-09-19T10:03:15.999Z</time>
      </trkpt>
      <trkpt lat="43.05987" lon="1.94567">
        <ele>349.34</ele>
        <time>2024-09-19T10:03:20.999Z</time>
      </trkpt>
      <trkpt lat="43.05965" lon="1.94587">
        <ele>349.58</ele>
        <time>2024-09-19T10:03:25.999Z</time>
      </trkpt>
      <trkpt lat="43.05946" lon="1.94603">
        <ele>349.85</ele>
        <time>2024-09-19T10:03:30.999Z</time>
      </trkpt>
      <trkpt lat="43.05924" lon="1.94622">
        <ele>350.15</ele>
        <time>2024-09-19T10:03:35.999Z</time>
      </trkpt>
      <trkpt lat="43.05902" lon="1.94639">
        <ele>350.19</ele>
        <time>2024-09-19T10:03:40.999Z</time>
      </trkpt>
      <trkpt lat="43.05882" lon="1.94653">
        <ele>350.23</ele>
        <time>2024-09-19T10:03:45.999Z</time>
      </trkpt>
      <trkpt lat="43.05855" lon="1.94676">
        <ele>350.39</ele>
        <time>2024-09-19T10:03:50.999Z</time>
      </trkpt>
      <trkpt lat="43.05828" lon="1.94687">
        <ele>350.66</ele>
        <time>2024-09-19T10:03:55.999Z</time>
      </trkpt>
      <trkpt lat="43.05801" lon="1.94701">
        <ele>350.88</ele>
        <time>2024-09-19T10:04:00.999Z</time>
      </trkpt>
      <trkpt lat="43.05776" lon="1.94709">
        <ele>350.81</ele>
        <time>2024-09-19T10:04:05.999Z</time>
      </trkpt>
      <trkpt lat="43.05745" lon="1.94728">
        <ele>350.58</ele>
        <time>2024-09-19T10:04:10.999Z</time>
      </trkpt>
      <trkpt lat="43.05715" lon="1.9474">
        <ele>350.33</ele>
        <time>2024-09-19T10:04:15.999Z</time>
      </trkpt>
      <trkpt lat="43.05683" lon="1.94748">
        <ele>350.18</ele>
        <time>2024-09-19T10:04:20.999Z</time>
      </trkpt>
      <trkpt lat="43.05655" lon="1.94755">
        <ele>350</ele>
        <time>2024-09-19T10:04:25.999Z</time>
      </trkpt>
      <trkpt lat="43.05627" lon="1.94758">
        <ele>349.74</ele>
        <time>2024-09-19T10:04:30.999Z</time>
      </trkpt>
      <trkpt lat="43.056" lon="1.94761">
        <ele>349.6</ele>
        <time>2024-09-19T10:04:35.999Z</time>
      </trkpt>
      <trkpt lat="43.05576" lon="1.94764">
        <ele>349.52</ele>
        <time>2024-09-19T10:04:40.999Z</time>
      </trkpt>
      <trkpt lat="43.0556" lon="1.94766">
        <ele>349.51</ele>
        <time>2024-09-19T10:04:45.999Z</time>
      </trkpt>
      <trkpt lat="43.05542" lon="1.94763">
        <ele>349.43</ele>
        <time>2024-09-19T10:04:50.999Z</time>
      </trkpt>
      <trkpt lat="43.05519" lon="1.94762">
        <ele>349.22</ele>
        <time>2024-09-19T10:04:56.000Z</time>
      </trkpt>
      <trkpt lat="43.05495" lon="1.94762">
        <ele>348.96</ele>
        <time>2024-09-19T10:05:01.000Z</time>
      </trkpt>
      <trkpt lat="43.05469" lon="1.94761">
        <ele>348.71</ele>
        <time>2024-09-19T10:05:06.000Z</time>
      </trkpt>
      <trkpt lat="43.05441" lon="1.94757">
        <ele>348.42</ele>
        <time>2024-09-19T10:05:11.000Z</time>
      </trkpt>
      <trkpt lat="43.05413" lon="1.94752">
        <ele>348.1</ele>
        <time>2024-09-19T10:05:16.000Z</time>
      </trkpt>
      <trkpt lat="43.05385" lon="1.94745">
        <ele>347.79</ele>
        <time>2024-09-19T10:05:21.000Z</time>
      </trkpt>
      <trkpt lat="43.05357" lon="1.94734">
        <ele>347.49</ele>
        <time>2024-09-19T10:05:26.000Z</time>
      </trkpt>
      <trkpt lat="43.05332" lon="1.94724">
        <ele>347.23</ele>
        <time>2024-09-19T10:05:31.000Z</time>
      </trkpt>
      <trkpt lat="43.05307" lon="1.94714">
        <ele>347</ele>
        <time>2024-09-19T10:05:36.000Z</time>
      </trkpt>
      <trkpt lat="43.05282" lon="1.94698">
        <ele>346.83</ele>
        <time>2024-09-19T10:05:41.000Z</time>
      </trkpt>
      <trkpt lat="43.05259" lon="1.94684">
        <ele>346.78</ele>
        <time>2024-09-19T10:05:46.000Z</time>
      </trkpt>
      <trkpt lat="43.05236" lon="1.9467">
        <ele>346.8</ele>
        <time>2024-09-19T10:05:51.000Z</time>
      </trkpt>
      <trkpt lat="43.05217" lon="1.94657">
        <ele>346.85</ele>
        <time>2024-09-19T10:05:56.000Z</time>
      </trkpt>
      <trkpt lat="43.052" lon="1.9464">
        <ele>346.88</ele>
        <time>2024-09-19T10:06:01.000Z</time>
      </trkpt>
      <trkpt lat="43.05186" lon="1.94629">
        <ele>346.89</ele>
        <time>2024-09-19T10:06:06.000Z</time>
      </trkpt>
      <trkpt lat="43.05174" lon="1.94616">
        <ele>346.93</ele>
        <time>2024-09-19T10:06:11.000Z</time>
      </trkpt>
      <trkpt lat="43.05157" lon="1.94604">
        <ele>347.02</ele>
        <time>2024-09-19T10:06:16.000Z</time>
      </trkpt>
      <trkpt lat="43.0514" lon="1.9459">
        <ele>347.06</ele>
        <time>2024-09-19T10:06:21.000Z</time>
      </trkpt>
      <trkpt lat="43.05121" lon="1.94576">
        <ele>347.04</ele>
        <time>2024-09-19T10:06:26.000Z</time>
      </trkpt>
      <trkpt lat="43.05101" lon="1.94561">
        <ele>346.89</ele>
        <time>2024-09-19T10:06:31.000Z</time>
      </trkpt>
      <trkpt lat="43.05079" lon="1.94544">
        <ele>346.72</ele>
        <time>2024-09-19T10:06:36.000Z</time>
      </trkpt>
      <trkpt lat="43.05057" lon="1.94527">
        <ele>346.72</ele>
        <time>2024-09-19T10:06:41.000Z</time>
      </trkpt>
      <trkpt lat="43.05037" lon="1.94512">
        <ele>346.75</ele>
        <time>2024-09-19T10:06:46.000Z</time>
      </trkpt>
      <trkpt lat="43.05016" lon="1.94496">
        <ele>346.74</ele>
        <time>2024-09-19T10:06:51.000Z</time>
      </trkpt>
      <trkpt lat="43.04995" lon="1.9448">
        <ele>346.65</ele>
        <time>2024-09-19T10:06:56.000Z</time>
      </trkpt>
      <trkpt lat="43.04976" lon="1.94466">
        <ele>346.5</ele>
        <time>2024-09-19T10:07:01.000Z</time>
      </trkpt>
      <trkpt lat="43.04954" lon="1.9445">
        <ele>346.28</ele>
        <time>2024-09-19T10:07:06.000Z</time>
      </trkpt>
      <trkpt lat="43.04934" lon="1.94436">
        <ele>346.11</ele>
        <time>2024-09-19T10:07:11.000Z</time>
      </trkpt>
      <trkpt lat="43.04912" lon="1.9442">
        <ele>346</ele>
        <time>2024-09-19T10:07:16.000Z</time>
      </trkpt>
      <trkpt lat="43.04891" lon="1.94404">
        <ele>345.98</ele>
        <time>2024-09-19T10:07:21.000Z</time>
      </trkpt>
      <trkpt lat="43.04869" lon="1.94388">
        <ele>346.02</ele>
        <time>2024-09-19T10:07:26.000Z</time>
      </trkpt>
      <trkpt lat="43.04846" lon="1.94375">
        <ele>346.05</ele>
        <time>2024-09-19T10:07:31.000Z</time>
      </trkpt>
      <trkpt lat="43.0482" lon="1.94362">
        <ele>346.08</ele>
        <time>2024-09-19T10:07:36.000Z</time>
      </trkpt>
      <trkpt lat="43.04795" lon="1.94353">
        <ele>346.1</ele>
        <time>2024-09-19T10:07:41.000Z</time>
      </trkpt>
      <trkpt lat="43.04771" lon="1.94345">
        <ele>346.12</ele>
        <time>2024-09-19T10:07:46.000Z</time>
      </trkpt>
      <trkpt lat="43.04743" lon="1.94338">
        <ele>346.06</ele>
        <time>2024-09-19T10:07:51.000Z</time>
      </trkpt>
      <trkpt lat="43.04717" lon="1.94333">
        <ele>345.89</ele>
        <time>2024-09-19T10:07:56.000Z</time>
      </trkpt>
      <trkpt lat="43.04694" lon="1.94331">
        <ele>345.77</ele>
        <time>2024-09-19T10:08:01.000Z</time>
      </trkpt>
      <trkpt lat="43.0467" lon="1.94327">
        <ele>345.66</ele>
        <time>2024-09-19T10:08:06.000Z</time>
      </trkpt>
      <trkpt lat="43.04648" lon="1.94325">
        <ele>345.55</ele>
        <time>2024-09-19T10:08:11.000Z</time>
      </trkpt>
      <trkpt lat="43.04632" lon="1.94323">
        <ele>345.54</ele>
        <time>2024-09-19T10:08:16.000Z</time>
      </trkpt>
      <trkpt lat="43.0462" lon="1.9432">
        <ele>345.53</ele>
        <time>2024-09-19T10:08:21.000Z</time>
      </trkpt>
      <trkpt lat="43.04611" lon="1.94319">
        <ele>344.68</ele>
        <time>2024-09-19T10:09:51.000Z</time>
      </trkpt>
      <trkpt lat="43.04595" lon="1.94317">
        <ele>344.43</ele>
        <time>2024-09-19T10:09:56.000Z</time>
      </trkpt>
      <trkpt lat="43.04575" lon="1.94315">
        <ele>343.58</ele>
        <time>2024-09-19T10:10:01.000Z</time>
      </trkpt>
      <trkpt lat="43.04551" lon="1.94311">
        <ele>342.74</ele>
        <time>2024-09-19T10:10:06.000Z</time>
      </trkpt>
      <trkpt lat="43.04526" lon="1.9431">
        <ele>342.49</ele>
        <time>2024-09-19T10:10:11.000Z</time>
      </trkpt>
      <trkpt lat="43.04501" lon="1.94307">
        <ele>342.49</ele>
        <time>2024-09-19T10:10:16.000Z</time>
      </trkpt>
      <trkpt lat="43.04479" lon="1.94304">
        <ele>342.58</ele>
        <time>2024-09-19T10:10:21.000Z</time>
      </trkpt>
      <trkpt lat="43.04453" lon="1.943">
        <ele>342.79</ele>
        <time>2024-09-19T10:10:26.000Z</time>
      </trkpt>
      <trkpt lat="43.04427" lon="1.94296">
        <ele>342.96</ele>
        <time>2024-09-19T10:10:31.000Z</time>
      </trkpt>
      <trkpt lat="43.04402" lon="1.94291">
        <ele>343.13</ele>
        <time>2024-09-19T10:10:36.000Z</time>
      </trkpt>
      <trkpt lat="43.04377" lon="1.94288">
        <ele>343.3</ele>
        <time>2024-09-19T10:10:41.000Z</time>
      </trkpt>
      <trkpt lat="43.04352" lon="1.94285">
        <ele>343.44</ele>
        <time>2024-09-19T10:10:46.000Z</time>
      </trkpt>
      <trkpt lat="43.04327" lon="1.94283">
        <ele>343.58</ele>
        <time>2024-09-19T10:10:51.000Z</time>
      </trkpt>
      <trkpt lat="43.04299" lon="1.94281">
        <ele>343.66</ele>
        <time>2024-09-19T10:10:56.000Z</time>
      </trkpt>
      <trkpt lat="43.04271" lon="1.94278">
        <ele>343.74</ele>
        <time>2024-09-19T10:11:01.000Z</time>
      </trkpt>
      <trkpt lat="43.04242" lon="1.94274">
        <ele>343.85</ele>
        <time>2024-09-19T10:11:06.000Z</time>
      </trkpt>
      <trkpt lat="43.04216" lon="1.94271">
        <ele>344.03</ele>
        <time>2024-09-19T10:11:11.000Z</time>
      </trkpt>
      <trkpt lat="43.04189" lon="1.94267">
        <ele>344.17</ele>
        <time>2024-09-19T10:11:16.000Z</time>
      </trkpt>
      <trkpt lat="43.04164" lon="1.94264">
        <ele>344.33</ele>
        <time>2024-09-19T10:11:21.000Z</time>
      </trkpt>
      <trkpt lat="43.04138" lon="1.9426">
        <ele>344.49</ele>
        <time>2024-09-19T10:11:26.000Z</time>
      </trkpt>
      <trkpt lat="43.0411" lon="1.94256">
        <ele>344.62</ele>
        <time>2024-09-19T10:11:31.000Z</time>
      </trkpt>
      <trkpt lat="43.04083" lon="1.94254">
        <ele>344.67</ele>
        <time>2024-09-19T10:11:36.000Z</time>
      </trkpt>
      <trkpt lat="43.04058" lon="1.94251">
        <ele>344.69</ele>
        <time>2024-09-19T10:11:41.000Z</time>
      </trkpt>
      <trkpt lat="43.04031" lon="1.94248">
        <ele>344.72</ele>
        <time>2024-09-19T10:11:46.000Z</time>
      </trkpt>
      <trkpt lat="43.04007" lon="1.94244">
        <ele>344.85</ele>
        <time>2024-09-19T10:11:51.000Z</time>
      </trkpt>
      <trkpt lat="43.03984" lon="1.94241">
        <ele>345.03</ele>
        <time>2024-09-19T10:11:56.000Z</time>
      </trkpt>
      <trkpt lat="43.03958" lon="1.94238">
        <ele>345.21</ele>
        <time>2024-09-19T10:12:01.000Z</time>
      </trkpt>
      <trkpt lat="43.03935" lon="1.94235">
        <ele>345.44</ele>
        <time>2024-09-19T10:12:06.000Z</time>
      </trkpt>
      <trkpt lat="43.0391" lon="1.94232">
        <ele>345.56</ele>
        <time>2024-09-19T10:12:11.000Z</time>
      </trkpt>
      <trkpt lat="43.03885" lon="1.94229">
        <ele>345.55</ele>
        <time>2024-09-19T10:12:16.000Z</time>
      </trkpt>
      <trkpt lat="43.03861" lon="1.94225">
        <ele>345.49</ele>
        <time>2024-09-19T10:12:21.000Z</time>
      </trkpt>
      <trkpt lat="43.03837" lon="1.94223">
        <ele>345.5</ele>
        <time>2024-09-19T10:12:26.000Z</time>
      </trkpt>
      <trkpt lat="43.03813" lon="1.9422">
        <ele>345.55</ele>
        <time>2024-09-19T10:12:31.000Z</time>
      </trkpt>
      <trkpt lat="43.03791" lon="1.94218">
        <ele>345.64</ele>
        <time>2024-09-19T10:12:36.000Z</time>
      </trkpt>
      <trkpt lat="43.03769" lon="1.94215">
        <ele>345.75</ele>
        <time>2024-09-19T10:12:41.000Z</time>
      </trkpt>
      <trkpt lat="43.03742" lon="1.94211">
        <ele>346.03</ele>
        <time>2024-09-19T10:12:46.000Z</time>
      </trkpt>
      <trkpt lat="43.03718" lon="1.94207">
        <ele>346.29</ele>
        <time>2024-09-19T10:12:51.000Z</time>
      </trkpt>
      <trkpt lat="43.03692" lon="1.94202">
        <ele>346.61</ele>
        <time>2024-09-19T10:12:56.000Z</time>
      </trkpt>
      <trkpt lat="43.03667" lon="1.94199">
        <ele>346.88</ele>
        <time>2024-09-19T10:13:01.000Z</time>
      </trkpt>
      <trkpt lat="43.03644" lon="1.94199">
        <ele>347.07</ele>
        <time>2024-09-19T10:13:06.000Z</time>
      </trkpt>
      <trkpt lat="43.03624" lon="1.94201">
        <ele>347.17</ele>
        <time>2024-09-19T10:13:11.000Z</time>
      </trkpt>
      <trkpt lat="43.03603" lon="1.94203">
        <ele>347.32</ele>
        <time>2024-09-19T10:13:16.000Z</time>
      </trkpt>
      <trkpt lat="43.03582" lon="1.94208">
        <ele>347.49</ele>
        <time>2024-09-19T10:13:21.000Z</time>
      </trkpt>
      <trkpt lat="43.03562" lon="1.94214">
        <ele>347.59</ele>
        <time>2024-09-19T10:13:26.000Z</time>
      </trkpt>
      <trkpt lat="43.03541" lon="1.94222">
        <ele>347.67</ele>
        <time>2024-09-19T10:13:31.000Z</time>
      </trkpt>
      <trkpt lat="43.0352" lon="1.94232">
        <ele>347.74</ele>
        <time>2024-09-19T10:13:36.000Z</time>
      </trkpt>
      <trkpt lat="43.03499" lon="1.94244">
        <ele>347.93</ele>
        <time>2024-09-19T10:13:41.000Z</time>
      </trkpt>
      <trkpt lat="43.03478" lon="1.94256">
        <ele>348.16</ele>
        <time>2024-09-19T10:13:46.000Z</time>
      </trkpt>
      <trkpt lat="43.0346" lon="1.94269">
        <ele>348.39</ele>
        <time>2024-09-19T10:13:51.000Z</time>
      </trkpt>
      <trkpt lat="43.03445" lon="1.94285">
        <ele>348.44</ele>
        <time>2024-09-19T10:13:56.000Z</time>
      </trkpt>
      <trkpt lat="43.03433" lon="1.94299">
        <ele>348.49</ele>
        <time>2024-09-19T10:14:01.000Z</time>
      </trkpt>
      <trkpt lat="43.03423" lon="1.94309">
        <ele>348.56</ele>
        <time>2024-09-19T10:14:06.000Z</time>
      </trkpt>
      <trkpt lat="43.03414" lon="1.94318">
        <ele>348.65</ele>
        <time>2024-09-19T10:14:12.000Z</time>
      </trkpt>
      <trkpt lat="43.03408" lon="1.94326">
        <ele>348.75</ele>
        <time>2024-09-19T10:14:40.000Z</time>
      </trkpt>
      <trkpt lat="43.034" lon="1.94332">
        <ele>348.56</ele>
        <time>2024-09-19T10:15:47.000Z</time>
      </trkpt>
      <trkpt lat="43.03396" lon="1.94345">
        <ele>348.31</ele>
        <time>2024-09-19T10:17:50.999Z</time>
      </trkpt>
      <trkpt lat="43.03386" lon="1.94361">
        <ele>348.27</ele>
        <time>2024-09-19T10:17:55.999Z</time>
      </trkpt>
      <trkpt lat="43.03371" lon="1.94383">
        <ele>348.22</ele>
        <time>2024-09-19T10:18:00.999Z</time>
      </trkpt>
      <trkpt lat="43.03357" lon="1.9441">
        <ele>348.19</ele>
        <time>2024-09-19T10:18:05.999Z</time>
      </trkpt>
      <trkpt lat="43.03343" lon="1.94439">
        <ele>348.13</ele>
        <time>2024-09-19T10:18:10.999Z</time>
      </trkpt>
      <trkpt lat="43.03331" lon="1.94463">
        <ele>348.09</ele>
        <time>2024-09-19T10:18:15.999Z</time>
      </trkpt>
      <trkpt lat="43.03322" lon="1.94487">
        <ele>348.07</ele>
        <time>2024-09-19T10:18:20.999Z</time>
      </trkpt>
      <trkpt lat="43.03311" lon="1.94513">
        <ele>348.06</ele>
        <time>2024-09-19T10:18:25.999Z</time>
      </trkpt>
      <trkpt lat="43.03302" lon="1.94537">
        <ele>348.05</ele>
        <time>2024-09-19T10:18:30.999Z</time>
      </trkpt>
      <trkpt lat="43.03293" lon="1.94564">
        <ele>348.04</ele>
        <time>2024-09-19T10:18:35.999Z</time>
      </trkpt>
      <trkpt lat="43.03282" lon="1.94594">
        <ele>348.1</ele>
        <time>2024-09-19T10:18:40.999Z</time>
      </trkpt>
      <trkpt lat="43.03271" lon="1.94624">
        <ele>348.24</ele>
        <time>2024-09-19T10:18:45.999Z</time>
      </trkpt>
      <trkpt lat="43.03261" lon="1.94653">
        <ele>348.38</ele>
        <time>2024-09-19T10:18:50.999Z</time>
      </trkpt>
      <trkpt lat="43.03251" lon="1.94683">
        <ele>348.48</ele>
        <time>2024-09-19T10:18:55.999Z</time>
      </trkpt>
      <trkpt lat="43.03239" lon="1.94714">
        <ele>348.54</ele>
        <time>2024-09-19T10:19:00.999Z</time>
      </trkpt>
      <trkpt lat="43.03228" lon="1.94742">
        <ele>348.62</ele>
        <time>2024-09-19T10:19:05.999Z</time>
      </trkpt>
      <trkpt lat="43.03219" lon="1.9477">
        <ele>348.69</ele>
        <time>2024-09-19T10:19:10.999Z</time>
      </trkpt>
      <trkpt lat="43.03207" lon="1.94801">
        <ele>348.68</ele>
        <time>2024-09-19T10:19:15.999Z</time>
      </trkpt>
      <trkpt lat="43.03195" lon="1.94829">
        <ele>348.6</ele>
        <time>2024-09-19T10:19:20.999Z</time>
      </trkpt>
      <trkpt lat="43.03185" lon="1.94855">
        <ele>348.51</ele>
        <time>2024-09-19T10:19:25.999Z</time>
      </trkpt>
      <trkpt lat="43.03174" lon="1.94883">
        <ele>348.35</ele>
        <time>2024-09-19T10:19:30.999Z</time>
      </trkpt>
      <trkpt lat="43.03161" lon="1.9491">
        <ele>348.21</ele>
        <time>2024-09-19T10:19:35.999Z</time>
      </trkpt>
      <trkpt lat="43.03149" lon="1.94933">
        <ele>348.12</ele>
        <time>2024-09-19T10:19:40.999Z</time>
      </trkpt>
      <trkpt lat="43.03136" lon="1.94958">
        <ele>348.04</ele>
        <time>2024-09-19T10:19:45.999Z</time>
      </trkpt>
      <trkpt lat="43.03121" lon="1.94984">
        <ele>348</ele>
        <time>2024-09-19T10:19:50.999Z</time>
      </trkpt>
      <trkpt lat="43.03106" lon="1.95008">
        <ele>348.08</ele>
        <time>2024-09-19T10:19:55.999Z</time>
      </trkpt>
      <trkpt lat="43.0309" lon="1.95032">
        <ele>348.36</ele>
        <time>2024-09-19T10:20:00.999Z</time>
      </trkpt>
      <trkpt lat="43.03073" lon="1.95053">
        <ele>348.58</ele>
        <time>2024-09-19T10:20:05.999Z</time>
      </trkpt>
      <trkpt lat="43.03055" lon="1.95072">
        <ele>348.89</ele>
        <time>2024-09-19T10:20:10.999Z</time>
      </trkpt>
      <trkpt lat="43.03038" lon="1.95089">
        <ele>349.14</ele>
        <time>2024-09-19T10:20:15.999Z</time>
      </trkpt>
      <trkpt lat="43.03022" lon="1.95104">
        <ele>349.29</ele>
        <time>2024-09-19T10:20:20.999Z</time>
      </trkpt>
      <trkpt lat="43.03005" lon="1.9512">
        <ele>349.35</ele>
        <time>2024-09-19T10:20:25.999Z</time>
      </trkpt>
      <trkpt lat="43.02987" lon="1.95138">
        <ele>349.37</ele>
        <time>2024-09-19T10:20:30.999Z</time>
      </trkpt>
      <trkpt lat="43.02971" lon="1.95154">
        <ele>349.39</ele>
        <time>2024-09-19T10:20:35.999Z</time>
      </trkpt>
      <trkpt lat="43.02951" lon="1.95174">
        <ele>349.39</ele>
        <time>2024-09-19T10:20:40.999Z</time>
      </trkpt>
      <trkpt lat="43.02929" lon="1.95197">
        <ele>349.38</ele>
        <time>2024-09-19T10:20:45.999Z</time>
      </trkpt>
      <trkpt lat="43.02904" lon="1.95223">
        <ele>349.38</ele>
        <time>2024-09-19T10:20:50.999Z</time>
      </trkpt>
      <trkpt lat="43.02881" lon="1.95247">
        <ele>349.42</ele>
        <time>2024-09-19T10:20:55.999Z</time>
      </trkpt>
      <trkpt lat="43.02855" lon="1.95273">
        <ele>349.63</ele>
        <time>2024-09-19T10:21:00.999Z</time>
      </trkpt>
      <trkpt lat="43.02834" lon="1.95294">
        <ele>349.76</ele>
        <time>2024-09-19T10:21:05.999Z</time>
      </trkpt>
      <trkpt lat="43.02815" lon="1.95314">
        <ele>349.91</ele>
        <time>2024-09-19T10:21:10.999Z</time>
      </trkpt>
      <trkpt lat="43.02796" lon="1.95336">
        <ele>349.98</ele>
        <time>2024-09-19T10:21:15.999Z</time>
      </trkpt>
      <trkpt lat="43.02779" lon="1.95358">
        <ele>350.11</ele>
        <time>2024-09-19T10:21:20.999Z</time>
      </trkpt>
      <trkpt lat="43.02764" lon="1.9538">
        <ele>350.38</ele>
        <time>2024-09-19T10:21:25.999Z</time>
      </trkpt>
      <trkpt lat="43.02747" lon="1.95408">
        <ele>350.63</ele>
        <time>2024-09-19T10:21:30.999Z</time>
      </trkpt>
      <trkpt lat="43.02732" lon="1.95438">
        <ele>350.78</ele>
        <time>2024-09-19T10:21:35.999Z</time>
      </trkpt>
      <trkpt lat="43.02716" lon="1.95469">
        <ele>350.88</ele>
        <time>2024-09-19T10:21:40.999Z</time>
      </trkpt>
      <trkpt lat="43.02705" lon="1.95498">
        <ele>350.89</ele>
        <time>2024-09-19T10:21:45.999Z</time>
      </trkpt>
      <trkpt lat="43.02694" lon="1.95531">
        <ele>350.92</ele>
        <time>2024-09-19T10:21:50.999Z</time>
      </trkpt>
      <trkpt lat="43.02683" lon="1.95564">
        <ele>351</ele>
        <time>2024-09-19T10:21:55.999Z</time>
      </trkpt>
      <trkpt lat="43.02674" lon="1.95595">
        <ele>351</ele>
        <time>2024-09-19T10:22:00.999Z</time>
      </trkpt>
      <trkpt lat="43.02667" lon="1.95625">
        <ele>350.97</ele>
        <time>2024-09-19T10:22:05.999Z</time>
      </trkpt>
      <trkpt lat="43.02662" lon="1.95653">
        <ele>351.03</ele>
        <time>2024-09-19T10:22:10.999Z</time>
      </trkpt>
      <trkpt lat="43.02657" lon="1.95681">
        <ele>351.12</ele>
        <time>2024-09-19T10:22:15.999Z</time>
      </trkpt>
      <trkpt lat="43.02653" lon="1.95715">
        <ele>351.31</ele>
        <time>2024-09-19T10:22:20.999Z</time>
      </trkpt>
      <trkpt lat="43.02649" lon="1.95754">
        <ele>351.48</ele>
        <time>2024-09-19T10:22:25.999Z</time>
      </trkpt>
      <trkpt lat="43.02646" lon="1.95789">
        <ele>351.64</ele>
        <time>2024-09-19T10:22:30.999Z</time>
      </trkpt>
      <trkpt lat="43.02643" lon="1.95822">
        <ele>351.7</ele>
        <time>2024-09-19T10:22:35.999Z</time>
      </trkpt>
      <trkpt lat="43.0264" lon="1.95853">
        <ele>351.72</ele>
        <time>2024-09-19T10:22:40.999Z</time>
      </trkpt>
      <trkpt lat="43.02638" lon="1.95886">
        <ele>351.68</ele>
        <time>2024-09-19T10:22:45.999Z</time>
      </trkpt>
      <trkpt lat="43.02634" lon="1.95922">
        <ele>351.59</ele>
        <time>2024-09-19T10:22:50.999Z</time>
      </trkpt>
      <trkpt lat="43.0263" lon="1.95955">
        <ele>351.63</ele>
        <time>2024-09-19T10:22:55.999Z</time>
      </trkpt>
      <trkpt lat="43.02627" lon="1.95987">
        <ele>351.77</ele>
        <time>2024-09-19T10:23:00.999Z</time>
      </trkpt>
      <trkpt lat="43.02623" lon="1.96018">
        <ele>351.97</ele>
        <time>2024-09-19T10:23:05.999Z</time>
      </trkpt>
      <trkpt lat="43.02619" lon="1.96047">
        <ele>352.21</ele>
        <time>2024-09-19T10:23:10.999Z</time>
      </trkpt>
      <trkpt lat="43.02611" lon="1.96081">
        <ele>352.27</ele>
        <time>2024-09-19T10:23:15.999Z</time>
      </trkpt>
      <trkpt lat="43.02604" lon="1.96105">
        <ele>352.28</ele>
        <time>2024-09-19T10:23:20.999Z</time>
      </trkpt>
      <trkpt lat="43.02598" lon="1.96124">
        <ele>352.3</ele>
        <time>2024-09-19T10:23:25.999Z</time>
      </trkpt>
      <trkpt lat="43.02592" lon="1.96137">
        <ele>352.34</ele>
        <time>2024-09-19T10:23:30.999Z</time>
      </trkpt>
      <trkpt lat="43.02588" lon="1.96152">
        <ele>352.4</ele>
        <time>2024-09-19T10:23:35.999Z</time>
      </trkpt>
      <trkpt lat="43.02582" lon="1.96166">
        <ele>352.48</ele>
        <time>2024-09-19T10:23:40.999Z</time>
      </trkpt>
      <trkpt lat="43.02578" lon="1.96176">
        <ele>352.57</ele>
        <time>2024-09-19T10:23:45.999Z</time>
      </trkpt>
      <trkpt lat="43.02572" lon="1.9619">
        <ele>352.68</ele>
        <time>2024-09-19T10:23:50.999Z</time>
      </trkpt>
      <trkpt lat="43.02559" lon="1.96214">
        <ele>352.98</ele>
        <time>2024-09-19T10:23:55.999Z</time>
      </trkpt>
      <trkpt lat="43.02543" lon="1.96239">
        <ele>353.61</ele>
        <time>2024-09-19T10:24:00.999Z</time>
      </trkpt>
      <trkpt lat="43.02524" lon="1.96263">
        <ele>353.97</ele>
        <time>2024-09-19T10:24:05.999Z</time>
      </trkpt>
      <trkpt lat="43.02507" lon="1.96282">
        <ele>354.4</ele>
        <time>2024-09-19T10:24:10.999Z</time>
      </trkpt>
      <trkpt lat="43.02493" lon="1.96295">
        <ele>354.58</ele>
        <time>2024-09-19T10:24:15.999Z</time>
      </trkpt>
      <trkpt lat="43.02469" lon="1.96316">
        <ele>354.87</ele>
        <time>2024-09-19T10:24:20.999Z</time>
      </trkpt>
      <trkpt lat="43.02447" lon="1.96334">
        <ele>355.49</ele>
        <time>2024-09-19T10:24:25.999Z</time>
      </trkpt>
      <trkpt lat="43.02424" lon="1.96351">
        <ele>355.86</ele>
        <time>2024-09-19T10:24:30.999Z</time>
      </trkpt>
      <trkpt lat="43.024" lon="1.96365">
        <ele>356.3</ele>
        <time>2024-09-19T10:24:35.999Z</time>
      </trkpt>
      <trkpt lat="43.02379" lon="1.96374">
        <ele>356.61</ele>
        <time>2024-09-19T10:24:40.999Z</time>
      </trkpt>
      <trkpt lat="43.02356" lon="1.96383">
        <ele>356.83</ele>
        <time>2024-09-19T10:24:45.999Z</time>
      </trkpt>
      <trkpt lat="43.02338" lon="1.96389">
        <ele>356.95</ele>
        <time>2024-09-19T10:24:50.999Z</time>
      </trkpt>
      <trkpt lat="43.02319" lon="1.96393">
        <ele>357</ele>
        <time>2024-09-19T10:24:55.999Z</time>
      </trkpt>
      <trkpt lat="43.02301" lon="1.96397">
        <ele>357.07</ele>
        <time>2024-09-19T10:25:00.999Z</time>
      </trkpt>
      <trkpt lat="43.02284" lon="1.96399">
        <ele>357.17</ele>
        <time>2024-09-19T10:25:05.999Z</time>
      </trkpt>
      <trkpt lat="43.02271" lon="1.964">
        <ele>357.3</ele>
        <time>2024-09-19T10:25:10.999Z</time>
      </trkpt>
      <trkpt lat="43.02253" lon="1.964">
        <ele>357.45</ele>
        <time>2024-09-19T10:25:15.999Z</time>
      </trkpt>
      <trkpt lat="43.02238" lon="1.96399">
        <ele>357.61</ele>
        <time>2024-09-19T10:25:20.999Z</time>
      </trkpt>
      <trkpt lat="43.02225" lon="1.964">
        <ele>357.8</ele>
        <time>2024-09-19T10:25:25.999Z</time>
      </trkpt>
      <trkpt lat="43.02213" lon="1.964">
        <ele>358.01</ele>
        <time>2024-09-19T10:25:30.999Z</time>
      </trkpt>
      <trkpt lat="43.02201" lon="1.96401">
        <ele>358.24</ele>
        <time>2024-09-19T10:25:35.999Z</time>
      </trkpt>
      <trkpt lat="43.0219" lon="1.96402">
        <ele>358.48</ele>
        <time>2024-09-19T10:25:40.999Z</time>
      </trkpt>
      <trkpt lat="43.02181" lon="1.96402">
        <ele>359.04</ele>
        <time>2024-09-19T10:26:07.999Z</time>
      </trkpt>
      <trkpt lat="43.02174" lon="1.96412">
        <ele>361.49</ele>
        <time>2024-09-19T10:28:58.999Z</time>
      </trkpt>
      <trkpt lat="43.02173" lon="1.96427">
        <ele>361.83</ele>
        <time>2024-09-19T10:29:03.999Z</time>
      </trkpt>
      <trkpt lat="43.02169" lon="1.96441">
        <ele>362.14</ele>
        <time>2024-09-19T10:29:08.999Z</time>
      </trkpt>
      <trkpt lat="43.02165" lon="1.96455">
        <ele>362.42</ele>
        <time>2024-09-19T10:29:14.000Z</time>
      </trkpt>
      <trkpt lat="43.02165" lon="1.96471">
        <ele>362.67</ele>
        <time>2024-09-19T10:29:19.000Z</time>
      </trkpt>
      <trkpt lat="43.02174" lon="1.96469">
        <ele>363.02</ele>
        <time>2024-09-19T10:29:27.000Z</time>
      </trkpt>
      <trkpt lat="43.02179" lon="1.96449">
        <ele>363.2</ele>
        <time>2024-09-19T10:29:32.000Z</time>
      </trkpt>
      <trkpt lat="43.02183" lon="1.96424">
        <ele>364.04</ele>
        <time>2024-09-19T10:29:37.000Z</time>
      </trkpt>
      <trkpt lat="43.02183" lon="1.96399">
        <ele>364.38</ele>
        <time>2024-09-19T10:29:42.000Z</time>
      </trkpt>
      <trkpt lat="43.02185" lon="1.96377">
        <ele>364.42</ele>
        <time>2024-09-19T10:29:47.000Z</time>
      </trkpt>
      <trkpt lat="43.02187" lon="1.96362">
        <ele>364.45</ele>
        <time>2024-09-19T10:29:52.000Z</time>
      </trkpt>
      <trkpt lat="43.02194" lon="1.96352">
        <ele>364.49</ele>
        <time>2024-09-19T10:30:17.000Z</time>
      </trkpt>
      <trkpt lat="43.022" lon="1.9634">
        <ele>364.51</ele>
        <time>2024-09-19T10:30:23.000Z</time>
      </trkpt>
      <trkpt lat="43.02205" lon="1.96327">
        <ele>364.53</ele>
        <time>2024-09-19T10:30:28.000Z</time>
      </trkpt>
      <trkpt lat="43.02199" lon="1.96318">
        <ele>364.54</ele>
        <time>2024-09-19T10:30:43.000Z</time>
      </trkpt>
      <trkpt lat="43.0219" lon="1.96322">
        <ele>364.49</ele>
        <time>2024-09-19T10:30:58.000Z</time>
      </trkpt>
      <trkpt lat="43.02184" lon="1.96332">
        <ele>364.11</ele>
        <time>2024-09-19T10:31:54.000Z</time>
      </trkpt>
      <trkpt lat="43.02187" lon="1.96344">
        <ele>363.97</ele>
        <time>2024-09-19T10:32:20.000Z</time>
      </trkpt>
      <trkpt lat="43.02192" lon="1.96333">
        <ele>363.96</ele>
        <time>2024-09-19T10:32:34.000Z</time>
      </trkpt>
      <trkpt lat="43.02202" lon="1.96331">
        <ele>363.95</ele>
        <time>2024-09-19T10:32:56.000Z</time>
      </trkpt>
      <trkpt lat="43.02194" lon="1.96323">
        <ele>363.91</ele>
        <time>2024-09-19T10:33:41.000Z</time>
      </trkpt>
      <trkpt lat="43.02187" lon="1.96334">
        <ele>363.87</ele>
        <time>2024-09-19T10:34:14.000Z</time>
      </trkpt>
      <trkpt lat="43.02197" lon="1.9634">
        <ele>363.86</ele>
        <time>2024-09-19T10:34:42.000Z</time>
      </trkpt>
      <trkpt lat="43.02196" lon="1.96327">
        <ele>363.83</ele>
        <time>2024-09-19T10:34:59.000Z</time>
      </trkpt>
      <trkpt lat="43.022" lon="1.96316">
        <ele>363.75</ele>
        <time>2024-09-19T10:35:18.000Z</time>
      </trkpt>
      <trkpt lat="43.02192" lon="1.96323">
        <ele>363.42</ele>
        <time>2024-09-19T10:36:28.000Z</time>
      </trkpt>
      <trkpt lat="43.022" lon="1.96316">
        <ele>363.31</ele>
        <time>2024-09-19T10:36:40.000Z</time>
      </trkpt>
      <trkpt lat="43.0219" lon="1.96323">
        <ele>363.1</ele>
        <time>2024-09-19T10:36:59.000Z</time>
      </trkpt>
      <trkpt lat="43.02198" lon="1.96314">
        <ele>363.02</ele>
        <time>2024-09-19T10:37:27.000Z</time>
      </trkpt>
      <trkpt lat="43.02191" lon="1.96306">
        <ele>362.98</ele>
        <time>2024-09-19T10:37:34.000Z</time>
      </trkpt>
      <trkpt lat="43.0219" lon="1.96321">
        <ele>362.88</ele>
        <time>2024-09-19T10:37:53.000Z</time>
      </trkpt>
      <trkpt lat="43.02189" lon="1.96307">
        <ele>362.67</ele>
        <time>2024-09-19T10:38:55.000Z</time>
      </trkpt>
      <trkpt lat="43.02188" lon="1.96321">
        <ele>362.64</ele>
        <time>2024-09-19T10:39:17.000Z</time>
      </trkpt>
      <trkpt lat="43.02184" lon="1.96334">
        <ele>362.63</ele>
        <time>2024-09-19T10:39:22.000Z</time>
      </trkpt>
      <trkpt lat="43.02193" lon="1.96332">
        <ele>362.11</ele>
        <time>2024-09-19T10:40:44.000Z</time>
      </trkpt>
      <trkpt lat="43.02203" lon="1.96333">
        <ele>361.59</ele>
        <time>2024-09-19T10:41:58.999Z</time>
      </trkpt>
      <trkpt lat="43.02195" lon="1.96326">
        <ele>361.58</ele>
        <time>2024-09-19T10:42:08.999Z</time>
      </trkpt>
      <trkpt lat="43.02203" lon="1.96332">
        <ele>361.51</ele>
        <time>2024-09-19T10:42:26.999Z</time>
      </trkpt>
      <trkpt lat="43.02198" lon="1.96345">
        <ele>361.47</ele>
        <time>2024-09-19T10:42:40.999Z</time>
      </trkpt>
      <trkpt lat="43.02186" lon="1.96333">
        <ele>361.35</ele>
        <time>2024-09-19T10:42:45.999Z</time>
      </trkpt>
      <trkpt lat="43.02189" lon="1.9632">
        <ele>361.3</ele>
        <time>2024-09-19T10:42:56.999Z</time>
      </trkpt>
      <trkpt lat="43.02196" lon="1.96327">
        <ele>361.15</ele>
        <time>2024-09-19T10:43:41.999Z</time>
      </trkpt>
      <trkpt lat="43.02187" lon="1.96329">
        <ele>360.85</ele>
        <time>2024-09-19T10:44:05.999Z</time>
      </trkpt>
      <trkpt lat="43.02191" lon="1.9634">
        <ele>360.56</ele>
        <time>2024-09-19T10:44:37.999Z</time>
      </trkpt>
      <trkpt lat="43.02186" lon="1.96353">
        <ele>360.49</ele>
        <time>2024-09-19T10:44:53.999Z</time>
      </trkpt>
      <trkpt lat="43.02186" lon="1.96365">
        <ele>360.46</ele>
        <time>2024-09-19T10:45:01.999Z</time>
      </trkpt>
      <trkpt lat="43.02189" lon="1.96353">
        <ele>360.15</ele>
        <time>2024-09-19T10:45:14.999Z</time>
      </trkpt>
      <trkpt lat="43.02195" lon="1.96362">
        <ele>360.04</ele>
        <time>2024-09-19T10:45:21.999Z</time>
      </trkpt>
      <trkpt lat="43.02209" lon="1.96351">
        <ele>359.94</ele>
        <time>2024-09-19T10:45:26.999Z</time>
      </trkpt>
      <trkpt lat="43.02199" lon="1.96341">
        <ele>359.87</ele>
        <time>2024-09-19T10:45:31.999Z</time>
      </trkpt>
      <trkpt lat="43.02207" lon="1.96328">
        <ele>359.79</ele>
        <time>2024-09-19T10:45:38.999Z</time>
      </trkpt>
      <trkpt lat="43.02195" lon="1.96328">
        <ele>359.63</ele>
        <time>2024-09-19T10:45:46.999Z</time>
      </trkpt>
      <trkpt lat="43.02185" lon="1.96327">
        <ele>358.34</ele>
        <time>2024-09-19T10:46:44.999Z</time>
      </trkpt>
      <trkpt lat="43.02197" lon="1.9632">
        <ele>356.6</ele>
        <time>2024-09-19T10:48:35.999Z</time>
      </trkpt>
      <trkpt lat="43.02204" lon="1.96332">
        <ele>356.48</ele>
        <time>2024-09-19T10:48:40.999Z</time>
      </trkpt>
      <trkpt lat="43.02193" lon="1.96332">
        <ele>356.44</ele>
        <time>2024-09-19T10:48:53.999Z</time>
      </trkpt>
      <trkpt lat="43.022" lon="1.96325">
        <ele>356.41</ele>
        <time>2024-09-19T10:49:06.999Z</time>
      </trkpt>
      <trkpt lat="43.02202" lon="1.96312">
        <ele>357.48</ele>
        <time>2024-09-19T10:52:40.999Z</time>
      </trkpt>
      <trkpt lat="43.02194" lon="1.9632">
        <ele>357.27</ele>
        <time>2024-09-19T10:52:47.999Z</time>
      </trkpt>
      <trkpt lat="43.02184" lon="1.96323">
        <ele>357.16</ele>
        <time>2024-09-19T10:53:01.999Z</time>
      </trkpt>
      <trkpt lat="43.02193" lon="1.96319">
        <ele>357.05</ele>
        <time>2024-09-19T10:53:19.999Z</time>
      </trkpt>
      <trkpt lat="43.02203" lon="1.96336">
        <ele>360.9</ele>
        <time>2024-09-19T10:54:12.999Z</time>
      </trkpt>
      <trkpt lat="43.02199" lon="1.96315">
        <ele>359.62</ele>
        <time>2024-09-19T10:54:33.000Z</time>
      </trkpt>
      <trkpt lat="43.02192" lon="1.96325">
        <ele>364.56</ele>
        <time>2024-09-19T10:54:47.000Z</time>
      </trkpt>
      <trkpt lat="43.02212" lon="1.96348">
        <ele>357.32</ele>
        <time>2024-09-19T10:55:41.000Z</time>
      </trkpt>
      <trkpt lat="43.02205" lon="1.96335">
        <ele>354.81</ele>
        <time>2024-09-19T10:56:13.000Z</time>
      </trkpt>
      <trkpt lat="43.02199" lon="1.96344">
        <ele>355</ele>
        <time>2024-09-19T10:56:34.000Z</time>
      </trkpt>
      <trkpt lat="43.02188" lon="1.96347">
        <ele>354.81</ele>
        <time>2024-09-19T10:56:45.000Z</time>
      </trkpt>
      <trkpt lat="43.02174" lon="1.96341">
        <ele>351.24</ele>
        <time>2024-09-19T10:57:10.000Z</time>
      </trkpt>
      <trkpt lat="43.02175" lon="1.96324">
        <ele>351.52</ele>
        <time>2024-09-19T10:57:25.000Z</time>
      </trkpt>
      <trkpt lat="43.02171" lon="1.9631">
        <ele>351.52</ele>
        <time>2024-09-19T10:57:34.000Z</time>
      </trkpt>
      <trkpt lat="43.02169" lon="1.96322">
        <ele>351.38</ele>
        <time>2024-09-19T10:57:41.000Z</time>
      </trkpt>
      <trkpt lat="43.02176" lon="1.96307">
        <ele>351.24</ele>
        <time>2024-09-19T10:57:46.000Z</time>
      </trkpt>
      <trkpt lat="43.02169" lon="1.96322">
        <ele>351.2</ele>
        <time>2024-09-19T10:57:53.000Z</time>
      </trkpt>
      <trkpt lat="43.02167" lon="1.96335">
        <ele>351.12</ele>
        <time>2024-09-19T10:58:00.000Z</time>
      </trkpt>
      <trkpt lat="43.02172" lon="1.96349">
        <ele>351.04</ele>
        <time>2024-09-19T10:58:05.000Z</time>
      </trkpt>
      <trkpt lat="43.02181" lon="1.96353">
        <ele>350.87</ele>
        <time>2024-09-19T10:58:12.000Z</time>
      </trkpt>
      <trkpt lat="43.02189" lon="1.96359">
        <ele>350.41</ele>
        <time>2024-09-19T10:58:32.000Z</time>
      </trkpt>
      <trkpt lat="43.02185" lon="1.96348">
        <ele>350.26</ele>
        <time>2024-09-19T10:58:37.000Z</time>
      </trkpt>
      <trkpt lat="43.02195" lon="1.96347">
        <ele>349.45</ele>
        <time>2024-09-19T10:58:50.000Z</time>
      </trkpt>
      <trkpt lat="43.02203" lon="1.96342">
        <ele>349.34</ele>
        <time>2024-09-19T10:58:55.000Z</time>
      </trkpt>
      <trkpt lat="43.02197" lon="1.96332">
        <ele>349.21</ele>
        <time>2024-09-19T10:59:07.000Z</time>
      </trkpt>
      <trkpt lat="43.02206" lon="1.96327">
        <ele>349.28</ele>
        <time>2024-09-19T10:59:29.000Z</time>
      </trkpt>
      <trkpt lat="43.02213" lon="1.96318">
        <ele>349.26</ele>
        <time>2024-09-19T10:59:36.000Z</time>
      </trkpt>
      <trkpt lat="43.02208" lon="1.9633">
        <ele>349.26</ele>
        <time>2024-09-19T10:59:46.000Z</time>
      </trkpt>
      <trkpt lat="43.022" lon="1.96325">
        <ele>349.49</ele>
        <time>2024-09-19T10:59:58.000Z</time>
      </trkpt>
      <trkpt lat="43.02207" lon="1.96334">
        <ele>351.68</ele>
        <time>2024-09-19T11:00:35.000Z</time>
      </trkpt>
      <trkpt lat="43.02198" lon="1.9634">
        <ele>352.16</ele>
        <time>2024-09-19T11:00:44.000Z</time>
      </trkpt>
      <trkpt lat="43.02188" lon="1.96336">
        <ele>352.24</ele>
        <time>2024-09-19T11:00:56.000Z</time>
      </trkpt>
      <trkpt lat="43.02199" lon="1.96332">
        <ele>352.26</ele>
        <time>2024-09-19T11:01:01.000Z</time>
      </trkpt>
      <trkpt lat="43.02187" lon="1.96333">
        <ele>352.3</ele>
        <time>2024-09-19T11:01:11.000Z</time>
      </trkpt>
      <trkpt lat="43.02195" lon="1.96329">
        <ele>352.69</ele>
        <time>2024-09-19T11:01:28.000Z</time>
      </trkpt>
      <trkpt lat="43.02183" lon="1.96334">
        <ele>352.8</ele>
        <time>2024-09-19T11:03:09.000Z</time>
      </trkpt>
      <trkpt lat="43.02178" lon="1.96317">
        <ele>352.11</ele>
        <time>2024-09-19T11:04:59.000Z</time>
      </trkpt>
      <trkpt lat="43.02169" lon="1.96292">
        <ele>351.72</ele>
        <time>2024-09-19T11:06:49.999Z</time>
      </trkpt>
      <trkpt lat="43.02173" lon="1.96304">
        <ele>352.47</ele>
        <time>2024-09-19T11:07:14.999Z</time>
      </trkpt>
      <trkpt lat="43.02177" lon="1.96316">
        <ele>353.04</ele>
        <time>2024-09-19T11:07:35.999Z</time>
      </trkpt>
      <trkpt lat="43.02189" lon="1.96316">
        <ele>354.09</ele>
        <time>2024-09-19T11:08:09.999Z</time>
      </trkpt>
      <trkpt lat="43.02176" lon="1.96315">
        <ele>356.92</ele>
        <time>2024-09-19T11:09:00.999Z</time>
      </trkpt>
      <trkpt lat="43.02185" lon="1.96319">
        <ele>357.05</ele>
        <time>2024-09-19T11:09:05.999Z</time>
      </trkpt>
      <trkpt lat="43.02196" lon="1.96327">
        <ele>357.52</ele>
        <time>2024-09-19T11:09:26.999Z</time>
      </trkpt>
      <trkpt lat="43.02187" lon="1.96327">
        <ele>357.63</ele>
        <time>2024-09-19T11:09:34.999Z</time>
      </trkpt>
      <trkpt lat="43.02178" lon="1.96323">
        <ele>357.66</ele>
        <time>2024-09-19T11:09:39.999Z</time>
      </trkpt>
      <trkpt lat="43.02189" lon="1.96331">
        <ele>357.71</ele>
        <time>2024-09-19T11:12:27.999Z</time>
      </trkpt>
      <trkpt lat="43.0218" lon="1.96325">
        <ele>357.72</ele>
        <time>2024-09-19T11:12:41.999Z</time>
      </trkpt>
      <trkpt lat="43.02177" lon="1.96313">
        <ele>355.48</ele>
        <time>2024-09-19T11:13:27.999Z</time>
      </trkpt>
      <trkpt lat="43.02185" lon="1.96323">
        <ele>354.11</ele>
        <time>2024-09-19T11:14:12.999Z</time>
      </trkpt>
      <trkpt lat="43.02193" lon="1.96327">
        <ele>353.04</ele>
        <time>2024-09-19T11:15:05.999Z</time>
      </trkpt>
      <trkpt lat="43.02182" lon="1.96324">
        <ele>352.96</ele>
        <time>2024-09-19T11:15:21.999Z</time>
      </trkpt>
      <trkpt lat="43.02184" lon="1.96347">
        <ele>352.78</ele>
        <time>2024-09-19T11:16:43.999Z</time>
      </trkpt>
      <trkpt lat="43.02189" lon="1.96364">
        <ele>352.73</ele>
        <time>2024-09-19T11:16:48.999Z</time>
      </trkpt>
      <trkpt lat="43.02199" lon="1.96369">
        <ele>352.71</ele>
        <time>2024-09-19T11:16:56.999Z</time>
      </trkpt>
      <trkpt lat="43.02193" lon="1.96358">
        <ele>352.72</ele>
        <time>2024-09-19T11:17:08.999Z</time>
      </trkpt>
      <trkpt lat="43.02191" lon="1.96343">
        <ele>352.61</ele>
        <time>2024-09-19T11:17:14.999Z</time>
      </trkpt>
      <trkpt lat="43.0218" lon="1.96331">
        <ele>352.53</ele>
        <time>2024-09-19T11:17:29.999Z</time>
      </trkpt>
      <trkpt lat="43.0217" lon="1.96323">
        <ele>352.13</ele>
        <time>2024-09-19T11:17:34.999Z</time>
      </trkpt>
      <trkpt lat="43.02186" lon="1.96335">
        <ele>351.63</ele>
        <time>2024-09-19T11:17:40.999Z</time>
      </trkpt>
      <trkpt lat="43.02178" lon="1.9632">
        <ele>351.36</ele>
        <time>2024-09-19T11:17:53.999Z</time>
      </trkpt>
      <trkpt lat="43.0218" lon="1.96335">
        <ele>351.38</ele>
        <time>2024-09-19T11:18:00.000Z</time>
      </trkpt>
      <trkpt lat="43.02197" lon="1.96345">
        <ele>351.43</ele>
        <time>2024-09-19T11:18:06.000Z</time>
      </trkpt>
      <trkpt lat="43.0219" lon="1.96334">
        <ele>350.82</ele>
        <time>2024-09-19T11:18:24.000Z</time>
      </trkpt>
      <trkpt lat="43.02182" lon="1.96323">
        <ele>350.76</ele>
        <time>2024-09-19T11:18:38.000Z</time>
      </trkpt>
      <trkpt lat="43.02192" lon="1.96324">
        <ele>351.05</ele>
        <time>2024-09-19T11:18:55.000Z</time>
      </trkpt>
      <trkpt lat="43.02185" lon="1.96314">
        <ele>351.64</ele>
        <time>2024-09-19T11:19:19.000Z</time>
      </trkpt>
      <trkpt lat="43.02193" lon="1.96321">
        <ele>351.97</ele>
        <time>2024-09-19T11:19:25.000Z</time>
      </trkpt>
      <trkpt lat="43.02184" lon="1.9632">
        <ele>352.73</ele>
        <time>2024-09-19T11:19:35.000Z</time>
      </trkpt>
      <trkpt lat="43.02177" lon="1.96311">
        <ele>356.48</ele>
        <time>2024-09-19T11:21:16.000Z</time>
      </trkpt>
      <trkpt lat="43.02186" lon="1.96316">
        <ele>356.78</ele>
        <time>2024-09-19T11:21:24.000Z</time>
      </trkpt>
      <trkpt lat="43.02178" lon="1.96326">
        <ele>357.02</ele>
        <time>2024-09-19T11:22:26.000Z</time>
      </trkpt>
      <trkpt lat="43.02169" lon="1.96327">
        <ele>357.08</ele>
        <time>2024-09-19T11:22:31.000Z</time>
      </trkpt>
      <trkpt lat="43.0218" lon="1.96328">
        <ele>357.32</ele>
        <time>2024-09-19T11:22:47.000Z</time>
      </trkpt>
      <trkpt lat="43.02199" lon="1.96336">
        <ele>357.26</ele>
        <time>2024-09-19T11:22:52.000Z</time>
      </trkpt>
      <trkpt lat="43.02218" lon="1.96361">
        <ele>357.25</ele>
        <time>2024-09-19T11:22:57.000Z</time>
      </trkpt>
      <trkpt lat="43.02186" lon="1.96322">
        <ele>357.16</ele>
        <time>2024-09-19T11:23:02.000Z</time>
      </trkpt>
      <trkpt lat="43.02178" lon="1.96313">
        <ele>357.01</ele>
        <time>2024-09-19T11:23:07.000Z</time>
      </trkpt>
      <trkpt lat="43.02196" lon="1.9632">
        <ele>356.9</ele>
        <time>2024-09-19T11:23:12.000Z</time>
      </trkpt>
      <trkpt lat="43.02211" lon="1.9633">
        <ele>356.86</ele>
        <time>2024-09-19T11:23:19.000Z</time>
      </trkpt>
      <trkpt lat="43.02204" lon="1.96341">
        <ele>356.83</ele>
        <time>2024-09-19T11:23:51.000Z</time>
      </trkpt>
      <trkpt lat="43.02211" lon="1.96333">
        <ele>356.71</ele>
        <time>2024-09-19T11:24:25.000Z</time>
      </trkpt>
      <trkpt lat="43.022" lon="1.96331">
        <ele>356.68</ele>
        <time>2024-09-19T11:24:30.000Z</time>
      </trkpt>
      <trkpt lat="43.02194" lon="1.9632">
        <ele>356.63</ele>
        <time>2024-09-19T11:24:35.000Z</time>
      </trkpt>
      <trkpt lat="43.0219" lon="1.96331">
        <ele>356.45</ele>
        <time>2024-09-19T11:24:46.000Z</time>
      </trkpt>
      <trkpt lat="43.02178" lon="1.96329">
        <ele>356.17</ele>
        <time>2024-09-19T11:24:55.000Z</time>
      </trkpt>
      <trkpt lat="43.02164" lon="1.96324">
        <ele>356.04</ele>
        <time>2024-09-19T11:25:00.000Z</time>
      </trkpt>
      <trkpt lat="43.02175" lon="1.96323">
        <ele>355.88</ele>
        <time>2024-09-19T11:25:17.000Z</time>
      </trkpt>
      <trkpt lat="43.02184" lon="1.96314">
        <ele>355.89</ele>
        <time>2024-09-19T11:25:22.000Z</time>
      </trkpt>
      <trkpt lat="43.02176" lon="1.96308">
        <ele>356.34</ele>
        <time>2024-09-19T11:25:41.000Z</time>
      </trkpt>
      <trkpt lat="43.02174" lon="1.96321">
        <ele>356.17</ele>
        <time>2024-09-19T11:26:32.000Z</time>
      </trkpt>
      <trkpt lat="43.02182" lon="1.96324">
        <ele>356.36</ele>
        <time>2024-09-19T11:27:01.000Z</time>
      </trkpt>
      <trkpt lat="43.02172" lon="1.96314">
        <ele>355.53</ele>
        <time>2024-09-19T11:29:44.000Z</time>
      </trkpt>
      <trkpt lat="43.02192" lon="1.96321">
        <ele>355.49</ele>
        <time>2024-09-19T11:29:49.000Z</time>
      </trkpt>
      <trkpt lat="43.02191" lon="1.96302">
        <ele>355.54</ele>
        <time>2024-09-19T11:29:54.999Z</time>
      </trkpt>
      <trkpt lat="43.02205" lon="1.96319">
        <ele>355.74</ele>
        <time>2024-09-19T11:30:12.999Z</time>
      </trkpt>
      <trkpt lat="43.02175" lon="1.96288">
        <ele>355.45</ele>
        <time>2024-09-19T11:30:53.999Z</time>
      </trkpt>
      <trkpt lat="43.02174" lon="1.96301">
        <ele>355.2</ele>
        <time>2024-09-19T11:33:37.999Z</time>
      </trkpt>
      <trkpt lat="43.02177" lon="1.96316">
        <ele>355.19</ele>
        <time>2024-09-19T11:34:12.999Z</time>
      </trkpt>
      <trkpt lat="43.02182" lon="1.96304">
        <ele>355.24</ele>
        <time>2024-09-19T11:34:23.999Z</time>
      </trkpt>
      <trkpt lat="43.02189" lon="1.96314">
        <ele>355.26</ele>
        <time>2024-09-19T11:34:29.999Z</time>
      </trkpt>
      <trkpt lat="43.02187" lon="1.96328">
        <ele>355.31</ele>
        <time>2024-09-19T11:34:37.999Z</time>
      </trkpt>
      <trkpt lat="43.02195" lon="1.96321">
        <ele>355.4</ele>
        <time>2024-09-19T11:34:51.999Z</time>
      </trkpt>
      <trkpt lat="43.02192" lon="1.96334">
        <ele>355.49</ele>
        <time>2024-09-19T11:35:06.999Z</time>
      </trkpt>
      <trkpt lat="43.02184" lon="1.96343">
        <ele>355.83</ele>
        <time>2024-09-19T11:35:18.999Z</time>
      </trkpt>
      <trkpt lat="43.02179" lon="1.9633">
        <ele>355.84</ele>
        <time>2024-09-19T11:35:27.999Z</time>
      </trkpt>
      <trkpt lat="43.02182" lon="1.96342">
        <ele>355.78</ele>
        <time>2024-09-19T11:35:42.999Z</time>
      </trkpt>
      <trkpt lat="43.02176" lon="1.96351">
        <ele>355.76</ele>
        <time>2024-09-19T11:35:48.999Z</time>
      </trkpt>
      <trkpt lat="43.02183" lon="1.96338">
        <ele>355.74</ele>
        <time>2024-09-19T11:35:53.999Z</time>
      </trkpt>
      <trkpt lat="43.02175" lon="1.96333">
        <ele>355.68</ele>
        <time>2024-09-19T11:35:58.999Z</time>
      </trkpt>
      <trkpt lat="43.02174" lon="1.96319">
        <ele>355.65</ele>
        <time>2024-09-19T11:36:03.999Z</time>
      </trkpt>
      <trkpt lat="43.02179" lon="1.96308">
        <ele>354.98</ele>
        <time>2024-09-19T11:36:33.999Z</time>
      </trkpt>
      <trkpt lat="43.02193" lon="1.96311">
        <ele>354.98</ele>
        <time>2024-09-19T11:36:38.999Z</time>
      </trkpt>
      <trkpt lat="43.02183" lon="1.96321">
        <ele>354.94</ele>
        <time>2024-09-19T11:36:48.999Z</time>
      </trkpt>
      <trkpt lat="43.02191" lon="1.9633">
        <ele>354.94</ele>
        <time>2024-09-19T11:37:18.999Z</time>
      </trkpt>
      <trkpt lat="43.02193" lon="1.96316">
        <ele>354.88</ele>
        <time>2024-09-19T11:37:34.999Z</time>
      </trkpt>
      <trkpt lat="43.02184" lon="1.96323">
        <ele>354.9</ele>
        <time>2024-09-19T11:38:04.999Z</time>
      </trkpt>
      <trkpt lat="43.02195" lon="1.96328">
        <ele>354.65</ele>
        <time>2024-09-19T11:39:20.999Z</time>
      </trkpt>
      <trkpt lat="43.02186" lon="1.96333">
        <ele>354.6</ele>
        <time>2024-09-19T11:39:34.999Z</time>
      </trkpt>
      <trkpt lat="43.02191" lon="1.96323">
        <ele>354.6</ele>
        <time>2024-09-19T11:39:44.999Z</time>
      </trkpt>
      <trkpt lat="43.02185" lon="1.96313">
        <ele>354.51</ele>
        <time>2024-09-19T11:40:11.999Z</time>
      </trkpt>
      <trkpt lat="43.0218" lon="1.96303">
        <ele>354.54</ele>
        <time>2024-09-19T11:40:25.999Z</time>
      </trkpt>
      <trkpt lat="43.0219" lon="1.96304">
        <ele>354.78</ele>
        <time>2024-09-19T11:40:51.999Z</time>
      </trkpt>
      <trkpt lat="43.02182" lon="1.96312">
        <ele>355.25</ele>
        <time>2024-09-19T11:41:12.999Z</time>
      </trkpt>
      <trkpt lat="43.0218" lon="1.96326">
        <ele>355.6</ele>
        <time>2024-09-19T11:41:20.999Z</time>
      </trkpt>
      <trkpt lat="43.02189" lon="1.96328">
        <ele>355.5</ele>
        <time>2024-09-19T11:41:56.999Z</time>
      </trkpt>
      <trkpt lat="43.02184" lon="1.96339">
        <ele>355.42</ele>
        <time>2024-09-19T11:42:26.000Z</time>
      </trkpt>
      <trkpt lat="43.02181" lon="1.96325">
        <ele>355.3</ele>
        <time>2024-09-19T11:43:10.000Z</time>
      </trkpt>
      <trkpt lat="43.02174" lon="1.96317">
        <ele>355.31</ele>
        <time>2024-09-19T11:43:16.000Z</time>
      </trkpt>
      <trkpt lat="43.02182" lon="1.96314">
        <ele>355.3</ele>
        <time>2024-09-19T11:43:21.000Z</time>
      </trkpt>
      <trkpt lat="43.02186" lon="1.96326">
        <ele>355.29</ele>
        <time>2024-09-19T11:43:31.000Z</time>
      </trkpt>
      <trkpt lat="43.02192" lon="1.96316">
        <ele>355.1</ele>
        <time>2024-09-19T11:43:51.000Z</time>
      </trkpt>
      <trkpt lat="43.02191" lon="1.9633">
        <ele>355.03</ele>
        <time>2024-09-19T11:44:01.000Z</time>
      </trkpt>
      <trkpt lat="43.02182" lon="1.96322">
        <ele>355.11</ele>
        <time>2024-09-19T11:44:27.000Z</time>
      </trkpt>
      <trkpt lat="43.02185" lon="1.96334">
        <ele>355.31</ele>
        <time>2024-09-19T11:45:01.000Z</time>
      </trkpt>
      <trkpt lat="43.02189" lon="1.96317">
        <ele>355.5</ele>
        <time>2024-09-19T11:45:21.000Z</time>
      </trkpt>
      <trkpt lat="43.02185" lon="1.96329">
        <ele>355.65</ele>
        <time>2024-09-19T11:45:48.000Z</time>
      </trkpt>
      <trkpt lat="43.02193" lon="1.9634">
        <ele>355.48</ele>
        <time>2024-09-19T11:47:26.000Z</time>
      </trkpt>
      <trkpt lat="43.02184" lon="1.96334">
        <ele>355.46</ele>
        <time>2024-09-19T11:47:32.000Z</time>
      </trkpt>
      <trkpt lat="43.02184" lon="1.96348">
        <ele>355.34</ele>
        <time>2024-09-19T11:47:59.000Z</time>
      </trkpt>
      <trkpt lat="43.02182" lon="1.96335">
        <ele>355.35</ele>
        <time>2024-09-19T11:48:05.000Z</time>
      </trkpt>
      <trkpt lat="43.02178" lon="1.96322">
        <ele>355.45</ele>
        <time>2024-09-19T11:48:14.000Z</time>
      </trkpt>
      <trkpt lat="43.02173" lon="1.96333">
        <ele>355.48</ele>
        <time>2024-09-19T11:48:26.000Z</time>
      </trkpt>
      <trkpt lat="43.02181" lon="1.96342">
        <ele>355.5</ele>
        <time>2024-09-19T11:48:39.000Z</time>
      </trkpt>
      <trkpt lat="43.0219" lon="1.96343">
        <ele>355.47</ele>
        <time>2024-09-19T11:48:53.000Z</time>
      </trkpt>
      <trkpt lat="43.02183" lon="1.96333">
        <ele>355.41</ele>
        <time>2024-09-19T11:49:05.000Z</time>
      </trkpt>
      <trkpt lat="43.02193" lon="1.96328">
        <ele>355.13</ele>
        <time>2024-09-19T11:49:41.000Z</time>
      </trkpt>
      <trkpt lat="43.02195" lon="1.9634">
        <ele>354.73</ele>
        <time>2024-09-19T11:50:17.000Z</time>
      </trkpt>
      <trkpt lat="43.02185" lon="1.96334">
        <ele>354.61</ele>
        <time>2024-09-19T11:50:26.000Z</time>
      </trkpt>
      <trkpt lat="43.02183" lon="1.96322">
        <ele>354.32</ele>
        <time>2024-09-19T11:50:48.000Z</time>
      </trkpt>
      <trkpt lat="43.02177" lon="1.96312">
        <ele>354.13</ele>
        <time>2024-09-19T11:51:16.000Z</time>
      </trkpt>
      <trkpt lat="43.02184" lon="1.96321">
        <ele>353.9</ele>
        <time>2024-09-19T11:52:04.000Z</time>
      </trkpt>
      <trkpt lat="43.02188" lon="1.96333">
        <ele>353.73</ele>
        <time>2024-09-19T11:52:24.000Z</time>
      </trkpt>
      <trkpt lat="43.0219" lon="1.96345">
        <ele>353.7</ele>
        <time>2024-09-19T11:52:36.000Z</time>
      </trkpt>
      <trkpt lat="43.02182" lon="1.96351">
        <ele>353.68</ele>
        <time>2024-09-19T11:52:43.000Z</time>
      </trkpt>
      <trkpt lat="43.02184" lon="1.96335">
        <ele>353.65</ele>
        <time>2024-09-19T11:52:58.000Z</time>
      </trkpt>
      <trkpt lat="43.02188" lon="1.96323">
        <ele>353.62</ele>
        <time>2024-09-19T11:53:07.000Z</time>
      </trkpt>
      <trkpt lat="43.02178" lon="1.96323">
        <ele>353.61</ele>
        <time>2024-09-19T11:53:41.000Z</time>
      </trkpt>
      <trkpt lat="43.02186" lon="1.9633">
        <ele>353.61</ele>
        <time>2024-09-19T11:53:50.000Z</time>
      </trkpt>
      <trkpt lat="43.02195" lon="1.96335">
        <ele>353.69</ele>
        <time>2024-09-19T11:54:51.999Z</time>
      </trkpt>
      <trkpt lat="43.02204" lon="1.96332">
        <ele>353.7</ele>
        <time>2024-09-19T11:55:06.999Z</time>
      </trkpt>
      <trkpt lat="43.02203" lon="1.96319">
        <ele>353.71</ele>
        <time>2024-09-19T11:55:11.999Z</time>
      </trkpt>
      <trkpt lat="43.02202" lon="1.96307">
        <ele>353.72</ele>
        <time>2024-09-19T11:55:16.999Z</time>
      </trkpt>
      <trkpt lat="43.02191" lon="1.96313">
        <ele>353.77</ele>
        <time>2024-09-19T11:55:45.999Z</time>
      </trkpt>
      <trkpt lat="43.02183" lon="1.96306">
        <ele>353.81</ele>
        <time>2024-09-19T11:56:07.999Z</time>
      </trkpt>
      <trkpt lat="43.0219" lon="1.96315">
        <ele>353.68</ele>
        <time>2024-09-19T11:56:50.999Z</time>
      </trkpt>
      <trkpt lat="43.02182" lon="1.96321">
        <ele>353.64</ele>
        <time>2024-09-19T11:56:58.999Z</time>
      </trkpt>
      <trkpt lat="43.02193" lon="1.96314">
        <ele>353.64</ele>
        <time>2024-09-19T11:57:03.999Z</time>
      </trkpt>
      <trkpt lat="43.02184" lon="1.96316">
        <ele>353.76</ele>
        <time>2024-09-19T11:57:17.999Z</time>
      </trkpt>
      <trkpt lat="43.02179" lon="1.96329">
        <ele>353.73</ele>
        <time>2024-09-19T11:57:25.999Z</time>
      </trkpt>
      <trkpt lat="43.02179" lon="1.96315">
        <ele>353.37</ele>
        <time>2024-09-19T11:57:47.999Z</time>
      </trkpt>
      <trkpt lat="43.02171" lon="1.96309">
        <ele>353.22</ele>
        <time>2024-09-19T11:57:53.999Z</time>
      </trkpt>
      <trkpt lat="43.02176" lon="1.96319">
        <ele>353.06</ele>
        <time>2024-09-19T11:58:24.999Z</time>
      </trkpt>
      <trkpt lat="43.02186" lon="1.96319">
        <ele>352.95</ele>
        <time>2024-09-19T11:58:41.999Z</time>
      </trkpt>
      <trkpt lat="43.02193" lon="1.96302">
        <ele>352.48</ele>
        <time>2024-09-19T12:00:51.999Z</time>
      </trkpt>
      <trkpt lat="43.0219" lon="1.96314">
        <ele>353.21</ele>
        <time>2024-09-19T12:01:36.999Z</time>
      </trkpt>
      <trkpt lat="43.0219" lon="1.96327">
        <ele>355.42</ele>
        <time>2024-09-19T12:02:42.999Z</time>
      </trkpt>
      <trkpt lat="43.02181" lon="1.96325">
        <ele>357.17</ele>
        <time>2024-09-19T12:05:02.999Z</time>
      </trkpt>
      <trkpt lat="43.0219" lon="1.9632">
        <ele>357.4</ele>
        <time>2024-09-19T12:07:24.000Z</time>
      </trkpt>
      <trkpt lat="43.0219" lon="1.96306">
        <ele>358.56</ele>
        <time>2024-09-19T12:09:05.000Z</time>
      </trkpt>
      <trkpt lat="43.02193" lon="1.96294">
        <ele>358.76</ele>
        <time>2024-09-19T12:09:18.000Z</time>
      </trkpt>
      <trkpt lat="43.02187" lon="1.96305">
        <ele>359.02</ele>
        <time>2024-09-19T12:09:31.000Z</time>
      </trkpt>
      <trkpt lat="43.02187" lon="1.96288">
        <ele>359.34</ele>
        <time>2024-09-19T12:09:49.000Z</time>
      </trkpt>
      <trkpt lat="43.02187" lon="1.963">
        <ele>359.75</ele>
        <time>2024-09-19T12:10:46.000Z</time>
      </trkpt>
      <trkpt lat="43.02188" lon="1.96312">
        <ele>359.91</ele>
        <time>2024-09-19T12:11:06.000Z</time>
      </trkpt>
      <trkpt lat="43.0218" lon="1.96306">
        <ele>360.07</ele>
        <time>2024-09-19T12:11:20.000Z</time>
      </trkpt>
      <trkpt lat="43.02173" lon="1.96297">
        <ele>360.62</ele>
        <time>2024-09-19T12:12:09.000Z</time>
      </trkpt>
      <trkpt lat="43.02173" lon="1.9631">
        <ele>361.48</ele>
        <time>2024-09-19T12:14:21.000Z</time>
      </trkpt>
      <trkpt lat="43.02182" lon="1.96311">
        <ele>361.44</ele>
        <time>2024-09-19T12:15:11.000Z</time>
      </trkpt>
      <trkpt lat="43.02188" lon="1.9632">
        <ele>361.5</ele>
        <time>2024-09-19T12:17:35.000Z</time>
      </trkpt>
      <trkpt lat="43.02196" lon="1.96315">
        <ele>360.82</ele>
        <time>2024-09-19T12:17:48.000Z</time>
      </trkpt>
      <trkpt lat="43.02204" lon="1.9631">
        <ele>360.36</ele>
        <time>2024-09-19T12:18:00.000Z</time>
      </trkpt>
      <trkpt lat="43.02213" lon="1.96306">
        <ele>359.93</ele>
        <time>2024-09-19T12:18:26.999Z</time>
      </trkpt>
      <trkpt lat="43.02204" lon="1.96308">
        <ele>360.38</ele>
        <time>2024-09-19T12:22:54.999Z</time>
      </trkpt>
      <trkpt lat="43.02213" lon="1.9631">
        <ele>361.08</ele>
        <time>2024-09-19T12:23:54.999Z</time>
      </trkpt>
      <trkpt lat="43.02221" lon="1.96302">
        <ele>362.65</ele>
        <time>2024-09-19T12:35:27.000Z</time>
      </trkpt>
      <trkpt lat="43.02211" lon="1.96308">
        <ele>362.59</ele>
        <time>2024-09-19T12:35:59.000Z</time>
      </trkpt>
      <trkpt lat="43.02219" lon="1.96305">
        <ele>361.48</ele>
        <time>2024-09-19T12:41:45.000Z</time>
      </trkpt>
      <trkpt lat="43.02211" lon="1.96311">
        <ele>361.02</ele>
        <time>2024-09-19T12:43:10.999Z</time>
      </trkpt>
      <trkpt lat="43.02203" lon="1.96305">
        <ele>365.96</ele>
        <time>2024-09-19T13:00:06.000Z</time>
      </trkpt>
      <trkpt lat="43.02207" lon="1.96317">
        <ele>366.07</ele>
        <time>2024-09-19T13:00:21.000Z</time>
      </trkpt>
      <trkpt lat="43.02205" lon="1.9633">
        <ele>366.1</ele>
        <time>2024-09-19T13:00:28.000Z</time>
      </trkpt>
      <trkpt lat="43.02204" lon="1.96344">
        <ele>366.12</ele>
        <time>2024-09-19T13:00:35.000Z</time>
      </trkpt>
      <trkpt lat="43.02195" lon="1.96355">
        <ele>366.13</ele>
        <time>2024-09-19T13:00:40.000Z</time>
      </trkpt>
      <trkpt lat="43.0219" lon="1.96366">
        <ele>366.13</ele>
        <time>2024-09-19T13:00:46.000Z</time>
      </trkpt>
      <trkpt lat="43.02186" lon="1.96379">
        <ele>366.14</ele>
        <time>2024-09-19T13:00:52.000Z</time>
      </trkpt>
      <trkpt lat="43.02183" lon="1.96392">
        <ele>366.14</ele>
        <time>2024-09-19T13:00:59.000Z</time>
      </trkpt>
      <trkpt lat="43.02184" lon="1.96405">
        <ele>366.15</ele>
        <time>2024-09-19T13:01:04.000Z</time>
      </trkpt>
      <trkpt lat="43.02182" lon="1.9642">
        <ele>366.15</ele>
        <time>2024-09-19T13:01:09.000Z</time>
      </trkpt>
      <trkpt lat="43.0218" lon="1.96434">
        <ele>366.15</ele>
        <time>2024-09-19T13:01:15.000Z</time>
      </trkpt>
      <trkpt lat="43.02177" lon="1.96448">
        <ele>366.15</ele>
        <time>2024-09-19T13:01:20.000Z</time>
      </trkpt>
      <trkpt lat="43.02175" lon="1.96462">
        <ele>366.15</ele>
        <time>2024-09-19T13:01:25.000Z</time>
      </trkpt>
      <trkpt lat="43.02166" lon="1.96466">
        <ele>366.15</ele>
        <time>2024-09-19T13:01:31.000Z</time>
      </trkpt>
      <trkpt lat="43.02162" lon="1.96455">
        <ele>366.15</ele>
        <time>2024-09-19T13:01:37.000Z</time>
      </trkpt>
      <trkpt lat="43.02166" lon="1.96442">
        <ele>366.15</ele>
        <time>2024-09-19T13:01:45.000Z</time>
      </trkpt>
      <trkpt lat="43.0217" lon="1.96431">
        <ele>366.14</ele>
        <time>2024-09-19T13:01:51.000Z</time>
      </trkpt>
      <trkpt lat="43.02171" lon="1.96419">
        <ele>366.14</ele>
        <time>2024-09-19T13:02:09.000Z</time>
      </trkpt>
      <trkpt lat="43.02167" lon="1.96407">
        <ele>366.13</ele>
        <time>2024-09-19T13:02:21.000Z</time>
      </trkpt>
      <trkpt lat="43.02159" lon="1.96399">
        <ele>366.2</ele>
        <time>2024-09-19T13:02:50.000Z</time>
      </trkpt>
      <trkpt lat="43.02149" lon="1.96402">
        <ele>366.23</ele>
        <time>2024-09-19T13:02:55.000Z</time>
      </trkpt>
      <trkpt lat="43.02133" lon="1.964">
        <ele>366.27</ele>
        <time>2024-09-19T13:03:00.000Z</time>
      </trkpt>
      <trkpt lat="43.02114" lon="1.96396">
        <ele>366.3</ele>
        <time>2024-09-19T13:03:05.000Z</time>
      </trkpt>
      <trkpt lat="43.02097" lon="1.96395">
        <ele>366.32</ele>
        <time>2024-09-19T13:03:10.000Z</time>
      </trkpt>
      <trkpt lat="43.02081" lon="1.96392">
        <ele>366.35</ele>
        <time>2024-09-19T13:03:15.000Z</time>
      </trkpt>
      <trkpt lat="43.02058" lon="1.96385">
        <ele>366.46</ele>
        <time>2024-09-19T13:03:20.000Z</time>
      </trkpt>
      <trkpt lat="43.02039" lon="1.96374">
        <ele>366.59</ele>
        <time>2024-09-19T13:03:25.000Z</time>
      </trkpt>
      <trkpt lat="43.02018" lon="1.96364">
        <ele>366.74</ele>
        <time>2024-09-19T13:03:30.000Z</time>
      </trkpt>
      <trkpt lat="43.01995" lon="1.96354">
        <ele>366.89</ele>
        <time>2024-09-19T13:03:35.000Z</time>
      </trkpt>
      <trkpt lat="43.01973" lon="1.96343">
        <ele>367.05</ele>
        <time>2024-09-19T13:03:40.000Z</time>
      </trkpt>
      <trkpt lat="43.01949" lon="1.96331">
        <ele>367.19</ele>
        <time>2024-09-19T13:03:45.000Z</time>
      </trkpt>
      <trkpt lat="43.01925" lon="1.96321">
        <ele>367.3</ele>
        <time>2024-09-19T13:03:50.000Z</time>
      </trkpt>
      <trkpt lat="43.01901" lon="1.9631">
        <ele>367.43</ele>
        <time>2024-09-19T13:03:55.000Z</time>
      </trkpt>
      <trkpt lat="43.01878" lon="1.96297">
        <ele>367.59</ele>
        <time>2024-09-19T13:04:00.000Z</time>
      </trkpt>
      <trkpt lat="43.01856" lon="1.96284">
        <ele>367.77</ele>
        <time>2024-09-19T13:04:05.000Z</time>
      </trkpt>
      <trkpt lat="43.01833" lon="1.96272">
        <ele>367.99</ele>
        <time>2024-09-19T13:04:10.000Z</time>
      </trkpt>
      <trkpt lat="43.01813" lon="1.96261">
        <ele>368.29</ele>
        <time>2024-09-19T13:04:15.000Z</time>
      </trkpt>
      <trkpt lat="43.01791" lon="1.96249">
        <ele>368.54</ele>
        <time>2024-09-19T13:04:20.000Z</time>
      </trkpt>
      <trkpt lat="43.01769" lon="1.96238">
        <ele>368.78</ele>
        <time>2024-09-19T13:04:25.000Z</time>
      </trkpt>
      <trkpt lat="43.01747" lon="1.96227">
        <ele>369.02</ele>
        <time>2024-09-19T13:04:30.000Z</time>
      </trkpt>
      <trkpt lat="43.01723" lon="1.96216">
        <ele>369.22</ele>
        <time>2024-09-19T13:04:35.000Z</time>
      </trkpt>
      <trkpt lat="43.01697" lon="1.96206">
        <ele>369.32</ele>
        <time>2024-09-19T13:04:40.000Z</time>
      </trkpt>
      <trkpt lat="43.01673" lon="1.96196">
        <ele>369.4</ele>
        <time>2024-09-19T13:04:45.000Z</time>
      </trkpt>
      <trkpt lat="43.0165" lon="1.96185">
        <ele>369.53</ele>
        <time>2024-09-19T13:04:50.000Z</time>
      </trkpt>
      <trkpt lat="43.01628" lon="1.96175">
        <ele>369.67</ele>
        <time>2024-09-19T13:04:55.000Z</time>
      </trkpt>
      <trkpt lat="43.01605" lon="1.96167">
        <ele>369.82</ele>
        <time>2024-09-19T13:05:00.000Z</time>
      </trkpt>
      <trkpt lat="43.01583" lon="1.9616">
        <ele>369.93</ele>
        <time>2024-09-19T13:05:05.000Z</time>
      </trkpt>
      <trkpt lat="43.01561" lon="1.96154">
        <ele>370.02</ele>
        <time>2024-09-19T13:05:10.000Z</time>
      </trkpt>
      <trkpt lat="43.01538" lon="1.96152">
        <ele>370.08</ele>
        <time>2024-09-19T13:05:15.000Z</time>
      </trkpt>
      <trkpt lat="43.01518" lon="1.96151">
        <ele>370.14</ele>
        <time>2024-09-19T13:05:20.000Z</time>
      </trkpt>
      <trkpt lat="43.01495" lon="1.96152">
        <ele>370.25</ele>
        <time>2024-09-19T13:05:25.000Z</time>
      </trkpt>
      <trkpt lat="43.01472" lon="1.96157">
        <ele>370.38</ele>
        <time>2024-09-19T13:05:30.000Z</time>
      </trkpt>
      <trkpt lat="43.01448" lon="1.96163">
        <ele>370.46</ele>
        <time>2024-09-19T13:05:35.000Z</time>
      </trkpt>
      <trkpt lat="43.01419" lon="1.96169">
        <ele>370.64</ele>
        <time>2024-09-19T13:05:40.999Z</time>
      </trkpt>
      <trkpt lat="43.01396" lon="1.96175">
        <ele>370.83</ele>
        <time>2024-09-19T13:05:45.999Z</time>
      </trkpt>
      <trkpt lat="43.01375" lon="1.96182">
        <ele>371.01</ele>
        <time>2024-09-19T13:05:50.999Z</time>
      </trkpt>
      <trkpt lat="43.01353" lon="1.96187">
        <ele>371.19</ele>
        <time>2024-09-19T13:05:55.999Z</time>
      </trkpt>
      <trkpt lat="43.0133" lon="1.96193">
        <ele>371.33</ele>
        <time>2024-09-19T13:06:00.999Z</time>
      </trkpt>
      <trkpt lat="43.01311" lon="1.96198">
        <ele>371.45</ele>
        <time>2024-09-19T13:06:05.999Z</time>
      </trkpt>
      <trkpt lat="43.01286" lon="1.96207">
        <ele>371.62</ele>
        <time>2024-09-19T13:06:10.999Z</time>
      </trkpt>
      <trkpt lat="43.01263" lon="1.96216">
        <ele>371.77</ele>
        <time>2024-09-19T13:06:15.999Z</time>
      </trkpt>
      <trkpt lat="43.01245" lon="1.96224">
        <ele>371.79</ele>
        <time>2024-09-19T13:06:20.999Z</time>
      </trkpt>
      <trkpt lat="43.01229" lon="1.96233">
        <ele>371.82</ele>
        <time>2024-09-19T13:06:25.999Z</time>
      </trkpt>
      <trkpt lat="43.01212" lon="1.96244">
        <ele>371.88</ele>
        <time>2024-09-19T13:06:30.999Z</time>
      </trkpt>
      <trkpt lat="43.00891" lon="1.96497">
        <ele>375.9</ele>
        <time>2024-09-19T13:08:09.999Z</time>
      </trkpt>
      <trkpt lat="43.00879" lon="1.96512">
        <ele>376.4</ele>
        <time>2024-09-19T13:08:14.999Z</time>
      </trkpt>
      <trkpt lat="43.00864" lon="1.96534">
        <ele>377.28</ele>
        <time>2024-09-19T13:08:19.999Z</time>
      </trkpt>
      <trkpt lat="43.00851" lon="1.96559">
        <ele>377.57</ele>
        <time>2024-09-19T13:08:24.999Z</time>
      </trkpt>
      <trkpt lat="43.00839" lon="1.96585">
        <ele>377.64</ele>
        <time>2024-09-19T13:08:29.999Z</time>
      </trkpt>
      <trkpt lat="43.00829" lon="1.96607">
        <ele>377.66</ele>
        <time>2024-09-19T13:08:34.999Z</time>
      </trkpt>
      <trkpt lat="43.0082" lon="1.96632">
        <ele>377.59</ele>
        <time>2024-09-19T13:08:39.999Z</time>
      </trkpt>
      <trkpt lat="43.00811" lon="1.96658">
        <ele>377.44</ele>
        <time>2024-09-19T13:08:44.999Z</time>
      </trkpt>
      <trkpt lat="43.00804" lon="1.96686">
        <ele>377.31</ele>
        <time>2024-09-19T13:08:49.999Z</time>
      </trkpt>
      <trkpt lat="43.00798" lon="1.96712">
        <ele>377.21</ele>
        <time>2024-09-19T13:08:54.999Z</time>
      </trkpt>
      <trkpt lat="43.00793" lon="1.96743">
        <ele>375.59</ele>
        <time>2024-09-19T13:08:59.999Z</time>
      </trkpt>
      <trkpt lat="43.0079" lon="1.96771">
        <ele>374.44</ele>
        <time>2024-09-19T13:09:04.999Z</time>
      </trkpt>
      <trkpt lat="43.00787" lon="1.968">
        <ele>373.82</ele>
        <time>2024-09-19T13:09:09.999Z</time>
      </trkpt>
      <trkpt lat="43.00784" lon="1.96831">
        <ele>373.55</ele>
        <time>2024-09-19T13:09:14.999Z</time>
      </trkpt>
      <trkpt lat="43.00781" lon="1.96863">
        <ele>372.96</ele>
        <time>2024-09-19T13:09:19.999Z</time>
      </trkpt>
      <trkpt lat="43.00777" lon="1.96894">
        <ele>371.99</ele>
        <time>2024-09-19T13:09:24.999Z</time>
      </trkpt>
      <trkpt lat="43.00773" lon="1.96924">
        <ele>371.14</ele>
        <time>2024-09-19T13:09:29.999Z</time>
      </trkpt>
      <trkpt lat="43.0077" lon="1.96956">
        <ele>370.5</ele>
        <time>2024-09-19T13:09:34.999Z</time>
      </trkpt>
      <trkpt lat="43.00767" lon="1.96984">
        <ele>370.17</ele>
        <time>2024-09-19T13:09:39.999Z</time>
      </trkpt>
      <trkpt lat="43.00765" lon="1.97012">
        <ele>369.62</ele>
        <time>2024-09-19T13:09:44.999Z</time>
      </trkpt>
      <trkpt lat="43.00761" lon="1.97044">
        <ele>368.54</ele>
        <time>2024-09-19T13:09:49.999Z</time>
      </trkpt>
      <trkpt lat="43.00757" lon="1.97077">
        <ele>367.68</ele>
        <time>2024-09-19T13:09:54.999Z</time>
      </trkpt>
      <trkpt lat="43.00752" lon="1.97108">
        <ele>367.07</ele>
        <time>2024-09-19T13:09:59.999Z</time>
      </trkpt>
      <trkpt lat="43.00748" lon="1.97137">
        <ele>366.91</ele>
        <time>2024-09-19T13:10:04.999Z</time>
      </trkpt>
      <trkpt lat="43.00747" lon="1.97166">
        <ele>366.6</ele>
        <time>2024-09-19T13:10:09.999Z</time>
      </trkpt>
      <trkpt lat="43.00744" lon="1.97196">
        <ele>366.5</ele>
        <time>2024-09-19T13:10:14.999Z</time>
      </trkpt>
      <trkpt lat="43.00744" lon="1.97225">
        <ele>366.19</ele>
        <time>2024-09-19T13:10:19.999Z</time>
      </trkpt>
      <trkpt lat="43.00743" lon="1.97258">
        <ele>365.57</ele>
        <time>2024-09-19T13:10:24.999Z</time>
      </trkpt>
      <trkpt lat="43.00742" lon="1.97289">
        <ele>365.01</ele>
        <time>2024-09-19T13:10:29.999Z</time>
      </trkpt>
      <trkpt lat="43.00742" lon="1.97325">
        <ele>364.27</ele>
        <time>2024-09-19T13:10:34.999Z</time>
      </trkpt>
      <trkpt lat="43.00745" lon="1.97362">
        <ele>363.93</ele>
        <time>2024-09-19T13:10:39.999Z</time>
      </trkpt>
      <trkpt lat="43.00749" lon="1.97393">
        <ele>363.92</ele>
        <time>2024-09-19T13:10:44.999Z</time>
      </trkpt>
      <trkpt lat="43.00751" lon="1.97414">
        <ele>363.94</ele>
        <time>2024-09-19T13:10:49.999Z</time>
      </trkpt>
      <trkpt lat="43.00756" lon="1.97443">
        <ele>363.97</ele>
        <time>2024-09-19T13:10:54.999Z</time>
      </trkpt>
      <trkpt lat="43.00761" lon="1.97474">
        <ele>364.01</ele>
        <time>2024-09-19T13:10:59.999Z</time>
      </trkpt>
      <trkpt lat="43.00767" lon="1.97509">
        <ele>364.04</ele>
        <time>2024-09-19T13:11:04.999Z</time>
      </trkpt>
      <trkpt lat="43.0077" lon="1.9754">
        <ele>364.09</ele>
        <time>2024-09-19T13:11:09.999Z</time>
      </trkpt>
      <trkpt lat="43.00777" lon="1.9757">
        <ele>364.14</ele>
        <time>2024-09-19T13:11:14.999Z</time>
      </trkpt>
      <trkpt lat="43.00785" lon="1.97599">
        <ele>364.16</ele>
        <time>2024-09-19T13:11:19.999Z</time>
      </trkpt>
      <trkpt lat="43.0079" lon="1.97632">
        <ele>364.17</ele>
        <time>2024-09-19T13:11:24.999Z</time>
      </trkpt>
      <trkpt lat="43.00794" lon="1.97656">
        <ele>364.18</ele>
        <time>2024-09-19T13:11:29.999Z</time>
      </trkpt>
      <trkpt lat="43.00799" lon="1.97684">
        <ele>364.2</ele>
        <time>2024-09-19T13:11:34.999Z</time>
      </trkpt>
      <trkpt lat="43.00806" lon="1.97714">
        <ele>364.33</ele>
        <time>2024-09-19T13:11:39.999Z</time>
      </trkpt>
      <trkpt lat="43.00812" lon="1.97741">
        <ele>364.42</ele>
        <time>2024-09-19T13:11:44.999Z</time>
      </trkpt>
      <trkpt lat="43.00818" lon="1.97766">
        <ele>364.48</ele>
        <time>2024-09-19T13:11:49.999Z</time>
      </trkpt>
      <trkpt lat="43.00823" lon="1.97797">
        <ele>364.58</ele>
        <time>2024-09-19T13:11:54.999Z</time>
      </trkpt>
      <trkpt lat="43.0083" lon="1.97828">
        <ele>364.71</ele>
        <time>2024-09-19T13:11:59.999Z</time>
      </trkpt>
      <trkpt lat="43.00836" lon="1.97861">
        <ele>364.77</ele>
        <time>2024-09-19T13:12:04.999Z</time>
      </trkpt>
      <trkpt lat="43.00841" lon="1.97886">
        <ele>364.72</ele>
        <time>2024-09-19T13:12:09.999Z</time>
      </trkpt>
      <trkpt lat="43.00847" lon="1.97917">
        <ele>364.54</ele>
        <time>2024-09-19T13:12:14.999Z</time>
      </trkpt>
      <trkpt lat="43.00853" lon="1.97945">
        <ele>364.29</ele>
        <time>2024-09-19T13:12:19.999Z</time>
      </trkpt>
      <trkpt lat="43.00858" lon="1.97975">
        <ele>364.23</ele>
        <time>2024-09-19T13:12:24.999Z</time>
      </trkpt>
      <trkpt lat="43.0086" lon="1.9801">
        <ele>364.18</ele>
        <time>2024-09-19T13:12:29.999Z</time>
      </trkpt>
      <trkpt lat="43.00864" lon="1.98038">
        <ele>364.14</ele>
        <time>2024-09-19T13:12:34.999Z</time>
      </trkpt>
      <trkpt lat="43.0087" lon="1.98068">
        <ele>364.09</ele>
        <time>2024-09-19T13:12:39.999Z</time>
      </trkpt>
      <trkpt lat="43.00876" lon="1.98099">
        <ele>364.02</ele>
        <time>2024-09-19T13:12:44.999Z</time>
      </trkpt>
      <trkpt lat="43.00883" lon="1.98124">
        <ele>364.04</ele>
        <time>2024-09-19T13:12:49.999Z</time>
      </trkpt>
      <trkpt lat="43.00887" lon="1.98149">
        <ele>364.1</ele>
        <time>2024-09-19T13:12:54.999Z</time>
      </trkpt>
      <trkpt lat="43.0089" lon="1.98175">
        <ele>364.14</ele>
        <time>2024-09-19T13:12:59.999Z</time>
      </trkpt>
      <trkpt lat="43.00892" lon="1.98201">
        <ele>364.42</ele>
        <time>2024-09-19T13:13:04.999Z</time>
      </trkpt>
      <trkpt lat="43.00893" lon="1.98226">
        <ele>364.51</ele>
        <time>2024-09-19T13:13:09.999Z</time>
      </trkpt>
      <trkpt lat="43.00895" lon="1.9825">
        <ele>364.56</ele>
        <time>2024-09-19T13:13:14.999Z</time>
      </trkpt>
      <trkpt lat="43.00893" lon="1.98274">
        <ele>364.66</ele>
        <time>2024-09-19T13:13:19.999Z</time>
      </trkpt>
      <trkpt lat="43.0089" lon="1.98298">
        <ele>364.82</ele>
        <time>2024-09-19T13:13:24.999Z</time>
      </trkpt>
      <trkpt lat="43.00888" lon="1.98323">
        <ele>365.04</ele>
        <time>2024-09-19T13:13:29.999Z</time>
      </trkpt>
      <trkpt lat="43.00884" lon="1.98348">
        <ele>365.66</ele>
        <time>2024-09-19T13:13:34.999Z</time>
      </trkpt>
      <trkpt lat="43.0088" lon="1.98378">
        <ele>366.01</ele>
        <time>2024-09-19T13:13:39.999Z</time>
      </trkpt>
      <trkpt lat="43.00874" lon="1.98405">
        <ele>367.15</ele>
        <time>2024-09-19T13:13:44.999Z</time>
      </trkpt>
      <trkpt lat="43.00866" lon="1.98431">
        <ele>368.1</ele>
        <time>2024-09-19T13:13:49.999Z</time>
      </trkpt>
      <trkpt lat="43.00857" lon="1.98453">
        <ele>368.2</ele>
        <time>2024-09-19T13:13:54.999Z</time>
      </trkpt>
      <trkpt lat="43.00846" lon="1.98478">
        <ele>368.29</ele>
        <time>2024-09-19T13:13:59.999Z</time>
      </trkpt>
      <trkpt lat="43.00833" lon="1.98501">
        <ele>368.57</ele>
        <time>2024-09-19T13:14:04.999Z</time>
      </trkpt>
      <trkpt lat="43.00821" lon="1.98524">
        <ele>368.86</ele>
        <time>2024-09-19T13:14:09.999Z</time>
      </trkpt>
      <trkpt lat="43.00806" lon="1.98547">
        <ele>369.33</ele>
        <time>2024-09-19T13:14:14.999Z</time>
      </trkpt>
      <trkpt lat="43.00791" lon="1.98567">
        <ele>369.57</ele>
        <time>2024-09-19T13:14:19.999Z</time>
      </trkpt>
      <trkpt lat="43.00776" lon="1.98586">
        <ele>369.75</ele>
        <time>2024-09-19T13:14:24.999Z</time>
      </trkpt>
      <trkpt lat="43.00758" lon="1.98605">
        <ele>370.08</ele>
        <time>2024-09-19T13:14:29.999Z</time>
      </trkpt>
      <trkpt lat="43.00741" lon="1.98624">
        <ele>370.5</ele>
        <time>2024-09-19T13:14:34.999Z</time>
      </trkpt>
      <trkpt lat="43.0072" lon="1.98649">
        <ele>371.13</ele>
        <time>2024-09-19T13:14:39.999Z</time>
      </trkpt>
      <trkpt lat="43.007" lon="1.98666">
        <ele>371.55</ele>
        <time>2024-09-19T13:14:44.999Z</time>
      </trkpt>
      <trkpt lat="43.00685" lon="1.98676">
        <ele>371.75</ele>
        <time>2024-09-19T13:14:49.999Z</time>
      </trkpt>
      <trkpt lat="43.00666" lon="1.98688">
        <ele>372</ele>
        <time>2024-09-19T13:14:54.999Z</time>
      </trkpt>
      <trkpt lat="43.0065" lon="1.98694">
        <ele>372.28</ele>
        <time>2024-09-19T13:14:59.999Z</time>
      </trkpt>
      <trkpt lat="43.00628" lon="1.98702">
        <ele>372.96</ele>
        <time>2024-09-19T13:15:04.999Z</time>
      </trkpt>
      <trkpt lat="43.0061" lon="1.98707">
        <ele>373.47</ele>
        <time>2024-09-19T13:15:09.999Z</time>
      </trkpt>
      <trkpt lat="43.00592" lon="1.98712">
        <ele>374.17</ele>
        <time>2024-09-19T13:15:14.999Z</time>
      </trkpt>
      <trkpt lat="43.00566" lon="1.98718">
        <ele>374.94</ele>
        <time>2024-09-19T13:15:19.999Z</time>
      </trkpt>
      <trkpt lat="43.00539" lon="1.98724">
        <ele>375.41</ele>
        <time>2024-09-19T13:15:24.999Z</time>
      </trkpt>
      <trkpt lat="43.00516" lon="1.98732">
        <ele>375.82</ele>
        <time>2024-09-19T13:15:29.999Z</time>
      </trkpt>
      <trkpt lat="43.0049" lon="1.98743">
        <ele>376.27</ele>
        <time>2024-09-19T13:15:34.999Z</time>
      </trkpt>
      <trkpt lat="43.00466" lon="1.98755">
        <ele>376.72</ele>
        <time>2024-09-19T13:15:39.999Z</time>
      </trkpt>
      <trkpt lat="43.00443" lon="1.98767">
        <ele>377.14</ele>
        <time>2024-09-19T13:15:44.999Z</time>
      </trkpt>
      <trkpt lat="43.00421" lon="1.98781">
        <ele>377.56</ele>
        <time>2024-09-19T13:15:49.999Z</time>
      </trkpt>
      <trkpt lat="43.00401" lon="1.98794">
        <ele>377.93</ele>
        <time>2024-09-19T13:15:54.999Z</time>
      </trkpt>
      <trkpt lat="43.0038" lon="1.98811">
        <ele>378.26</ele>
        <time>2024-09-19T13:15:59.999Z</time>
      </trkpt>
      <trkpt lat="43.0036" lon="1.98829">
        <ele>378.43</ele>
        <time>2024-09-19T13:16:04.999Z</time>
      </trkpt>
      <trkpt lat="43.00341" lon="1.98847">
        <ele>378.54</ele>
        <time>2024-09-19T13:16:09.999Z</time>
      </trkpt>
      <trkpt lat="43.00328" lon="1.98859">
        <ele>378.56</ele>
        <time>2024-09-19T13:16:14.999Z</time>
      </trkpt>
      <trkpt lat="43.00312" lon="1.98874">
        <ele>378.77</ele>
        <time>2024-09-19T13:16:19.999Z</time>
      </trkpt>
      <trkpt lat="43.00296" lon="1.9889">
        <ele>378.94</ele>
        <time>2024-09-19T13:16:24.999Z</time>
      </trkpt>
      <trkpt lat="43.00277" lon="1.98909">
        <ele>379.03</ele>
        <time>2024-09-19T13:16:29.999Z</time>
      </trkpt>
      <trkpt lat="43.00258" lon="1.98928">
        <ele>379.04</ele>
        <time>2024-09-19T13:16:34.999Z</time>
      </trkpt>
      <trkpt lat="43.00239" lon="1.98945">
        <ele>379.06</ele>
        <time>2024-09-19T13:16:39.999Z</time>
      </trkpt>
      <trkpt lat="43.00223" lon="1.98962">
        <ele>379.11</ele>
        <time>2024-09-19T13:16:44.999Z</time>
      </trkpt>
      <trkpt lat="43.00206" lon="1.98977">
        <ele>379.3</ele>
        <time>2024-09-19T13:16:49.999Z</time>
      </trkpt>
      <trkpt lat="43.0019" lon="1.98992">
        <ele>379.47</ele>
        <time>2024-09-19T13:16:54.999Z</time>
      </trkpt>
      <trkpt lat="43.00172" lon="1.99011">
        <ele>379.61</ele>
        <time>2024-09-19T13:16:59.999Z</time>
      </trkpt>
      <trkpt lat="43.00154" lon="1.99028">
        <ele>379.68</ele>
        <time>2024-09-19T13:17:04.999Z</time>
      </trkpt>
      <trkpt lat="43.00136" lon="1.99044">
        <ele>379.69</ele>
        <time>2024-09-19T13:17:09.999Z</time>
      </trkpt>
      <trkpt lat="43.00116" lon="1.99063">
        <ele>379.77</ele>
        <time>2024-09-19T13:17:14.999Z</time>
      </trkpt>
      <trkpt lat="43.00097" lon="1.99082">
        <ele>379.8</ele>
        <time>2024-09-19T13:17:19.999Z</time>
      </trkpt>
      <trkpt lat="43.00077" lon="1.99106">
        <ele>379.85</ele>
        <time>2024-09-19T13:17:24.999Z</time>
      </trkpt>
      <trkpt lat="43.00061" lon="1.99127">
        <ele>379.92</ele>
        <time>2024-09-19T13:17:29.999Z</time>
      </trkpt>
      <trkpt lat="43.00046" lon="1.99147">
        <ele>380</ele>
        <time>2024-09-19T13:17:34.999Z</time>
      </trkpt>
      <trkpt lat="43.00032" lon="1.99168">
        <ele>380.22</ele>
        <time>2024-09-19T13:17:39.999Z</time>
      </trkpt>
      <trkpt lat="43.00018" lon="1.99191">
        <ele>380.56</ele>
        <time>2024-09-19T13:17:44.999Z</time>
      </trkpt>
      <trkpt lat="43.00005" lon="1.99214">
        <ele>381.1</ele>
        <time>2024-09-19T13:17:49.999Z</time>
      </trkpt>
      <trkpt lat="42.99992" lon="1.99238">
        <ele>381.98</ele>
        <time>2024-09-19T13:17:55.000Z</time>
      </trkpt>
      <trkpt lat="42.99979" lon="1.99265">
        <ele>382.43</ele>
        <time>2024-09-19T13:18:00.000Z</time>
      </trkpt>
      <trkpt lat="42.99967" lon="1.99288">
        <ele>382.51</ele>
        <time>2024-09-19T13:18:05.000Z</time>
      </trkpt>
      <trkpt lat="42.99959" lon="1.99307">
        <ele>382.58</ele>
        <time>2024-09-19T13:18:10.000Z</time>
      </trkpt>
      <trkpt lat="42.99949" lon="1.99331">
        <ele>382.85</ele>
        <time>2024-09-19T13:18:15.000Z</time>
      </trkpt>
      <trkpt lat="42.9994" lon="1.99355">
        <ele>383</ele>
        <time>2024-09-19T13:18:20.000Z</time>
      </trkpt>
      <trkpt lat="42.99932" lon="1.99378">
        <ele>383.07</ele>
        <time>2024-09-19T13:18:25.000Z</time>
      </trkpt>
      <trkpt lat="42.99923" lon="1.99405">
        <ele>383.12</ele>
        <time>2024-09-19T13:18:30.000Z</time>
      </trkpt>
      <trkpt lat="42.99914" lon="1.99435">
        <ele>383.22</ele>
        <time>2024-09-19T13:18:35.000Z</time>
      </trkpt>
      <trkpt lat="42.99906" lon="1.99461">
        <ele>383.32</ele>
        <time>2024-09-19T13:18:40.000Z</time>
      </trkpt>
      <trkpt lat="42.99898" lon="1.99492">
        <ele>383.37</ele>
        <time>2024-09-19T13:18:45.000Z</time>
      </trkpt>
      <trkpt lat="42.99891" lon="1.99519">
        <ele>383.35</ele>
        <time>2024-09-19T13:18:50.000Z</time>
      </trkpt>
      <trkpt lat="42.99887" lon="1.99548">
        <ele>383.32</ele>
        <time>2024-09-19T13:18:55.000Z</time>
      </trkpt>
      <trkpt lat="42.99884" lon="1.99571">
        <ele>383.3</ele>
        <time>2024-09-19T13:19:00.000Z</time>
      </trkpt>
      <trkpt lat="42.99879" lon="1.99601">
        <ele>383.29</ele>
        <time>2024-09-19T13:19:05.000Z</time>
      </trkpt>
      <trkpt lat="42.99876" lon="1.9963">
        <ele>383.29</ele>
        <time>2024-09-19T13:19:10.000Z</time>
      </trkpt>
      <trkpt lat="42.9987" lon="1.99655">
        <ele>383.29</ele>
        <time>2024-09-19T13:19:15.000Z</time>
      </trkpt>
      <trkpt lat="42.99864" lon="1.99685">
        <ele>383.23</ele>
        <time>2024-09-19T13:19:20.000Z</time>
      </trkpt>
      <trkpt lat="42.99858" lon="1.99715">
        <ele>383.18</ele>
        <time>2024-09-19T13:19:25.000Z</time>
      </trkpt>
      <trkpt lat="42.99854" lon="1.99745">
        <ele>383.13</ele>
        <time>2024-09-19T13:19:30.000Z</time>
      </trkpt>
      <trkpt lat="42.99853" lon="1.99773">
        <ele>383.08</ele>
        <time>2024-09-19T13:19:35.000Z</time>
      </trkpt>
      <trkpt lat="42.99848" lon="1.99802">
        <ele>382.99</ele>
        <time>2024-09-19T13:19:40.000Z</time>
      </trkpt>
      <trkpt lat="42.99844" lon="1.99833">
        <ele>383.05</ele>
        <time>2024-09-19T13:19:45.000Z</time>
      </trkpt>
      <trkpt lat="42.9984" lon="1.99861">
        <ele>383.05</ele>
        <time>2024-09-19T13:19:50.000Z</time>
      </trkpt>
      <trkpt lat="42.99833" lon="1.99889">
        <ele>382.99</ele>
        <time>2024-09-19T13:19:55.000Z</time>
      </trkpt>
      <trkpt lat="42.99827" lon="1.9991">
        <ele>382.94</ele>
        <time>2024-09-19T13:20:00.000Z</time>
      </trkpt>
      <trkpt lat="42.99836" lon="1.99908">
        <ele>383.24</ele>
        <time>2024-09-19T13:23:44.000Z</time>
      </trkpt>
      <trkpt lat="42.99831" lon="1.99918">
        <ele>383.34</ele>
        <time>2024-09-19T13:27:22.000Z</time>
      </trkpt>
      <trkpt lat="42.99826" lon="1.99938">
        <ele>383.36</ele>
        <time>2024-09-19T13:27:27.000Z</time>
      </trkpt>
      <trkpt lat="42.99819" lon="1.99961">
        <ele>383.38</ele>
        <time>2024-09-19T13:27:32.000Z</time>
      </trkpt>
      <trkpt lat="42.99687" lon="2.00191">
        <ele>383.53</ele>
        <time>2024-09-19T13:28:35.000Z</time>
      </trkpt>
      <trkpt lat="42.99622" lon="2.00202">
        <ele>383.63</ele>
        <time>2024-09-19T13:28:46.000Z</time>
      </trkpt>
      <trkpt lat="42.9961" lon="2.00207">
        <ele>384.09</ele>
        <time>2024-09-19T13:28:51.000Z</time>
      </trkpt>
      <trkpt lat="42.99595" lon="2.00211">
        <ele>384.36</ele>
        <time>2024-09-19T13:28:56.000Z</time>
      </trkpt>
      <trkpt lat="42.99582" lon="2.00207">
        <ele>384.54</ele>
        <time>2024-09-19T13:29:01.000Z</time>
      </trkpt>
      <trkpt lat="42.99552" lon="2.00219">
        <ele>383.77</ele>
        <time>2024-09-19T13:29:06.000Z</time>
      </trkpt>
      <trkpt lat="42.99512" lon="2.00244">
        <ele>383.4</ele>
        <time>2024-09-19T13:29:11.000Z</time>
      </trkpt>
      <trkpt lat="42.99488" lon="2.00256">
        <ele>383.38</ele>
        <time>2024-09-19T13:29:16.000Z</time>
      </trkpt>
      <trkpt lat="42.99466" lon="2.00265">
        <ele>383.45</ele>
        <time>2024-09-19T13:29:21.000Z</time>
      </trkpt>
      <trkpt lat="42.99444" lon="2.00271">
        <ele>383.53</ele>
        <time>2024-09-19T13:29:26.000Z</time>
      </trkpt>
      <trkpt lat="42.99421" lon="2.00277">
        <ele>383.59</ele>
        <time>2024-09-19T13:29:31.000Z</time>
      </trkpt>
      <trkpt lat="42.99398" lon="2.00283">
        <ele>383.68</ele>
        <time>2024-09-19T13:29:36.000Z</time>
      </trkpt>
      <trkpt lat="42.99375" lon="2.00285">
        <ele>383.71</ele>
        <time>2024-09-19T13:29:41.000Z</time>
      </trkpt>
      <trkpt lat="42.99357" lon="2.00285">
        <ele>383.71</ele>
        <time>2024-09-19T13:29:46.000Z</time>
      </trkpt>
      <trkpt lat="42.9933" lon="2.00285">
        <ele>383.71</ele>
        <time>2024-09-19T13:29:51.000Z</time>
      </trkpt>
      <trkpt lat="42.99306" lon="2.00282">
        <ele>383.58</ele>
        <time>2024-09-19T13:29:56.000Z</time>
      </trkpt>
      <trkpt lat="42.99285" lon="2.00278">
        <ele>383.49</ele>
        <time>2024-09-19T13:30:01.000Z</time>
      </trkpt>
      <trkpt lat="42.99253" lon="2.00264">
        <ele>383.29</ele>
        <time>2024-09-19T13:30:06.999Z</time>
      </trkpt>
      <trkpt lat="42.9923" lon="2.00256">
        <ele>383.21</ele>
        <time>2024-09-19T13:30:11.999Z</time>
      </trkpt>
      <trkpt lat="42.99209" lon="2.00248">
        <ele>383.22</ele>
        <time>2024-09-19T13:30:16.999Z</time>
      </trkpt>
      <trkpt lat="42.99187" lon="2.00241">
        <ele>383.23</ele>
        <time>2024-09-19T13:30:21.999Z</time>
      </trkpt>
      <trkpt lat="42.99158" lon="2.00231">
        <ele>383.31</ele>
        <time>2024-09-19T13:30:26.999Z</time>
      </trkpt>
      <trkpt lat="42.99137" lon="2.00223">
        <ele>383.41</ele>
        <time>2024-09-19T13:30:31.999Z</time>
      </trkpt>
      <trkpt lat="42.99112" lon="2.00218">
        <ele>383.44</ele>
        <time>2024-09-19T13:30:36.999Z</time>
      </trkpt>
      <trkpt lat="42.9909" lon="2.00213">
        <ele>383.46</ele>
        <time>2024-09-19T13:30:41.999Z</time>
      </trkpt>
      <trkpt lat="42.99067" lon="2.00207">
        <ele>383.54</ele>
        <time>2024-09-19T13:30:46.999Z</time>
      </trkpt>
      <trkpt lat="42.99044" lon="2.00206">
        <ele>383.57</ele>
        <time>2024-09-19T13:30:51.999Z</time>
      </trkpt>
      <trkpt lat="42.9902" lon="2.00206">
        <ele>383.61</ele>
        <time>2024-09-19T13:30:56.999Z</time>
      </trkpt>
      <trkpt lat="42.98992" lon="2.00212">
        <ele>383.95</ele>
        <time>2024-09-19T13:31:01.999Z</time>
      </trkpt>
      <trkpt lat="42.98968" lon="2.00216">
        <ele>384.05</ele>
        <time>2024-09-19T13:31:06.999Z</time>
      </trkpt>
      <trkpt lat="42.98945" lon="2.00223">
        <ele>383.93</ele>
        <time>2024-09-19T13:31:11.999Z</time>
      </trkpt>
      <trkpt lat="42.98924" lon="2.0023">
        <ele>383.8</ele>
        <time>2024-09-19T13:31:16.999Z</time>
      </trkpt>
      <trkpt lat="42.9893" lon="2.0022">
        <ele>383.78</ele>
        <time>2024-09-19T13:31:26.999Z</time>
      </trkpt>
      <trkpt lat="42.98938" lon="2.00215">
        <ele>385.69</ele>
        <time>2024-09-19T13:34:41.999Z</time>
      </trkpt>
      <trkpt lat="42.98951" lon="2.00206">
        <ele>386.07</ele>
        <time>2024-09-19T13:34:46.999Z</time>
      </trkpt>
      <trkpt lat="42.98941" lon="2.00195">
        <ele>386.42</ele>
        <time>2024-09-19T13:34:51.999Z</time>
      </trkpt>
      <trkpt lat="42.98922" lon="2.00193">
        <ele>386.74</ele>
        <time>2024-09-19T13:34:56.999Z</time>
      </trkpt>
      <trkpt lat="42.98904" lon="2.00194">
        <ele>387.03</ele>
        <time>2024-09-19T13:35:01.999Z</time>
      </trkpt>
      <trkpt lat="42.98889" lon="2.00195">
        <ele>387.29</ele>
        <time>2024-09-19T13:35:06.999Z</time>
      </trkpt>
      <trkpt lat="42.9888" lon="2.00194">
        <ele>387.57</ele>
        <time>2024-09-19T13:35:26.999Z</time>
      </trkpt>
      <trkpt lat="42.98889" lon="2.00198">
        <ele>387.88</ele>
        <time>2024-09-19T13:35:44.999Z</time>
      </trkpt>
      <trkpt lat="42.98907" lon="2.00199">
        <ele>388.08</ele>
        <time>2024-09-19T13:35:49.999Z</time>
      </trkpt>
      <trkpt lat="42.98926" lon="2.002">
        <ele>389.02</ele>
        <time>2024-09-19T13:35:54.999Z</time>
      </trkpt>
      <trkpt lat="42.98944" lon="2.00201">
        <ele>389.12</ele>
        <time>2024-09-19T13:35:59.999Z</time>
      </trkpt>
      <trkpt lat="42.98947" lon="2.00213">
        <ele>389.21</ele>
        <time>2024-09-19T13:36:05.999Z</time>
      </trkpt>
      <trkpt lat="42.98957" lon="2.00217">
        <ele>389.32</ele>
        <time>2024-09-19T13:36:20.999Z</time>
      </trkpt>
      <trkpt lat="42.98966" lon="2.00215">
        <ele>389.38</ele>
        <time>2024-09-19T13:36:25.999Z</time>
      </trkpt>
      <trkpt lat="42.98979" lon="2.00212">
        <ele>389.42</ele>
        <time>2024-09-19T13:36:30.999Z</time>
      </trkpt>
      <trkpt lat="42.98988" lon="2.00207">
        <ele>389.47</ele>
        <time>2024-09-19T13:36:36.999Z</time>
      </trkpt>
      <trkpt lat="42.98998" lon="2.00204">
        <ele>389.51</ele>
        <time>2024-09-19T13:36:43.999Z</time>
      </trkpt>
      <trkpt lat="42.99005" lon="2.00213">
        <ele>389.56</ele>
        <time>2024-09-19T13:37:03.999Z</time>
      </trkpt>
      <trkpt lat="42.98995" lon="2.00216">
        <ele>389.61</ele>
        <time>2024-09-19T13:37:15.999Z</time>
      </trkpt>
      <trkpt lat="42.98981" lon="2.00221">
        <ele>389.63</ele>
        <time>2024-09-19T13:37:20.999Z</time>
      </trkpt>
      <trkpt lat="42.98967" lon="2.0023">
        <ele>389.65</ele>
        <time>2024-09-19T13:37:25.999Z</time>
      </trkpt>
      <trkpt lat="42.98956" lon="2.00236">
        <ele>389.66</ele>
        <time>2024-09-19T13:37:30.999Z</time>
      </trkpt>
      <trkpt lat="42.98941" lon="2.00245">
        <ele>389.66</ele>
        <time>2024-09-19T13:37:35.999Z</time>
      </trkpt>
      <trkpt lat="42.98928" lon="2.00255">
        <ele>389.65</ele>
        <time>2024-09-19T13:37:40.999Z</time>
      </trkpt>
      <trkpt lat="42.98914" lon="2.00266">
        <ele>389.63</ele>
        <time>2024-09-19T13:37:45.999Z</time>
      </trkpt>
      <trkpt lat="42.98896" lon="2.00279">
        <ele>389.6</ele>
        <time>2024-09-19T13:37:50.999Z</time>
      </trkpt>
      <trkpt lat="42.98876" lon="2.00295">
        <ele>389.53</ele>
        <time>2024-09-19T13:37:55.999Z</time>
      </trkpt>
      <trkpt lat="42.9886" lon="2.00308">
        <ele>389.5</ele>
        <time>2024-09-19T13:38:00.999Z</time>
      </trkpt>
      <trkpt lat="42.98845" lon="2.0032">
        <ele>389.48</ele>
        <time>2024-09-19T13:38:05.999Z</time>
      </trkpt>
      <trkpt lat="42.98826" lon="2.0033">
        <ele>389.46</ele>
        <time>2024-09-19T13:38:10.999Z</time>
      </trkpt>
      <trkpt lat="42.98806" lon="2.00343">
        <ele>389.39</ele>
        <time>2024-09-19T13:38:15.999Z</time>
      </trkpt>
      <trkpt lat="42.9879" lon="2.00352">
        <ele>389.38</ele>
        <time>2024-09-19T13:38:20.999Z</time>
      </trkpt>
      <trkpt lat="42.98777" lon="2.00362">
        <ele>389.38</ele>
        <time>2024-09-19T13:38:25.999Z</time>
      </trkpt>
      <trkpt lat="42.98762" lon="2.00369">
        <ele>389.38</ele>
        <time>2024-09-19T13:38:30.999Z</time>
      </trkpt>
      <trkpt lat="42.98746" lon="2.00377">
        <ele>389.39</ele>
        <time>2024-09-19T13:38:35.999Z</time>
      </trkpt>
      <trkpt lat="42.98728" lon="2.00385">
        <ele>389.42</ele>
        <time>2024-09-19T13:38:40.999Z</time>
      </trkpt>
      <trkpt lat="42.98713" lon="2.00387">
        <ele>389.48</ele>
        <time>2024-09-19T13:38:45.999Z</time>
      </trkpt>
      <trkpt lat="42.98691" lon="2.00395">
        <ele>389.69</ele>
        <time>2024-09-19T13:38:50.999Z</time>
      </trkpt>
      <trkpt lat="42.98672" lon="2.00398">
        <ele>389.76</ele>
        <time>2024-09-19T13:38:55.999Z</time>
      </trkpt>
      <trkpt lat="42.98657" lon="2.00404">
        <ele>389.83</ele>
        <time>2024-09-19T13:39:00.999Z</time>
      </trkpt>
      <trkpt lat="42.98641" lon="2.00407">
        <ele>389.91</ele>
        <time>2024-09-19T13:39:05.999Z</time>
      </trkpt>
      <trkpt lat="42.98627" lon="2.00409">
        <ele>390.01</ele>
        <time>2024-09-19T13:39:10.999Z</time>
      </trkpt>
      <trkpt lat="42.98612" lon="2.00415">
        <ele>390.13</ele>
        <time>2024-09-19T13:39:15.999Z</time>
      </trkpt>
      <trkpt lat="42.98597" lon="2.00423">
        <ele>390.26</ele>
        <time>2024-09-19T13:39:20.999Z</time>
      </trkpt>
      <trkpt lat="42.98583" lon="2.00434">
        <ele>390.4</ele>
        <time>2024-09-19T13:39:25.999Z</time>
      </trkpt>
      <trkpt lat="42.9857" lon="2.00449">
        <ele>390.53</ele>
        <time>2024-09-19T13:39:30.999Z</time>
      </trkpt>
      <trkpt lat="42.98562" lon="2.00466">
        <ele>390.66</ele>
        <time>2024-09-19T13:39:35.999Z</time>
      </trkpt>
      <trkpt lat="42.98554" lon="2.00485">
        <ele>390.78</ele>
        <time>2024-09-19T13:39:40.999Z</time>
      </trkpt>
      <trkpt lat="42.98545" lon="2.00507">
        <ele>390.9</ele>
        <time>2024-09-19T13:39:45.999Z</time>
      </trkpt>
      <trkpt lat="42.98538" lon="2.00532">
        <ele>391.53</ele>
        <time>2024-09-19T13:39:50.999Z</time>
      </trkpt>
      <trkpt lat="42.98531" lon="2.0056">
        <ele>391.94</ele>
        <time>2024-09-19T13:39:55.999Z</time>
      </trkpt>
      <trkpt lat="42.98524" lon="2.0059">
        <ele>392.15</ele>
        <time>2024-09-19T13:40:00.999Z</time>
      </trkpt>
      <trkpt lat="42.98517" lon="2.00622">
        <ele>392.27</ele>
        <time>2024-09-19T13:40:05.999Z</time>
      </trkpt>
      <trkpt lat="42.98509" lon="2.00653">
        <ele>392.36</ele>
        <time>2024-09-19T13:40:10.999Z</time>
      </trkpt>
      <trkpt lat="42.98488" lon="2.00667">
        <ele>392.44</ele>
        <time>2024-09-19T13:40:15.999Z</time>
      </trkpt>
      <trkpt lat="42.9847" lon="2.0068">
        <ele>392.52</ele>
        <time>2024-09-19T13:40:20.999Z</time>
      </trkpt>
      <trkpt lat="42.98453" lon="2.00692">
        <ele>392.56</ele>
        <time>2024-09-19T13:40:25.999Z</time>
      </trkpt>
      <trkpt lat="42.98439" lon="2.00703">
        <ele>392.58</ele>
        <time>2024-09-19T13:40:30.999Z</time>
      </trkpt>
      <trkpt lat="42.98424" lon="2.00713">
        <ele>392.6</ele>
        <time>2024-09-19T13:40:35.999Z</time>
      </trkpt>
      <trkpt lat="42.98409" lon="2.00725">
        <ele>392.68</ele>
        <time>2024-09-19T13:40:40.999Z</time>
      </trkpt>
      <trkpt lat="42.98392" lon="2.00738">
        <ele>392.81</ele>
        <time>2024-09-19T13:40:45.999Z</time>
      </trkpt>
      <trkpt lat="42.98379" lon="2.00745">
        <ele>392.84</ele>
        <time>2024-09-19T13:40:50.999Z</time>
      </trkpt>
      <trkpt lat="42.98371" lon="2.00752">
        <ele>392.87</ele>
        <time>2024-09-19T13:40:55.999Z</time>
      </trkpt>
      <trkpt lat="42.98351" lon="2.00756">
        <ele>392.98</ele>
        <time>2024-09-19T13:41:00.999Z</time>
      </trkpt>
      <trkpt lat="42.98332" lon="2.00752">
        <ele>393.15</ele>
        <time>2024-09-19T13:41:05.999Z</time>
      </trkpt>
      <trkpt lat="42.98315" lon="2.00742">
        <ele>393.31</ele>
        <time>2024-09-19T13:41:10.999Z</time>
      </trkpt>
      <trkpt lat="42.98301" lon="2.00732">
        <ele>393.37</ele>
        <time>2024-09-19T13:41:15.999Z</time>
      </trkpt>
      <trkpt lat="42.98285" lon="2.00732">
        <ele>393.39</ele>
        <time>2024-09-19T13:41:20.999Z</time>
      </trkpt>
      <trkpt lat="42.98279" lon="2.00744">
        <ele>393.41</ele>
        <time>2024-09-19T13:42:09.000Z</time>
      </trkpt>
      <trkpt lat="42.9827" lon="2.00763">
        <ele>393.43</ele>
        <time>2024-09-19T13:42:14.000Z</time>
      </trkpt>
      <trkpt lat="42.98258" lon="2.00789">
        <ele>393.48</ele>
        <time>2024-09-19T13:42:19.000Z</time>
      </trkpt>
      <trkpt lat="42.98246" lon="2.00815">
        <ele>393.51</ele>
        <time>2024-09-19T13:42:24.000Z</time>
      </trkpt>
      <trkpt lat="42.98241" lon="2.00848">
        <ele>393.51</ele>
        <time>2024-09-19T13:42:29.000Z</time>
      </trkpt>
      <trkpt lat="42.98246" lon="2.00875">
        <ele>393.5</ele>
        <time>2024-09-19T13:42:34.000Z</time>
      </trkpt>
      <trkpt lat="42.9825" lon="2.00903">
        <ele>393.49</ele>
        <time>2024-09-19T13:42:39.000Z</time>
      </trkpt>
      <trkpt lat="42.98255" lon="2.00934">
        <ele>393.47</ele>
        <time>2024-09-19T13:42:44.000Z</time>
      </trkpt>
      <trkpt lat="42.98259" lon="2.0096">
        <ele>393.48</ele>
        <time>2024-09-19T13:42:49.000Z</time>
      </trkpt>
      <trkpt lat="42.98261" lon="2.00983">
        <ele>393.49</ele>
        <time>2024-09-19T13:42:54.000Z</time>
      </trkpt>
      <trkpt lat="42.98262" lon="2.01003">
        <ele>393.51</ele>
        <time>2024-09-19T13:42:59.000Z</time>
      </trkpt>
      <trkpt lat="42.9826" lon="2.01027">
        <ele>393.57</ele>
        <time>2024-09-19T13:43:04.000Z</time>
      </trkpt>
      <trkpt lat="42.98256" lon="2.0105">
        <ele>393.8</ele>
        <time>2024-09-19T13:43:09.000Z</time>
      </trkpt>
      <trkpt lat="42.98251" lon="2.01075">
        <ele>394.1</ele>
        <time>2024-09-19T13:43:14.000Z</time>
      </trkpt>
      <trkpt lat="42.98244" lon="2.01101">
        <ele>394.35</ele>
        <time>2024-09-19T13:43:19.000Z</time>
      </trkpt>
      <trkpt lat="42.98234" lon="2.01126">
        <ele>394.44</ele>
        <time>2024-09-19T13:43:24.000Z</time>
      </trkpt>
      <trkpt lat="42.98222" lon="2.0115">
        <ele>394.5</ele>
        <time>2024-09-19T13:43:29.000Z</time>
      </trkpt>
      <trkpt lat="42.9821" lon="2.01173">
        <ele>394.53</ele>
        <time>2024-09-19T13:43:34.000Z</time>
      </trkpt>
      <trkpt lat="42.98198" lon="2.01192">
        <ele>394.55</ele>
        <time>2024-09-19T13:43:39.000Z</time>
      </trkpt>
      <trkpt lat="42.98188" lon="2.01209">
        <ele>394.57</ele>
        <time>2024-09-19T13:43:44.000Z</time>
      </trkpt>
      <trkpt lat="42.98177" lon="2.01226">
        <ele>394.59</ele>
        <time>2024-09-19T13:43:49.000Z</time>
      </trkpt>
      <trkpt lat="42.98168" lon="2.01243">
        <ele>394.61</ele>
        <time>2024-09-19T13:43:54.000Z</time>
      </trkpt>
      <trkpt lat="42.98155" lon="2.01261">
        <ele>394.63</ele>
        <time>2024-09-19T13:43:59.000Z</time>
      </trkpt>
      <trkpt lat="42.98134" lon="2.01286">
        <ele>394.67</ele>
        <time>2024-09-19T13:44:04.000Z</time>
      </trkpt>
      <trkpt lat="42.98121" lon="2.01299">
        <ele>394.75</ele>
        <time>2024-09-19T13:44:09.000Z</time>
      </trkpt>
      <trkpt lat="42.98107" lon="2.01311">
        <ele>394.84</ele>
        <time>2024-09-19T13:44:14.000Z</time>
      </trkpt>
      <trkpt lat="42.98089" lon="2.01324">
        <ele>394.99</ele>
        <time>2024-09-19T13:44:19.000Z</time>
      </trkpt>
      <trkpt lat="42.98066" lon="2.0133">
        <ele>395.05</ele>
        <time>2024-09-19T13:44:24.000Z</time>
      </trkpt>
      <trkpt lat="42.98037" lon="2.01327">
        <ele>395.34</ele>
        <time>2024-09-19T13:44:29.000Z</time>
      </trkpt>
      <trkpt lat="42.9801" lon="2.01325">
        <ele>395.42</ele>
        <time>2024-09-19T13:44:34.000Z</time>
      </trkpt>
      <trkpt lat="42.97985" lon="2.01327">
        <ele>395.51</ele>
        <time>2024-09-19T13:44:39.000Z</time>
      </trkpt>
      <trkpt lat="42.97964" lon="2.01341">
        <ele>395.62</ele>
        <time>2024-09-19T13:44:44.000Z</time>
      </trkpt>
      <trkpt lat="42.97945" lon="2.01361">
        <ele>395.75</ele>
        <time>2024-09-19T13:44:49.000Z</time>
      </trkpt>
      <trkpt lat="42.97927" lon="2.01385">
        <ele>395.87</ele>
        <time>2024-09-19T13:44:54.000Z</time>
      </trkpt>
      <trkpt lat="42.97911" lon="2.01413">
        <ele>395.99</ele>
        <time>2024-09-19T13:44:59.000Z</time>
      </trkpt>
      <trkpt lat="42.97896" lon="2.01442">
        <ele>396.17</ele>
        <time>2024-09-19T13:45:04.000Z</time>
      </trkpt>
      <trkpt lat="42.97881" lon="2.01472">
        <ele>396.33</ele>
        <time>2024-09-19T13:45:09.000Z</time>
      </trkpt>
      <trkpt lat="42.97866" lon="2.01499">
        <ele>396.45</ele>
        <time>2024-09-19T13:45:14.000Z</time>
      </trkpt>
      <trkpt lat="42.97851" lon="2.01526">
        <ele>396.72</ele>
        <time>2024-09-19T13:45:19.000Z</time>
      </trkpt>
      <trkpt lat="42.97834" lon="2.01549">
        <ele>397.01</ele>
        <time>2024-09-19T13:45:24.000Z</time>
      </trkpt>
      <trkpt lat="42.97817" lon="2.01572">
        <ele>397.26</ele>
        <time>2024-09-19T13:45:29.000Z</time>
      </trkpt>
      <trkpt lat="42.97802" lon="2.01594">
        <ele>397.47</ele>
        <time>2024-09-19T13:45:34.000Z</time>
      </trkpt>
      <trkpt lat="42.97785" lon="2.01615">
        <ele>397.54</ele>
        <time>2024-09-19T13:45:39.000Z</time>
      </trkpt>
      <trkpt lat="42.9777" lon="2.01639">
        <ele>397.54</ele>
        <time>2024-09-19T13:45:44.000Z</time>
      </trkpt>
      <trkpt lat="42.97754" lon="2.01664">
        <ele>397.46</ele>
        <time>2024-09-19T13:45:49.000Z</time>
      </trkpt>
      <trkpt lat="42.97735" lon="2.01689">
        <ele>397.49</ele>
        <time>2024-09-19T13:45:54.000Z</time>
      </trkpt>
      <trkpt lat="42.97717" lon="2.01714">
        <ele>397.58</ele>
        <time>2024-09-19T13:45:59.000Z</time>
      </trkpt>
      <trkpt lat="42.97701" lon="2.01736">
        <ele>397.71</ele>
        <time>2024-09-19T13:46:04.000Z</time>
      </trkpt>
      <trkpt lat="42.97685" lon="2.01756">
        <ele>397.85</ele>
        <time>2024-09-19T13:46:09.000Z</time>
      </trkpt>
      <trkpt lat="42.9767" lon="2.01777">
        <ele>398.06</ele>
        <time>2024-09-19T13:46:14.000Z</time>
      </trkpt>
      <trkpt lat="42.97655" lon="2.018">
        <ele>398.26</ele>
        <time>2024-09-19T13:46:19.000Z</time>
      </trkpt>
      <trkpt lat="42.97643" lon="2.01822">
        <ele>398.52</ele>
        <time>2024-09-19T13:46:24.000Z</time>
      </trkpt>
      <trkpt lat="42.97631" lon="2.01843">
        <ele>398.83</ele>
        <time>2024-09-19T13:46:29.000Z</time>
      </trkpt>
      <trkpt lat="42.97622" lon="2.01864">
        <ele>399.11</ele>
        <time>2024-09-19T13:46:34.000Z</time>
      </trkpt>
      <trkpt lat="42.97614" lon="2.01885">
        <ele>399.43</ele>
        <time>2024-09-19T13:46:39.000Z</time>
      </trkpt>
      <trkpt lat="42.97606" lon="2.01909">
        <ele>399.87</ele>
        <time>2024-09-19T13:46:44.000Z</time>
      </trkpt>
      <trkpt lat="42.97599" lon="2.01935">
        <ele>400.36</ele>
        <time>2024-09-19T13:46:49.000Z</time>
      </trkpt>
      <trkpt lat="42.97593" lon="2.01959">
        <ele>400.91</ele>
        <time>2024-09-19T13:46:54.000Z</time>
      </trkpt>
      <trkpt lat="42.97587" lon="2.01984">
        <ele>401.56</ele>
        <time>2024-09-19T13:46:59.000Z</time>
      </trkpt>
      <trkpt lat="42.9758" lon="2.02008">
        <ele>402.07</ele>
        <time>2024-09-19T13:47:04.000Z</time>
      </trkpt>
      <trkpt lat="42.97573" lon="2.02033">
        <ele>402.27</ele>
        <time>2024-09-19T13:47:09.000Z</time>
      </trkpt>
      <trkpt lat="42.97566" lon="2.02056">
        <ele>402.32</ele>
        <time>2024-09-19T13:47:14.000Z</time>
      </trkpt>
      <trkpt lat="42.97557" lon="2.02076">
        <ele>402.37</ele>
        <time>2024-09-19T13:47:19.000Z</time>
      </trkpt>
      <trkpt lat="42.97547" lon="2.02095">
        <ele>402.43</ele>
        <time>2024-09-19T13:47:24.000Z</time>
      </trkpt>
      <trkpt lat="42.97537" lon="2.02113">
        <ele>402.48</ele>
        <time>2024-09-19T13:47:29.000Z</time>
      </trkpt>
      <trkpt lat="42.97526" lon="2.0213">
        <ele>402.58</ele>
        <time>2024-09-19T13:47:34.000Z</time>
      </trkpt>
      <trkpt lat="42.97515" lon="2.02148">
        <ele>402.75</ele>
        <time>2024-09-19T13:47:39.000Z</time>
      </trkpt>
      <trkpt lat="42.97502" lon="2.02166">
        <ele>402.99</ele>
        <time>2024-09-19T13:47:44.000Z</time>
      </trkpt>
      <trkpt lat="42.97491" lon="2.02184">
        <ele>403.28</ele>
        <time>2024-09-19T13:47:49.000Z</time>
      </trkpt>
      <trkpt lat="42.9748" lon="2.02204">
        <ele>403.59</ele>
        <time>2024-09-19T13:47:54.000Z</time>
      </trkpt>
      <trkpt lat="42.97469" lon="2.02221">
        <ele>403.9</ele>
        <time>2024-09-19T13:47:59.000Z</time>
      </trkpt>
      <trkpt lat="42.97458" lon="2.02238">
        <ele>404.23</ele>
        <time>2024-09-19T13:48:04.000Z</time>
      </trkpt>
      <trkpt lat="42.97447" lon="2.02256">
        <ele>404.56</ele>
        <time>2024-09-19T13:48:09.000Z</time>
      </trkpt>
      <trkpt lat="42.97435" lon="2.02275">
        <ele>404.88</ele>
        <time>2024-09-19T13:48:14.000Z</time>
      </trkpt>
      <trkpt lat="42.97422" lon="2.02295">
        <ele>405.18</ele>
        <time>2024-09-19T13:48:19.000Z</time>
      </trkpt>
      <trkpt lat="42.9741" lon="2.02316">
        <ele>405.45</ele>
        <time>2024-09-19T13:48:24.000Z</time>
      </trkpt>
      <trkpt lat="42.974" lon="2.02334">
        <ele>405.69</ele>
        <time>2024-09-19T13:48:29.000Z</time>
      </trkpt>
      <trkpt lat="42.97391" lon="2.02352">
        <ele>405.91</ele>
        <time>2024-09-19T13:48:34.000Z</time>
      </trkpt>
      <trkpt lat="42.97381" lon="2.02371">
        <ele>406.79</ele>
        <time>2024-09-19T13:48:39.000Z</time>
      </trkpt>
      <trkpt lat="42.97371" lon="2.02391">
        <ele>407.17</ele>
        <time>2024-09-19T13:48:44.000Z</time>
      </trkpt>
      <trkpt lat="42.97361" lon="2.02411">
        <ele>407.26</ele>
        <time>2024-09-19T13:48:49.000Z</time>
      </trkpt>
      <trkpt lat="42.9735" lon="2.02431">
        <ele>407.36</ele>
        <time>2024-09-19T13:48:54.000Z</time>
      </trkpt>
      <trkpt lat="42.97339" lon="2.0245">
        <ele>407.44</ele>
        <time>2024-09-19T13:48:59.000Z</time>
      </trkpt>
      <trkpt lat="42.97324" lon="2.02469">
        <ele>407.52</ele>
        <time>2024-09-19T13:49:04.000Z</time>
      </trkpt>
      <trkpt lat="42.97307" lon="2.02485">
        <ele>407.77</ele>
        <time>2024-09-19T13:49:09.000Z</time>
      </trkpt>
      <trkpt lat="42.9729" lon="2.025">
        <ele>408.07</ele>
        <time>2024-09-19T13:49:14.000Z</time>
      </trkpt>
      <trkpt lat="42.97274" lon="2.0251">
        <ele>408.15</ele>
        <time>2024-09-19T13:49:19.000Z</time>
      </trkpt>
      <trkpt lat="42.97256" lon="2.02522">
        <ele>408.16</ele>
        <time>2024-09-19T13:49:24.000Z</time>
      </trkpt>
      <trkpt lat="42.97238" lon="2.02533">
        <ele>408.15</ele>
        <time>2024-09-19T13:49:29.000Z</time>
      </trkpt>
      <trkpt lat="42.97219" lon="2.02545">
        <ele>408.12</ele>
        <time>2024-09-19T13:49:34.000Z</time>
      </trkpt>
      <trkpt lat="42.97201" lon="2.02557">
        <ele>408.09</ele>
        <time>2024-09-19T13:49:39.000Z</time>
      </trkpt>
      <trkpt lat="42.97184" lon="2.0257">
        <ele>408.04</ele>
        <time>2024-09-19T13:49:44.000Z</time>
      </trkpt>
      <trkpt lat="42.9717" lon="2.02584">
        <ele>407.99</ele>
        <time>2024-09-19T13:49:49.000Z</time>
      </trkpt>
      <trkpt lat="42.97157" lon="2.02603">
        <ele>407.95</ele>
        <time>2024-09-19T13:49:54.000Z</time>
      </trkpt>
      <trkpt lat="42.97145" lon="2.02624">
        <ele>407.91</ele>
        <time>2024-09-19T13:49:59.000Z</time>
      </trkpt>
      <trkpt lat="42.97131" lon="2.02644">
        <ele>407.85</ele>
        <time>2024-09-19T13:50:04.000Z</time>
      </trkpt>
      <trkpt lat="42.97117" lon="2.02663">
        <ele>407.77</ele>
        <time>2024-09-19T13:50:09.000Z</time>
      </trkpt>
      <trkpt lat="42.971" lon="2.02681">
        <ele>407.74</ele>
        <time>2024-09-19T13:50:14.000Z</time>
      </trkpt>
      <trkpt lat="42.97081" lon="2.027">
        <ele>407.74</ele>
        <time>2024-09-19T13:50:19.000Z</time>
      </trkpt>
      <trkpt lat="42.9706" lon="2.02714">
        <ele>407.82</ele>
        <time>2024-09-19T13:50:24.000Z</time>
      </trkpt>
      <trkpt lat="42.97038" lon="2.02723">
        <ele>407.87</ele>
        <time>2024-09-19T13:50:29.000Z</time>
      </trkpt>
      <trkpt lat="42.97018" lon="2.02726">
        <ele>407.91</ele>
        <time>2024-09-19T13:50:34.000Z</time>
      </trkpt>
      <trkpt lat="42.96997" lon="2.0273">
        <ele>407.95</ele>
        <time>2024-09-19T13:50:39.000Z</time>
      </trkpt>
      <trkpt lat="42.96977" lon="2.02734">
        <ele>407.97</ele>
        <time>2024-09-19T13:50:44.000Z</time>
      </trkpt>
      <trkpt lat="42.96957" lon="2.02736">
        <ele>407.99</ele>
        <time>2024-09-19T13:50:49.000Z</time>
      </trkpt>
      <trkpt lat="42.96937" lon="2.02739">
        <ele>408.05</ele>
        <time>2024-09-19T13:50:54.000Z</time>
      </trkpt>
      <trkpt lat="42.96916" lon="2.02744">
        <ele>408.1</ele>
        <time>2024-09-19T13:50:59.000Z</time>
      </trkpt>
      <trkpt lat="42.96896" lon="2.02747">
        <ele>408.15</ele>
        <time>2024-09-19T13:51:04.000Z</time>
      </trkpt>
      <trkpt lat="42.96875" lon="2.02748">
        <ele>408.2</ele>
        <time>2024-09-19T13:51:09.000Z</time>
      </trkpt>
      <trkpt lat="42.96855" lon="2.02742">
        <ele>408.25</ele>
        <time>2024-09-19T13:51:14.000Z</time>
      </trkpt>
      <trkpt lat="42.96836" lon="2.02728">
        <ele>408.32</ele>
        <time>2024-09-19T13:51:19.000Z</time>
      </trkpt>
      <trkpt lat="42.9682" lon="2.02711">
        <ele>408.34</ele>
        <time>2024-09-19T13:51:24.000Z</time>
      </trkpt>
      <trkpt lat="42.96805" lon="2.02693">
        <ele>408.53</ele>
        <time>2024-09-19T13:51:29.000Z</time>
      </trkpt>
      <trkpt lat="42.96789" lon="2.02677">
        <ele>408.67</ele>
        <time>2024-09-19T13:51:34.000Z</time>
      </trkpt>
      <trkpt lat="42.96773" lon="2.02667">
        <ele>408.79</ele>
        <time>2024-09-19T13:51:39.000Z</time>
      </trkpt>
      <trkpt lat="42.96754" lon="2.02663">
        <ele>408.89</ele>
        <time>2024-09-19T13:51:44.000Z</time>
      </trkpt>
      <trkpt lat="42.96735" lon="2.0267">
        <ele>408.96</ele>
        <time>2024-09-19T13:51:49.000Z</time>
      </trkpt>
      <trkpt lat="42.96718" lon="2.02686">
        <ele>409</ele>
        <time>2024-09-19T13:51:54.000Z</time>
      </trkpt>
      <trkpt lat="42.96702" lon="2.02703">
        <ele>409.01</ele>
        <time>2024-09-19T13:51:59.000Z</time>
      </trkpt>
      <trkpt lat="42.96686" lon="2.0272">
        <ele>409</ele>
        <time>2024-09-19T13:52:04.000Z</time>
      </trkpt>
      <trkpt lat="42.96669" lon="2.02739">
        <ele>408.96</ele>
        <time>2024-09-19T13:52:09.000Z</time>
      </trkpt>
      <trkpt lat="42.9665" lon="2.02761">
        <ele>408.95</ele>
        <time>2024-09-19T13:52:14.000Z</time>
      </trkpt>
      <trkpt lat="42.96634" lon="2.0278">
        <ele>408.97</ele>
        <time>2024-09-19T13:52:19.000Z</time>
      </trkpt>
      <trkpt lat="42.96617" lon="2.02801">
        <ele>408.98</ele>
        <time>2024-09-19T13:52:24.000Z</time>
      </trkpt>
      <trkpt lat="42.96601" lon="2.02817">
        <ele>409.01</ele>
        <time>2024-09-19T13:52:29.000Z</time>
      </trkpt>
      <trkpt lat="42.96583" lon="2.02839">
        <ele>409.03</ele>
        <time>2024-09-19T13:52:34.000Z</time>
      </trkpt>
      <trkpt lat="42.96564" lon="2.02855">
        <ele>409.04</ele>
        <time>2024-09-19T13:52:39.000Z</time>
      </trkpt>
      <trkpt lat="42.96542" lon="2.02873">
        <ele>409.05</ele>
        <time>2024-09-19T13:52:44.000Z</time>
      </trkpt>
      <trkpt lat="42.96517" lon="2.02898">
        <ele>409.04</ele>
        <time>2024-09-19T13:52:49.000Z</time>
      </trkpt>
      <trkpt lat="42.96499" lon="2.02911">
        <ele>409.06</ele>
        <time>2024-09-19T13:52:54.000Z</time>
      </trkpt>
      <trkpt lat="42.9648" lon="2.02925">
        <ele>409.06</ele>
        <time>2024-09-19T13:52:59.000Z</time>
      </trkpt>
      <trkpt lat="42.96457" lon="2.02944">
        <ele>409.07</ele>
        <time>2024-09-19T13:53:04.000Z</time>
      </trkpt>
      <trkpt lat="42.96435" lon="2.02959">
        <ele>409.05</ele>
        <time>2024-09-19T13:53:09.000Z</time>
      </trkpt>
      <trkpt lat="42.96413" lon="2.02973">
        <ele>408.98</ele>
        <time>2024-09-19T13:53:14.000Z</time>
      </trkpt>
      <trkpt lat="42.96392" lon="2.02984">
        <ele>408.9</ele>
        <time>2024-09-19T13:53:19.000Z</time>
      </trkpt>
      <trkpt lat="42.96372" lon="2.02995">
        <ele>408.81</ele>
        <time>2024-09-19T13:53:24.000Z</time>
      </trkpt>
      <trkpt lat="42.96351" lon="2.03009">
        <ele>408.76</ele>
        <time>2024-09-19T13:53:29.000Z</time>
      </trkpt>
      <trkpt lat="42.9633" lon="2.03022">
        <ele>408.75</ele>
        <time>2024-09-19T13:53:34.000Z</time>
      </trkpt>
      <trkpt lat="42.96306" lon="2.03036">
        <ele>408.84</ele>
        <time>2024-09-19T13:53:39.000Z</time>
      </trkpt>
      <trkpt lat="42.96282" lon="2.03042">
        <ele>409.03</ele>
        <time>2024-09-19T13:53:44.000Z</time>
      </trkpt>
      <trkpt lat="42.96257" lon="2.03045">
        <ele>409.26</ele>
        <time>2024-09-19T13:53:49.000Z</time>
      </trkpt>
      <trkpt lat="42.96232" lon="2.03045">
        <ele>409.46</ele>
        <time>2024-09-19T13:53:54.000Z</time>
      </trkpt>
      <trkpt lat="42.96208" lon="2.03041">
        <ele>409.65</ele>
        <time>2024-09-19T13:53:59.000Z</time>
      </trkpt>
      <trkpt lat="42.96179" lon="2.03036">
        <ele>409.82</ele>
        <time>2024-09-19T13:54:04.999Z</time>
      </trkpt>
      <trkpt lat="42.96155" lon="2.03035">
        <ele>410</ele>
        <time>2024-09-19T13:54:09.999Z</time>
      </trkpt>
      <trkpt lat="42.96132" lon="2.03043">
        <ele>410.17</ele>
        <time>2024-09-19T13:54:14.999Z</time>
      </trkpt>
      <trkpt lat="42.96109" lon="2.03052">
        <ele>410.31</ele>
        <time>2024-09-19T13:54:19.999Z</time>
      </trkpt>
      <trkpt lat="42.96084" lon="2.03051">
        <ele>410.41</ele>
        <time>2024-09-19T13:54:24.999Z</time>
      </trkpt>
      <trkpt lat="42.96061" lon="2.03041">
        <ele>410.48</ele>
        <time>2024-09-19T13:54:29.999Z</time>
      </trkpt>
      <trkpt lat="42.96041" lon="2.03035">
        <ele>410.57</ele>
        <time>2024-09-19T13:54:34.999Z</time>
      </trkpt>
      <trkpt lat="42.9602" lon="2.03031">
        <ele>410.65</ele>
        <time>2024-09-19T13:54:39.999Z</time>
      </trkpt>
      <trkpt lat="42.95999" lon="2.03034">
        <ele>410.7</ele>
        <time>2024-09-19T13:54:44.999Z</time>
      </trkpt>
      <trkpt lat="42.95977" lon="2.03043">
        <ele>410.76</ele>
        <time>2024-09-19T13:54:49.999Z</time>
      </trkpt>
      <trkpt lat="42.95955" lon="2.03052">
        <ele>410.83</ele>
        <time>2024-09-19T13:54:54.999Z</time>
      </trkpt>
      <trkpt lat="42.95933" lon="2.03059">
        <ele>410.91</ele>
        <time>2024-09-19T13:54:59.999Z</time>
      </trkpt>
      <trkpt lat="42.95911" lon="2.03064">
        <ele>411.01</ele>
        <time>2024-09-19T13:55:04.999Z</time>
      </trkpt>
      <trkpt lat="42.9589" lon="2.03069">
        <ele>411.13</ele>
        <time>2024-09-19T13:55:09.999Z</time>
      </trkpt>
      <trkpt lat="42.95868" lon="2.03072">
        <ele>411.26</ele>
        <time>2024-09-19T13:55:14.999Z</time>
      </trkpt>
      <trkpt lat="42.95848" lon="2.03076">
        <ele>411.41</ele>
        <time>2024-09-19T13:55:19.999Z</time>
      </trkpt>
      <trkpt lat="42.95829" lon="2.0308">
        <ele>411.58</ele>
        <time>2024-09-19T13:55:24.999Z</time>
      </trkpt>
      <trkpt lat="42.95809" lon="2.03083">
        <ele>411.75</ele>
        <time>2024-09-19T13:55:29.999Z</time>
      </trkpt>
      <trkpt lat="42.95789" lon="2.03088">
        <ele>411.93</ele>
        <time>2024-09-19T13:55:34.999Z</time>
      </trkpt>
      <trkpt lat="42.95767" lon="2.03091">
        <ele>412.11</ele>
        <time>2024-09-19T13:55:39.999Z</time>
      </trkpt>
      <trkpt lat="42.95746" lon="2.03095">
        <ele>412.3</ele>
        <time>2024-09-19T13:55:44.999Z</time>
      </trkpt>
      <trkpt lat="42.95725" lon="2.03098">
        <ele>412.52</ele>
        <time>2024-09-19T13:55:49.999Z</time>
      </trkpt>
      <trkpt lat="42.95704" lon="2.03103">
        <ele>412.76</ele>
        <time>2024-09-19T13:55:54.999Z</time>
      </trkpt>
      <trkpt lat="42.95682" lon="2.03106">
        <ele>412.99</ele>
        <time>2024-09-19T13:55:59.999Z</time>
      </trkpt>
      <trkpt lat="42.95659" lon="2.0311">
        <ele>413.2</ele>
        <time>2024-09-19T13:56:04.999Z</time>
      </trkpt>
      <trkpt lat="42.95637" lon="2.03114">
        <ele>413.39</ele>
        <time>2024-09-19T13:56:09.999Z</time>
      </trkpt>
      <trkpt lat="42.95615" lon="2.03118">
        <ele>413.56</ele>
        <time>2024-09-19T13:56:14.999Z</time>
      </trkpt>
      <trkpt lat="42.95594" lon="2.03122">
        <ele>413.72</ele>
        <time>2024-09-19T13:56:19.999Z</time>
      </trkpt>
      <trkpt lat="42.95572" lon="2.03126">
        <ele>413.86</ele>
        <time>2024-09-19T13:56:24.999Z</time>
      </trkpt>
      <trkpt lat="42.9555" lon="2.0313">
        <ele>413.99</ele>
        <time>2024-09-19T13:56:29.999Z</time>
      </trkpt>
      <trkpt lat="42.95528" lon="2.03132">
        <ele>414.11</ele>
        <time>2024-09-19T13:56:34.999Z</time>
      </trkpt>
      <trkpt lat="42.95506" lon="2.03132">
        <ele>414.23</ele>
        <time>2024-09-19T13:56:39.999Z</time>
      </trkpt>
      <trkpt lat="42.95484" lon="2.03128">
        <ele>414.33</ele>
        <time>2024-09-19T13:56:44.999Z</time>
      </trkpt>
      <trkpt lat="42.95476" lon="2.03123">
        <ele>414.45</ele>
        <time>2024-09-19T13:57:36.999Z</time>
      </trkpt>
      <trkpt lat="42.95464" lon="2.03121">
        <ele>414.96</ele>
        <time>2024-09-19T13:59:12.999Z</time>
      </trkpt>
      <trkpt lat="42.95447" lon="2.03115">
        <ele>415.65</ele>
        <time>2024-09-19T13:59:17.999Z</time>
      </trkpt>
      <trkpt lat="42.95429" lon="2.0311">
        <ele>416.15</ele>
        <time>2024-09-19T13:59:22.999Z</time>
      </trkpt>
      <trkpt lat="42.95412" lon="2.0311">
        <ele>416.31</ele>
        <time>2024-09-19T13:59:27.999Z</time>
      </trkpt>
      <trkpt lat="42.95392" lon="2.03113">
        <ele>416.77</ele>
        <time>2024-09-19T13:59:32.999Z</time>
      </trkpt>
      <trkpt lat="42.95371" lon="2.03118">
        <ele>416.97</ele>
        <time>2024-09-19T13:59:37.999Z</time>
      </trkpt>
      <trkpt lat="42.9535" lon="2.03122">
        <ele>417.11</ele>
        <time>2024-09-19T13:59:42.999Z</time>
      </trkpt>
      <trkpt lat="42.95329" lon="2.0313">
        <ele>417.21</ele>
        <time>2024-09-19T13:59:47.999Z</time>
      </trkpt>
      <trkpt lat="42.95308" lon="2.03142">
        <ele>417.27</ele>
        <time>2024-09-19T13:59:52.999Z</time>
      </trkpt>
      <trkpt lat="42.95288" lon="2.03158">
        <ele>417.33</ele>
        <time>2024-09-19T13:59:57.999Z</time>
      </trkpt>
      <trkpt lat="42.95271" lon="2.03176">
        <ele>417.42</ele>
        <time>2024-09-19T14:00:02.999Z</time>
      </trkpt>
      <trkpt lat="42.95254" lon="2.03195">
        <ele>417.53</ele>
        <time>2024-09-19T14:00:07.999Z</time>
      </trkpt>
      <trkpt lat="42.95237" lon="2.03216">
        <ele>417.64</ele>
        <time>2024-09-19T14:00:12.999Z</time>
      </trkpt>
      <trkpt lat="42.95222" lon="2.03238">
        <ele>417.73</ele>
        <time>2024-09-19T14:00:17.999Z</time>
      </trkpt>
      <trkpt lat="42.95206" lon="2.03259">
        <ele>417.79</ele>
        <time>2024-09-19T14:00:22.999Z</time>
      </trkpt>
      <trkpt lat="42.95191" lon="2.03284">
        <ele>417.82</ele>
        <time>2024-09-19T14:00:27.999Z</time>
      </trkpt>
      <trkpt lat="42.95175" lon="2.03308">
        <ele>417.84</ele>
        <time>2024-09-19T14:00:32.999Z</time>
      </trkpt>
      <trkpt lat="42.95158" lon="2.03332">
        <ele>417.85</ele>
        <time>2024-09-19T14:00:37.999Z</time>
      </trkpt>
      <trkpt lat="42.95144" lon="2.03356">
        <ele>417.89</ele>
        <time>2024-09-19T14:00:42.999Z</time>
      </trkpt>
      <trkpt lat="42.95129" lon="2.0338">
        <ele>417.91</ele>
        <time>2024-09-19T14:00:47.999Z</time>
      </trkpt>
      <trkpt lat="42.95115" lon="2.03406">
        <ele>417.94</ele>
        <time>2024-09-19T14:00:52.999Z</time>
      </trkpt>
      <trkpt lat="42.95098" lon="2.03427">
        <ele>417.98</ele>
        <time>2024-09-19T14:00:57.999Z</time>
      </trkpt>
      <trkpt lat="42.95079" lon="2.03446">
        <ele>418.04</ele>
        <time>2024-09-19T14:01:02.999Z</time>
      </trkpt>
      <trkpt lat="42.95059" lon="2.03463">
        <ele>418.12</ele>
        <time>2024-09-19T14:01:07.999Z</time>
      </trkpt>
      <trkpt lat="42.9504" lon="2.03479">
        <ele>418.2</ele>
        <time>2024-09-19T14:01:12.999Z</time>
      </trkpt>
      <trkpt lat="42.95022" lon="2.03494">
        <ele>418.24</ele>
        <time>2024-09-19T14:01:17.999Z</time>
      </trkpt>
      <trkpt lat="42.95003" lon="2.03511">
        <ele>418.3</ele>
        <time>2024-09-19T14:01:22.999Z</time>
      </trkpt>
      <trkpt lat="42.94983" lon="2.03528">
        <ele>418.38</ele>
        <time>2024-09-19T14:01:27.999Z</time>
      </trkpt>
      <trkpt lat="42.94963" lon="2.03546">
        <ele>418.45</ele>
        <time>2024-09-19T14:01:32.999Z</time>
      </trkpt>
      <trkpt lat="42.94943" lon="2.03562">
        <ele>418.54</ele>
        <time>2024-09-19T14:01:37.999Z</time>
      </trkpt>
      <trkpt lat="42.9492" lon="2.03576">
        <ele>418.68</ele>
        <time>2024-09-19T14:01:42.999Z</time>
      </trkpt>
      <trkpt lat="42.94897" lon="2.03587">
        <ele>418.84</ele>
        <time>2024-09-19T14:01:47.999Z</time>
      </trkpt>
      <trkpt lat="42.94873" lon="2.03595">
        <ele>418.98</ele>
        <time>2024-09-19T14:01:52.999Z</time>
      </trkpt>
      <trkpt lat="42.94848" lon="2.03603">
        <ele>419.1</ele>
        <time>2024-09-19T14:01:57.999Z</time>
      </trkpt>
      <trkpt lat="42.94823" lon="2.03608">
        <ele>419.19</ele>
        <time>2024-09-19T14:02:02.999Z</time>
      </trkpt>
      <trkpt lat="42.94798" lon="2.03611">
        <ele>419.28</ele>
        <time>2024-09-19T14:02:07.999Z</time>
      </trkpt>
      <trkpt lat="42.94776" lon="2.03612">
        <ele>419.38</ele>
        <time>2024-09-19T14:02:12.999Z</time>
      </trkpt>
      <trkpt lat="42.94753" lon="2.03612">
        <ele>419.45</ele>
        <time>2024-09-19T14:02:17.999Z</time>
      </trkpt>
      <trkpt lat="42.9473" lon="2.03612">
        <ele>419.69</ele>
        <time>2024-09-19T14:02:22.999Z</time>
      </trkpt>
      <trkpt lat="42.94706" lon="2.03616">
        <ele>419.87</ele>
        <time>2024-09-19T14:02:27.999Z</time>
      </trkpt>
      <trkpt lat="42.94683" lon="2.03619">
        <ele>420.1</ele>
        <time>2024-09-19T14:02:32.999Z</time>
      </trkpt>
      <trkpt lat="42.94659" lon="2.03621">
        <ele>420.43</ele>
        <time>2024-09-19T14:02:37.999Z</time>
      </trkpt>
      <trkpt lat="42.94637" lon="2.03624">
        <ele>420.8</ele>
        <time>2024-09-19T14:02:42.999Z</time>
      </trkpt>
      <trkpt lat="42.9462" lon="2.03629">
        <ele>420.86</ele>
        <time>2024-09-19T14:02:47.999Z</time>
      </trkpt>
      <trkpt lat="42.94608" lon="2.03632">
        <ele>420.92</ele>
        <time>2024-09-19T14:02:52.999Z</time>
      </trkpt>
      <trkpt lat="42.94599" lon="2.03633">
        <ele>421.06</ele>
        <time>2024-09-19T14:03:13.999Z</time>
      </trkpt>
      <trkpt lat="42.94579" lon="2.03637">
        <ele>421.56</ele>
        <time>2024-09-19T14:03:18.999Z</time>
      </trkpt>
      <trkpt lat="42.94556" lon="2.03642">
        <ele>422.01</ele>
        <time>2024-09-19T14:03:23.999Z</time>
      </trkpt>
      <trkpt lat="42.94533" lon="2.03646">
        <ele>422.57</ele>
        <time>2024-09-19T14:03:28.999Z</time>
      </trkpt>
      <trkpt lat="42.94513" lon="2.03648">
        <ele>422.9</ele>
        <time>2024-09-19T14:03:33.999Z</time>
      </trkpt>
      <trkpt lat="42.945" lon="2.03652">
        <ele>423.03</ele>
        <time>2024-09-19T14:03:38.999Z</time>
      </trkpt>
      <trkpt lat="42.94488" lon="2.03655">
        <ele>423.22</ele>
        <time>2024-09-19T14:03:43.999Z</time>
      </trkpt>
      <trkpt lat="42.94498" lon="2.03655">
        <ele>423.86</ele>
        <time>2024-09-19T14:04:08.999Z</time>
      </trkpt>
      <trkpt lat="42.94494" lon="2.03666">
        <ele>424.49</ele>
        <time>2024-09-19T14:05:44.999Z</time>
      </trkpt>
      <trkpt lat="42.9449" lon="2.03678">
        <ele>425.03</ele>
        <time>2024-09-19T14:07:40.000Z</time>
      </trkpt>
      <trkpt lat="42.94481" lon="2.03681">
        <ele>425.16</ele>
        <time>2024-09-19T14:07:45.000Z</time>
      </trkpt>
      <trkpt lat="42.94469" lon="2.03682">
        <ele>425.42</ele>
        <time>2024-09-19T14:08:02.000Z</time>
      </trkpt>
      <trkpt lat="42.94456" lon="2.03686">
        <ele>425.56</ele>
        <time>2024-09-19T14:08:07.000Z</time>
      </trkpt>
      <trkpt lat="42.94443" lon="2.03694">
        <ele>425.7</ele>
        <time>2024-09-19T14:08:12.000Z</time>
      </trkpt>
      <trkpt lat="42.94434" lon="2.03699">
        <ele>425.84</ele>
        <time>2024-09-19T14:08:17.000Z</time>
      </trkpt>
      <trkpt lat="42.9442" lon="2.03706">
        <ele>425.99</ele>
        <time>2024-09-19T14:08:22.000Z</time>
      </trkpt>
      <trkpt lat="42.94407" lon="2.03714">
        <ele>426.17</ele>
        <time>2024-09-19T14:08:27.000Z</time>
      </trkpt>
      <trkpt lat="42.94394" lon="2.03716">
        <ele>426.37</ele>
        <time>2024-09-19T14:08:32.000Z</time>
      </trkpt>
      <trkpt lat="42.94382" lon="2.03719">
        <ele>426.59</ele>
        <time>2024-09-19T14:08:37.000Z</time>
      </trkpt>
      <trkpt lat="42.9437" lon="2.0372">
        <ele>426.82</ele>
        <time>2024-09-19T14:08:42.000Z</time>
      </trkpt>
      <trkpt lat="42.94359" lon="2.03724">
        <ele>427.07</ele>
        <time>2024-09-19T14:08:47.000Z</time>
      </trkpt>
      <trkpt lat="42.94348" lon="2.03723">
        <ele>427.33</ele>
        <time>2024-09-19T14:08:52.000Z</time>
      </trkpt>
      <trkpt lat="42.94333" lon="2.03733">
        <ele>427.6</ele>
        <time>2024-09-19T14:08:57.000Z</time>
      </trkpt>
      <trkpt lat="42.94316" lon="2.03732">
        <ele>427.9</ele>
        <time>2024-09-19T14:09:02.000Z</time>
      </trkpt>
      <trkpt lat="42.94306" lon="2.03728">
        <ele>428.2</ele>
        <time>2024-09-19T14:09:07.000Z</time>
      </trkpt>
      <trkpt lat="42.94297" lon="2.03724">
        <ele>428.51</ele>
        <time>2024-09-19T14:09:12.000Z</time>
      </trkpt>
      <trkpt lat="42.94279" lon="2.03725">
        <ele>428.79</ele>
        <time>2024-09-19T14:09:17.000Z</time>
      </trkpt>
      <trkpt lat="42.94266" lon="2.03731">
        <ele>429.04</ele>
        <time>2024-09-19T14:09:22.000Z</time>
      </trkpt>
      <trkpt lat="42.94255" lon="2.03731">
        <ele>429.28</ele>
        <time>2024-09-19T14:09:27.000Z</time>
      </trkpt>
      <trkpt lat="42.94246" lon="2.03741">
        <ele>429.55</ele>
        <time>2024-09-19T14:09:33.000Z</time>
      </trkpt>
      <trkpt lat="42.94228" lon="2.03761">
        <ele>429.8</ele>
        <time>2024-09-19T14:09:38.000Z</time>
      </trkpt>
      <trkpt lat="42.94212" lon="2.03779">
        <ele>430.13</ele>
        <time>2024-09-19T14:09:43.000Z</time>
      </trkpt>
      <trkpt lat="42.942" lon="2.03791">
        <ele>430.51</ele>
        <time>2024-09-19T14:09:48.000Z</time>
      </trkpt>
      <trkpt lat="42.94189" lon="2.03799">
        <ele>430.95</ele>
        <time>2024-09-19T14:09:53.000Z</time>
      </trkpt>
      <trkpt lat="42.94178" lon="2.03805">
        <ele>431.43</ele>
        <time>2024-09-19T14:09:58.000Z</time>
      </trkpt>
      <trkpt lat="42.94161" lon="2.03806">
        <ele>431.91</ele>
        <time>2024-09-19T14:10:03.000Z</time>
      </trkpt>
      <trkpt lat="42.94146" lon="2.03807">
        <ele>432.33</ele>
        <time>2024-09-19T14:10:08.000Z</time>
      </trkpt>
      <trkpt lat="42.94133" lon="2.03813">
        <ele>432.68</ele>
        <time>2024-09-19T14:10:13.000Z</time>
      </trkpt>
      <trkpt lat="42.94123" lon="2.03825">
        <ele>433.03</ele>
        <time>2024-09-19T14:10:18.000Z</time>
      </trkpt>
      <trkpt lat="42.94114" lon="2.0383">
        <ele>433.35</ele>
        <time>2024-09-19T14:10:23.000Z</time>
      </trkpt>
      <trkpt lat="42.94107" lon="2.03845">
        <ele>433.63</ele>
        <time>2024-09-19T14:10:28.000Z</time>
      </trkpt>
      <trkpt lat="42.94101" lon="2.03859">
        <ele>433.89</ele>
        <time>2024-09-19T14:10:33.000Z</time>
      </trkpt>
      <trkpt lat="42.94092" lon="2.03881">
        <ele>434.09</ele>
        <time>2024-09-19T14:10:38.000Z</time>
      </trkpt>
      <trkpt lat="42.94081" lon="2.03909">
        <ele>434.37</ele>
        <time>2024-09-19T14:10:43.000Z</time>
      </trkpt>
      <trkpt lat="42.94067" lon="2.03928">
        <ele>434.73</ele>
        <time>2024-09-19T14:10:48.000Z</time>
      </trkpt>
      <trkpt lat="42.94053" lon="2.03939">
        <ele>435.11</ele>
        <time>2024-09-19T14:10:53.000Z</time>
      </trkpt>
      <trkpt lat="42.9404" lon="2.03944">
        <ele>435.51</ele>
        <time>2024-09-19T14:10:58.000Z</time>
      </trkpt>
      <trkpt lat="42.9403" lon="2.03945">
        <ele>435.94</ele>
        <time>2024-09-19T14:11:03.000Z</time>
      </trkpt>
      <trkpt lat="42.94018" lon="2.03942">
        <ele>436.43</ele>
        <time>2024-09-19T14:11:08.000Z</time>
      </trkpt>
      <trkpt lat="42.94003" lon="2.03942">
        <ele>436.92</ele>
        <time>2024-09-19T14:11:13.000Z</time>
      </trkpt>
      <trkpt lat="42.93989" lon="2.0395">
        <ele>437.46</ele>
        <time>2024-09-19T14:11:18.000Z</time>
      </trkpt>
      <trkpt lat="42.93978" lon="2.03961">
        <ele>438.28</ele>
        <time>2024-09-19T14:11:23.000Z</time>
      </trkpt>
      <trkpt lat="42.93968" lon="2.03968">
        <ele>439.26</ele>
        <time>2024-09-19T14:11:28.000Z</time>
      </trkpt>
      <trkpt lat="42.93958" lon="2.03976">
        <ele>440.31</ele>
        <time>2024-09-19T14:11:33.000Z</time>
      </trkpt>
      <trkpt lat="42.9395" lon="2.03987">
        <ele>441.43</ele>
        <time>2024-09-19T14:11:38.000Z</time>
      </trkpt>
      <trkpt lat="42.93942" lon="2.03997">
        <ele>442.6</ele>
        <time>2024-09-19T14:11:43.000Z</time>
      </trkpt>
      <trkpt lat="42.93934" lon="2.04007">
        <ele>443.77</ele>
        <time>2024-09-19T14:11:48.000Z</time>
      </trkpt>
      <trkpt lat="42.93928" lon="2.04018">
        <ele>444.88</ele>
        <time>2024-09-19T14:11:53.000Z</time>
      </trkpt>
      <trkpt lat="42.93922" lon="2.0403">
        <ele>445.95</ele>
        <time>2024-09-19T14:11:58.000Z</time>
      </trkpt>
      <trkpt lat="42.93919" lon="2.04043">
        <ele>446.94</ele>
        <time>2024-09-19T14:12:03.000Z</time>
      </trkpt>
      <trkpt lat="42.93917" lon="2.04059">
        <ele>447.84</ele>
        <time>2024-09-19T14:12:08.000Z</time>
      </trkpt>
      <trkpt lat="42.93914" lon="2.04075">
        <ele>448.67</ele>
        <time>2024-09-19T14:12:13.000Z</time>
      </trkpt>
      <trkpt lat="42.93911" lon="2.04092">
        <ele>449.44</ele>
        <time>2024-09-19T14:12:18.000Z</time>
      </trkpt>
      <trkpt lat="42.93908" lon="2.04108">
        <ele>450.17</ele>
        <time>2024-09-19T14:12:23.000Z</time>
      </trkpt>
      <trkpt lat="42.93905" lon="2.04125">
        <ele>450.86</ele>
        <time>2024-09-19T14:12:28.000Z</time>
      </trkpt>
      <trkpt lat="42.93903" lon="2.04141">
        <ele>451.53</ele>
        <time>2024-09-19T14:12:33.000Z</time>
      </trkpt>
      <trkpt lat="42.93901" lon="2.04158">
        <ele>452.17</ele>
        <time>2024-09-19T14:12:38.000Z</time>
      </trkpt>
      <trkpt lat="42.93898" lon="2.04174">
        <ele>452.78</ele>
        <time>2024-09-19T14:12:43.000Z</time>
      </trkpt>
      <trkpt lat="42.93895" lon="2.0419">
        <ele>453.36</ele>
        <time>2024-09-19T14:12:48.000Z</time>
      </trkpt>
      <trkpt lat="42.93892" lon="2.04206">
        <ele>453.91</ele>
        <time>2024-09-19T14:12:53.000Z</time>
      </trkpt>
      <trkpt lat="42.9389" lon="2.04223">
        <ele>454.44</ele>
        <time>2024-09-19T14:12:58.000Z</time>
      </trkpt>
      <trkpt lat="42.93886" lon="2.0424">
        <ele>454.95</ele>
        <time>2024-09-19T14:13:03.000Z</time>
      </trkpt>
      <trkpt lat="42.93881" lon="2.04256">
        <ele>455.44</ele>
        <time>2024-09-19T14:13:08.000Z</time>
      </trkpt>
      <trkpt lat="42.93876" lon="2.04273">
        <ele>455.91</ele>
        <time>2024-09-19T14:13:13.000Z</time>
      </trkpt>
      <trkpt lat="42.93871" lon="2.04289">
        <ele>456.35</ele>
        <time>2024-09-19T14:13:18.000Z</time>
      </trkpt>
      <trkpt lat="42.93866" lon="2.04304">
        <ele>456.76</ele>
        <time>2024-09-19T14:13:23.000Z</time>
      </trkpt>
      <trkpt lat="42.9386" lon="2.04319">
        <ele>457.16</ele>
        <time>2024-09-19T14:13:28.000Z</time>
      </trkpt>
      <trkpt lat="42.93855" lon="2.04334">
        <ele>457.55</ele>
        <time>2024-09-19T14:13:33.000Z</time>
      </trkpt>
      <trkpt lat="42.9385" lon="2.04347">
        <ele>457.92</ele>
        <time>2024-09-19T14:13:38.000Z</time>
      </trkpt>
      <trkpt lat="42.93845" lon="2.04358">
        <ele>458.37</ele>
        <time>2024-09-19T14:13:44.000Z</time>
      </trkpt>
      <trkpt lat="42.9384" lon="2.0437">
        <ele>458.72</ele>
        <time>2024-09-19T14:13:49.000Z</time>
      </trkpt>
      <trkpt lat="42.9383" lon="2.04385">
        <ele>459.04</ele>
        <time>2024-09-19T14:13:54.000Z</time>
      </trkpt>
      <trkpt lat="42.9382" lon="2.04398">
        <ele>459.33</ele>
        <time>2024-09-19T14:13:59.000Z</time>
      </trkpt>
      <trkpt lat="42.9381" lon="2.04408">
        <ele>459.6</ele>
        <time>2024-09-19T14:14:04.000Z</time>
      </trkpt>
      <trkpt lat="42.93799" lon="2.04418">
        <ele>459.84</ele>
        <time>2024-09-19T14:14:09.000Z</time>
      </trkpt>
      <trkpt lat="42.9379" lon="2.04429">
        <ele>460.06</ele>
        <time>2024-09-19T14:14:14.000Z</time>
      </trkpt>
      <trkpt lat="42.93781" lon="2.04439">
        <ele>460.28</ele>
        <time>2024-09-19T14:14:19.000Z</time>
      </trkpt>
      <trkpt lat="42.93772" lon="2.04451">
        <ele>460.48</ele>
        <time>2024-09-19T14:14:24.000Z</time>
      </trkpt>
      <trkpt lat="42.93764" lon="2.04465">
        <ele>460.67</ele>
        <time>2024-09-19T14:14:29.000Z</time>
      </trkpt>
      <trkpt lat="42.93758" lon="2.04477">
        <ele>460.86</ele>
        <time>2024-09-19T14:14:34.000Z</time>
      </trkpt>
      <trkpt lat="42.93752" lon="2.0449">
        <ele>461.04</ele>
        <time>2024-09-19T14:14:39.000Z</time>
      </trkpt>
      <trkpt lat="42.93745" lon="2.04503">
        <ele>461.23</ele>
        <time>2024-09-19T14:14:44.000Z</time>
      </trkpt>
      <trkpt lat="42.93736" lon="2.04517">
        <ele>461.41</ele>
        <time>2024-09-19T14:14:49.000Z</time>
      </trkpt>
      <trkpt lat="42.93727" lon="2.04532">
        <ele>461.58</ele>
        <time>2024-09-19T14:14:54.000Z</time>
      </trkpt>
      <trkpt lat="42.93717" lon="2.04544">
        <ele>461.75</ele>
        <time>2024-09-19T14:14:59.000Z</time>
      </trkpt>
      <trkpt lat="42.93707" lon="2.04554">
        <ele>461.93</ele>
        <time>2024-09-19T14:15:04.000Z</time>
      </trkpt>
      <trkpt lat="42.93697" lon="2.04565">
        <ele>462.1</ele>
        <time>2024-09-19T14:15:09.000Z</time>
      </trkpt>
      <trkpt lat="42.9369" lon="2.04576">
        <ele>462.28</ele>
        <time>2024-09-19T14:15:14.000Z</time>
      </trkpt>
      <trkpt lat="42.93684" lon="2.04594">
        <ele>462.46</ele>
        <time>2024-09-19T14:15:19.000Z</time>
      </trkpt>
      <trkpt lat="42.93681" lon="2.04613">
        <ele>462.65</ele>
        <time>2024-09-19T14:15:24.000Z</time>
      </trkpt>
      <trkpt lat="42.93683" lon="2.04629">
        <ele>462.87</ele>
        <time>2024-09-19T14:15:29.000Z</time>
      </trkpt>
      <trkpt lat="42.93688" lon="2.04645">
        <ele>463.1</ele>
        <time>2024-09-19T14:15:34.000Z</time>
      </trkpt>
      <trkpt lat="42.93694" lon="2.0466">
        <ele>463.35</ele>
        <time>2024-09-19T14:15:39.000Z</time>
      </trkpt>
      <trkpt lat="42.937" lon="2.04674">
        <ele>463.61</ele>
        <time>2024-09-19T14:15:44.000Z</time>
      </trkpt>
      <trkpt lat="42.93705" lon="2.04688">
        <ele>463.89</ele>
        <time>2024-09-19T14:15:49.000Z</time>
      </trkpt>
      <trkpt lat="42.93711" lon="2.04703">
        <ele>464.19</ele>
        <time>2024-09-19T14:15:54.000Z</time>
      </trkpt>
      <trkpt lat="42.93715" lon="2.0472">
        <ele>464.49</ele>
        <time>2024-09-19T14:15:59.000Z</time>
      </trkpt>
      <trkpt lat="42.93718" lon="2.04733">
        <ele>464.8</ele>
        <time>2024-09-19T14:16:04.000Z</time>
      </trkpt>
      <trkpt lat="42.9372" lon="2.04749">
        <ele>465.11</ele>
        <time>2024-09-19T14:16:09.000Z</time>
      </trkpt>
      <trkpt lat="42.9372" lon="2.04766">
        <ele>465.43</ele>
        <time>2024-09-19T14:16:14.000Z</time>
      </trkpt>
      <trkpt lat="42.93717" lon="2.04783">
        <ele>465.75</ele>
        <time>2024-09-19T14:16:19.000Z</time>
      </trkpt>
      <trkpt lat="42.93715" lon="2.048">
        <ele>466.07</ele>
        <time>2024-09-19T14:16:24.000Z</time>
      </trkpt>
      <trkpt lat="42.93715" lon="2.04816">
        <ele>466.4</ele>
        <time>2024-09-19T14:16:29.000Z</time>
      </trkpt>
      <trkpt lat="42.93715" lon="2.04831">
        <ele>466.74</ele>
        <time>2024-09-19T14:16:34.000Z</time>
      </trkpt>
      <trkpt lat="42.93715" lon="2.04847">
        <ele>467.08</ele>
        <time>2024-09-19T14:16:39.000Z</time>
      </trkpt>
      <trkpt lat="42.93717" lon="2.04864">
        <ele>467.42</ele>
        <time>2024-09-19T14:16:44.000Z</time>
      </trkpt>
      <trkpt lat="42.93719" lon="2.04879">
        <ele>467.76</ele>
        <time>2024-09-19T14:16:49.000Z</time>
      </trkpt>
      <trkpt lat="42.93722" lon="2.04896">
        <ele>468.09</ele>
        <time>2024-09-19T14:16:54.000Z</time>
      </trkpt>
      <trkpt lat="42.93724" lon="2.04912">
        <ele>468.43</ele>
        <time>2024-09-19T14:16:59.000Z</time>
      </trkpt>
      <trkpt lat="42.93722" lon="2.0493">
        <ele>468.76</ele>
        <time>2024-09-19T14:17:04.000Z</time>
      </trkpt>
      <trkpt lat="42.93717" lon="2.04945">
        <ele>469.09</ele>
        <time>2024-09-19T14:17:09.000Z</time>
      </trkpt>
      <trkpt lat="42.93708" lon="2.04956">
        <ele>469.42</ele>
        <time>2024-09-19T14:17:14.000Z</time>
      </trkpt>
      <trkpt lat="42.93697" lon="2.04964">
        <ele>469.73</ele>
        <time>2024-09-19T14:17:19.000Z</time>
      </trkpt>
      <trkpt lat="42.93687" lon="2.04973">
        <ele>470.03</ele>
        <time>2024-09-19T14:17:24.000Z</time>
      </trkpt>
      <trkpt lat="42.93678" lon="2.04983">
        <ele>470.31</ele>
        <time>2024-09-19T14:17:29.000Z</time>
      </trkpt>
      <trkpt lat="42.93672" lon="2.04997">
        <ele>470.58</ele>
        <time>2024-09-19T14:17:34.000Z</time>
      </trkpt>
      <trkpt lat="42.93667" lon="2.05018">
        <ele>470.84</ele>
        <time>2024-09-19T14:17:39.000Z</time>
      </trkpt>
      <trkpt lat="42.93666" lon="2.05038">
        <ele>471.09</ele>
        <time>2024-09-19T14:17:44.000Z</time>
      </trkpt>
      <trkpt lat="42.93665" lon="2.05057">
        <ele>471.35</ele>
        <time>2024-09-19T14:17:49.000Z</time>
      </trkpt>
      <trkpt lat="42.93664" lon="2.05072">
        <ele>471.61</ele>
        <time>2024-09-19T14:17:54.000Z</time>
      </trkpt>
      <trkpt lat="42.93663" lon="2.05088">
        <ele>471.87</ele>
        <time>2024-09-19T14:17:59.000Z</time>
      </trkpt>
      <trkpt lat="42.93663" lon="2.05108">
        <ele>472.21</ele>
        <time>2024-09-19T14:18:04.999Z</time>
      </trkpt>
      <trkpt lat="42.93662" lon="2.05125">
        <ele>472.5</ele>
        <time>2024-09-19T14:18:09.999Z</time>
      </trkpt>
      <trkpt lat="42.93661" lon="2.05142">
        <ele>472.8</ele>
        <time>2024-09-19T14:18:14.999Z</time>
      </trkpt>
      <trkpt lat="42.9366" lon="2.05159">
        <ele>473.1</ele>
        <time>2024-09-19T14:18:19.999Z</time>
      </trkpt>
      <trkpt lat="42.93658" lon="2.05176">
        <ele>473.41</ele>
        <time>2024-09-19T14:18:24.999Z</time>
      </trkpt>
      <trkpt lat="42.93658" lon="2.05192">
        <ele>473.72</ele>
        <time>2024-09-19T14:18:29.999Z</time>
      </trkpt>
      <trkpt lat="42.93656" lon="2.05207">
        <ele>474.04</ele>
        <time>2024-09-19T14:18:34.999Z</time>
      </trkpt>
      <trkpt lat="42.93654" lon="2.05222">
        <ele>474.36</ele>
        <time>2024-09-19T14:18:39.999Z</time>
      </trkpt>
      <trkpt lat="42.9365" lon="2.05238">
        <ele>474.68</ele>
        <time>2024-09-19T14:18:44.999Z</time>
      </trkpt>
      <trkpt lat="42.93647" lon="2.05255">
        <ele>475</ele>
        <time>2024-09-19T14:18:49.999Z</time>
      </trkpt>
      <trkpt lat="42.93643" lon="2.05271">
        <ele>475.31</ele>
        <time>2024-09-19T14:18:54.999Z</time>
      </trkpt>
      <trkpt lat="42.93637" lon="2.05287">
        <ele>475.62</ele>
        <time>2024-09-19T14:18:59.999Z</time>
      </trkpt>
      <trkpt lat="42.93633" lon="2.05302">
        <ele>475.93</ele>
        <time>2024-09-19T14:19:04.999Z</time>
      </trkpt>
      <trkpt lat="42.9363" lon="2.05317">
        <ele>476.23</ele>
        <time>2024-09-19T14:19:09.999Z</time>
      </trkpt>
      <trkpt lat="42.93627" lon="2.05334">
        <ele>476.54</ele>
        <time>2024-09-19T14:19:14.999Z</time>
      </trkpt>
      <trkpt lat="42.93625" lon="2.05351">
        <ele>476.85</ele>
        <time>2024-09-19T14:19:19.999Z</time>
      </trkpt>
      <trkpt lat="42.93624" lon="2.05368">
        <ele>477.16</ele>
        <time>2024-09-19T14:19:24.999Z</time>
      </trkpt>
      <trkpt lat="42.93623" lon="2.05387">
        <ele>477.47</ele>
        <time>2024-09-19T14:19:29.999Z</time>
      </trkpt>
      <trkpt lat="42.93622" lon="2.05404">
        <ele>477.79</ele>
        <time>2024-09-19T14:19:34.999Z</time>
      </trkpt>
      <trkpt lat="42.93617" lon="2.0542">
        <ele>478.11</ele>
        <time>2024-09-19T14:19:39.999Z</time>
      </trkpt>
      <trkpt lat="42.93611" lon="2.05435">
        <ele>478.44</ele>
        <time>2024-09-19T14:19:44.999Z</time>
      </trkpt>
      <trkpt lat="42.93603" lon="2.05449">
        <ele>478.77</ele>
        <time>2024-09-19T14:19:49.999Z</time>
      </trkpt>
      <trkpt lat="42.93594" lon="2.05458">
        <ele>479.11</ele>
        <time>2024-09-19T14:19:54.999Z</time>
      </trkpt>
      <trkpt lat="42.93586" lon="2.05469">
        <ele>479.45</ele>
        <time>2024-09-19T14:19:59.999Z</time>
      </trkpt>
      <trkpt lat="42.93578" lon="2.0548">
        <ele>479.84</ele>
        <time>2024-09-19T14:20:04.999Z</time>
      </trkpt>
      <trkpt lat="42.9357" lon="2.05496">
        <ele>480.24</ele>
        <time>2024-09-19T14:20:09.999Z</time>
      </trkpt>
      <trkpt lat="42.93564" lon="2.05514">
        <ele>480.64</ele>
        <time>2024-09-19T14:20:14.999Z</time>
      </trkpt>
      <trkpt lat="42.93564" lon="2.05533">
        <ele>481.05</ele>
        <time>2024-09-19T14:20:19.999Z</time>
      </trkpt>
      <trkpt lat="42.93567" lon="2.05549">
        <ele>481.48</ele>
        <time>2024-09-19T14:20:24.999Z</time>
      </trkpt>
      <trkpt lat="42.93571" lon="2.05565">
        <ele>481.93</ele>
        <time>2024-09-19T14:20:29.999Z</time>
      </trkpt>
      <trkpt lat="42.93574" lon="2.05581">
        <ele>482.38</ele>
        <time>2024-09-19T14:20:34.999Z</time>
      </trkpt>
      <trkpt lat="42.9358" lon="2.05597">
        <ele>482.85</ele>
        <time>2024-09-19T14:20:39.999Z</time>
      </trkpt>
      <trkpt lat="42.93584" lon="2.05613">
        <ele>483.33</ele>
        <time>2024-09-19T14:20:44.999Z</time>
      </trkpt>
      <trkpt lat="42.93585" lon="2.05628">
        <ele>483.83</ele>
        <time>2024-09-19T14:20:49.999Z</time>
      </trkpt>
      <trkpt lat="42.93584" lon="2.05644">
        <ele>484.41</ele>
        <time>2024-09-19T14:20:54.999Z</time>
      </trkpt>
      <trkpt lat="42.93584" lon="2.05661">
        <ele>485.07</ele>
        <time>2024-09-19T14:20:59.999Z</time>
      </trkpt>
      <trkpt lat="42.93581" lon="2.05679">
        <ele>485.75</ele>
        <time>2024-09-19T14:21:04.999Z</time>
      </trkpt>
      <trkpt lat="42.93578" lon="2.05696">
        <ele>486.45</ele>
        <time>2024-09-19T14:21:09.999Z</time>
      </trkpt>
      <trkpt lat="42.93572" lon="2.05711">
        <ele>487.22</ele>
        <time>2024-09-19T14:21:14.999Z</time>
      </trkpt>
      <trkpt lat="42.93565" lon="2.05722">
        <ele>487.99</ele>
        <time>2024-09-19T14:21:19.999Z</time>
      </trkpt>
      <trkpt lat="42.93557" lon="2.05731">
        <ele>488.88</ele>
        <time>2024-09-19T14:21:25.999Z</time>
      </trkpt>
      <trkpt lat="42.93548" lon="2.05745">
        <ele>489.57</ele>
        <time>2024-09-19T14:21:30.999Z</time>
      </trkpt>
      <trkpt lat="42.93541" lon="2.05763">
        <ele>490.23</ele>
        <time>2024-09-19T14:21:35.999Z</time>
      </trkpt>
      <trkpt lat="42.93538" lon="2.0578">
        <ele>490.87</ele>
        <time>2024-09-19T14:21:40.999Z</time>
      </trkpt>
      <trkpt lat="42.93539" lon="2.05796">
        <ele>491.49</ele>
        <time>2024-09-19T14:21:45.999Z</time>
      </trkpt>
      <trkpt lat="42.93542" lon="2.05812">
        <ele>492.06</ele>
        <time>2024-09-19T14:21:50.999Z</time>
      </trkpt>
      <trkpt lat="42.93549" lon="2.05827">
        <ele>492.62</ele>
        <time>2024-09-19T14:21:55.999Z</time>
      </trkpt>
      <trkpt lat="42.93554" lon="2.05844">
        <ele>493.16</ele>
        <time>2024-09-19T14:22:00.999Z</time>
      </trkpt>
      <trkpt lat="42.93558" lon="2.05859">
        <ele>493.69</ele>
        <time>2024-09-19T14:22:05.999Z</time>
      </trkpt>
      <trkpt lat="42.93562" lon="2.05874">
        <ele>494.22</ele>
        <time>2024-09-19T14:22:10.999Z</time>
      </trkpt>
      <trkpt lat="42.93564" lon="2.05893">
        <ele>494.73</ele>
        <time>2024-09-19T14:22:15.999Z</time>
      </trkpt>
      <trkpt lat="42.93564" lon="2.0591">
        <ele>495.25</ele>
        <time>2024-09-19T14:22:20.999Z</time>
      </trkpt>
      <trkpt lat="42.93564" lon="2.05929">
        <ele>495.78</ele>
        <time>2024-09-19T14:22:25.999Z</time>
      </trkpt>
      <trkpt lat="42.93565" lon="2.05947">
        <ele>496.34</ele>
        <time>2024-09-19T14:22:30.999Z</time>
      </trkpt>
      <trkpt lat="42.93563" lon="2.05966">
        <ele>496.96</ele>
        <time>2024-09-19T14:22:35.999Z</time>
      </trkpt>
      <trkpt lat="42.93562" lon="2.05984">
        <ele>497.8</ele>
        <time>2024-09-19T14:22:40.999Z</time>
      </trkpt>
      <trkpt lat="42.93559" lon="2.06003">
        <ele>498.74</ele>
        <time>2024-09-19T14:22:45.999Z</time>
      </trkpt>
      <trkpt lat="42.93554" lon="2.06018">
        <ele>499.77</ele>
        <time>2024-09-19T14:22:50.999Z</time>
      </trkpt>
      <trkpt lat="42.93548" lon="2.06034">
        <ele>500.89</ele>
        <time>2024-09-19T14:22:55.999Z</time>
      </trkpt>
      <trkpt lat="42.93542" lon="2.06051">
        <ele>502.05</ele>
        <time>2024-09-19T14:23:00.999Z</time>
      </trkpt>
      <trkpt lat="42.93535" lon="2.06066">
        <ele>503.19</ele>
        <time>2024-09-19T14:23:05.999Z</time>
      </trkpt>
      <trkpt lat="42.93528" lon="2.06082">
        <ele>504.32</ele>
        <time>2024-09-19T14:23:10.999Z</time>
      </trkpt>
      <trkpt lat="42.93523" lon="2.06099">
        <ele>505.42</ele>
        <time>2024-09-19T14:23:15.999Z</time>
      </trkpt>
      <trkpt lat="42.9352" lon="2.06115">
        <ele>506.49</ele>
        <time>2024-09-19T14:23:20.999Z</time>
      </trkpt>
      <trkpt lat="42.93519" lon="2.06131">
        <ele>507.54</ele>
        <time>2024-09-19T14:23:25.999Z</time>
      </trkpt>
      <trkpt lat="42.93517" lon="2.06149">
        <ele>508.54</ele>
        <time>2024-09-19T14:23:30.999Z</time>
      </trkpt>
      <trkpt lat="42.93514" lon="2.06167">
        <ele>509.49</ele>
        <time>2024-09-19T14:23:35.999Z</time>
      </trkpt>
      <trkpt lat="42.93511" lon="2.06185">
        <ele>510.38</ele>
        <time>2024-09-19T14:23:40.999Z</time>
      </trkpt>
      <trkpt lat="42.93507" lon="2.06201">
        <ele>511.22</ele>
        <time>2024-09-19T14:23:45.999Z</time>
      </trkpt>
      <trkpt lat="42.93503" lon="2.06219">
        <ele>512.02</ele>
        <time>2024-09-19T14:23:50.999Z</time>
      </trkpt>
      <trkpt lat="42.93499" lon="2.06235">
        <ele>512.78</ele>
        <time>2024-09-19T14:23:55.999Z</time>
      </trkpt>
      <trkpt lat="42.93495" lon="2.06252">
        <ele>513.52</ele>
        <time>2024-09-19T14:24:00.999Z</time>
      </trkpt>
      <trkpt lat="42.93492" lon="2.06266">
        <ele>514.26</ele>
        <time>2024-09-19T14:24:05.999Z</time>
      </trkpt>
      <trkpt lat="42.93489" lon="2.06281">
        <ele>514.99</ele>
        <time>2024-09-19T14:24:10.999Z</time>
      </trkpt>
      <trkpt lat="42.93483" lon="2.06295">
        <ele>515.68</ele>
        <time>2024-09-19T14:24:15.999Z</time>
      </trkpt>
      <trkpt lat="42.93475" lon="2.06303">
        <ele>516.34</ele>
        <time>2024-09-19T14:24:20.999Z</time>
      </trkpt>
      <trkpt lat="42.93463" lon="2.06313">
        <ele>516.95</ele>
        <time>2024-09-19T14:24:25.999Z</time>
      </trkpt>
      <trkpt lat="42.93453" lon="2.06317">
        <ele>517.52</ele>
        <time>2024-09-19T14:24:30.999Z</time>
      </trkpt>
      <trkpt lat="42.93447" lon="2.06326">
        <ele>520.14</ele>
        <time>2024-09-19T14:25:57.999Z</time>
      </trkpt>
      <trkpt lat="42.93442" lon="2.06337">
        <ele>521.61</ele>
        <time>2024-09-19T14:26:23.999Z</time>
      </trkpt>
      <trkpt lat="42.93438" lon="2.06349">
        <ele>522.11</ele>
        <time>2024-09-19T14:26:29.999Z</time>
      </trkpt>
      <trkpt lat="42.93436" lon="2.06368">
        <ele>522.49</ele>
        <time>2024-09-19T14:26:34.999Z</time>
      </trkpt>
      <trkpt lat="42.93433" lon="2.0639">
        <ele>522.85</ele>
        <time>2024-09-19T14:26:39.999Z</time>
      </trkpt>
      <trkpt lat="42.93432" lon="2.06406">
        <ele>523.22</ele>
        <time>2024-09-19T14:26:44.999Z</time>
      </trkpt>
      <trkpt lat="42.93431" lon="2.06422">
        <ele>523.58</ele>
        <time>2024-09-19T14:26:49.999Z</time>
      </trkpt>
      <trkpt lat="42.93431" lon="2.06436">
        <ele>523.93</ele>
        <time>2024-09-19T14:26:54.999Z</time>
      </trkpt>
      <trkpt lat="42.93431" lon="2.06453">
        <ele>524.28</ele>
        <time>2024-09-19T14:26:59.999Z</time>
      </trkpt>
      <trkpt lat="42.93433" lon="2.06469">
        <ele>524.61</ele>
        <time>2024-09-19T14:27:04.999Z</time>
      </trkpt>
      <trkpt lat="42.93438" lon="2.06484">
        <ele>524.94</ele>
        <time>2024-09-19T14:27:09.999Z</time>
      </trkpt>
      <trkpt lat="42.93447" lon="2.06498">
        <ele>525.26</ele>
        <time>2024-09-19T14:27:14.999Z</time>
      </trkpt>
      <trkpt lat="42.93457" lon="2.06511">
        <ele>525.56</ele>
        <time>2024-09-19T14:27:19.999Z</time>
      </trkpt>
      <trkpt lat="42.93465" lon="2.06528">
        <ele>525.86</ele>
        <time>2024-09-19T14:27:24.999Z</time>
      </trkpt>
      <trkpt lat="42.93467" lon="2.06544">
        <ele>526.18</ele>
        <time>2024-09-19T14:27:29.999Z</time>
      </trkpt>
      <trkpt lat="42.93466" lon="2.06558">
        <ele>526.5</ele>
        <time>2024-09-19T14:27:34.999Z</time>
      </trkpt>
      <trkpt lat="42.93461" lon="2.06574">
        <ele>526.83</ele>
        <time>2024-09-19T14:27:39.999Z</time>
      </trkpt>
      <trkpt lat="42.93456" lon="2.06588">
        <ele>527.16</ele>
        <time>2024-09-19T14:27:44.999Z</time>
      </trkpt>
      <trkpt lat="42.93448" lon="2.066">
        <ele>527.5</ele>
        <time>2024-09-19T14:27:49.999Z</time>
      </trkpt>
      <trkpt lat="42.93437" lon="2.0661">
        <ele>527.81</ele>
        <time>2024-09-19T14:27:54.999Z</time>
      </trkpt>
      <trkpt lat="42.93427" lon="2.06619">
        <ele>528.11</ele>
        <time>2024-09-19T14:27:59.999Z</time>
      </trkpt>
      <trkpt lat="42.93418" lon="2.06628">
        <ele>528.39</ele>
        <time>2024-09-19T14:28:04.999Z</time>
      </trkpt>
      <trkpt lat="42.93409" lon="2.06642">
        <ele>528.66</ele>
        <time>2024-09-19T14:28:09.999Z</time>
      </trkpt>
      <trkpt lat="42.93404" lon="2.06658">
        <ele>528.92</ele>
        <time>2024-09-19T14:28:14.999Z</time>
      </trkpt>
      <trkpt lat="42.93403" lon="2.06676">
        <ele>529.18</ele>
        <time>2024-09-19T14:28:19.999Z</time>
      </trkpt>
      <trkpt lat="42.93406" lon="2.06694">
        <ele>529.47</ele>
        <time>2024-09-19T14:28:24.999Z</time>
      </trkpt>
      <trkpt lat="42.93411" lon="2.06711">
        <ele>529.78</ele>
        <time>2024-09-19T14:28:29.999Z</time>
      </trkpt>
      <trkpt lat="42.9342" lon="2.06725">
        <ele>530.1</ele>
        <time>2024-09-19T14:28:34.999Z</time>
      </trkpt>
      <trkpt lat="42.93429" lon="2.06738">
        <ele>530.42</ele>
        <time>2024-09-19T14:28:39.999Z</time>
      </trkpt>
      <trkpt lat="42.93436" lon="2.06752">
        <ele>530.74</ele>
        <time>2024-09-19T14:28:44.999Z</time>
      </trkpt>
      <trkpt lat="42.93442" lon="2.06768">
        <ele>531.05</ele>
        <time>2024-09-19T14:28:49.999Z</time>
      </trkpt>
      <trkpt lat="42.93444" lon="2.06785">
        <ele>531.36</ele>
        <time>2024-09-19T14:28:54.999Z</time>
      </trkpt>
      <trkpt lat="42.93442" lon="2.068">
        <ele>531.67</ele>
        <time>2024-09-19T14:28:59.999Z</time>
      </trkpt>
      <trkpt lat="42.93438" lon="2.06816">
        <ele>531.99</ele>
        <time>2024-09-19T14:29:04.999Z</time>
      </trkpt>
      <trkpt lat="42.93433" lon="2.06833">
        <ele>532.33</ele>
        <time>2024-09-19T14:29:09.999Z</time>
      </trkpt>
      <trkpt lat="42.93429" lon="2.06848">
        <ele>532.68</ele>
        <time>2024-09-19T14:29:14.999Z</time>
      </trkpt>
      <trkpt lat="42.93425" lon="2.06864">
        <ele>533.04</ele>
        <time>2024-09-19T14:29:19.999Z</time>
      </trkpt>
      <trkpt lat="42.93422" lon="2.06882">
        <ele>533.42</ele>
        <time>2024-09-19T14:29:24.999Z</time>
      </trkpt>
      <trkpt lat="42.93419" lon="2.06899">
        <ele>533.8</ele>
        <time>2024-09-19T14:29:29.999Z</time>
      </trkpt>
      <trkpt lat="42.93415" lon="2.06915">
        <ele>534.19</ele>
        <time>2024-09-19T14:29:34.999Z</time>
      </trkpt>
      <trkpt lat="42.9341" lon="2.06932">
        <ele>534.58</ele>
        <time>2024-09-19T14:29:39.999Z</time>
      </trkpt>
      <trkpt lat="42.93403" lon="2.06946">
        <ele>534.95</ele>
        <time>2024-09-19T14:29:44.999Z</time>
      </trkpt>
      <trkpt lat="42.93397" lon="2.06959">
        <ele>535.29</ele>
        <time>2024-09-19T14:29:49.999Z</time>
      </trkpt>
      <trkpt lat="42.93391" lon="2.06974">
        <ele>535.6</ele>
        <time>2024-09-19T14:29:54.999Z</time>
      </trkpt>
      <trkpt lat="42.93385" lon="2.06988">
        <ele>535.89</ele>
        <time>2024-09-19T14:29:59.999Z</time>
      </trkpt>
      <trkpt lat="42.93382" lon="2.07007">
        <ele>536.16</ele>
        <time>2024-09-19T14:30:05.000Z</time>
      </trkpt>
      <trkpt lat="42.93382" lon="2.07025">
        <ele>536.43</ele>
        <time>2024-09-19T14:30:10.000Z</time>
      </trkpt>
      <trkpt lat="42.93383" lon="2.07044">
        <ele>536.69</ele>
        <time>2024-09-19T14:30:15.000Z</time>
      </trkpt>
      <trkpt lat="42.93382" lon="2.07062">
        <ele>536.94</ele>
        <time>2024-09-19T14:30:20.000Z</time>
      </trkpt>
      <trkpt lat="42.93377" lon="2.07079">
        <ele>537.2</ele>
        <time>2024-09-19T14:30:25.000Z</time>
      </trkpt>
      <trkpt lat="42.93371" lon="2.07093">
        <ele>537.47</ele>
        <time>2024-09-19T14:30:30.000Z</time>
      </trkpt>
      <trkpt lat="42.93364" lon="2.07104">
        <ele>537.76</ele>
        <time>2024-09-19T14:30:35.000Z</time>
      </trkpt>
      <trkpt lat="42.93355" lon="2.07116">
        <ele>538.06</ele>
        <time>2024-09-19T14:30:40.000Z</time>
      </trkpt>
      <trkpt lat="42.93347" lon="2.07129">
        <ele>538.35</ele>
        <time>2024-09-19T14:30:45.000Z</time>
      </trkpt>
      <trkpt lat="42.93338" lon="2.07142">
        <ele>538.62</ele>
        <time>2024-09-19T14:30:50.000Z</time>
      </trkpt>
      <trkpt lat="42.9333" lon="2.07155">
        <ele>538.87</ele>
        <time>2024-09-19T14:30:55.000Z</time>
      </trkpt>
      <trkpt lat="42.93323" lon="2.07169">
        <ele>539.1</ele>
        <time>2024-09-19T14:31:00.000Z</time>
      </trkpt>
      <trkpt lat="42.93316" lon="2.07184">
        <ele>539.32</ele>
        <time>2024-09-19T14:31:05.000Z</time>
      </trkpt>
      <trkpt lat="42.93309" lon="2.072">
        <ele>539.53</ele>
        <time>2024-09-19T14:31:10.000Z</time>
      </trkpt>
      <trkpt lat="42.93302" lon="2.07215">
        <ele>539.73</ele>
        <time>2024-09-19T14:31:15.000Z</time>
      </trkpt>
      <trkpt lat="42.93296" lon="2.07235">
        <ele>539.95</ele>
        <time>2024-09-19T14:31:20.000Z</time>
      </trkpt>
      <trkpt lat="42.93293" lon="2.07254">
        <ele>540.18</ele>
        <time>2024-09-19T14:31:25.000Z</time>
      </trkpt>
      <trkpt lat="42.93294" lon="2.0727">
        <ele>540.43</ele>
        <time>2024-09-19T14:31:30.000Z</time>
      </trkpt>
      <trkpt lat="42.93299" lon="2.07287">
        <ele>540.7</ele>
        <time>2024-09-19T14:31:35.000Z</time>
      </trkpt>
      <trkpt lat="42.93305" lon="2.07304">
        <ele>540.98</ele>
        <time>2024-09-19T14:31:40.000Z</time>
      </trkpt>
      <trkpt lat="42.93311" lon="2.0732">
        <ele>541.28</ele>
        <time>2024-09-19T14:31:45.000Z</time>
      </trkpt>
      <trkpt lat="42.93309" lon="2.07338">
        <ele>541.64</ele>
        <time>2024-09-19T14:31:50.000Z</time>
      </trkpt>
      <trkpt lat="42.93299" lon="2.07349">
        <ele>542.03</ele>
        <time>2024-09-19T14:31:55.000Z</time>
      </trkpt>
      <trkpt lat="42.93288" lon="2.07356">
        <ele>542.43</ele>
        <time>2024-09-19T14:32:00.000Z</time>
      </trkpt>
      <trkpt lat="42.93276" lon="2.07365">
        <ele>542.81</ele>
        <time>2024-09-19T14:32:05.000Z</time>
      </trkpt>
      <trkpt lat="42.93266" lon="2.07376">
        <ele>543.19</ele>
        <time>2024-09-19T14:32:10.000Z</time>
      </trkpt>
      <trkpt lat="42.93259" lon="2.0739">
        <ele>543.56</ele>
        <time>2024-09-19T14:32:15.000Z</time>
      </trkpt>
      <trkpt lat="42.93253" lon="2.07405">
        <ele>543.92</ele>
        <time>2024-09-19T14:32:20.000Z</time>
      </trkpt>
      <trkpt lat="42.93247" lon="2.07419">
        <ele>544.29</ele>
        <time>2024-09-19T14:32:25.000Z</time>
      </trkpt>
      <trkpt lat="42.93241" lon="2.07436">
        <ele>544.65</ele>
        <time>2024-09-19T14:32:30.000Z</time>
      </trkpt>
      <trkpt lat="42.93235" lon="2.07451">
        <ele>545.02</ele>
        <time>2024-09-19T14:32:35.000Z</time>
      </trkpt>
      <trkpt lat="42.93232" lon="2.07464">
        <ele>545.39</ele>
        <time>2024-09-19T14:32:40.000Z</time>
      </trkpt>
      <trkpt lat="42.93233" lon="2.07479">
        <ele>547.73</ele>
        <time>2024-09-19T14:34:03.000Z</time>
      </trkpt>
      <trkpt lat="42.9323" lon="2.07494">
        <ele>548.65</ele>
        <time>2024-09-19T14:34:08.000Z</time>
      </trkpt>
      <trkpt lat="42.93231" lon="2.07507">
        <ele>549.54</ele>
        <time>2024-09-19T14:34:13.000Z</time>
      </trkpt>
      <trkpt lat="42.93234" lon="2.07519">
        <ele>550.7</ele>
        <time>2024-09-19T14:34:20.000Z</time>
      </trkpt>
      <trkpt lat="42.93224" lon="2.07521">
        <ele>559.28</ele>
        <time>2024-09-19T14:39:52.000Z</time>
      </trkpt>
      <trkpt lat="42.93215" lon="2.07525">
        <ele>559.94</ele>
        <time>2024-09-19T14:40:12.000Z</time>
      </trkpt>
      <trkpt lat="42.93224" lon="2.07522">
        <ele>560.8</ele>
        <time>2024-09-19T14:41:06.000Z</time>
      </trkpt>
      <trkpt lat="42.93234" lon="2.0752">
        <ele>564.17</ele>
        <time>2024-09-19T14:43:42.999Z</time>
      </trkpt>
      <trkpt lat="42.93243" lon="2.07528">
        <ele>564.48</ele>
        <time>2024-09-19T14:43:54.999Z</time>
      </trkpt>
      <trkpt lat="42.93252" lon="2.07538">
        <ele>564.64</ele>
        <time>2024-09-19T14:43:59.999Z</time>
      </trkpt>
      <trkpt lat="42.93265" lon="2.07554">
        <ele>565.22</ele>
        <time>2024-09-19T14:44:04.999Z</time>
      </trkpt>
      <trkpt lat="42.93282" lon="2.07576">
        <ele>566.07</ele>
        <time>2024-09-19T14:44:09.999Z</time>
      </trkpt>
      <trkpt lat="42.93298" lon="2.07603">
        <ele>566.49</ele>
        <time>2024-09-19T14:44:14.999Z</time>
      </trkpt>
      <trkpt lat="42.93309" lon="2.07642">
        <ele>566.71</ele>
        <time>2024-09-19T14:44:19.999Z</time>
      </trkpt>
      <trkpt lat="42.93316" lon="2.07685">
        <ele>566.89</ele>
        <time>2024-09-19T14:44:24.999Z</time>
      </trkpt>
      <trkpt lat="42.93325" lon="2.07728">
        <ele>566.95</ele>
        <time>2024-09-19T14:44:29.999Z</time>
      </trkpt>
      <trkpt lat="42.93337" lon="2.07769">
        <ele>566.79</ele>
        <time>2024-09-19T14:44:34.999Z</time>
      </trkpt>
      <trkpt lat="42.93352" lon="2.07811">
        <ele>566.66</ele>
        <time>2024-09-19T14:44:39.999Z</time>
      </trkpt>
      <trkpt lat="42.93369" lon="2.07852">
        <ele>566.32</ele>
        <time>2024-09-19T14:44:44.999Z</time>
      </trkpt>
      <trkpt lat="42.93388" lon="2.07893">
        <ele>565.7</ele>
        <time>2024-09-19T14:44:49.999Z</time>
      </trkpt>
      <trkpt lat="42.93405" lon="2.07936">
        <ele>564.94</ele>
        <time>2024-09-19T14:44:54.999Z</time>
      </trkpt>
      <trkpt lat="42.93423" lon="2.07978">
        <ele>563.87</ele>
        <time>2024-09-19T14:44:59.999Z</time>
      </trkpt>
      <trkpt lat="42.93453" lon="2.08008">
        <ele>563.12</ele>
        <time>2024-09-19T14:45:04.999Z</time>
      </trkpt>
      <trkpt lat="42.93488" lon="2.08029">
        <ele>562.28</ele>
        <time>2024-09-19T14:45:09.999Z</time>
      </trkpt>
      <trkpt lat="42.93525" lon="2.08041">
        <ele>561.66</ele>
        <time>2024-09-19T14:45:14.999Z</time>
      </trkpt>
      <trkpt lat="42.93561" lon="2.08047">
        <ele>561.24</ele>
        <time>2024-09-19T14:45:19.999Z</time>
      </trkpt>
      <trkpt lat="42.93594" lon="2.08057">
        <ele>560.51</ele>
        <time>2024-09-19T14:45:24.999Z</time>
      </trkpt>
      <trkpt lat="42.93598" lon="2.08102">
        <ele>559.64</ele>
        <time>2024-09-19T14:45:29.999Z</time>
      </trkpt>
      <trkpt lat="42.9357" lon="2.08144">
        <ele>558.94</ele>
        <time>2024-09-19T14:45:34.999Z</time>
      </trkpt>
      <trkpt lat="42.93544" lon="2.08189">
        <ele>558.59</ele>
        <time>2024-09-19T14:45:39.999Z</time>
      </trkpt>
      <trkpt lat="42.93521" lon="2.08236">
        <ele>558.62</ele>
        <time>2024-09-19T14:45:44.999Z</time>
      </trkpt>
      <trkpt lat="42.93485" lon="2.08257">
        <ele>558.43</ele>
        <time>2024-09-19T14:45:49.999Z</time>
      </trkpt>
      <trkpt lat="42.93462" lon="2.08295">
        <ele>557.64</ele>
        <time>2024-09-19T14:45:54.999Z</time>
      </trkpt>
      <trkpt lat="42.93455" lon="2.08347">
        <ele>556.06</ele>
        <time>2024-09-19T14:45:59.999Z</time>
      </trkpt>
      <trkpt lat="42.93449" lon="2.08398">
        <ele>554.7</ele>
        <time>2024-09-19T14:46:04.999Z</time>
      </trkpt>
      <trkpt lat="42.93431" lon="2.0844">
        <ele>553.55</ele>
        <time>2024-09-19T14:46:09.999Z</time>
      </trkpt>
      <trkpt lat="42.93416" lon="2.08482">
        <ele>552.5</ele>
        <time>2024-09-19T14:46:14.999Z</time>
      </trkpt>
      <trkpt lat="42.93417" lon="2.08531">
        <ele>551.3</ele>
        <time>2024-09-19T14:46:19.999Z</time>
      </trkpt>
      <trkpt lat="42.93429" lon="2.08578">
        <ele>549.81</ele>
        <time>2024-09-19T14:46:24.999Z</time>
      </trkpt>
      <trkpt lat="42.93443" lon="2.08626">
        <ele>547.97</ele>
        <time>2024-09-19T14:46:29.999Z</time>
      </trkpt>
      <trkpt lat="42.93456" lon="2.08673">
        <ele>546.21</ele>
        <time>2024-09-19T14:46:34.999Z</time>
      </trkpt>
      <trkpt lat="42.93464" lon="2.08722">
        <ele>544.65</ele>
        <time>2024-09-19T14:46:39.999Z</time>
      </trkpt>
      <trkpt lat="42.93464" lon="2.08771">
        <ele>543.67</ele>
        <time>2024-09-19T14:46:44.999Z</time>
      </trkpt>
      <trkpt lat="42.93468" lon="2.08817">
        <ele>543.05</ele>
        <time>2024-09-19T14:46:49.999Z</time>
      </trkpt>
      <trkpt lat="42.9348" lon="2.08859">
        <ele>542.49</ele>
        <time>2024-09-19T14:46:54.999Z</time>
      </trkpt>
      <trkpt lat="42.93501" lon="2.08894">
        <ele>541.35</ele>
        <time>2024-09-19T14:46:59.999Z</time>
      </trkpt>
      <trkpt lat="42.93525" lon="2.08931">
        <ele>540.29</ele>
        <time>2024-09-19T14:47:04.999Z</time>
      </trkpt>
      <trkpt lat="42.93547" lon="2.08969">
        <ele>539.38</ele>
        <time>2024-09-19T14:47:09.999Z</time>
      </trkpt>
      <trkpt lat="42.93569" lon="2.09005">
        <ele>538.68</ele>
        <time>2024-09-19T14:47:14.999Z</time>
      </trkpt>
      <trkpt lat="42.93592" lon="2.09039">
        <ele>537.89</ele>
        <time>2024-09-19T14:47:19.999Z</time>
      </trkpt>
      <trkpt lat="42.93612" lon="2.09078">
        <ele>536.89</ele>
        <time>2024-09-19T14:47:24.999Z</time>
      </trkpt>
      <trkpt lat="42.9362" lon="2.09128">
        <ele>536.08</ele>
        <time>2024-09-19T14:47:29.999Z</time>
      </trkpt>
      <trkpt lat="42.9362" lon="2.09177">
        <ele>535.16</ele>
        <time>2024-09-19T14:47:34.999Z</time>
      </trkpt>
      <trkpt lat="42.93603" lon="2.09222">
        <ele>535.07</ele>
        <time>2024-09-19T14:47:39.999Z</time>
      </trkpt>
      <trkpt lat="42.93589" lon="2.09267">
        <ele>535.14</ele>
        <time>2024-09-19T14:47:44.999Z</time>
      </trkpt>
      <trkpt lat="42.93587" lon="2.09313">
        <ele>534.95</ele>
        <time>2024-09-19T14:47:49.999Z</time>
      </trkpt>
      <trkpt lat="42.9359" lon="2.09359">
        <ele>534.25</ele>
        <time>2024-09-19T14:47:54.999Z</time>
      </trkpt>
      <trkpt lat="42.93599" lon="2.09405">
        <ele>532.91</ele>
        <time>2024-09-19T14:47:59.999Z</time>
      </trkpt>
      <trkpt lat="42.93611" lon="2.09451">
        <ele>531.49</ele>
        <time>2024-09-19T14:48:04.999Z</time>
      </trkpt>
      <trkpt lat="42.93611" lon="2.09497">
        <ele>530.45</ele>
        <time>2024-09-19T14:48:09.999Z</time>
      </trkpt>
      <trkpt lat="42.93607" lon="2.09548">
        <ele>529.33</ele>
        <time>2024-09-19T14:48:14.999Z</time>
      </trkpt>
      <trkpt lat="42.93613" lon="2.096">
        <ele>527.14</ele>
        <time>2024-09-19T14:48:19.999Z</time>
      </trkpt>
      <trkpt lat="42.93619" lon="2.09653">
        <ele>524.92</ele>
        <time>2024-09-19T14:48:24.999Z</time>
      </trkpt>
      <trkpt lat="42.93625" lon="2.09703">
        <ele>523.09</ele>
        <time>2024-09-19T14:48:29.999Z</time>
      </trkpt>
      <trkpt lat="42.93628" lon="2.09755">
        <ele>521.59</ele>
        <time>2024-09-19T14:48:34.999Z</time>
      </trkpt>
      <trkpt lat="42.93607" lon="2.09797">
        <ele>520.96</ele>
        <time>2024-09-19T14:48:39.999Z</time>
      </trkpt>
      <trkpt lat="42.93583" lon="2.09837">
        <ele>520.59</ele>
        <time>2024-09-19T14:48:44.999Z</time>
      </trkpt>
      <trkpt lat="42.93561" lon="2.09876">
        <ele>520.33</ele>
        <time>2024-09-19T14:48:49.999Z</time>
      </trkpt>
      <trkpt lat="42.93549" lon="2.09918">
        <ele>520.29</ele>
        <time>2024-09-19T14:48:54.999Z</time>
      </trkpt>
      <trkpt lat="42.93553" lon="2.09967">
        <ele>519.6</ele>
        <time>2024-09-19T14:48:59.999Z</time>
      </trkpt>
      <trkpt lat="42.93559" lon="2.10013">
        <ele>518.93</ele>
        <time>2024-09-19T14:49:04.999Z</time>
      </trkpt>
      <trkpt lat="42.9357" lon="2.10057">
        <ele>518.25</ele>
        <time>2024-09-19T14:49:09.999Z</time>
      </trkpt>
      <trkpt lat="42.93582" lon="2.10104">
        <ele>517.15</ele>
        <time>2024-09-19T14:49:14.999Z</time>
      </trkpt>
      <trkpt lat="42.93595" lon="2.10148">
        <ele>515.47</ele>
        <time>2024-09-19T14:49:19.999Z</time>
      </trkpt>
      <trkpt lat="42.93624" lon="2.10166">
        <ele>513.54</ele>
        <time>2024-09-19T14:49:24.999Z</time>
      </trkpt>
      <trkpt lat="42.93654" lon="2.1015">
        <ele>511.68</ele>
        <time>2024-09-19T14:49:29.999Z</time>
      </trkpt>
      <trkpt lat="42.93671" lon="2.10113">
        <ele>509.96</ele>
        <time>2024-09-19T14:49:34.999Z</time>
      </trkpt>
      <trkpt lat="42.93694" lon="2.10086">
        <ele>509.21</ele>
        <time>2024-09-19T14:49:39.999Z</time>
      </trkpt>
      <trkpt lat="42.9373" lon="2.10091">
        <ele>509.65</ele>
        <time>2024-09-19T14:49:44.999Z</time>
      </trkpt>
      <trkpt lat="42.93765" lon="2.10098">
        <ele>510.34</ele>
        <time>2024-09-19T14:49:49.999Z</time>
      </trkpt>
      <trkpt lat="42.93804" lon="2.10105">
        <ele>511.76</ele>
        <time>2024-09-19T14:49:54.999Z</time>
      </trkpt>
      <trkpt lat="42.93842" lon="2.10109">
        <ele>511.31</ele>
        <time>2024-09-19T14:49:59.999Z</time>
      </trkpt>
      <trkpt lat="42.9388" lon="2.10121">
        <ele>508.16</ele>
        <time>2024-09-19T14:50:04.999Z</time>
      </trkpt>
      <trkpt lat="42.93914" lon="2.10142">
        <ele>504.9</ele>
        <time>2024-09-19T14:50:09.999Z</time>
      </trkpt>
      <trkpt lat="42.93946" lon="2.10174">
        <ele>502.06</ele>
        <time>2024-09-19T14:50:14.999Z</time>
      </trkpt>
      <trkpt lat="42.9394" lon="2.10219">
        <ele>500.25</ele>
        <time>2024-09-19T14:50:19.999Z</time>
      </trkpt>
      <trkpt lat="42.93902" lon="2.10211">
        <ele>500.01</ele>
        <time>2024-09-19T14:50:24.999Z</time>
      </trkpt>
      <trkpt lat="42.93873" lon="2.10214">
        <ele>498.8</ele>
        <time>2024-09-19T14:50:29.999Z</time>
      </trkpt>
      <trkpt lat="42.93834" lon="2.10229">
        <ele>497.39</ele>
        <time>2024-09-19T14:50:34.999Z</time>
      </trkpt>
      <trkpt lat="42.93794" lon="2.10244">
        <ele>496.58</ele>
        <time>2024-09-19T14:50:39.999Z</time>
      </trkpt>
      <trkpt lat="42.93763" lon="2.10275">
        <ele>495.71</ele>
        <time>2024-09-19T14:50:44.999Z</time>
      </trkpt>
      <trkpt lat="42.93738" lon="2.10317">
        <ele>495.14</ele>
        <time>2024-09-19T14:50:49.999Z</time>
      </trkpt>
      <trkpt lat="42.93711" lon="2.10357">
        <ele>494.49</ele>
        <time>2024-09-19T14:50:54.999Z</time>
      </trkpt>
      <trkpt lat="42.93678" lon="2.10386">
        <ele>493.59</ele>
        <time>2024-09-19T14:50:59.999Z</time>
      </trkpt>
      <trkpt lat="42.93647" lon="2.10414">
        <ele>492.46</ele>
        <time>2024-09-19T14:51:04.999Z</time>
      </trkpt>
      <trkpt lat="42.93614" lon="2.10436">
        <ele>490.62</ele>
        <time>2024-09-19T14:51:09.999Z</time>
      </trkpt>
      <trkpt lat="42.9358" lon="2.10446">
        <ele>488.59</ele>
        <time>2024-09-19T14:51:14.999Z</time>
      </trkpt>
      <trkpt lat="42.93561" lon="2.10484">
        <ele>486.74</ele>
        <time>2024-09-19T14:51:19.999Z</time>
      </trkpt>
      <trkpt lat="42.93552" lon="2.10532">
        <ele>484.58</ele>
        <time>2024-09-19T14:51:24.999Z</time>
      </trkpt>
      <trkpt lat="42.9353" lon="2.10571">
        <ele>482.93</ele>
        <time>2024-09-19T14:51:29.999Z</time>
      </trkpt>
      <trkpt lat="42.93503" lon="2.10603">
        <ele>481.73</ele>
        <time>2024-09-19T14:51:34.999Z</time>
      </trkpt>
      <trkpt lat="42.93483" lon="2.10644">
        <ele>480.77</ele>
        <time>2024-09-19T14:51:39.999Z</time>
      </trkpt>
      <trkpt lat="42.9347" lon="2.10686">
        <ele>479.66</ele>
        <time>2024-09-19T14:51:44.999Z</time>
      </trkpt>
      <trkpt lat="42.93459" lon="2.10727">
        <ele>478.69</ele>
        <time>2024-09-19T14:51:49.999Z</time>
      </trkpt>
      <trkpt lat="42.93449" lon="2.10765">
        <ele>478.07</ele>
        <time>2024-09-19T14:51:54.999Z</time>
      </trkpt>
      <trkpt lat="42.9344" lon="2.10803">
        <ele>477.44</ele>
        <time>2024-09-19T14:51:59.999Z</time>
      </trkpt>
      <trkpt lat="42.93431" lon="2.10839">
        <ele>476.87</ele>
        <time>2024-09-19T14:52:04.999Z</time>
      </trkpt>
      <trkpt lat="42.93423" lon="2.10874">
        <ele>476.35</ele>
        <time>2024-09-19T14:52:09.999Z</time>
      </trkpt>
      <trkpt lat="42.93414" lon="2.10907">
        <ele>475.97</ele>
        <time>2024-09-19T14:52:14.999Z</time>
      </trkpt>
      <trkpt lat="42.93411" lon="2.1094">
        <ele>475.62</ele>
        <time>2024-09-19T14:52:19.999Z</time>
      </trkpt>
      <trkpt lat="42.93425" lon="2.10969">
        <ele>474.58</ele>
        <time>2024-09-19T14:52:24.999Z</time>
      </trkpt>
      <trkpt lat="42.93446" lon="2.10992">
        <ele>473.18</ele>
        <time>2024-09-19T14:52:29.999Z</time>
      </trkpt>
      <trkpt lat="42.93469" lon="2.11017">
        <ele>471.83</ele>
        <time>2024-09-19T14:52:34.999Z</time>
      </trkpt>
      <trkpt lat="42.93496" lon="2.11042">
        <ele>470.92</ele>
        <time>2024-09-19T14:52:39.999Z</time>
      </trkpt>
      <trkpt lat="42.93526" lon="2.11065">
        <ele>470.08</ele>
        <time>2024-09-19T14:52:44.999Z</time>
      </trkpt>
      <trkpt lat="42.93548" lon="2.11104">
        <ele>469.14</ele>
        <time>2024-09-19T14:52:49.999Z</time>
      </trkpt>
      <trkpt lat="42.93567" lon="2.11147">
        <ele>467.82</ele>
        <time>2024-09-19T14:52:54.999Z</time>
      </trkpt>
      <trkpt lat="42.93587" lon="2.11191">
        <ele>466.07</ele>
        <time>2024-09-19T14:52:59.999Z</time>
      </trkpt>
      <trkpt lat="42.93602" lon="2.1124">
        <ele>464.54</ele>
        <time>2024-09-19T14:53:04.999Z</time>
      </trkpt>
      <trkpt lat="42.9362" lon="2.11286">
        <ele>461.91</ele>
        <time>2024-09-19T14:53:09.999Z</time>
      </trkpt>
      <trkpt lat="42.93657" lon="2.11298">
        <ele>459.27</ele>
        <time>2024-09-19T14:53:14.999Z</time>
      </trkpt>
      <trkpt lat="42.93696" lon="2.113">
        <ele>457.26</ele>
        <time>2024-09-19T14:53:19.999Z</time>
      </trkpt>
      <trkpt lat="42.9373" lon="2.11324">
        <ele>455.03</ele>
        <time>2024-09-19T14:53:24.999Z</time>
      </trkpt>
      <trkpt lat="42.93723" lon="2.11379">
        <ele>452.8</ele>
        <time>2024-09-19T14:53:29.999Z</time>
      </trkpt>
      <trkpt lat="42.93696" lon="2.11426">
        <ele>451.2</ele>
        <time>2024-09-19T14:53:34.999Z</time>
      </trkpt>
      <trkpt lat="42.9367" lon="2.11477">
        <ele>450.42</ele>
        <time>2024-09-19T14:53:39.999Z</time>
      </trkpt>
      <trkpt lat="42.93657" lon="2.11531">
        <ele>450.85</ele>
        <time>2024-09-19T14:53:44.999Z</time>
      </trkpt>
      <trkpt lat="42.93652" lon="2.11588">
        <ele>451.16</ele>
        <time>2024-09-19T14:53:49.999Z</time>
      </trkpt>
      <trkpt lat="42.93639" lon="2.11641">
        <ele>449.89</ele>
        <time>2024-09-19T14:53:54.999Z</time>
      </trkpt>
      <trkpt lat="42.93628" lon="2.11695">
        <ele>448.26</ele>
        <time>2024-09-19T14:53:59.999Z</time>
      </trkpt>
      <trkpt lat="42.93634" lon="2.11749">
        <ele>446.56</ele>
        <time>2024-09-19T14:54:04.999Z</time>
      </trkpt>
      <trkpt lat="42.93659" lon="2.1179">
        <ele>444.07</ele>
        <time>2024-09-19T14:54:09.999Z</time>
      </trkpt>
      <trkpt lat="42.9369" lon="2.11824">
        <ele>441.44</ele>
        <time>2024-09-19T14:54:15.000Z</time>
      </trkpt>
      <trkpt lat="42.93712" lon="2.11868">
        <ele>439.48</ele>
        <time>2024-09-19T14:54:20.000Z</time>
      </trkpt>
      <trkpt lat="42.93739" lon="2.11906">
        <ele>437.69</ele>
        <time>2024-09-19T14:54:25.000Z</time>
      </trkpt>
      <trkpt lat="42.93762" lon="2.11949">
        <ele>435.92</ele>
        <time>2024-09-19T14:54:30.000Z</time>
      </trkpt>
      <trkpt lat="42.93751" lon="2.12002">
        <ele>434.27</ele>
        <time>2024-09-19T14:54:35.000Z</time>
      </trkpt>
      <trkpt lat="42.93753" lon="2.12055">
        <ele>432.71</ele>
        <time>2024-09-19T14:54:40.000Z</time>
      </trkpt>
      <trkpt lat="42.9375" lon="2.12106">
        <ele>431.39</ele>
        <time>2024-09-19T14:54:45.000Z</time>
      </trkpt>
      <trkpt lat="42.93739" lon="2.12156">
        <ele>430.03</ele>
        <time>2024-09-19T14:54:50.000Z</time>
      </trkpt>
      <trkpt lat="42.9373" lon="2.12205">
        <ele>428.74</ele>
        <time>2024-09-19T14:54:55.000Z</time>
      </trkpt>
      <trkpt lat="42.93745" lon="2.12249">
        <ele>427.51</ele>
        <time>2024-09-19T14:55:00.000Z</time>
      </trkpt>
      <trkpt lat="42.93772" lon="2.12287">
        <ele>425.15</ele>
        <time>2024-09-19T14:55:05.000Z</time>
      </trkpt>
      <trkpt lat="42.93778" lon="2.12339">
        <ele>422.98</ele>
        <time>2024-09-19T14:55:10.000Z</time>
      </trkpt>
      <trkpt lat="42.93765" lon="2.12393">
        <ele>421.24</ele>
        <time>2024-09-19T14:55:15.000Z</time>
      </trkpt>
      <trkpt lat="42.93752" lon="2.12446">
        <ele>419.92</ele>
        <time>2024-09-19T14:55:20.000Z</time>
      </trkpt>
      <trkpt lat="42.9374" lon="2.12499">
        <ele>418.79</ele>
        <time>2024-09-19T14:55:25.000Z</time>
      </trkpt>
      <trkpt lat="42.93727" lon="2.12552">
        <ele>417.83</ele>
        <time>2024-09-19T14:55:30.000Z</time>
      </trkpt>
      <trkpt lat="42.93712" lon="2.12603">
        <ele>416.68</ele>
        <time>2024-09-19T14:55:35.000Z</time>
      </trkpt>
      <trkpt lat="42.93694" lon="2.12652">
        <ele>415.54</ele>
        <time>2024-09-19T14:55:40.000Z</time>
      </trkpt>
      <trkpt lat="42.9368" lon="2.12701">
        <ele>414.59</ele>
        <time>2024-09-19T14:55:45.000Z</time>
      </trkpt>
      <trkpt lat="42.93677" lon="2.12751">
        <ele>413.32</ele>
        <time>2024-09-19T14:55:50.000Z</time>
      </trkpt>
      <trkpt lat="42.9369" lon="2.12799">
        <ele>411.66</ele>
        <time>2024-09-19T14:55:55.000Z</time>
      </trkpt>
      <trkpt lat="42.93708" lon="2.12844">
        <ele>409.33</ele>
        <time>2024-09-19T14:56:00.000Z</time>
      </trkpt>
      <trkpt lat="42.93719" lon="2.12896">
        <ele>406.79</ele>
        <time>2024-09-19T14:56:05.000Z</time>
      </trkpt>
      <trkpt lat="42.93715" lon="2.12949">
        <ele>404.55</ele>
        <time>2024-09-19T14:56:10.000Z</time>
      </trkpt>
      <trkpt lat="42.93715" lon="2.13">
        <ele>402.51</ele>
        <time>2024-09-19T14:56:15.000Z</time>
      </trkpt>
      <trkpt lat="42.93715" lon="2.1305">
        <ele>400.78</ele>
        <time>2024-09-19T14:56:20.000Z</time>
      </trkpt>
      <trkpt lat="42.93721" lon="2.13097">
        <ele>399.25</ele>
        <time>2024-09-19T14:56:25.000Z</time>
      </trkpt>
      <trkpt lat="42.93727" lon="2.13146">
        <ele>397.59</ele>
        <time>2024-09-19T14:56:30.000Z</time>
      </trkpt>
      <trkpt lat="42.93727" lon="2.13198">
        <ele>395.67</ele>
        <time>2024-09-19T14:56:35.000Z</time>
      </trkpt>
      <trkpt lat="42.93728" lon="2.13249">
        <ele>394.19</ele>
        <time>2024-09-19T14:56:40.000Z</time>
      </trkpt>
      <trkpt lat="42.93739" lon="2.13298">
        <ele>392.83</ele>
        <time>2024-09-19T14:56:45.000Z</time>
      </trkpt>
      <trkpt lat="42.93756" lon="2.13345">
        <ele>391.18</ele>
        <time>2024-09-19T14:56:50.000Z</time>
      </trkpt>
      <trkpt lat="42.93768" lon="2.134">
        <ele>389.23</ele>
        <time>2024-09-19T14:56:55.000Z</time>
      </trkpt>
      <trkpt lat="42.93767" lon="2.13458">
        <ele>386.9</ele>
        <time>2024-09-19T14:57:00.000Z</time>
      </trkpt>
      <trkpt lat="42.9376" lon="2.13515">
        <ele>385</ele>
        <time>2024-09-19T14:57:05.000Z</time>
      </trkpt>
      <trkpt lat="42.93752" lon="2.13569">
        <ele>383.36</ele>
        <time>2024-09-19T14:57:10.000Z</time>
      </trkpt>
      <trkpt lat="42.93761" lon="2.13621">
        <ele>381.64</ele>
        <time>2024-09-19T14:57:15.000Z</time>
      </trkpt>
      <trkpt lat="42.93769" lon="2.13674">
        <ele>379.69</ele>
        <time>2024-09-19T14:57:20.000Z</time>
      </trkpt>
      <trkpt lat="42.93768" lon="2.13728">
        <ele>377.62</ele>
        <time>2024-09-19T14:57:25.000Z</time>
      </trkpt>
      <trkpt lat="42.9376" lon="2.13783">
        <ele>375.72</ele>
        <time>2024-09-19T14:57:30.000Z</time>
      </trkpt>
      <trkpt lat="42.93751" lon="2.13836">
        <ele>374</ele>
        <time>2024-09-19T14:57:35.000Z</time>
      </trkpt>
      <trkpt lat="42.93727" lon="2.13882">
        <ele>372.71</ele>
        <time>2024-09-19T14:57:40.000Z</time>
      </trkpt>
      <trkpt lat="42.93706" lon="2.13933">
        <ele>371.59</ele>
        <time>2024-09-19T14:57:45.000Z</time>
      </trkpt>
      <trkpt lat="42.93693" lon="2.13988">
        <ele>370.4</ele>
        <time>2024-09-19T14:57:50.000Z</time>
      </trkpt>
      <trkpt lat="42.93695" lon="2.14046">
        <ele>369.42</ele>
        <time>2024-09-19T14:57:55.000Z</time>
      </trkpt>
      <trkpt lat="42.93701" lon="2.14105">
        <ele>368.62</ele>
        <time>2024-09-19T14:58:00.000Z</time>
      </trkpt>
      <trkpt lat="42.93707" lon="2.14163">
        <ele>366.98</ele>
        <time>2024-09-19T14:58:05.000Z</time>
      </trkpt>
      <trkpt lat="42.93715" lon="2.14218">
        <ele>365.33</ele>
        <time>2024-09-19T14:58:10.000Z</time>
      </trkpt>
      <trkpt lat="42.93716" lon="2.14268">
        <ele>363.66</ele>
        <time>2024-09-19T14:58:15.000Z</time>
      </trkpt>
      <trkpt lat="42.93717" lon="2.14318">
        <ele>361.52</ele>
        <time>2024-09-19T14:58:20.000Z</time>
      </trkpt>
      <trkpt lat="42.93709" lon="2.14366">
        <ele>359.4</ele>
        <time>2024-09-19T14:58:25.000Z</time>
      </trkpt>
      <trkpt lat="42.9371" lon="2.14412">
        <ele>358.04</ele>
        <time>2024-09-19T14:58:30.000Z</time>
      </trkpt>
      <trkpt lat="42.93715" lon="2.14454">
        <ele>356.6</ele>
        <time>2024-09-19T14:58:35.000Z</time>
      </trkpt>
      <trkpt lat="42.9372" lon="2.14496">
        <ele>354.8</ele>
        <time>2024-09-19T14:58:40.000Z</time>
      </trkpt>
      <trkpt lat="42.93726" lon="2.14539">
        <ele>352.47</ele>
        <time>2024-09-19T14:58:45.000Z</time>
      </trkpt>
      <trkpt lat="42.93732" lon="2.14582">
        <ele>350.51</ele>
        <time>2024-09-19T14:58:50.000Z</time>
      </trkpt>
      <trkpt lat="42.93743" lon="2.14617">
        <ele>348.22</ele>
        <time>2024-09-19T14:58:55.000Z</time>
      </trkpt>
      <trkpt lat="42.93757" lon="2.14643">
        <ele>344.61</ele>
        <time>2024-09-19T14:59:00.000Z</time>
      </trkpt>
      <trkpt lat="42.9377" lon="2.14671">
        <ele>342.29</ele>
        <time>2024-09-19T14:59:05.000Z</time>
      </trkpt>
      <trkpt lat="42.93781" lon="2.14693">
        <ele>342.55</ele>
        <time>2024-09-19T14:59:10.000Z</time>
      </trkpt>
      <trkpt lat="42.93792" lon="2.14714">
        <ele>342.49</ele>
        <time>2024-09-19T14:59:15.000Z</time>
      </trkpt>
      <trkpt lat="42.93802" lon="2.14738">
        <ele>341.21</ele>
        <time>2024-09-19T14:59:20.000Z</time>
      </trkpt>
      <trkpt lat="42.93813" lon="2.14761">
        <ele>339.19</ele>
        <time>2024-09-19T14:59:25.000Z</time>
      </trkpt>
      <trkpt lat="42.93825" lon="2.14787">
        <ele>337.78</ele>
        <time>2024-09-19T14:59:30.000Z</time>
      </trkpt>
      <trkpt lat="42.93839" lon="2.14813">
        <ele>337.03</ele>
        <time>2024-09-19T14:59:35.000Z</time>
      </trkpt>
      <trkpt lat="42.93852" lon="2.14836">
        <ele>336.19</ele>
        <time>2024-09-19T14:59:40.000Z</time>
      </trkpt>
      <trkpt lat="42.93868" lon="2.14864">
        <ele>335.1</ele>
        <time>2024-09-19T14:59:45.000Z</time>
      </trkpt>
      <trkpt lat="42.93879" lon="2.14893">
        <ele>334.36</ele>
        <time>2024-09-19T14:59:50.000Z</time>
      </trkpt>
      <trkpt lat="42.93889" lon="2.1492">
        <ele>333.97</ele>
        <time>2024-09-19T14:59:55.000Z</time>
      </trkpt>
      <trkpt lat="42.939" lon="2.14948">
        <ele>333.81</ele>
        <time>2024-09-19T15:00:00.000Z</time>
      </trkpt>
      <trkpt lat="42.93908" lon="2.1497">
        <ele>333.79</ele>
        <time>2024-09-19T15:00:05.000Z</time>
      </trkpt>
      <trkpt lat="42.93915" lon="2.14995">
        <ele>333.75</ele>
        <time>2024-09-19T15:00:10.000Z</time>
      </trkpt>
      <trkpt lat="42.93918" lon="2.15025">
        <ele>333.42</ele>
        <time>2024-09-19T15:00:15.000Z</time>
      </trkpt>
      <trkpt lat="42.93919" lon="2.15058">
        <ele>333.2</ele>
        <time>2024-09-19T15:00:20.000Z</time>
      </trkpt>
      <trkpt lat="42.9392" lon="2.15093">
        <ele>333</ele>
        <time>2024-09-19T15:00:25.000Z</time>
      </trkpt>
      <trkpt lat="42.93921" lon="2.15132">
        <ele>332.72</ele>
        <time>2024-09-19T15:00:30.000Z</time>
      </trkpt>
      <trkpt lat="42.93923" lon="2.1517">
        <ele>332.28</ele>
        <time>2024-09-19T15:00:35.000Z</time>
      </trkpt>
      <trkpt lat="42.93924" lon="2.15212">
        <ele>331.87</ele>
        <time>2024-09-19T15:00:40.000Z</time>
      </trkpt>
      <trkpt lat="42.93925" lon="2.15249">
        <ele>331.63</ele>
        <time>2024-09-19T15:00:45.000Z</time>
      </trkpt>
      <trkpt lat="42.93931" lon="2.15281">
        <ele>331.5</ele>
        <time>2024-09-19T15:00:50.000Z</time>
      </trkpt>
      <trkpt lat="42.9394" lon="2.15312">
        <ele>331.49</ele>
        <time>2024-09-19T15:00:55.000Z</time>
      </trkpt>
      <trkpt lat="42.93948" lon="2.15343">
        <ele>331.51</ele>
        <time>2024-09-19T15:01:00.000Z</time>
      </trkpt>
      <trkpt lat="42.93955" lon="2.15374">
        <ele>331.5</ele>
        <time>2024-09-19T15:01:05.000Z</time>
      </trkpt>
      <trkpt lat="42.93964" lon="2.15405">
        <ele>331.42</ele>
        <time>2024-09-19T15:01:10.000Z</time>
      </trkpt>
      <trkpt lat="42.93973" lon="2.1544">
        <ele>331.32</ele>
        <time>2024-09-19T15:01:15.000Z</time>
      </trkpt>
      <trkpt lat="42.93981" lon="2.15474">
        <ele>331.19</ele>
        <time>2024-09-19T15:01:20.000Z</time>
      </trkpt>
      <trkpt lat="42.93989" lon="2.15506">
        <ele>331.06</ele>
        <time>2024-09-19T15:01:25.000Z</time>
      </trkpt>
      <trkpt lat="42.93995" lon="2.15532">
        <ele>330.96</ele>
        <time>2024-09-19T15:01:30.000Z</time>
      </trkpt>
      <trkpt lat="42.94001" lon="2.15554">
        <ele>330.96</ele>
        <time>2024-09-19T15:01:35.000Z</time>
      </trkpt>
      <trkpt lat="42.94007" lon="2.15578">
        <ele>330.94</ele>
        <time>2024-09-19T15:01:40.000Z</time>
      </trkpt>
      <trkpt lat="42.94014" lon="2.15604">
        <ele>330.93</ele>
        <time>2024-09-19T15:01:45.000Z</time>
      </trkpt>
      <trkpt lat="42.94021" lon="2.15631">
        <ele>330.94</ele>
        <time>2024-09-19T15:01:50.000Z</time>
      </trkpt>
      <trkpt lat="42.94028" lon="2.15659">
        <ele>330.93</ele>
        <time>2024-09-19T15:01:55.000Z</time>
      </trkpt>
      <trkpt lat="42.94038" lon="2.15697">
        <ele>330.81</ele>
        <time>2024-09-19T15:02:00.000Z</time>
      </trkpt>
      <trkpt lat="42.94049" lon="2.15738">
        <ele>330.46</ele>
        <time>2024-09-19T15:02:05.000Z</time>
      </trkpt>
      <trkpt lat="42.94069" lon="2.15769">
        <ele>330.07</ele>
        <time>2024-09-19T15:02:10.000Z</time>
      </trkpt>
      <trkpt lat="42.94091" lon="2.15796">
        <ele>329.77</ele>
        <time>2024-09-19T15:02:15.000Z</time>
      </trkpt>
      <trkpt lat="42.94111" lon="2.15817">
        <ele>329.86</ele>
        <time>2024-09-19T15:02:20.000Z</time>
      </trkpt>
      <trkpt lat="42.94125" lon="2.15835">
        <ele>329.7</ele>
        <time>2024-09-19T15:02:25.000Z</time>
      </trkpt>
      <trkpt lat="42.94137" lon="2.15858">
        <ele>329.49</ele>
        <time>2024-09-19T15:02:30.000Z</time>
      </trkpt>
      <trkpt lat="42.94147" lon="2.15882">
        <ele>329.44</ele>
        <time>2024-09-19T15:02:35.000Z</time>
      </trkpt>
      <trkpt lat="42.94156" lon="2.15905">
        <ele>329.22</ele>
        <time>2024-09-19T15:02:40.000Z</time>
      </trkpt>
      <trkpt lat="42.94166" lon="2.15932">
        <ele>328.99</ele>
        <time>2024-09-19T15:02:45.000Z</time>
      </trkpt>
      <trkpt lat="42.94176" lon="2.15963">
        <ele>328.67</ele>
        <time>2024-09-19T15:02:50.000Z</time>
      </trkpt>
      <trkpt lat="42.94184" lon="2.15999">
        <ele>328.25</ele>
        <time>2024-09-19T15:02:55.000Z</time>
      </trkpt>
      <trkpt lat="42.94189" lon="2.16041">
        <ele>327.77</ele>
        <time>2024-09-19T15:03:00.000Z</time>
      </trkpt>
      <trkpt lat="42.94193" lon="2.16085">
        <ele>327.1</ele>
        <time>2024-09-19T15:03:05.000Z</time>
      </trkpt>
      <trkpt lat="42.94198" lon="2.1613">
        <ele>326.29</ele>
        <time>2024-09-19T15:03:10.000Z</time>
      </trkpt>
      <trkpt lat="42.94202" lon="2.16173">
        <ele>325.56</ele>
        <time>2024-09-19T15:03:15.000Z</time>
      </trkpt>
      <trkpt lat="42.94205" lon="2.16214">
        <ele>324.99</ele>
        <time>2024-09-19T15:03:20.000Z</time>
      </trkpt>
      <trkpt lat="42.94207" lon="2.1625">
        <ele>324.65</ele>
        <time>2024-09-19T15:03:25.000Z</time>
      </trkpt>
      <trkpt lat="42.94209" lon="2.16284">
        <ele>324.4</ele>
        <time>2024-09-19T15:03:30.000Z</time>
      </trkpt>
      <trkpt lat="42.9421" lon="2.16313">
        <ele>324.31</ele>
        <time>2024-09-19T15:03:35.000Z</time>
      </trkpt>
      <trkpt lat="42.94212" lon="2.16338">
        <ele>324.42</ele>
        <time>2024-09-19T15:03:40.000Z</time>
      </trkpt>
      <trkpt lat="42.94215" lon="2.16364">
        <ele>324.34</ele>
        <time>2024-09-19T15:03:45.000Z</time>
      </trkpt>
      <trkpt lat="42.94219" lon="2.16392">
        <ele>324.02</ele>
        <time>2024-09-19T15:03:50.000Z</time>
      </trkpt>
      <trkpt lat="42.94223" lon="2.1642">
        <ele>323.6</ele>
        <time>2024-09-19T15:03:55.000Z</time>
      </trkpt>
      <trkpt lat="42.94225" lon="2.16454">
        <ele>323.1</ele>
        <time>2024-09-19T15:04:00.000Z</time>
      </trkpt>
      <trkpt lat="42.94227" lon="2.16493">
        <ele>322.71</ele>
        <time>2024-09-19T15:04:05.000Z</time>
      </trkpt>
      <trkpt lat="42.94229" lon="2.16538">
        <ele>322.21</ele>
        <time>2024-09-19T15:04:10.000Z</time>
      </trkpt>
      <trkpt lat="42.9423" lon="2.16581">
        <ele>321.6</ele>
        <time>2024-09-19T15:04:15.000Z</time>
      </trkpt>
      <trkpt lat="42.94232" lon="2.16618">
        <ele>321.11</ele>
        <time>2024-09-19T15:04:20.000Z</time>
      </trkpt>
      <trkpt lat="42.94234" lon="2.1665">
        <ele>320.74</ele>
        <time>2024-09-19T15:04:25.000Z</time>
      </trkpt>
      <trkpt lat="42.94235" lon="2.16682">
        <ele>320.4</ele>
        <time>2024-09-19T15:04:30.000Z</time>
      </trkpt>
      <trkpt lat="42.94235" lon="2.16713">
        <ele>319.96</ele>
        <time>2024-09-19T15:04:35.000Z</time>
      </trkpt>
      <trkpt lat="42.94236" lon="2.16743">
        <ele>319.44</ele>
        <time>2024-09-19T15:04:40.000Z</time>
      </trkpt>
      <trkpt lat="42.94237" lon="2.16775">
        <ele>318.89</ele>
        <time>2024-09-19T15:04:45.000Z</time>
      </trkpt>
      <trkpt lat="42.94238" lon="2.16805">
        <ele>318.45</ele>
        <time>2024-09-19T15:04:50.000Z</time>
      </trkpt>
      <trkpt lat="42.9424" lon="2.16839">
        <ele>318.08</ele>
        <time>2024-09-19T15:04:55.000Z</time>
      </trkpt>
      <trkpt lat="42.94241" lon="2.16874">
        <ele>317.75</ele>
        <time>2024-09-19T15:05:00.000Z</time>
      </trkpt>
      <trkpt lat="42.94242" lon="2.1691">
        <ele>317.44</ele>
        <time>2024-09-19T15:05:05.000Z</time>
      </trkpt>
      <trkpt lat="42.94243" lon="2.16943">
        <ele>317.2</ele>
        <time>2024-09-19T15:05:10.000Z</time>
      </trkpt>
      <trkpt lat="42.94244" lon="2.16979">
        <ele>317.11</ele>
        <time>2024-09-19T15:05:15.000Z</time>
      </trkpt>
      <trkpt lat="42.94246" lon="2.17014">
        <ele>317.02</ele>
        <time>2024-09-19T15:05:20.000Z</time>
      </trkpt>
      <trkpt lat="42.94247" lon="2.1705">
        <ele>316.93</ele>
        <time>2024-09-19T15:05:25.000Z</time>
      </trkpt>
      <trkpt lat="42.94248" lon="2.17083">
        <ele>316.86</ele>
        <time>2024-09-19T15:05:30.000Z</time>
      </trkpt>
      <trkpt lat="42.94246" lon="2.17112">
        <ele>316.82</ele>
        <time>2024-09-19T15:05:35.000Z</time>
      </trkpt>
      <trkpt lat="42.94245" lon="2.17138">
        <ele>316.77</ele>
        <time>2024-09-19T15:05:40.000Z</time>
      </trkpt>
      <trkpt lat="42.94242" lon="2.17163">
        <ele>316.46</ele>
        <time>2024-09-19T15:05:45.000Z</time>
      </trkpt>
      <trkpt lat="42.9424" lon="2.17192">
        <ele>315.99</ele>
        <time>2024-09-19T15:05:50.000Z</time>
      </trkpt>
      <trkpt lat="42.94239" lon="2.1722">
        <ele>315.63</ele>
        <time>2024-09-19T15:05:55.000Z</time>
      </trkpt>
      <trkpt lat="42.9424" lon="2.17249">
        <ele>315.39</ele>
        <time>2024-09-19T15:06:00.000Z</time>
      </trkpt>
      <trkpt lat="42.94241" lon="2.1728">
        <ele>315.14</ele>
        <time>2024-09-19T15:06:05.000Z</time>
      </trkpt>
      <trkpt lat="42.94244" lon="2.17309">
        <ele>314.97</ele>
        <time>2024-09-19T15:06:10.000Z</time>
      </trkpt>
      <trkpt lat="42.94248" lon="2.17344">
        <ele>314.83</ele>
        <time>2024-09-19T15:06:15.000Z</time>
      </trkpt>
      <trkpt lat="42.94253" lon="2.17388">
        <ele>314.59</ele>
        <time>2024-09-19T15:06:20.999Z</time>
      </trkpt>
      <trkpt lat="42.94256" lon="2.17426">
        <ele>314.32</ele>
        <time>2024-09-19T15:06:25.999Z</time>
      </trkpt>
      <trkpt lat="42.94259" lon="2.17463">
        <ele>313.88</ele>
        <time>2024-09-19T15:06:30.999Z</time>
      </trkpt>
      <trkpt lat="42.94261" lon="2.17502">
        <ele>313.55</ele>
        <time>2024-09-19T15:06:35.999Z</time>
      </trkpt>
      <trkpt lat="42.94264" lon="2.17538">
        <ele>313.33</ele>
        <time>2024-09-19T15:06:40.999Z</time>
      </trkpt>
      <trkpt lat="42.94267" lon="2.17574">
        <ele>313.14</ele>
        <time>2024-09-19T15:06:45.999Z</time>
      </trkpt>
      <trkpt lat="42.9427" lon="2.17614">
        <ele>312.93</ele>
        <time>2024-09-19T15:06:50.999Z</time>
      </trkpt>
      <trkpt lat="42.94274" lon="2.17659">
        <ele>312.66</ele>
        <time>2024-09-19T15:06:55.999Z</time>
      </trkpt>
      <trkpt lat="42.94278" lon="2.17709">
        <ele>312.23</ele>
        <time>2024-09-19T15:07:00.999Z</time>
      </trkpt>
      <trkpt lat="42.94282" lon="2.1776">
        <ele>311.83</ele>
        <time>2024-09-19T15:07:05.999Z</time>
      </trkpt>
      <trkpt lat="42.94286" lon="2.17808">
        <ele>311.49</ele>
        <time>2024-09-19T15:07:10.999Z</time>
      </trkpt>
      <trkpt lat="42.94288" lon="2.1785">
        <ele>311.18</ele>
        <time>2024-09-19T15:07:15.999Z</time>
      </trkpt>
      <trkpt lat="42.94291" lon="2.17885">
        <ele>310.85</ele>
        <time>2024-09-19T15:07:20.999Z</time>
      </trkpt>
      <trkpt lat="42.94293" lon="2.17913">
        <ele>310.25</ele>
        <time>2024-09-19T15:07:25.999Z</time>
      </trkpt>
      <trkpt lat="42.94296" lon="2.17937">
        <ele>310</ele>
        <time>2024-09-19T15:07:30.999Z</time>
      </trkpt>
      <trkpt lat="42.94297" lon="2.17962">
        <ele>309.92</ele>
        <time>2024-09-19T15:07:35.999Z</time>
      </trkpt>
      <trkpt lat="42.94296" lon="2.17988">
        <ele>309.83</ele>
        <time>2024-09-19T15:07:40.999Z</time>
      </trkpt>
      <trkpt lat="42.9429" lon="2.18011">
        <ele>309.72</ele>
        <time>2024-09-19T15:07:45.999Z</time>
      </trkpt>
      <trkpt lat="42.94283" lon="2.18033">
        <ele>309.6</ele>
        <time>2024-09-19T15:07:50.999Z</time>
      </trkpt>
      <trkpt lat="42.94277" lon="2.18059">
        <ele>308.54</ele>
        <time>2024-09-19T15:07:55.999Z</time>
      </trkpt>
      <trkpt lat="42.9427" lon="2.18094">
        <ele>307.48</ele>
        <time>2024-09-19T15:08:00.999Z</time>
      </trkpt>
      <trkpt lat="42.94263" lon="2.18131">
        <ele>306.74</ele>
        <time>2024-09-19T15:08:05.999Z</time>
      </trkpt>
      <trkpt lat="42.94256" lon="2.18169">
        <ele>306.38</ele>
        <time>2024-09-19T15:08:10.999Z</time>
      </trkpt>
      <trkpt lat="42.94249" lon="2.18205">
        <ele>306.12</ele>
        <time>2024-09-19T15:08:15.999Z</time>
      </trkpt>
      <trkpt lat="42.94242" lon="2.18241">
        <ele>305.9</ele>
        <time>2024-09-19T15:08:20.999Z</time>
      </trkpt>
      <trkpt lat="42.94235" lon="2.18273">
        <ele>305.61</ele>
        <time>2024-09-19T15:08:25.999Z</time>
      </trkpt>
      <trkpt lat="42.9423" lon="2.18301">
        <ele>305.29</ele>
        <time>2024-09-19T15:08:30.999Z</time>
      </trkpt>
      <trkpt lat="42.94226" lon="2.18326">
        <ele>305.06</ele>
        <time>2024-09-19T15:08:35.999Z</time>
      </trkpt>
      <trkpt lat="42.94222" lon="2.18355">
        <ele>304.78</ele>
        <time>2024-09-19T15:08:40.999Z</time>
      </trkpt>
      <trkpt lat="42.94217" lon="2.18381">
        <ele>304.62</ele>
        <time>2024-09-19T15:08:45.999Z</time>
      </trkpt>
      <trkpt lat="42.9421" lon="2.18405">
        <ele>304.49</ele>
        <time>2024-09-19T15:08:50.999Z</time>
      </trkpt>
      <trkpt lat="42.94199" lon="2.18429">
        <ele>304.23</ele>
        <time>2024-09-19T15:08:55.999Z</time>
      </trkpt>
      <trkpt lat="42.94185" lon="2.18455">
        <ele>304.03</ele>
        <time>2024-09-19T15:09:00.999Z</time>
      </trkpt>
      <trkpt lat="42.94171" lon="2.18486">
        <ele>303.79</ele>
        <time>2024-09-19T15:09:05.999Z</time>
      </trkpt>
      <trkpt lat="42.94162" lon="2.18521">
        <ele>303.59</ele>
        <time>2024-09-19T15:09:10.999Z</time>
      </trkpt>
      <trkpt lat="42.94151" lon="2.18558">
        <ele>303.44</ele>
        <time>2024-09-19T15:09:15.999Z</time>
      </trkpt>
      <trkpt lat="42.9414" lon="2.18596">
        <ele>303.3</ele>
        <time>2024-09-19T15:09:20.999Z</time>
      </trkpt>
      <trkpt lat="42.94128" lon="2.18635">
        <ele>303.12</ele>
        <time>2024-09-19T15:09:25.999Z</time>
      </trkpt>
      <trkpt lat="42.94116" lon="2.18675">
        <ele>302.9</ele>
        <time>2024-09-19T15:09:30.999Z</time>
      </trkpt>
      <trkpt lat="42.94106" lon="2.18713">
        <ele>302.69</ele>
        <time>2024-09-19T15:09:35.999Z</time>
      </trkpt>
      <trkpt lat="42.94095" lon="2.18748">
        <ele>302.22</ele>
        <time>2024-09-19T15:09:40.999Z</time>
      </trkpt>
      <trkpt lat="42.94085" lon="2.18783">
        <ele>301.4</ele>
        <time>2024-09-19T15:09:45.999Z</time>
      </trkpt>
      <trkpt lat="42.94074" lon="2.18817">
        <ele>300.83</ele>
        <time>2024-09-19T15:09:50.999Z</time>
      </trkpt>
      <trkpt lat="42.9406" lon="2.1885">
        <ele>300.91</ele>
        <time>2024-09-19T15:09:55.999Z</time>
      </trkpt>
      <trkpt lat="42.9404" lon="2.18868">
        <ele>301.19</ele>
        <time>2024-09-19T15:10:00.999Z</time>
      </trkpt>
      <trkpt lat="42.9402" lon="2.18879">
        <ele>301.18</ele>
        <time>2024-09-19T15:10:05.999Z</time>
      </trkpt>
      <trkpt lat="42.93996" lon="2.18891">
        <ele>300.59</ele>
        <time>2024-09-19T15:10:10.999Z</time>
      </trkpt>
      <trkpt lat="42.93972" lon="2.18909">
        <ele>300.1</ele>
        <time>2024-09-19T15:10:15.999Z</time>
      </trkpt>
      <trkpt lat="42.93953" lon="2.18933">
        <ele>299.69</ele>
        <time>2024-09-19T15:10:20.999Z</time>
      </trkpt>
      <trkpt lat="42.93939" lon="2.18963">
        <ele>299.19</ele>
        <time>2024-09-19T15:10:25.999Z</time>
      </trkpt>
      <trkpt lat="42.9393" lon="2.18997">
        <ele>298.59</ele>
        <time>2024-09-19T15:10:30.999Z</time>
      </trkpt>
      <trkpt lat="42.93924" lon="2.19031">
        <ele>297.99</ele>
        <time>2024-09-19T15:10:35.999Z</time>
      </trkpt>
      <trkpt lat="42.9391" lon="2.19067">
        <ele>297.47</ele>
        <time>2024-09-19T15:10:40.999Z</time>
      </trkpt>
      <trkpt lat="42.9389" lon="2.19102">
        <ele>297.02</ele>
        <time>2024-09-19T15:10:45.999Z</time>
      </trkpt>
      <trkpt lat="42.93866" lon="2.19136">
        <ele>296.36</ele>
        <time>2024-09-19T15:10:50.999Z</time>
      </trkpt>
      <trkpt lat="42.93849" lon="2.19157">
        <ele>295.82</ele>
        <time>2024-09-19T15:10:55.999Z</time>
      </trkpt>
      <trkpt lat="42.93844" lon="2.1917">
        <ele>295.66</ele>
        <time>2024-09-19T15:11:11.999Z</time>
      </trkpt>
      <trkpt lat="42.93846" lon="2.19182">
        <ele>295.21</ele>
        <time>2024-09-19T15:11:40.999Z</time>
      </trkpt>
      <trkpt lat="42.93845" lon="2.19197">
        <ele>294.81</ele>
        <time>2024-09-19T15:11:45.999Z</time>
      </trkpt>
      <trkpt lat="42.93845" lon="2.1922">
        <ele>293.05</ele>
        <time>2024-09-19T15:11:50.999Z</time>
      </trkpt>
      <trkpt lat="42.93843" lon="2.19246">
        <ele>291.9</ele>
        <time>2024-09-19T15:11:55.999Z</time>
      </trkpt>
      <trkpt lat="42.93843" lon="2.1927">
        <ele>291.53</ele>
        <time>2024-09-19T15:12:00.999Z</time>
      </trkpt>
      <trkpt lat="42.93844" lon="2.19284">
        <ele>291.02</ele>
        <time>2024-09-19T15:12:06.999Z</time>
      </trkpt>
      <trkpt lat="42.93846" lon="2.19297">
        <ele>290.59</ele>
        <time>2024-09-19T15:12:11.999Z</time>
      </trkpt>
      <trkpt lat="42.93848" lon="2.19311">
        <ele>290.16</ele>
        <time>2024-09-19T15:12:16.999Z</time>
      </trkpt>
      <trkpt lat="42.9385" lon="2.19326">
        <ele>289.72</ele>
        <time>2024-09-19T15:12:21.999Z</time>
      </trkpt>
      <trkpt lat="42.9385" lon="2.19345">
        <ele>289.29</ele>
        <time>2024-09-19T15:12:26.999Z</time>
      </trkpt>
      <trkpt lat="42.93844" lon="2.19364">
        <ele>288.87</ele>
        <time>2024-09-19T15:12:31.999Z</time>
      </trkpt>
      <trkpt lat="42.93835" lon="2.19381">
        <ele>288.47</ele>
        <time>2024-09-19T15:12:36.999Z</time>
      </trkpt>
      <trkpt lat="42.93825" lon="2.19399">
        <ele>287.44</ele>
        <time>2024-09-19T15:12:41.999Z</time>
      </trkpt>
      <trkpt lat="42.93812" lon="2.19417">
        <ele>286.56</ele>
        <time>2024-09-19T15:12:46.999Z</time>
      </trkpt>
      <trkpt lat="42.93798" lon="2.19439">
        <ele>285.3</ele>
        <time>2024-09-19T15:12:51.999Z</time>
      </trkpt>
      <trkpt lat="42.93784" lon="2.19461">
        <ele>284.47</ele>
        <time>2024-09-19T15:12:56.999Z</time>
      </trkpt>
      <trkpt lat="42.9377" lon="2.19483">
        <ele>284.26</ele>
        <time>2024-09-19T15:13:01.999Z</time>
      </trkpt>
      <trkpt lat="42.93754" lon="2.19506">
        <ele>283.95</ele>
        <time>2024-09-19T15:13:06.999Z</time>
      </trkpt>
      <trkpt lat="42.93738" lon="2.19533">
        <ele>283.66</ele>
        <time>2024-09-19T15:13:11.999Z</time>
      </trkpt>
      <trkpt lat="42.93721" lon="2.19564">
        <ele>283.57</ele>
        <time>2024-09-19T15:13:16.999Z</time>
      </trkpt>
      <trkpt lat="42.93702" lon="2.19602">
        <ele>283.56</ele>
        <time>2024-09-19T15:13:21.999Z</time>
      </trkpt>
      <trkpt lat="42.93684" lon="2.19642">
        <ele>283.49</ele>
        <time>2024-09-19T15:13:26.999Z</time>
      </trkpt>
      <trkpt lat="42.93664" lon="2.19682">
        <ele>283.24</ele>
        <time>2024-09-19T15:13:31.999Z</time>
      </trkpt>
      <trkpt lat="42.93644" lon="2.19726">
        <ele>282.61</ele>
        <time>2024-09-19T15:13:36.999Z</time>
      </trkpt>
      <trkpt lat="42.93626" lon="2.19767">
        <ele>282.35</ele>
        <time>2024-09-19T15:13:41.999Z</time>
      </trkpt>
      <trkpt lat="42.93607" lon="2.19806">
        <ele>282.29</ele>
        <time>2024-09-19T15:13:46.999Z</time>
      </trkpt>
      <trkpt lat="42.9359" lon="2.19845">
        <ele>282.55</ele>
        <time>2024-09-19T15:13:51.999Z</time>
      </trkpt>
      <trkpt lat="42.93572" lon="2.19883">
        <ele>282.06</ele>
        <time>2024-09-19T15:13:56.999Z</time>
      </trkpt>
      <trkpt lat="42.93556" lon="2.19918">
        <ele>281.55</ele>
        <time>2024-09-19T15:14:01.999Z</time>
      </trkpt>
      <trkpt lat="42.93543" lon="2.1995">
        <ele>280.72</ele>
        <time>2024-09-19T15:14:06.999Z</time>
      </trkpt>
      <trkpt lat="42.93535" lon="2.19983">
        <ele>279.67</ele>
        <time>2024-09-19T15:14:11.999Z</time>
      </trkpt>
      <trkpt lat="42.93527" lon="2.20016">
        <ele>280.19</ele>
        <time>2024-09-19T15:14:16.999Z</time>
      </trkpt>
      <trkpt lat="42.9352" lon="2.20046">
        <ele>280.27</ele>
        <time>2024-09-19T15:14:21.999Z</time>
      </trkpt>
      <trkpt lat="42.93512" lon="2.20072">
        <ele>280.09</ele>
        <time>2024-09-19T15:14:26.999Z</time>
      </trkpt>
      <trkpt lat="42.93506" lon="2.20093">
        <ele>280.03</ele>
        <time>2024-09-19T15:14:31.999Z</time>
      </trkpt>
      <trkpt lat="42.93498" lon="2.20113">
        <ele>279.98</ele>
        <time>2024-09-19T15:14:36.999Z</time>
      </trkpt>
      <trkpt lat="42.93492" lon="2.20128">
        <ele>279.94</ele>
        <time>2024-09-19T15:14:41.999Z</time>
      </trkpt>
      <trkpt lat="42.93486" lon="2.20146">
        <ele>279.96</ele>
        <time>2024-09-19T15:14:46.999Z</time>
      </trkpt>
      <trkpt lat="42.9348" lon="2.20164">
        <ele>280</ele>
        <time>2024-09-19T15:14:51.999Z</time>
      </trkpt>
      <trkpt lat="42.93473" lon="2.2018">
        <ele>280.03</ele>
        <time>2024-09-19T15:14:56.999Z</time>
      </trkpt>
      <trkpt lat="42.93466" lon="2.20197">
        <ele>280.03</ele>
        <time>2024-09-19T15:15:01.999Z</time>
      </trkpt>
      <trkpt lat="42.93459" lon="2.20214">
        <ele>280.03</ele>
        <time>2024-09-19T15:15:06.999Z</time>
      </trkpt>
      <trkpt lat="42.93452" lon="2.2023">
        <ele>280.03</ele>
        <time>2024-09-19T15:15:11.999Z</time>
      </trkpt>
      <trkpt lat="42.93446" lon="2.20247">
        <ele>280.03</ele>
        <time>2024-09-19T15:15:16.999Z</time>
      </trkpt>
      <trkpt lat="42.93442" lon="2.20264">
        <ele>279.98</ele>
        <time>2024-09-19T15:15:21.999Z</time>
      </trkpt>
      <trkpt lat="42.93438" lon="2.20284">
        <ele>279.9</ele>
        <time>2024-09-19T15:15:26.999Z</time>
      </trkpt>
      <trkpt lat="42.93434" lon="2.20311">
        <ele>279.23</ele>
        <time>2024-09-19T15:15:31.999Z</time>
      </trkpt>
      <trkpt lat="42.9343" lon="2.20347">
        <ele>278.37</ele>
        <time>2024-09-19T15:15:36.999Z</time>
      </trkpt>
      <trkpt lat="42.93427" lon="2.20386">
        <ele>277.68</ele>
        <time>2024-09-19T15:15:41.999Z</time>
      </trkpt>
      <trkpt lat="42.93422" lon="2.20426">
        <ele>277.1</ele>
        <time>2024-09-19T15:15:46.999Z</time>
      </trkpt>
      <trkpt lat="42.93414" lon="2.2047">
        <ele>276.71</ele>
        <time>2024-09-19T15:15:51.999Z</time>
      </trkpt>
      <trkpt lat="42.93403" lon="2.20516">
        <ele>276.26</ele>
        <time>2024-09-19T15:15:56.999Z</time>
      </trkpt>
      <trkpt lat="42.93392" lon="2.20562">
        <ele>275.8</ele>
        <time>2024-09-19T15:16:01.999Z</time>
      </trkpt>
      <trkpt lat="42.9338" lon="2.20606">
        <ele>275.5</ele>
        <time>2024-09-19T15:16:06.999Z</time>
      </trkpt>
      <trkpt lat="42.9337" lon="2.20644">
        <ele>275.21</ele>
        <time>2024-09-19T15:16:11.999Z</time>
      </trkpt>
      <trkpt lat="42.93365" lon="2.2068">
        <ele>274.93</ele>
        <time>2024-09-19T15:16:16.999Z</time>
      </trkpt>
      <trkpt lat="42.93367" lon="2.20715">
        <ele>275.13</ele>
        <time>2024-09-19T15:16:21.999Z</time>
      </trkpt>
      <trkpt lat="42.93372" lon="2.20745">
        <ele>275.53</ele>
        <time>2024-09-19T15:16:26.999Z</time>
      </trkpt>
      <trkpt lat="42.93376" lon="2.20779">
        <ele>275.37</ele>
        <time>2024-09-19T15:16:31.999Z</time>
      </trkpt>
      <trkpt lat="42.93379" lon="2.20814">
        <ele>274.91</ele>
        <time>2024-09-19T15:16:36.999Z</time>
      </trkpt>
      <trkpt lat="42.93382" lon="2.20851">
        <ele>274.61</ele>
        <time>2024-09-19T15:16:41.999Z</time>
      </trkpt>
      <trkpt lat="42.93385" lon="2.20887">
        <ele>274.47</ele>
        <time>2024-09-19T15:16:46.999Z</time>
      </trkpt>
      <trkpt lat="42.93387" lon="2.20922">
        <ele>274.28</ele>
        <time>2024-09-19T15:16:51.999Z</time>
      </trkpt>
      <trkpt lat="42.93389" lon="2.20954">
        <ele>274.1</ele>
        <time>2024-09-19T15:16:56.999Z</time>
      </trkpt>
      <trkpt lat="42.93393" lon="2.20987">
        <ele>273.84</ele>
        <time>2024-09-19T15:17:01.999Z</time>
      </trkpt>
      <trkpt lat="42.93397" lon="2.21021">
        <ele>273.56</ele>
        <time>2024-09-19T15:17:06.999Z</time>
      </trkpt>
      <trkpt lat="42.93404" lon="2.21055">
        <ele>273.19</ele>
        <time>2024-09-19T15:17:11.999Z</time>
      </trkpt>
      <trkpt lat="42.93409" lon="2.21091">
        <ele>272.86</ele>
        <time>2024-09-19T15:17:16.999Z</time>
      </trkpt>
      <trkpt lat="42.93408" lon="2.21131">
        <ele>272.53</ele>
        <time>2024-09-19T15:17:21.999Z</time>
      </trkpt>
      <trkpt lat="42.93407" lon="2.21172">
        <ele>272.05</ele>
        <time>2024-09-19T15:17:26.999Z</time>
      </trkpt>
      <trkpt lat="42.93407" lon="2.21213">
        <ele>271.28</ele>
        <time>2024-09-19T15:17:31.999Z</time>
      </trkpt>
      <trkpt lat="42.93418" lon="2.21244">
        <ele>270.46</ele>
        <time>2024-09-19T15:17:36.999Z</time>
      </trkpt>
      <trkpt lat="42.93436" lon="2.21264">
        <ele>269.63</ele>
        <time>2024-09-19T15:17:41.999Z</time>
      </trkpt>
      <trkpt lat="42.93453" lon="2.21287">
        <ele>268.95</ele>
        <time>2024-09-19T15:17:46.999Z</time>
      </trkpt>
      <trkpt lat="42.93469" lon="2.21319">
        <ele>268.15</ele>
        <time>2024-09-19T15:17:51.999Z</time>
      </trkpt>
      <trkpt lat="42.93477" lon="2.21351">
        <ele>267.25</ele>
        <time>2024-09-19T15:17:56.999Z</time>
      </trkpt>
      <trkpt lat="42.93486" lon="2.21384">
        <ele>265.91</ele>
        <time>2024-09-19T15:18:01.999Z</time>
      </trkpt>
      <trkpt lat="42.93495" lon="2.21418">
        <ele>264.47</ele>
        <time>2024-09-19T15:18:06.999Z</time>
      </trkpt>
      <trkpt lat="42.93502" lon="2.21454">
        <ele>262.99</ele>
        <time>2024-09-19T15:18:11.999Z</time>
      </trkpt>
      <trkpt lat="42.93504" lon="2.21489">
        <ele>261.83</ele>
        <time>2024-09-19T15:18:16.999Z</time>
      </trkpt>
      <trkpt lat="42.93506" lon="2.2152">
        <ele>260.79</ele>
        <time>2024-09-19T15:18:22.000Z</time>
      </trkpt>
      <trkpt lat="42.93508" lon="2.21552">
        <ele>259.9</ele>
        <time>2024-09-19T15:18:27.000Z</time>
      </trkpt>
      <trkpt lat="42.93511" lon="2.21583">
        <ele>259.29</ele>
        <time>2024-09-19T15:18:32.000Z</time>
      </trkpt>
      <trkpt lat="42.93511" lon="2.21615">
        <ele>258.78</ele>
        <time>2024-09-19T15:18:37.000Z</time>
      </trkpt>
      <trkpt lat="42.93514" lon="2.21648">
        <ele>258.38</ele>
        <time>2024-09-19T15:18:42.000Z</time>
      </trkpt>
      <trkpt lat="42.93517" lon="2.21684">
        <ele>258.05</ele>
        <time>2024-09-19T15:18:47.000Z</time>
      </trkpt>
      <trkpt lat="42.93518" lon="2.21722">
        <ele>257.63</ele>
        <time>2024-09-19T15:18:52.000Z</time>
      </trkpt>
      <trkpt lat="42.93522" lon="2.21761">
        <ele>257.14</ele>
        <time>2024-09-19T15:18:57.000Z</time>
      </trkpt>
      <trkpt lat="42.93523" lon="2.21797">
        <ele>256.56</ele>
        <time>2024-09-19T15:19:02.000Z</time>
      </trkpt>
      <trkpt lat="42.93525" lon="2.21829">
        <ele>256.12</ele>
        <time>2024-09-19T15:19:07.000Z</time>
      </trkpt>
      <trkpt lat="42.93527" lon="2.21811">
        <ele>256.01</ele>
        <time>2024-09-19T15:19:45.000Z</time>
      </trkpt>
      <trkpt lat="42.93526" lon="2.21776">
        <ele>256.14</ele>
        <time>2024-09-19T15:19:50.000Z</time>
      </trkpt>
      <trkpt lat="42.93523" lon="2.2174">
        <ele>256.47</ele>
        <time>2024-09-19T15:19:55.000Z</time>
      </trkpt>
      <trkpt lat="42.9352" lon="2.21699">
        <ele>256.92</ele>
        <time>2024-09-19T15:20:00.000Z</time>
      </trkpt>
      <trkpt lat="42.93519" lon="2.21661">
        <ele>257.23</ele>
        <time>2024-09-19T15:20:05.000Z</time>
      </trkpt>
      <trkpt lat="42.93516" lon="2.21625">
        <ele>257.48</ele>
        <time>2024-09-19T15:20:10.000Z</time>
      </trkpt>
      <trkpt lat="42.93516" lon="2.2159">
        <ele>257.72</ele>
        <time>2024-09-19T15:20:15.000Z</time>
      </trkpt>
      <trkpt lat="42.93514" lon="2.21554">
        <ele>257.92</ele>
        <time>2024-09-19T15:20:20.000Z</time>
      </trkpt>
      <trkpt lat="42.93512" lon="2.2152">
        <ele>258.13</ele>
        <time>2024-09-19T15:20:25.000Z</time>
      </trkpt>
      <trkpt lat="42.93511" lon="2.21485">
        <ele>258.21</ele>
        <time>2024-09-19T15:20:30.000Z</time>
      </trkpt>
      <trkpt lat="42.93508" lon="2.21452">
        <ele>258.41</ele>
        <time>2024-09-19T15:20:35.000Z</time>
      </trkpt>
      <trkpt lat="42.93503" lon="2.21421">
        <ele>258.77</ele>
        <time>2024-09-19T15:20:40.000Z</time>
      </trkpt>
      <trkpt lat="42.93495" lon="2.21393">
        <ele>259.01</ele>
        <time>2024-09-19T15:20:45.000Z</time>
      </trkpt>
      <trkpt lat="42.93488" lon="2.21364">
        <ele>259.13</ele>
        <time>2024-09-19T15:20:50.000Z</time>
      </trkpt>
      <trkpt lat="42.93482" lon="2.2134">
        <ele>259.21</ele>
        <time>2024-09-19T15:20:55.000Z</time>
      </trkpt>
      <trkpt lat="42.93479" lon="2.21318">
        <ele>259.25</ele>
        <time>2024-09-19T15:21:00.000Z</time>
      </trkpt>
      <trkpt lat="42.93473" lon="2.21306">
        <ele>259.32</ele>
        <time>2024-09-19T15:21:11.000Z</time>
      </trkpt>
      <trkpt lat="42.93461" lon="2.21286">
        <ele>259.59</ele>
        <time>2024-09-19T15:21:16.000Z</time>
      </trkpt>
      <trkpt lat="42.93447" lon="2.21269">
        <ele>260.22</ele>
        <time>2024-09-19T15:21:21.000Z</time>
      </trkpt>
      <trkpt lat="42.93429" lon="2.21249">
        <ele>260.79</ele>
        <time>2024-09-19T15:21:26.000Z</time>
      </trkpt>
      <trkpt lat="42.93413" lon="2.21231">
        <ele>261.01</ele>
        <time>2024-09-19T15:21:31.000Z</time>
      </trkpt>
      <trkpt lat="42.93403" lon="2.21218">
        <ele>261.02</ele>
        <time>2024-09-19T15:21:36.000Z</time>
      </trkpt>
      <trkpt lat="42.93397" lon="2.21208">
        <ele>261.04</ele>
        <time>2024-09-19T15:21:55.000Z</time>
      </trkpt>
      <trkpt lat="42.93403" lon="2.21217">
        <ele>261.12</ele>
        <time>2024-09-19T15:25:14.000Z</time>
      </trkpt>
      <trkpt lat="42.93409" lon="2.21207">
        <ele>261.08</ele>
        <time>2024-09-19T15:28:21.000Z</time>
      </trkpt>
      <trkpt lat="42.93399" lon="2.21207">
        <ele>261.33</ele>
        <time>2024-09-19T15:30:38.999Z</time>
      </trkpt>
      <trkpt lat="42.9339" lon="2.21203">
        <ele>261.86</ele>
        <time>2024-09-19T15:33:02.999Z</time>
      </trkpt>
      <trkpt lat="42.93378" lon="2.21189">
        <ele>262.13</ele>
        <time>2024-09-19T15:33:07.999Z</time>
      </trkpt>
      <trkpt lat="42.93358" lon="2.2118">
        <ele>262.76</ele>
        <time>2024-09-19T15:33:12.999Z</time>
      </trkpt>
      <trkpt lat="42.93333" lon="2.21179">
        <ele>262.96</ele>
        <time>2024-09-19T15:33:17.999Z</time>
      </trkpt>
      <trkpt lat="42.93309" lon="2.21178">
        <ele>263.02</ele>
        <time>2024-09-19T15:33:22.999Z</time>
      </trkpt>
      <trkpt lat="42.93285" lon="2.21178">
        <ele>263.03</ele>
        <time>2024-09-19T15:33:27.999Z</time>
      </trkpt>
      <trkpt lat="42.93262" lon="2.21178">
        <ele>263</ele>
        <time>2024-09-19T15:33:32.999Z</time>
      </trkpt>
      <trkpt lat="42.93242" lon="2.21179">
        <ele>262.99</ele>
        <time>2024-09-19T15:33:37.999Z</time>
      </trkpt>
      <trkpt lat="42.93221" lon="2.21189">
        <ele>263.01</ele>
        <time>2024-09-19T15:33:42.999Z</time>
      </trkpt>
      <trkpt lat="42.93207" lon="2.21204">
        <ele>263</ele>
        <time>2024-09-19T15:33:47.999Z</time>
      </trkpt>
      <trkpt lat="42.93193" lon="2.21226">
        <ele>263.02</ele>
        <time>2024-09-19T15:33:52.999Z</time>
      </trkpt>
      <trkpt lat="42.93181" lon="2.21253">
        <ele>263.05</ele>
        <time>2024-09-19T15:33:57.999Z</time>
      </trkpt>
      <trkpt lat="42.93166" lon="2.2128">
        <ele>263.07</ele>
        <time>2024-09-19T15:34:02.999Z</time>
      </trkpt>
      <trkpt lat="42.93152" lon="2.21305">
        <ele>263.01</ele>
        <time>2024-09-19T15:34:07.999Z</time>
      </trkpt>
      <trkpt lat="42.93136" lon="2.21325">
        <ele>262.95</ele>
        <time>2024-09-19T15:34:12.999Z</time>
      </trkpt>
      <trkpt lat="42.93117" lon="2.21342">
        <ele>262.97</ele>
        <time>2024-09-19T15:34:17.999Z</time>
      </trkpt>
      <trkpt lat="42.93099" lon="2.21358">
        <ele>262.97</ele>
        <time>2024-09-19T15:34:22.999Z</time>
      </trkpt>
      <trkpt lat="42.93088" lon="2.21373">
        <ele>262.97</ele>
        <time>2024-09-19T15:34:27.999Z</time>
      </trkpt>
      <trkpt lat="42.93076" lon="2.2139">
        <ele>262.96</ele>
        <time>2024-09-19T15:34:32.999Z</time>
      </trkpt>
      <trkpt lat="42.93068" lon="2.21401">
        <ele>262.95</ele>
        <time>2024-09-19T15:34:37.999Z</time>
      </trkpt>
      <trkpt lat="42.93062" lon="2.21411">
        <ele>262.97</ele>
        <time>2024-09-19T15:34:50.999Z</time>
      </trkpt>
      <trkpt lat="42.93052" lon="2.21427">
        <ele>262.98</ele>
        <time>2024-09-19T15:34:55.999Z</time>
      </trkpt>
      <trkpt lat="42.93039" lon="2.21447">
        <ele>262.97</ele>
        <time>2024-09-19T15:35:00.999Z</time>
      </trkpt>
      <trkpt lat="42.93025" lon="2.21468">
        <ele>262.93</ele>
        <time>2024-09-19T15:35:05.999Z</time>
      </trkpt>
      <trkpt lat="42.9301" lon="2.21492">
        <ele>262.91</ele>
        <time>2024-09-19T15:35:10.999Z</time>
      </trkpt>
      <trkpt lat="42.92994" lon="2.21517">
        <ele>262.88</ele>
        <time>2024-09-19T15:35:15.999Z</time>
      </trkpt>
      <trkpt lat="42.92979" lon="2.21542">
        <ele>262.84</ele>
        <time>2024-09-19T15:35:20.999Z</time>
      </trkpt>
      <trkpt lat="42.92964" lon="2.21567">
        <ele>262.84</ele>
        <time>2024-09-19T15:35:25.999Z</time>
      </trkpt>
      <trkpt lat="42.9295" lon="2.21591">
        <ele>262.84</ele>
        <time>2024-09-19T15:35:30.999Z</time>
      </trkpt>
      <trkpt lat="42.92935" lon="2.21616">
        <ele>262.84</ele>
        <time>2024-09-19T15:35:35.999Z</time>
      </trkpt>
      <trkpt lat="42.9292" lon="2.21638">
        <ele>262.85</ele>
        <time>2024-09-19T15:35:40.999Z</time>
      </trkpt>
      <trkpt lat="42.92902" lon="2.21655">
        <ele>262.84</ele>
        <time>2024-09-19T15:35:45.999Z</time>
      </trkpt>
      <trkpt lat="42.92884" lon="2.21666">
        <ele>262.83</ele>
        <time>2024-09-19T15:35:50.999Z</time>
      </trkpt>
      <trkpt lat="42.92872" lon="2.21674">
        <ele>262.83</ele>
        <time>2024-09-19T15:35:55.999Z</time>
      </trkpt>
      <trkpt lat="42.9286" lon="2.21693">
        <ele>262.82</ele>
        <time>2024-09-19T15:36:00.999Z</time>
      </trkpt>
      <trkpt lat="42.92846" lon="2.21715">
        <ele>262.83</ele>
        <time>2024-09-19T15:36:05.999Z</time>
      </trkpt>
      <trkpt lat="42.92831" lon="2.21738">
        <ele>262.9</ele>
        <time>2024-09-19T15:36:10.999Z</time>
      </trkpt>
      <trkpt lat="42.92817" lon="2.21762">
        <ele>262.98</ele>
        <time>2024-09-19T15:36:15.999Z</time>
      </trkpt>
      <trkpt lat="42.92806" lon="2.21789">
        <ele>263.01</ele>
        <time>2024-09-19T15:36:20.999Z</time>
      </trkpt>
      <trkpt lat="42.92794" lon="2.21816">
        <ele>262.99</ele>
        <time>2024-09-19T15:36:25.999Z</time>
      </trkpt>
      <trkpt lat="42.9278" lon="2.21839">
        <ele>262.97</ele>
        <time>2024-09-19T15:36:30.999Z</time>
      </trkpt>
      <trkpt lat="42.92766" lon="2.21858">
        <ele>262.96</ele>
        <time>2024-09-19T15:36:35.999Z</time>
      </trkpt>
      <trkpt lat="42.9275" lon="2.21874">
        <ele>262.98</ele>
        <time>2024-09-19T15:36:40.999Z</time>
      </trkpt>
      <trkpt lat="42.92734" lon="2.21885">
        <ele>262.99</ele>
        <time>2024-09-19T15:36:45.999Z</time>
      </trkpt>
      <trkpt lat="42.92721" lon="2.21889">
        <ele>263.01</ele>
        <time>2024-09-19T15:36:50.999Z</time>
      </trkpt>
      <trkpt lat="42.92707" lon="2.21894">
        <ele>263.04</ele>
        <time>2024-09-19T15:36:55.999Z</time>
      </trkpt>
      <trkpt lat="42.92685" lon="2.21903">
        <ele>263.07</ele>
        <time>2024-09-19T15:37:00.999Z</time>
      </trkpt>
      <trkpt lat="42.92662" lon="2.2191">
        <ele>263.12</ele>
        <time>2024-09-19T15:37:05.999Z</time>
      </trkpt>
      <trkpt lat="42.92638" lon="2.21907">
        <ele>263.26</ele>
        <time>2024-09-19T15:37:10.999Z</time>
      </trkpt>
      <trkpt lat="42.92609" lon="2.21895">
        <ele>263.37</ele>
        <time>2024-09-19T15:37:15.999Z</time>
      </trkpt>
      <trkpt lat="42.92584" lon="2.21881">
        <ele>263.36</ele>
        <time>2024-09-19T15:37:20.999Z</time>
      </trkpt>
      <trkpt lat="42.92557" lon="2.21868">
        <ele>263.26</ele>
        <time>2024-09-19T15:37:25.999Z</time>
      </trkpt>
      <trkpt lat="42.92533" lon="2.21857">
        <ele>263.11</ele>
        <time>2024-09-19T15:37:30.999Z</time>
      </trkpt>
      <trkpt lat="42.92516" lon="2.2184">
        <ele>262.99</ele>
        <time>2024-09-19T15:37:35.999Z</time>
      </trkpt>
      <trkpt lat="42.92494" lon="2.21825">
        <ele>262.9</ele>
        <time>2024-09-19T15:37:40.999Z</time>
      </trkpt>
      <trkpt lat="42.9248" lon="2.21798">
        <ele>262.85</ele>
        <time>2024-09-19T15:37:45.999Z</time>
      </trkpt>
      <trkpt lat="42.92471" lon="2.21772">
        <ele>262.84</ele>
        <time>2024-09-19T15:37:50.999Z</time>
      </trkpt>
      <trkpt lat="42.92458" lon="2.2175">
        <ele>262.84</ele>
        <time>2024-09-19T15:37:55.999Z</time>
      </trkpt>
      <trkpt lat="42.92444" lon="2.21727">
        <ele>262.85</ele>
        <time>2024-09-19T15:38:00.999Z</time>
      </trkpt>
      <trkpt lat="42.92431" lon="2.21705">
        <ele>262.85</ele>
        <time>2024-09-19T15:38:05.999Z</time>
      </trkpt>
      <trkpt lat="42.9242" lon="2.2168">
        <ele>262.86</ele>
        <time>2024-09-19T15:38:10.999Z</time>
      </trkpt>
      <trkpt lat="42.9241" lon="2.21654">
        <ele>262.87</ele>
        <time>2024-09-19T15:38:15.999Z</time>
      </trkpt>
      <trkpt lat="42.92397" lon="2.21634">
        <ele>262.87</ele>
        <time>2024-09-19T15:38:20.999Z</time>
      </trkpt>
      <trkpt lat="42.92385" lon="2.21617">
        <ele>262.87</ele>
        <time>2024-09-19T15:38:25.999Z</time>
      </trkpt>
      <trkpt lat="42.92371" lon="2.21598">
        <ele>262.89</ele>
        <time>2024-09-19T15:38:30.999Z</time>
      </trkpt>
      <trkpt lat="42.92357" lon="2.21578">
        <ele>262.92</ele>
        <time>2024-09-19T15:38:35.999Z</time>
      </trkpt>
      <trkpt lat="42.92337" lon="2.21561">
        <ele>263.04</ele>
        <time>2024-09-19T15:38:40.999Z</time>
      </trkpt>
      <trkpt lat="42.92313" lon="2.21543">
        <ele>263.21</ele>
        <time>2024-09-19T15:38:45.999Z</time>
      </trkpt>
      <trkpt lat="42.92293" lon="2.21521">
        <ele>263.31</ele>
        <time>2024-09-19T15:38:50.999Z</time>
      </trkpt>
      <trkpt lat="42.92276" lon="2.21492">
        <ele>263.33</ele>
        <time>2024-09-19T15:38:55.999Z</time>
      </trkpt>
      <trkpt lat="42.9226" lon="2.2146">
        <ele>263.3</ele>
        <time>2024-09-19T15:39:00.999Z</time>
      </trkpt>
      <trkpt lat="42.92244" lon="2.21429">
        <ele>263.27</ele>
        <time>2024-09-19T15:39:05.999Z</time>
      </trkpt>
      <trkpt lat="42.9223" lon="2.21398">
        <ele>263.25</ele>
        <time>2024-09-19T15:39:10.999Z</time>
      </trkpt>
      <trkpt lat="42.92216" lon="2.21366">
        <ele>263.23</ele>
        <time>2024-09-19T15:39:15.999Z</time>
      </trkpt>
      <trkpt lat="42.92202" lon="2.2134">
        <ele>263.21</ele>
        <time>2024-09-19T15:39:20.999Z</time>
      </trkpt>
      <trkpt lat="42.92189" lon="2.21314">
        <ele>263.18</ele>
        <time>2024-09-19T15:39:25.999Z</time>
      </trkpt>
      <trkpt lat="42.92176" lon="2.21288">
        <ele>263.12</ele>
        <time>2024-09-19T15:39:30.999Z</time>
      </trkpt>
      <trkpt lat="42.92164" lon="2.21264">
        <ele>263.07</ele>
        <time>2024-09-19T15:39:35.999Z</time>
      </trkpt>
      <trkpt lat="42.92154" lon="2.21243">
        <ele>263.03</ele>
        <time>2024-09-19T15:39:40.999Z</time>
      </trkpt>
      <trkpt lat="42.92142" lon="2.21222">
        <ele>262.98</ele>
        <time>2024-09-19T15:39:45.999Z</time>
      </trkpt>
      <trkpt lat="42.92129" lon="2.21197">
        <ele>262.94</ele>
        <time>2024-09-19T15:39:50.999Z</time>
      </trkpt>
      <trkpt lat="42.92115" lon="2.21171">
        <ele>262.92</ele>
        <time>2024-09-19T15:39:55.999Z</time>
      </trkpt>
      <trkpt lat="42.92102" lon="2.21147">
        <ele>262.88</ele>
        <time>2024-09-19T15:40:00.999Z</time>
      </trkpt>
      <trkpt lat="42.92091" lon="2.21126">
        <ele>262.87</ele>
        <time>2024-09-19T15:40:05.999Z</time>
      </trkpt>
      <trkpt lat="42.92079" lon="2.21108">
        <ele>262.88</ele>
        <time>2024-09-19T15:40:10.999Z</time>
      </trkpt>
      <trkpt lat="42.92067" lon="2.21086">
        <ele>262.91</ele>
        <time>2024-09-19T15:40:15.999Z</time>
      </trkpt>
      <trkpt lat="42.92055" lon="2.21064">
        <ele>262.92</ele>
        <time>2024-09-19T15:40:20.999Z</time>
      </trkpt>
      <trkpt lat="42.92044" lon="2.21041">
        <ele>262.99</ele>
        <time>2024-09-19T15:40:25.999Z</time>
      </trkpt>
      <trkpt lat="42.92033" lon="2.21014">
        <ele>263.07</ele>
        <time>2024-09-19T15:40:30.999Z</time>
      </trkpt>
      <trkpt lat="42.92017" lon="2.20986">
        <ele>263.16</ele>
        <time>2024-09-19T15:40:35.999Z</time>
      </trkpt>
      <trkpt lat="42.91998" lon="2.20956">
        <ele>263.16</ele>
        <time>2024-09-19T15:40:40.999Z</time>
      </trkpt>
      <trkpt lat="42.91979" lon="2.20922">
        <ele>263.22</ele>
        <time>2024-09-19T15:40:45.999Z</time>
      </trkpt>
      <trkpt lat="42.91953" lon="2.20891">
        <ele>263.35</ele>
        <time>2024-09-19T15:40:50.999Z</time>
      </trkpt>
      <trkpt lat="42.91929" lon="2.20863">
        <ele>263.5</ele>
        <time>2024-09-19T15:40:55.999Z</time>
      </trkpt>
      <trkpt lat="42.9191" lon="2.20842">
        <ele>263.42</ele>
        <time>2024-09-19T15:41:00.999Z</time>
      </trkpt>
      <trkpt lat="42.91893" lon="2.2082">
        <ele>263.52</ele>
        <time>2024-09-19T15:41:05.999Z</time>
      </trkpt>
      <trkpt lat="42.91877" lon="2.20804">
        <ele>263.61</ele>
        <time>2024-09-19T15:41:10.999Z</time>
      </trkpt>
      <trkpt lat="42.91854" lon="2.20795">
        <ele>264.23</ele>
        <time>2024-09-19T15:41:15.999Z</time>
      </trkpt>
      <trkpt lat="42.91829" lon="2.20786">
        <ele>264.77</ele>
        <time>2024-09-19T15:41:20.999Z</time>
      </trkpt>
      <trkpt lat="42.91805" lon="2.20777">
        <ele>265.3</ele>
        <time>2024-09-19T15:41:25.999Z</time>
      </trkpt>
      <trkpt lat="42.91783" lon="2.2077">
        <ele>265.59</ele>
        <time>2024-09-19T15:41:30.999Z</time>
      </trkpt>
      <trkpt lat="42.91766" lon="2.20759">
        <ele>265.61</ele>
        <time>2024-09-19T15:41:35.999Z</time>
      </trkpt>
      <trkpt lat="42.91753" lon="2.20759">
        <ele>265.59</ele>
        <time>2024-09-19T15:41:40.999Z</time>
      </trkpt>
      <trkpt lat="42.91739" lon="2.20757">
        <ele>265.56</ele>
        <time>2024-09-19T15:41:45.999Z</time>
      </trkpt>
      <trkpt lat="42.91729" lon="2.20758">
        <ele>265.49</ele>
        <time>2024-09-19T15:41:56.999Z</time>
      </trkpt>
      <trkpt lat="42.91712" lon="2.20757">
        <ele>265.42</ele>
        <time>2024-09-19T15:42:01.999Z</time>
      </trkpt>
      <trkpt lat="42.91693" lon="2.20757">
        <ele>265.06</ele>
        <time>2024-09-19T15:42:06.999Z</time>
      </trkpt>
      <trkpt lat="42.91675" lon="2.20758">
        <ele>264.9</ele>
        <time>2024-09-19T15:42:11.999Z</time>
      </trkpt>
      <trkpt lat="42.91664" lon="2.20757">
        <ele>264.61</ele>
        <time>2024-09-19T15:42:58.000Z</time>
      </trkpt>
      <trkpt lat="42.91653" lon="2.20755">
        <ele>264.64</ele>
        <time>2024-09-19T15:43:34.000Z</time>
      </trkpt>
      <trkpt lat="42.91637" lon="2.20751">
        <ele>264.71</ele>
        <time>2024-09-19T15:43:39.000Z</time>
      </trkpt>
      <trkpt lat="42.91624" lon="2.20746">
        <ele>264.76</ele>
        <time>2024-09-19T15:43:44.000Z</time>
      </trkpt>
      <trkpt lat="42.91613" lon="2.2074">
        <ele>264.81</ele>
        <time>2024-09-19T15:43:49.000Z</time>
      </trkpt>
      <trkpt lat="42.91603" lon="2.20732">
        <ele>264.83</ele>
        <time>2024-09-19T15:43:54.000Z</time>
      </trkpt>
      <trkpt lat="42.91592" lon="2.20724">
        <ele>264.85</ele>
        <time>2024-09-19T15:43:59.000Z</time>
      </trkpt>
      <trkpt lat="42.91585" lon="2.20732">
        <ele>264.91</ele>
        <time>2024-09-19T15:44:25.000Z</time>
      </trkpt>
      <trkpt lat="42.91574" lon="2.20718">
        <ele>264.94</ele>
        <time>2024-09-19T15:44:30.000Z</time>
      </trkpt>
      <trkpt lat="42.91564" lon="2.20715">
        <ele>264.97</ele>
        <time>2024-09-19T15:44:35.000Z</time>
      </trkpt>
      <trkpt lat="42.91558" lon="2.20706">
        <ele>264.98</ele>
        <time>2024-09-19T15:44:41.000Z</time>
      </trkpt>
      <trkpt lat="42.91555" lon="2.20692">
        <ele>264.98</ele>
        <time>2024-09-19T15:44:47.000Z</time>
      </trkpt>
      <trkpt lat="42.91558" lon="2.20679">
        <ele>264.99</ele>
        <time>2024-09-19T15:44:52.000Z</time>
      </trkpt>
      <trkpt lat="42.91563" lon="2.20668">
        <ele>264.96</ele>
        <time>2024-09-19T15:45:21.000Z</time>
      </trkpt>
      <trkpt lat="42.91571" lon="2.20654">
        <ele>264.87</ele>
        <time>2024-09-19T15:45:26.000Z</time>
      </trkpt>
      <trkpt lat="42.91563" lon="2.20639">
        <ele>264.75</ele>
        <time>2024-09-19T15:45:31.000Z</time>
      </trkpt>
      <trkpt lat="42.91559" lon="2.20621">
        <ele>264.59</ele>
        <time>2024-09-19T15:45:36.000Z</time>
      </trkpt>
      <trkpt lat="42.91555" lon="2.20606">
        <ele>264.39</ele>
        <time>2024-09-19T15:45:43.000Z</time>
      </trkpt>
      <trkpt lat="42.91556" lon="2.20593">
        <ele>264.3</ele>
        <time>2024-09-19T15:45:58.000Z</time>
      </trkpt>
      <trkpt lat="42.91556" lon="2.20577">
        <ele>264.29</ele>
        <time>2024-09-19T15:46:03.000Z</time>
      </trkpt>
      <trkpt lat="42.91555" lon="2.20553">
        <ele>264.27</ele>
        <time>2024-09-19T15:46:08.000Z</time>
      </trkpt>
      <trkpt lat="42.91556" lon="2.20528">
        <ele>264.26</ele>
        <time>2024-09-19T15:46:13.000Z</time>
      </trkpt>
      <trkpt lat="42.91555" lon="2.20504">
        <ele>264.18</ele>
        <time>2024-09-19T15:46:18.000Z</time>
      </trkpt>
      <trkpt lat="42.91555" lon="2.20478">
        <ele>264.48</ele>
        <time>2024-09-19T15:46:23.000Z</time>
      </trkpt>
      <trkpt lat="42.91556" lon="2.20448">
        <ele>265.36</ele>
        <time>2024-09-19T15:46:28.000Z</time>
      </trkpt>
      <trkpt lat="42.91558" lon="2.20417">
        <ele>266.44</ele>
        <time>2024-09-19T15:46:33.000Z</time>
      </trkpt>
      <trkpt lat="42.91557" lon="2.20385">
        <ele>267.1</ele>
        <time>2024-09-19T15:46:38.000Z</time>
      </trkpt>
      <trkpt lat="42.91557" lon="2.20352">
        <ele>267.9</ele>
        <time>2024-09-19T15:46:43.000Z</time>
      </trkpt>
      <trkpt lat="42.91556" lon="2.20317">
        <ele>268.51</ele>
        <time>2024-09-19T15:46:48.000Z</time>
      </trkpt>
      <trkpt lat="42.91556" lon="2.20282">
        <ele>268.84</ele>
        <time>2024-09-19T15:46:53.000Z</time>
      </trkpt>
      <trkpt lat="42.91556" lon="2.20251">
        <ele>269.41</ele>
        <time>2024-09-19T15:46:58.000Z</time>
      </trkpt>
      <trkpt lat="42.91555" lon="2.20218">
        <ele>269.74</ele>
        <time>2024-09-19T15:47:03.000Z</time>
      </trkpt>
      <trkpt lat="42.91554" lon="2.20183">
        <ele>270.03</ele>
        <time>2024-09-19T15:47:08.000Z</time>
      </trkpt>
      <trkpt lat="42.9155" lon="2.20149">
        <ele>270.38</ele>
        <time>2024-09-19T15:47:13.000Z</time>
      </trkpt>
      <trkpt lat="42.91544" lon="2.20112">
        <ele>270.67</ele>
        <time>2024-09-19T15:47:18.000Z</time>
      </trkpt>
      <trkpt lat="42.91537" lon="2.20077">
        <ele>270.99</ele>
        <time>2024-09-19T15:47:23.000Z</time>
      </trkpt>
      <trkpt lat="42.91529" lon="2.2004">
        <ele>271.35</ele>
        <time>2024-09-19T15:47:28.000Z</time>
      </trkpt>
      <trkpt lat="42.91521" lon="2.20009">
        <ele>271.75</ele>
        <time>2024-09-19T15:47:33.000Z</time>
      </trkpt>
      <trkpt lat="42.91514" lon="2.19976">
        <ele>272.13</ele>
        <time>2024-09-19T15:47:38.000Z</time>
      </trkpt>
      <trkpt lat="42.91507" lon="2.19943">
        <ele>272.49</ele>
        <time>2024-09-19T15:47:43.000Z</time>
      </trkpt>
      <trkpt lat="42.915" lon="2.19908">
        <ele>272.9</ele>
        <time>2024-09-19T15:47:48.000Z</time>
      </trkpt>
      <trkpt lat="42.91491" lon="2.19876">
        <ele>273.17</ele>
        <time>2024-09-19T15:47:53.000Z</time>
      </trkpt>
      <trkpt lat="42.91477" lon="2.19845">
        <ele>273.32</ele>
        <time>2024-09-19T15:47:58.000Z</time>
      </trkpt>
      <trkpt lat="42.91466" lon="2.19812">
        <ele>273.43</ele>
        <time>2024-09-19T15:48:03.000Z</time>
      </trkpt>
      <trkpt lat="42.91455" lon="2.19781">
        <ele>273.57</ele>
        <time>2024-09-19T15:48:08.000Z</time>
      </trkpt>
      <trkpt lat="42.91438" lon="2.19756">
        <ele>273.82</ele>
        <time>2024-09-19T15:48:13.000Z</time>
      </trkpt>
      <trkpt lat="42.91417" lon="2.1973">
        <ele>274.09</ele>
        <time>2024-09-19T15:48:18.000Z</time>
      </trkpt>
      <trkpt lat="42.91395" lon="2.19705">
        <ele>274.23</ele>
        <time>2024-09-19T15:48:23.000Z</time>
      </trkpt>
      <trkpt lat="42.91375" lon="2.19681">
        <ele>274.27</ele>
        <time>2024-09-19T15:48:28.000Z</time>
      </trkpt>
      <trkpt lat="42.91351" lon="2.19658">
        <ele>274.32</ele>
        <time>2024-09-19T15:48:33.000Z</time>
      </trkpt>
      <trkpt lat="42.91327" lon="2.19637">
        <ele>274.35</ele>
        <time>2024-09-19T15:48:38.000Z</time>
      </trkpt>
      <trkpt lat="42.91304" lon="2.19618">
        <ele>274.49</ele>
        <time>2024-09-19T15:48:43.000Z</time>
      </trkpt>
      <trkpt lat="42.9128" lon="2.19596">
        <ele>274.65</ele>
        <time>2024-09-19T15:48:48.000Z</time>
      </trkpt>
      <trkpt lat="42.91254" lon="2.19573">
        <ele>274.81</ele>
        <time>2024-09-19T15:48:53.000Z</time>
      </trkpt>
      <trkpt lat="42.9123" lon="2.19553">
        <ele>274.98</ele>
        <time>2024-09-19T15:48:58.000Z</time>
      </trkpt>
      <trkpt lat="42.91207" lon="2.19533">
        <ele>275.2</ele>
        <time>2024-09-19T15:49:03.000Z</time>
      </trkpt>
      <trkpt lat="42.91181" lon="2.19513">
        <ele>275.35</ele>
        <time>2024-09-19T15:49:08.000Z</time>
      </trkpt>
      <trkpt lat="42.91158" lon="2.19494">
        <ele>275.56</ele>
        <time>2024-09-19T15:49:13.000Z</time>
      </trkpt>
      <trkpt lat="42.91136" lon="2.19475">
        <ele>275.8</ele>
        <time>2024-09-19T15:49:18.000Z</time>
      </trkpt>
      <trkpt lat="42.91114" lon="2.19456">
        <ele>275.96</ele>
        <time>2024-09-19T15:49:23.000Z</time>
      </trkpt>
      <trkpt lat="42.91093" lon="2.19439">
        <ele>276.1</ele>
        <time>2024-09-19T15:49:28.000Z</time>
      </trkpt>
      <trkpt lat="42.91072" lon="2.19422">
        <ele>276.27</ele>
        <time>2024-09-19T15:49:33.000Z</time>
      </trkpt>
      <trkpt lat="42.91048" lon="2.19403">
        <ele>276.43</ele>
        <time>2024-09-19T15:49:38.000Z</time>
      </trkpt>
      <trkpt lat="42.91022" lon="2.19386">
        <ele>276.42</ele>
        <time>2024-09-19T15:49:43.000Z</time>
      </trkpt>
      <trkpt lat="42.91" lon="2.19368">
        <ele>276.32</ele>
        <time>2024-09-19T15:49:48.000Z</time>
      </trkpt>
      <trkpt lat="42.90978" lon="2.19352">
        <ele>276.17</ele>
        <time>2024-09-19T15:49:53.000Z</time>
      </trkpt>
      <trkpt lat="42.90955" lon="2.19334">
        <ele>276.03</ele>
        <time>2024-09-19T15:49:58.000Z</time>
      </trkpt>
      <trkpt lat="42.90934" lon="2.19316">
        <ele>276</ele>
        <time>2024-09-19T15:50:03.000Z</time>
      </trkpt>
      <trkpt lat="42.90915" lon="2.19293">
        <ele>276.05</ele>
        <time>2024-09-19T15:50:08.000Z</time>
      </trkpt>
      <trkpt lat="42.90902" lon="2.19263">
        <ele>276.19</ele>
        <time>2024-09-19T15:50:13.000Z</time>
      </trkpt>
      <trkpt lat="42.90886" lon="2.19233">
        <ele>276.35</ele>
        <time>2024-09-19T15:50:18.000Z</time>
      </trkpt>
      <trkpt lat="42.90872" lon="2.19205">
        <ele>276.47</ele>
        <time>2024-09-19T15:50:23.000Z</time>
      </trkpt>
      <trkpt lat="42.90858" lon="2.19173">
        <ele>276.64</ele>
        <time>2024-09-19T15:50:28.000Z</time>
      </trkpt>
      <trkpt lat="42.90845" lon="2.19144">
        <ele>276.85</ele>
        <time>2024-09-19T15:50:33.000Z</time>
      </trkpt>
      <trkpt lat="42.90833" lon="2.19113">
        <ele>276.92</ele>
        <time>2024-09-19T15:50:38.000Z</time>
      </trkpt>
      <trkpt lat="42.90819" lon="2.19082">
        <ele>276.97</ele>
        <time>2024-09-19T15:50:43.000Z</time>
      </trkpt>
      <trkpt lat="42.90805" lon="2.19051">
        <ele>277.02</ele>
        <time>2024-09-19T15:50:48.000Z</time>
      </trkpt>
      <trkpt lat="42.90793" lon="2.19021">
        <ele>277.11</ele>
        <time>2024-09-19T15:50:53.000Z</time>
      </trkpt>
      <trkpt lat="42.9078" lon="2.18989">
        <ele>277.23</ele>
        <time>2024-09-19T15:50:58.000Z</time>
      </trkpt>
      <trkpt lat="42.90768" lon="2.18961">
        <ele>277.35</ele>
        <time>2024-09-19T15:51:03.000Z</time>
      </trkpt>
      <trkpt lat="42.90758" lon="2.18936">
        <ele>277.41</ele>
        <time>2024-09-19T15:51:08.000Z</time>
      </trkpt>
      <trkpt lat="42.90747" lon="2.1891">
        <ele>277.52</ele>
        <time>2024-09-19T15:51:13.000Z</time>
      </trkpt>
      <trkpt lat="42.90736" lon="2.18886">
        <ele>277.61</ele>
        <time>2024-09-19T15:51:18.000Z</time>
      </trkpt>
      <trkpt lat="42.90724" lon="2.18866">
        <ele>277.64</ele>
        <time>2024-09-19T15:51:23.000Z</time>
      </trkpt>
      <trkpt lat="42.90714" lon="2.18849">
        <ele>277.64</ele>
        <time>2024-09-19T15:51:28.000Z</time>
      </trkpt>
      <trkpt lat="42.90713" lon="2.18828">
        <ele>277.64</ele>
        <time>2024-09-19T15:51:33.000Z</time>
      </trkpt>
      <trkpt lat="42.907" lon="2.18815">
        <ele>277.67</ele>
        <time>2024-09-19T15:51:38.000Z</time>
      </trkpt>
      <trkpt lat="42.90691" lon="2.18807">
        <ele>277.69</ele>
        <time>2024-09-19T15:51:43.000Z</time>
      </trkpt>
      <trkpt lat="42.90683" lon="2.18812">
        <ele>279.28</ele>
        <time>2024-09-19T15:53:37.000Z</time>
      </trkpt>
      <trkpt lat="42.90663" lon="2.18818">
        <ele>279.58</ele>
        <time>2024-09-19T15:53:42.000Z</time>
      </trkpt>
      <trkpt lat="42.90642" lon="2.18824">
        <ele>281.08</ele>
        <time>2024-09-19T15:53:47.000Z</time>
      </trkpt>
      <trkpt lat="42.9062" lon="2.18814">
        <ele>281.63</ele>
        <time>2024-09-19T15:53:52.000Z</time>
      </trkpt>
      <trkpt lat="42.90601" lon="2.18803">
        <ele>281.84</ele>
        <time>2024-09-19T15:53:57.000Z</time>
      </trkpt>
      <trkpt lat="42.90581" lon="2.18793">
        <ele>281.81</ele>
        <time>2024-09-19T15:54:02.000Z</time>
      </trkpt>
      <trkpt lat="42.90559" lon="2.18785">
        <ele>281.7</ele>
        <time>2024-09-19T15:54:07.000Z</time>
      </trkpt>
      <trkpt lat="42.90538" lon="2.1878">
        <ele>281.54</ele>
        <time>2024-09-19T15:54:12.000Z</time>
      </trkpt>
      <trkpt lat="42.90516" lon="2.18773">
        <ele>281.4</ele>
        <time>2024-09-19T15:54:17.000Z</time>
      </trkpt>
      <trkpt lat="42.90489" lon="2.18767">
        <ele>281.21</ele>
        <time>2024-09-19T15:54:22.999Z</time>
      </trkpt>
      <trkpt lat="42.90464" lon="2.18765">
        <ele>281.08</ele>
        <time>2024-09-19T15:54:27.999Z</time>
      </trkpt>
      <trkpt lat="42.90441" lon="2.18762">
        <ele>280.99</ele>
        <time>2024-09-19T15:54:32.999Z</time>
      </trkpt>
      <trkpt lat="42.90419" lon="2.18764">
        <ele>280.86</ele>
        <time>2024-09-19T15:54:37.999Z</time>
      </trkpt>
      <trkpt lat="42.90399" lon="2.18762">
        <ele>280.75</ele>
        <time>2024-09-19T15:54:42.999Z</time>
      </trkpt>
      <trkpt lat="42.90375" lon="2.18763">
        <ele>280.59</ele>
        <time>2024-09-19T15:54:47.999Z</time>
      </trkpt>
      <trkpt lat="42.90352" lon="2.18762">
        <ele>280.43</ele>
        <time>2024-09-19T15:54:52.999Z</time>
      </trkpt>
      <trkpt lat="42.9033" lon="2.18761">
        <ele>280.28</ele>
        <time>2024-09-19T15:54:57.999Z</time>
      </trkpt>
      <trkpt lat="42.90308" lon="2.18758">
        <ele>280.12</ele>
        <time>2024-09-19T15:55:02.999Z</time>
      </trkpt>
      <trkpt lat="42.90287" lon="2.18757">
        <ele>280.07</ele>
        <time>2024-09-19T15:55:07.999Z</time>
      </trkpt>
      <trkpt lat="42.90265" lon="2.18756">
        <ele>280.24</ele>
        <time>2024-09-19T15:55:12.999Z</time>
      </trkpt>
      <trkpt lat="42.90246" lon="2.18754">
        <ele>280.39</ele>
        <time>2024-09-19T15:55:17.999Z</time>
      </trkpt>
      <trkpt lat="42.90224" lon="2.18752">
        <ele>280.79</ele>
        <time>2024-09-19T15:55:22.999Z</time>
      </trkpt>
      <trkpt lat="42.90204" lon="2.18751">
        <ele>281.17</ele>
        <time>2024-09-19T15:55:27.999Z</time>
      </trkpt>
      <trkpt lat="42.90182" lon="2.18751">
        <ele>281.59</ele>
        <time>2024-09-19T15:55:32.999Z</time>
      </trkpt>
      <trkpt lat="42.90163" lon="2.18749">
        <ele>281.97</ele>
        <time>2024-09-19T15:55:37.999Z</time>
      </trkpt>
      <trkpt lat="42.90143" lon="2.18743">
        <ele>282.41</ele>
        <time>2024-09-19T15:55:42.999Z</time>
      </trkpt>
      <trkpt lat="42.90127" lon="2.18728">
        <ele>282.89</ele>
        <time>2024-09-19T15:55:47.999Z</time>
      </trkpt>
      <trkpt lat="42.90117" lon="2.18707">
        <ele>283.13</ele>
        <time>2024-09-19T15:55:52.999Z</time>
      </trkpt>
      <trkpt lat="42.90104" lon="2.18682">
        <ele>283.45</ele>
        <time>2024-09-19T15:55:57.999Z</time>
      </trkpt>
      <trkpt lat="42.90082" lon="2.18658">
        <ele>283.71</ele>
        <time>2024-09-19T15:56:02.999Z</time>
      </trkpt>
      <trkpt lat="42.90053" lon="2.18637">
        <ele>283.97</ele>
        <time>2024-09-19T15:56:07.999Z</time>
      </trkpt>
      <trkpt lat="42.90021" lon="2.18617">
        <ele>284.33</ele>
        <time>2024-09-19T15:56:12.999Z</time>
      </trkpt>
      <trkpt lat="42.8999" lon="2.18599">
        <ele>284.6</ele>
        <time>2024-09-19T15:56:17.999Z</time>
      </trkpt>
      <trkpt lat="42.8996" lon="2.18585">
        <ele>284.66</ele>
        <time>2024-09-19T15:56:22.999Z</time>
      </trkpt>
      <trkpt lat="42.89928" lon="2.18576">
        <ele>283.87</ele>
        <time>2024-09-19T15:56:27.999Z</time>
      </trkpt>
      <trkpt lat="42.89903" lon="2.18572">
        <ele>283.18</ele>
        <time>2024-09-19T15:56:32.999Z</time>
      </trkpt>
      <trkpt lat="42.89875" lon="2.18569">
        <ele>283.41</ele>
        <time>2024-09-19T15:56:37.999Z</time>
      </trkpt>
      <trkpt lat="42.89853" lon="2.18568">
        <ele>283.89</ele>
        <time>2024-09-19T15:56:42.999Z</time>
      </trkpt>
      <trkpt lat="42.89832" lon="2.18568">
        <ele>284.35</ele>
        <time>2024-09-19T15:56:47.999Z</time>
      </trkpt>
      <trkpt lat="42.89809" lon="2.18571">
        <ele>284.6</ele>
        <time>2024-09-19T15:56:52.999Z</time>
      </trkpt>
      <trkpt lat="42.89782" lon="2.18578">
        <ele>283.58</ele>
        <time>2024-09-19T15:56:57.999Z</time>
      </trkpt>
      <trkpt lat="42.89758" lon="2.18585">
        <ele>282.53</ele>
        <time>2024-09-19T15:57:02.999Z</time>
      </trkpt>
      <trkpt lat="42.89734" lon="2.18596">
        <ele>282.32</ele>
        <time>2024-09-19T15:57:07.999Z</time>
      </trkpt>
      <trkpt lat="42.89712" lon="2.18613">
        <ele>282.23</ele>
        <time>2024-09-19T15:57:12.999Z</time>
      </trkpt>
      <trkpt lat="42.8969" lon="2.18636">
        <ele>282.25</ele>
        <time>2024-09-19T15:57:17.999Z</time>
      </trkpt>
      <trkpt lat="42.8967" lon="2.1866">
        <ele>282.45</ele>
        <time>2024-09-19T15:57:22.999Z</time>
      </trkpt>
      <trkpt lat="42.8965" lon="2.18683">
        <ele>282.66</ele>
        <time>2024-09-19T15:57:27.999Z</time>
      </trkpt>
      <trkpt lat="42.89625" lon="2.18707">
        <ele>282.93</ele>
        <time>2024-09-19T15:57:32.999Z</time>
      </trkpt>
      <trkpt lat="42.89601" lon="2.18737">
        <ele>283.09</ele>
        <time>2024-09-19T15:57:37.999Z</time>
      </trkpt>
      <trkpt lat="42.89581" lon="2.18767">
        <ele>282.95</ele>
        <time>2024-09-19T15:57:42.999Z</time>
      </trkpt>
      <trkpt lat="42.89564" lon="2.18799">
        <ele>282.89</ele>
        <time>2024-09-19T15:57:47.999Z</time>
      </trkpt>
      <trkpt lat="42.89547" lon="2.18835">
        <ele>282.81</ele>
        <time>2024-09-19T15:57:52.999Z</time>
      </trkpt>
      <trkpt lat="42.8953" lon="2.18869">
        <ele>282.8</ele>
        <time>2024-09-19T15:57:57.999Z</time>
      </trkpt>
      <trkpt lat="42.89515" lon="2.18902">
        <ele>282.9</ele>
        <time>2024-09-19T15:58:02.999Z</time>
      </trkpt>
      <trkpt lat="42.895" lon="2.18927">
        <ele>282.95</ele>
        <time>2024-09-19T15:58:07.999Z</time>
      </trkpt>
      <trkpt lat="42.89486" lon="2.18948">
        <ele>283.01</ele>
        <time>2024-09-19T15:58:12.999Z</time>
      </trkpt>
      <trkpt lat="42.89474" lon="2.18965">
        <ele>283.03</ele>
        <time>2024-09-19T15:58:17.999Z</time>
      </trkpt>
      <trkpt lat="42.89461" lon="2.18981">
        <ele>283.08</ele>
        <time>2024-09-19T15:58:22.999Z</time>
      </trkpt>
      <trkpt lat="42.89445" lon="2.18999">
        <ele>283.45</ele>
        <time>2024-09-19T15:58:27.999Z</time>
      </trkpt>
      <trkpt lat="42.89429" lon="2.19016">
        <ele>283.74</ele>
        <time>2024-09-19T15:58:32.999Z</time>
      </trkpt>
      <trkpt lat="42.89411" lon="2.1903">
        <ele>283.95</ele>
        <time>2024-09-19T15:58:37.999Z</time>
      </trkpt>
      <trkpt lat="42.89394" lon="2.19043">
        <ele>284.24</ele>
        <time>2024-09-19T15:58:42.999Z</time>
      </trkpt>
      <trkpt lat="42.89373" lon="2.19061">
        <ele>284.8</ele>
        <time>2024-09-19T15:58:47.999Z</time>
      </trkpt>
      <trkpt lat="42.89349" lon="2.19092">
        <ele>285.27</ele>
        <time>2024-09-19T15:58:52.999Z</time>
      </trkpt>
      <trkpt lat="42.89329" lon="2.19117">
        <ele>285.91</ele>
        <time>2024-09-19T15:58:57.999Z</time>
      </trkpt>
      <trkpt lat="42.89304" lon="2.19135">
        <ele>286.5</ele>
        <time>2024-09-19T15:59:02.999Z</time>
      </trkpt>
      <trkpt lat="42.89278" lon="2.19146">
        <ele>287.27</ele>
        <time>2024-09-19T15:59:07.999Z</time>
      </trkpt>
      <trkpt lat="42.89248" lon="2.19152">
        <ele>287.96</ele>
        <time>2024-09-19T15:59:12.999Z</time>
      </trkpt>
      <trkpt lat="42.8922" lon="2.19141">
        <ele>288.37</ele>
        <time>2024-09-19T15:59:17.999Z</time>
      </trkpt>
      <trkpt lat="42.89194" lon="2.19133">
        <ele>288.95</ele>
        <time>2024-09-19T15:59:22.999Z</time>
      </trkpt>
      <trkpt lat="42.89166" lon="2.19128">
        <ele>289.35</ele>
        <time>2024-09-19T15:59:27.999Z</time>
      </trkpt>
      <trkpt lat="42.8914" lon="2.19123">
        <ele>289.67</ele>
        <time>2024-09-19T15:59:32.999Z</time>
      </trkpt>
      <trkpt lat="42.89115" lon="2.19115">
        <ele>289.9</ele>
        <time>2024-09-19T15:59:37.999Z</time>
      </trkpt>
      <trkpt lat="42.89089" lon="2.19106">
        <ele>290.08</ele>
        <time>2024-09-19T15:59:42.999Z</time>
      </trkpt>
      <trkpt lat="42.89063" lon="2.19097">
        <ele>290.25</ele>
        <time>2024-09-19T15:59:47.999Z</time>
      </trkpt>
      <trkpt lat="42.8904" lon="2.19088">
        <ele>290.47</ele>
        <time>2024-09-19T15:59:52.999Z</time>
      </trkpt>
      <trkpt lat="42.89021" lon="2.19085">
        <ele>290.62</ele>
        <time>2024-09-19T15:59:57.999Z</time>
      </trkpt>
      <trkpt lat="42.89005" lon="2.19086">
        <ele>290.66</ele>
        <time>2024-09-19T16:00:02.999Z</time>
      </trkpt>
      <trkpt lat="42.88988" lon="2.19085">
        <ele>290.72</ele>
        <time>2024-09-19T16:00:07.999Z</time>
      </trkpt>
      <trkpt lat="42.88968" lon="2.19086">
        <ele>291.1</ele>
        <time>2024-09-19T16:00:12.999Z</time>
      </trkpt>
      <trkpt lat="42.88945" lon="2.19087">
        <ele>291.18</ele>
        <time>2024-09-19T16:00:17.999Z</time>
      </trkpt>
      <trkpt lat="42.88919" lon="2.19087">
        <ele>291.15</ele>
        <time>2024-09-19T16:00:22.999Z</time>
      </trkpt>
      <trkpt lat="42.88891" lon="2.19089">
        <ele>291.08</ele>
        <time>2024-09-19T16:00:27.999Z</time>
      </trkpt>
      <trkpt lat="42.88861" lon="2.1909">
        <ele>291.01</ele>
        <time>2024-09-19T16:00:32.999Z</time>
      </trkpt>
      <trkpt lat="42.88833" lon="2.19091">
        <ele>290.93</ele>
        <time>2024-09-19T16:00:37.999Z</time>
      </trkpt>
      <trkpt lat="42.88805" lon="2.19092">
        <ele>290.84</ele>
        <time>2024-09-19T16:00:42.999Z</time>
      </trkpt>
      <trkpt lat="42.88778" lon="2.19092">
        <ele>290.74</ele>
        <time>2024-09-19T16:00:47.999Z</time>
      </trkpt>
      <trkpt lat="42.88752" lon="2.19093">
        <ele>290.62</ele>
        <time>2024-09-19T16:00:52.999Z</time>
      </trkpt>
      <trkpt lat="42.88727" lon="2.19095">
        <ele>290.5</ele>
        <time>2024-09-19T16:00:57.999Z</time>
      </trkpt>
      <trkpt lat="42.88701" lon="2.19096">
        <ele>290.39</ele>
        <time>2024-09-19T16:01:02.999Z</time>
      </trkpt>
      <trkpt lat="42.88674" lon="2.19087">
        <ele>290.27</ele>
        <time>2024-09-19T16:01:07.999Z</time>
      </trkpt>
      <trkpt lat="42.88649" lon="2.19068">
        <ele>290.13</ele>
        <time>2024-09-19T16:01:12.999Z</time>
      </trkpt>
      <trkpt lat="42.88626" lon="2.19045">
        <ele>290.07</ele>
        <time>2024-09-19T16:01:17.999Z</time>
      </trkpt>
      <trkpt lat="42.88606" lon="2.19023">
        <ele>290.06</ele>
        <time>2024-09-19T16:01:22.999Z</time>
      </trkpt>
      <trkpt lat="42.88584" lon="2.18996">
        <ele>290.06</ele>
        <time>2024-09-19T16:01:27.999Z</time>
      </trkpt>
      <trkpt lat="42.88566" lon="2.18965">
        <ele>290.03</ele>
        <time>2024-09-19T16:01:32.999Z</time>
      </trkpt>
      <trkpt lat="42.88547" lon="2.18935">
        <ele>290</ele>
        <time>2024-09-19T16:01:37.999Z</time>
      </trkpt>
      <trkpt lat="42.8852" lon="2.1892">
        <ele>289.94</ele>
        <time>2024-09-19T16:01:42.999Z</time>
      </trkpt>
      <trkpt lat="42.88492" lon="2.18914">
        <ele>289.88</ele>
        <time>2024-09-19T16:01:47.999Z</time>
      </trkpt>
      <trkpt lat="42.88464" lon="2.1891">
        <ele>289.79</ele>
        <time>2024-09-19T16:01:52.999Z</time>
      </trkpt>
      <trkpt lat="42.88435" lon="2.1891">
        <ele>289.66</ele>
        <time>2024-09-19T16:01:57.999Z</time>
      </trkpt>
      <trkpt lat="42.88411" lon="2.18911">
        <ele>289.53</ele>
        <time>2024-09-19T16:02:02.999Z</time>
      </trkpt>
      <trkpt lat="42.88385" lon="2.1891">
        <ele>289.4</ele>
        <time>2024-09-19T16:02:07.999Z</time>
      </trkpt>
      <trkpt lat="42.88359" lon="2.18908">
        <ele>289.29</ele>
        <time>2024-09-19T16:02:12.999Z</time>
      </trkpt>
      <trkpt lat="42.8833" lon="2.18911">
        <ele>289.15</ele>
        <time>2024-09-19T16:02:17.999Z</time>
      </trkpt>
      <trkpt lat="42.88304" lon="2.18913">
        <ele>289.02</ele>
        <time>2024-09-19T16:02:22.999Z</time>
      </trkpt>
      <trkpt lat="42.88281" lon="2.18913">
        <ele>288.86</ele>
        <time>2024-09-19T16:02:27.999Z</time>
      </trkpt>
      <trkpt lat="42.88258" lon="2.18917">
        <ele>288.69</ele>
        <time>2024-09-19T16:02:32.999Z</time>
      </trkpt>
      <trkpt lat="42.88236" lon="2.1892">
        <ele>288.59</ele>
        <time>2024-09-19T16:02:37.999Z</time>
      </trkpt>
      <trkpt lat="42.88216" lon="2.1892">
        <ele>288.47</ele>
        <time>2024-09-19T16:02:42.999Z</time>
      </trkpt>
      <trkpt lat="42.88195" lon="2.18914">
        <ele>288.28</ele>
        <time>2024-09-19T16:02:47.999Z</time>
      </trkpt>
      <trkpt lat="42.88174" lon="2.18907">
        <ele>288.11</ele>
        <time>2024-09-19T16:02:52.999Z</time>
      </trkpt>
      <trkpt lat="42.8815" lon="2.18898">
        <ele>287.98</ele>
        <time>2024-09-19T16:02:57.999Z</time>
      </trkpt>
      <trkpt lat="42.88128" lon="2.18885">
        <ele>287.92</ele>
        <time>2024-09-19T16:03:02.999Z</time>
      </trkpt>
      <trkpt lat="42.8811" lon="2.18867">
        <ele>287.87</ele>
        <time>2024-09-19T16:03:07.999Z</time>
      </trkpt>
      <trkpt lat="42.88094" lon="2.1885">
        <ele>287.82</ele>
        <time>2024-09-19T16:03:12.999Z</time>
      </trkpt>
      <trkpt lat="42.88076" lon="2.18831">
        <ele>287.83</ele>
        <time>2024-09-19T16:03:17.999Z</time>
      </trkpt>
      <trkpt lat="42.88062" lon="2.18807">
        <ele>287.85</ele>
        <time>2024-09-19T16:03:22.999Z</time>
      </trkpt>
      <trkpt lat="42.88046" lon="2.18786">
        <ele>287.86</ele>
        <time>2024-09-19T16:03:27.999Z</time>
      </trkpt>
      <trkpt lat="42.8803" lon="2.18765">
        <ele>287.88</ele>
        <time>2024-09-19T16:03:32.999Z</time>
      </trkpt>
      <trkpt lat="42.88016" lon="2.18743">
        <ele>287.9</ele>
        <time>2024-09-19T16:03:37.999Z</time>
      </trkpt>
      <trkpt lat="42.87998" lon="2.18717">
        <ele>287.97</ele>
        <time>2024-09-19T16:03:42.999Z</time>
      </trkpt>
      <trkpt lat="42.87982" lon="2.18691">
        <ele>288.02</ele>
        <time>2024-09-19T16:03:47.999Z</time>
      </trkpt>
      <trkpt lat="42.87967" lon="2.18663">
        <ele>288.05</ele>
        <time>2024-09-19T16:03:52.999Z</time>
      </trkpt>
      <trkpt lat="42.8795" lon="2.18637">
        <ele>288.1</ele>
        <time>2024-09-19T16:03:57.999Z</time>
      </trkpt>
      <trkpt lat="42.87931" lon="2.18617">
        <ele>288.12</ele>
        <time>2024-09-19T16:04:02.999Z</time>
      </trkpt>
      <trkpt lat="42.87909" lon="2.186">
        <ele>288.13</ele>
        <time>2024-09-19T16:04:07.999Z</time>
      </trkpt>
      <trkpt lat="42.87889" lon="2.18586">
        <ele>288.15</ele>
        <time>2024-09-19T16:04:12.999Z</time>
      </trkpt>
      <trkpt lat="42.87872" lon="2.18567">
        <ele>288.16</ele>
        <time>2024-09-19T16:04:17.999Z</time>
      </trkpt>
      <trkpt lat="42.87858" lon="2.18547">
        <ele>288.18</ele>
        <time>2024-09-19T16:04:22.999Z</time>
      </trkpt>
      <trkpt lat="42.87849" lon="2.18528">
        <ele>288.18</ele>
        <time>2024-09-19T16:04:27.999Z</time>
      </trkpt>
      <trkpt lat="42.87842" lon="2.18509">
        <ele>288.19</ele>
        <time>2024-09-19T16:04:32.999Z</time>
      </trkpt>
      <trkpt lat="42.87835" lon="2.18488">
        <ele>288.2</ele>
        <time>2024-09-19T16:04:37.999Z</time>
      </trkpt>
      <trkpt lat="42.87827" lon="2.18465">
        <ele>288.24</ele>
        <time>2024-09-19T16:04:42.999Z</time>
      </trkpt>
      <trkpt lat="42.87819" lon="2.18441">
        <ele>288.29</ele>
        <time>2024-09-19T16:04:47.999Z</time>
      </trkpt>
      <trkpt lat="42.87806" lon="2.18422">
        <ele>288.42</ele>
        <time>2024-09-19T16:04:52.999Z</time>
      </trkpt>
      <trkpt lat="42.87789" lon="2.18412">
        <ele>288.49</ele>
        <time>2024-09-19T16:04:57.999Z</time>
      </trkpt>
      <trkpt lat="42.87778" lon="2.18413">
        <ele>288.52</ele>
        <time>2024-09-19T16:05:02.999Z</time>
      </trkpt>
      <trkpt lat="42.87769" lon="2.18418">
        <ele>288.61</ele>
        <time>2024-09-19T16:05:19.999Z</time>
      </trkpt>
      <trkpt lat="42.8776" lon="2.18422">
        <ele>288.67</ele>
        <time>2024-09-19T16:05:24.999Z</time>
      </trkpt>
      <trkpt lat="42.87756" lon="2.18433">
        <ele>291.38</ele>
        <time>2024-09-19T16:10:00.000Z</time>
      </trkpt>
      <trkpt lat="42.87759" lon="2.18455">
        <ele>291.76</ele>
        <time>2024-09-19T16:10:05.000Z</time>
      </trkpt>
      <trkpt lat="42.87762" lon="2.18481">
        <ele>293.19</ele>
        <time>2024-09-19T16:10:10.000Z</time>
      </trkpt>
      <trkpt lat="42.87764" lon="2.18508">
        <ele>294.46</ele>
        <time>2024-09-19T16:10:15.000Z</time>
      </trkpt>
      <trkpt lat="42.87767" lon="2.18537">
        <ele>295.14</ele>
        <time>2024-09-19T16:10:20.000Z</time>
      </trkpt>
      <trkpt lat="42.87771" lon="2.18568">
        <ele>295.38</ele>
        <time>2024-09-19T16:10:25.000Z</time>
      </trkpt>
      <trkpt lat="42.87774" lon="2.18604">
        <ele>295.47</ele>
        <time>2024-09-19T16:10:30.000Z</time>
      </trkpt>
      <trkpt lat="42.87778" lon="2.18641">
        <ele>295.54</ele>
        <time>2024-09-19T16:10:35.000Z</time>
      </trkpt>
      <trkpt lat="42.87781" lon="2.18676">
        <ele>295.58</ele>
        <time>2024-09-19T16:10:40.000Z</time>
      </trkpt>
      <trkpt lat="42.87783" lon="2.18704">
        <ele>295.6</ele>
        <time>2024-09-19T16:10:45.000Z</time>
      </trkpt>
      <trkpt lat="42.87786" lon="2.1873">
        <ele>295.61</ele>
        <time>2024-09-19T16:10:50.000Z</time>
      </trkpt>
      <trkpt lat="42.87788" lon="2.18756">
        <ele>295.63</ele>
        <time>2024-09-19T16:10:55.000Z</time>
      </trkpt>
      <trkpt lat="42.8779" lon="2.18777">
        <ele>295.64</ele>
        <time>2024-09-19T16:11:00.000Z</time>
      </trkpt>
      <trkpt lat="42.8779" lon="2.18794">
        <ele>295.65</ele>
        <time>2024-09-19T16:11:05.000Z</time>
      </trkpt>
      <trkpt lat="42.87796" lon="2.18808">
        <ele>295.67</ele>
        <time>2024-09-19T16:11:10.000Z</time>
      </trkpt>
      <trkpt lat="42.87805" lon="2.18826">
        <ele>295.69</ele>
        <time>2024-09-19T16:11:15.000Z</time>
      </trkpt>
      <trkpt lat="42.8782" lon="2.18837">
        <ele>295.72</ele>
        <time>2024-09-19T16:11:20.000Z</time>
      </trkpt>
      <trkpt lat="42.87835" lon="2.18845">
        <ele>295.75</ele>
        <time>2024-09-19T16:11:25.000Z</time>
      </trkpt>
      <trkpt lat="42.87853" lon="2.18857">
        <ele>295.97</ele>
        <time>2024-09-19T16:11:30.000Z</time>
      </trkpt>
      <trkpt lat="42.87877" lon="2.18869">
        <ele>296.2</ele>
        <time>2024-09-19T16:11:35.000Z</time>
      </trkpt>
      <trkpt lat="42.87903" lon="2.18884">
        <ele>296.34</ele>
        <time>2024-09-19T16:11:40.000Z</time>
      </trkpt>
      <trkpt lat="42.87928" lon="2.189">
        <ele>296.43</ele>
        <time>2024-09-19T16:11:45.000Z</time>
      </trkpt>
      <trkpt lat="42.87952" lon="2.18914">
        <ele>296.48</ele>
        <time>2024-09-19T16:11:50.000Z</time>
      </trkpt>
      <trkpt lat="42.87975" lon="2.18928">
        <ele>296.54</ele>
        <time>2024-09-19T16:11:55.000Z</time>
      </trkpt>
      <trkpt lat="42.87998" lon="2.18942">
        <ele>296.59</ele>
        <time>2024-09-19T16:12:00.000Z</time>
      </trkpt>
      <trkpt lat="42.8802" lon="2.18955">
        <ele>296.62</ele>
        <time>2024-09-19T16:12:05.000Z</time>
      </trkpt>
      <trkpt lat="42.88043" lon="2.18969">
        <ele>296.65</ele>
        <time>2024-09-19T16:12:10.000Z</time>
      </trkpt>
      <trkpt lat="42.88065" lon="2.18983">
        <ele>296.71</ele>
        <time>2024-09-19T16:12:15.000Z</time>
      </trkpt>
      <trkpt lat="42.88087" lon="2.18997">
        <ele>296.75</ele>
        <time>2024-09-19T16:12:20.000Z</time>
      </trkpt>
      <trkpt lat="42.88106" lon="2.19009">
        <ele>296.78</ele>
        <time>2024-09-19T16:12:25.000Z</time>
      </trkpt>
      <trkpt lat="42.88123" lon="2.19019">
        <ele>296.79</ele>
        <time>2024-09-19T16:12:30.000Z</time>
      </trkpt>
      <trkpt lat="42.88137" lon="2.19028">
        <ele>296.79</ele>
        <time>2024-09-19T16:12:35.000Z</time>
      </trkpt>
      <trkpt lat="42.88147" lon="2.19036">
        <ele>296.8</ele>
        <time>2024-09-19T16:12:40.000Z</time>
      </trkpt>
      <trkpt lat="42.88158" lon="2.19044">
        <ele>296.81</ele>
        <time>2024-09-19T16:12:45.000Z</time>
      </trkpt>
      <trkpt lat="42.88172" lon="2.19052">
        <ele>296.82</ele>
        <time>2024-09-19T16:12:50.000Z</time>
      </trkpt>
      <trkpt lat="42.88185" lon="2.19058">
        <ele>296.84</ele>
        <time>2024-09-19T16:12:55.000Z</time>
      </trkpt>
      <trkpt lat="42.88196" lon="2.19058">
        <ele>296.86</ele>
        <time>2024-09-19T16:13:01.000Z</time>
      </trkpt>
      <trkpt lat="42.88209" lon="2.19056">
        <ele>296.88</ele>
        <time>2024-09-19T16:13:06.000Z</time>
      </trkpt>
      <trkpt lat="42.88229" lon="2.19052">
        <ele>296.94</ele>
        <time>2024-09-19T16:13:11.000Z</time>
      </trkpt>
      <trkpt lat="42.88251" lon="2.19045">
        <ele>297.03</ele>
        <time>2024-09-19T16:13:16.000Z</time>
      </trkpt>
      <trkpt lat="42.88272" lon="2.19039">
        <ele>297.07</ele>
        <time>2024-09-19T16:13:21.000Z</time>
      </trkpt>
      <trkpt lat="42.88282" lon="2.19036">
        <ele>297.07</ele>
        <time>2024-09-19T16:13:26.000Z</time>
      </trkpt>
      <trkpt lat="42.88288" lon="2.19027">
        <ele>297.33</ele>
        <time>2024-09-19T16:15:04.000Z</time>
      </trkpt>
      <trkpt lat="42.8828" lon="2.19033">
        <ele>298.18</ele>
        <time>2024-09-19T16:18:52.999Z</time>
      </trkpt>
      <trkpt lat="42.88279" lon="2.1902">
        <ele>298.32</ele>
        <time>2024-09-19T16:19:40.999Z</time>
      </trkpt>
    </trkseg>
  </trk>
</gpx>